<?xml version="1.0" encoding="UTF-8" standalone="no" ?>
<gpx xmlns="http://www.topografix.com/GPX/1/1" xmlns:xsi="http://www.w3.org/2001/XMLSchema-instance" xsi:schemaLocation="http://www.topografix.com/GPX/1/1 http://www.topografix.com/GPX/1/1/gpx.xsd" version="1.1" creator="VisuGPX - https://www.visugpx.com">
  <metadata>
    <name>Port-Lesney - Rennes-sur-Loue - Buffard - Champagne-sur-Loue - et retour </name>
    <desc><![CDATA[Randonnée pédestre effectuée le 17 mars 2022
]]></desc>
  </metadata>
  <trk>
    <name><![CDATA[Port-Leney 20220317]]></name>
    <desc><![CDATA[Rando MVa]]></desc>
    <extensions>
      <line xmlns="http://www.topografix.com/GPX/gpx_style/0/2">
        <color>0000FF</color>
        <width>4</width>
      </line>
    </extensions>
    <trkseg>
      <trkpt lat="47.00377" lon="5.82273">
        <ele>247</ele>
        <time>2022-03-17T07:40:03.265Z</time>
      </trkpt>
      <trkpt lat="47.00364" lon="5.82283">
        <ele>249</ele>
        <time>2022-03-17T07:43:27.336Z</time>
      </trkpt>
      <trkpt lat="47.00363" lon="5.82288">
        <ele>249</ele>
        <time>2022-03-17T07:43:32.362Z</time>
      </trkpt>
      <trkpt lat="47.00365" lon="5.82297">
        <ele>250</ele>
        <time>2022-03-17T07:43:37.356Z</time>
      </trkpt>
      <trkpt lat="47.00367" lon="5.82303">
        <ele>250</ele>
        <time>2022-03-17T07:43:42.310Z</time>
      </trkpt>
      <trkpt lat="47.00368" lon="5.82307">
        <ele>250</ele>
        <time>2022-03-17T07:43:47.351Z</time>
      </trkpt>
      <trkpt lat="47.00369" lon="5.82306">
        <ele>250</ele>
        <time>2022-03-17T07:44:29.270Z</time>
      </trkpt>
      <trkpt lat="47.00369" lon="5.8231">
        <ele>250</ele>
        <time>2022-03-17T07:46:14.359Z</time>
      </trkpt>
      <trkpt lat="47.00368" lon="5.82314">
        <ele>250</ele>
        <time>2022-03-17T07:46:19.303Z</time>
      </trkpt>
      <trkpt lat="47.00367" lon="5.82319">
        <ele>250</ele>
        <time>2022-03-17T07:46:23.330Z</time>
      </trkpt>
      <trkpt lat="47.00366" lon="5.82322">
        <ele>249</ele>
        <time>2022-03-17T07:46:27.379Z</time>
      </trkpt>
      <trkpt lat="47.00365" lon="5.82325">
        <ele>249</ele>
        <time>2022-03-17T07:46:41.353Z</time>
      </trkpt>
      <trkpt lat="47.00366" lon="5.82328">
        <ele>249</ele>
        <time>2022-03-17T07:46:46.326Z</time>
      </trkpt>
      <trkpt lat="47.00369" lon="5.82332">
        <ele>249</ele>
        <time>2022-03-17T07:46:51.336Z</time>
      </trkpt>
      <trkpt lat="47.00371" lon="5.82335">
        <ele>249</ele>
        <time>2022-03-17T07:46:55.366Z</time>
      </trkpt>
      <trkpt lat="47.00375" lon="5.8234">
        <ele>247</ele>
        <time>2022-03-17T07:47:00.351Z</time>
      </trkpt>
      <trkpt lat="47.00378" lon="5.82342">
        <ele>247</ele>
        <time>2022-03-17T07:47:05.308Z</time>
      </trkpt>
      <trkpt lat="47.00384" lon="5.82342">
        <ele>247</ele>
        <time>2022-03-17T07:47:10.330Z</time>
      </trkpt>
      <trkpt lat="47.00387" lon="5.82344">
        <ele>247</ele>
        <time>2022-03-17T07:47:15.344Z</time>
      </trkpt>
      <trkpt lat="47.00388" lon="5.82344">
        <ele>247</ele>
        <time>2022-03-17T07:47:19.354Z</time>
      </trkpt>
      <trkpt lat="47.00388" lon="5.82349">
        <ele>246</ele>
        <time>2022-03-17T07:47:24.340Z</time>
      </trkpt>
      <trkpt lat="47.00393" lon="5.82353">
        <ele>246</ele>
        <time>2022-03-17T07:47:29.301Z</time>
      </trkpt>
      <trkpt lat="47.00398" lon="5.82356">
        <ele>246</ele>
        <time>2022-03-17T07:47:33.333Z</time>
      </trkpt>
      <trkpt lat="47.00402" lon="5.82357">
        <ele>246</ele>
        <time>2022-03-17T07:47:38.334Z</time>
      </trkpt>
      <trkpt lat="47.00406" lon="5.82358">
        <ele>245</ele>
        <time>2022-03-17T07:47:43.337Z</time>
      </trkpt>
      <trkpt lat="47.00411" lon="5.82358">
        <ele>245</ele>
        <time>2022-03-17T07:47:48.299Z</time>
      </trkpt>
      <trkpt lat="47.00416" lon="5.82358">
        <ele>245</ele>
        <time>2022-03-17T07:47:53.277Z</time>
      </trkpt>
      <trkpt lat="47.0042" lon="5.82358">
        <ele>245</ele>
        <time>2022-03-17T07:47:57.293Z</time>
      </trkpt>
      <trkpt lat="47.00423" lon="5.82357">
        <ele>245</ele>
        <time>2022-03-17T07:48:01.365Z</time>
      </trkpt>
      <trkpt lat="47.00428" lon="5.82358">
        <ele>245</ele>
        <time>2022-03-17T07:48:06.346Z</time>
      </trkpt>
      <trkpt lat="47.00432" lon="5.82358">
        <ele>245</ele>
        <time>2022-03-17T07:48:11.358Z</time>
      </trkpt>
      <trkpt lat="47.00436" lon="5.82358">
        <ele>245</ele>
        <time>2022-03-17T07:48:16.329Z</time>
      </trkpt>
      <trkpt lat="47.0044" lon="5.82357">
        <ele>245</ele>
        <time>2022-03-17T07:48:20.346Z</time>
      </trkpt>
      <trkpt lat="47.00445" lon="5.82354">
        <ele>245</ele>
        <time>2022-03-17T07:48:25.336Z</time>
      </trkpt>
      <trkpt lat="47.0045" lon="5.82352">
        <ele>245</ele>
        <time>2022-03-17T07:48:30.320Z</time>
      </trkpt>
      <trkpt lat="47.00456" lon="5.82353">
        <ele>245</ele>
        <time>2022-03-17T07:48:35.333Z</time>
      </trkpt>
      <trkpt lat="47.00461" lon="5.82353">
        <ele>247</ele>
        <time>2022-03-17T07:48:40.320Z</time>
      </trkpt>
      <trkpt lat="47.00467" lon="5.82353">
        <ele>247</ele>
        <time>2022-03-17T07:48:45.325Z</time>
      </trkpt>
      <trkpt lat="47.00472" lon="5.82354">
        <ele>247</ele>
        <time>2022-03-17T07:48:49.328Z</time>
      </trkpt>
      <trkpt lat="47.00477" lon="5.82353">
        <ele>247</ele>
        <time>2022-03-17T07:48:54.351Z</time>
      </trkpt>
      <trkpt lat="47.00482" lon="5.82357">
        <ele>247</ele>
        <time>2022-03-17T07:48:59.327Z</time>
      </trkpt>
      <trkpt lat="47.00485" lon="5.82362">
        <ele>247</ele>
        <time>2022-03-17T07:49:04.330Z</time>
      </trkpt>
      <trkpt lat="47.00486" lon="5.82369">
        <ele>247</ele>
        <time>2022-03-17T07:49:09.302Z</time>
      </trkpt>
      <trkpt lat="47.00488" lon="5.82376">
        <ele>251</ele>
        <time>2022-03-17T07:49:14.344Z</time>
      </trkpt>
      <trkpt lat="47.0049" lon="5.82384">
        <ele>251</ele>
        <time>2022-03-17T07:49:19.331Z</time>
      </trkpt>
      <trkpt lat="47.0049" lon="5.82392">
        <ele>251</ele>
        <time>2022-03-17T07:49:24.344Z</time>
      </trkpt>
      <trkpt lat="47.00492" lon="5.824">
        <ele>251</ele>
        <time>2022-03-17T07:49:29.363Z</time>
      </trkpt>
      <trkpt lat="47.00493" lon="5.82405">
        <ele>250</ele>
        <time>2022-03-17T07:49:34.343Z</time>
      </trkpt>
      <trkpt lat="47.00496" lon="5.82412">
        <ele>250</ele>
        <time>2022-03-17T07:49:39.313Z</time>
      </trkpt>
      <trkpt lat="47.00498" lon="5.82419">
        <ele>250</ele>
        <time>2022-03-17T07:49:44.336Z</time>
      </trkpt>
      <trkpt lat="47.00497" lon="5.82427">
        <ele>250</ele>
        <time>2022-03-17T07:49:49.336Z</time>
      </trkpt>
      <trkpt lat="47.00499" lon="5.82437">
        <ele>249</ele>
        <time>2022-03-17T07:49:54.358Z</time>
      </trkpt>
      <trkpt lat="47.00502" lon="5.82446">
        <ele>249</ele>
        <time>2022-03-17T07:49:59.332Z</time>
      </trkpt>
      <trkpt lat="47.00504" lon="5.82454">
        <ele>249</ele>
        <time>2022-03-17T07:50:04.354Z</time>
      </trkpt>
      <trkpt lat="47.00506" lon="5.82461">
        <ele>248</ele>
        <time>2022-03-17T07:50:09.328Z</time>
      </trkpt>
      <trkpt lat="47.00508" lon="5.82469">
        <ele>248</ele>
        <time>2022-03-17T07:50:14.330Z</time>
      </trkpt>
      <trkpt lat="47.00509" lon="5.82475">
        <ele>248</ele>
        <time>2022-03-17T07:50:19.319Z</time>
      </trkpt>
      <trkpt lat="47.00511" lon="5.82481">
        <ele>248</ele>
        <time>2022-03-17T07:50:23.335Z</time>
      </trkpt>
      <trkpt lat="47.00513" lon="5.82487">
        <ele>248</ele>
        <time>2022-03-17T07:50:28.327Z</time>
      </trkpt>
      <trkpt lat="47.00514" lon="5.82495">
        <ele>253</ele>
        <time>2022-03-17T07:50:33.304Z</time>
      </trkpt>
      <trkpt lat="47.00516" lon="5.82502">
        <ele>253</ele>
        <time>2022-03-17T07:50:37.330Z</time>
      </trkpt>
      <trkpt lat="47.00518" lon="5.8251">
        <ele>253</ele>
        <time>2022-03-17T07:50:42.310Z</time>
      </trkpt>
      <trkpt lat="47.00518" lon="5.8252">
        <ele>251</ele>
        <time>2022-03-17T07:50:47.324Z</time>
      </trkpt>
      <trkpt lat="47.00517" lon="5.82526">
        <ele>251</ele>
        <time>2022-03-17T07:50:51.332Z</time>
      </trkpt>
      <trkpt lat="47.00516" lon="5.82535">
        <ele>251</ele>
        <time>2022-03-17T07:50:56.331Z</time>
      </trkpt>
      <trkpt lat="47.00515" lon="5.82543">
        <ele>250</ele>
        <time>2022-03-17T07:51:01.335Z</time>
      </trkpt>
      <trkpt lat="47.00514" lon="5.82551">
        <ele>250</ele>
        <time>2022-03-17T07:51:06.358Z</time>
      </trkpt>
      <trkpt lat="47.00513" lon="5.82559">
        <ele>247</ele>
        <time>2022-03-17T07:51:11.320Z</time>
      </trkpt>
      <trkpt lat="47.0051" lon="5.82564">
        <ele>247</ele>
        <time>2022-03-17T07:51:15.328Z</time>
      </trkpt>
      <trkpt lat="47.00506" lon="5.82572">
        <ele>248</ele>
        <time>2022-03-17T07:51:20.332Z</time>
      </trkpt>
      <trkpt lat="47.00503" lon="5.82578">
        <ele>248</ele>
        <time>2022-03-17T07:51:25.339Z</time>
      </trkpt>
      <trkpt lat="47.00499" lon="5.82583">
        <ele>248</ele>
        <time>2022-03-17T07:51:30.332Z</time>
      </trkpt>
      <trkpt lat="47.00496" lon="5.82588">
        <ele>248</ele>
        <time>2022-03-17T07:51:34.330Z</time>
      </trkpt>
      <trkpt lat="47.00492" lon="5.82593">
        <ele>248</ele>
        <time>2022-03-17T07:51:39.303Z</time>
      </trkpt>
      <trkpt lat="47.00488" lon="5.82598">
        <ele>250</ele>
        <time>2022-03-17T07:51:43.350Z</time>
      </trkpt>
      <trkpt lat="47.00483" lon="5.826">
        <ele>249</ele>
        <time>2022-03-17T07:51:48.328Z</time>
      </trkpt>
      <trkpt lat="47.0048" lon="5.82601">
        <ele>249</ele>
        <time>2022-03-17T07:51:52.330Z</time>
      </trkpt>
      <trkpt lat="47.00474" lon="5.82605">
        <ele>249</ele>
        <time>2022-03-17T07:51:57.362Z</time>
      </trkpt>
      <trkpt lat="47.00467" lon="5.82608">
        <ele>249</ele>
        <time>2022-03-17T07:52:02.324Z</time>
      </trkpt>
      <trkpt lat="47.00464" lon="5.82612">
        <ele>249</ele>
        <time>2022-03-17T07:52:06.319Z</time>
      </trkpt>
      <trkpt lat="47.00459" lon="5.82615">
        <ele>249</ele>
        <time>2022-03-17T07:52:11.367Z</time>
      </trkpt>
      <trkpt lat="47.00452" lon="5.8262">
        <ele>246</ele>
        <time>2022-03-17T07:52:16.364Z</time>
      </trkpt>
      <trkpt lat="47.00445" lon="5.82624">
        <ele>246</ele>
        <time>2022-03-17T07:52:21.358Z</time>
      </trkpt>
      <trkpt lat="47.00441" lon="5.82627">
        <ele>249</ele>
        <time>2022-03-17T07:52:25.350Z</time>
      </trkpt>
      <trkpt lat="47.00436" lon="5.82631">
        <ele>249</ele>
        <time>2022-03-17T07:52:30.327Z</time>
      </trkpt>
      <trkpt lat="47.00431" lon="5.82635">
        <ele>249</ele>
        <time>2022-03-17T07:52:35.377Z</time>
      </trkpt>
      <trkpt lat="47.00427" lon="5.82641">
        <ele>246</ele>
        <time>2022-03-17T07:52:40.316Z</time>
      </trkpt>
      <trkpt lat="47.00423" lon="5.82643">
        <ele>246</ele>
        <time>2022-03-17T07:52:44.334Z</time>
      </trkpt>
      <trkpt lat="47.00421" lon="5.82645">
        <ele>246</ele>
        <time>2022-03-17T07:52:49.340Z</time>
      </trkpt>
      <trkpt lat="47.00421" lon="5.82646">
        <ele>246</ele>
        <time>2022-03-17T07:52:54.317Z</time>
      </trkpt>
      <trkpt lat="47.00417" lon="5.82647">
        <ele>246</ele>
        <time>2022-03-17T07:53:04.303Z</time>
      </trkpt>
      <trkpt lat="47.00412" lon="5.82651">
        <ele>246</ele>
        <time>2022-03-17T07:53:09.366Z</time>
      </trkpt>
      <trkpt lat="47.00407" lon="5.82657">
        <ele>248</ele>
        <time>2022-03-17T07:53:14.294Z</time>
      </trkpt>
      <trkpt lat="47.00403" lon="5.82664">
        <ele>246</ele>
        <time>2022-03-17T07:53:19.320Z</time>
      </trkpt>
      <trkpt lat="47.00398" lon="5.8267">
        <ele>246</ele>
        <time>2022-03-17T07:53:24.313Z</time>
      </trkpt>
      <trkpt lat="47.00395" lon="5.82674">
        <ele>246</ele>
        <time>2022-03-17T07:53:29.355Z</time>
      </trkpt>
      <trkpt lat="47.00392" lon="5.8268">
        <ele>246</ele>
        <time>2022-03-17T07:53:34.305Z</time>
      </trkpt>
      <trkpt lat="47.00389" lon="5.82686">
        <ele>248</ele>
        <time>2022-03-17T07:53:38.315Z</time>
      </trkpt>
      <trkpt lat="47.00384" lon="5.82694">
        <ele>248</ele>
        <time>2022-03-17T07:53:43.342Z</time>
      </trkpt>
      <trkpt lat="47.00381" lon="5.827">
        <ele>248</ele>
        <time>2022-03-17T07:53:47.332Z</time>
      </trkpt>
      <trkpt lat="47.0038" lon="5.82709">
        <ele>249</ele>
        <time>2022-03-17T07:53:52.331Z</time>
      </trkpt>
      <trkpt lat="47.00377" lon="5.82717">
        <ele>249</ele>
        <time>2022-03-17T07:53:57.323Z</time>
      </trkpt>
      <trkpt lat="47.00376" lon="5.82724">
        <ele>249</ele>
        <time>2022-03-17T07:54:01.395Z</time>
      </trkpt>
      <trkpt lat="47.00376" lon="5.82734">
        <ele>249</ele>
        <time>2022-03-17T07:54:06.307Z</time>
      </trkpt>
      <trkpt lat="47.00375" lon="5.82741">
        <ele>247</ele>
        <time>2022-03-17T07:54:11.326Z</time>
      </trkpt>
      <trkpt lat="47.00372" lon="5.82748">
        <ele>247</ele>
        <time>2022-03-17T07:54:16.279Z</time>
      </trkpt>
      <trkpt lat="47.00371" lon="5.82755">
        <ele>247</ele>
        <time>2022-03-17T07:54:20.299Z</time>
      </trkpt>
      <trkpt lat="47.00369" lon="5.82762">
        <ele>247</ele>
        <time>2022-03-17T07:54:24.348Z</time>
      </trkpt>
      <trkpt lat="47.00364" lon="5.8277">
        <ele>248</ele>
        <time>2022-03-17T07:54:29.317Z</time>
      </trkpt>
      <trkpt lat="47.0036" lon="5.82778">
        <ele>248</ele>
        <time>2022-03-17T07:54:34.314Z</time>
      </trkpt>
      <trkpt lat="47.00358" lon="5.82786">
        <ele>248</ele>
        <time>2022-03-17T07:54:39.362Z</time>
      </trkpt>
      <trkpt lat="47.00356" lon="5.82794">
        <ele>250</ele>
        <time>2022-03-17T07:54:44.350Z</time>
      </trkpt>
      <trkpt lat="47.00353" lon="5.82803">
        <ele>250</ele>
        <time>2022-03-17T07:54:49.321Z</time>
      </trkpt>
      <trkpt lat="47.00351" lon="5.82809">
        <ele>250</ele>
        <time>2022-03-17T07:54:53.331Z</time>
      </trkpt>
      <trkpt lat="47.00349" lon="5.82818">
        <ele>250</ele>
        <time>2022-03-17T07:54:58.313Z</time>
      </trkpt>
      <trkpt lat="47.00349" lon="5.82827">
        <ele>252</ele>
        <time>2022-03-17T07:55:02.396Z</time>
      </trkpt>
      <trkpt lat="47.00347" lon="5.82835">
        <ele>246</ele>
        <time>2022-03-17T07:55:07.334Z</time>
      </trkpt>
      <trkpt lat="47.00347" lon="5.82846">
        <ele>246</ele>
        <time>2022-03-17T07:55:12.347Z</time>
      </trkpt>
      <trkpt lat="47.00346" lon="5.82856">
        <ele>247</ele>
        <time>2022-03-17T07:55:16.352Z</time>
      </trkpt>
      <trkpt lat="47.00346" lon="5.82865">
        <ele>247</ele>
        <time>2022-03-17T07:55:21.332Z</time>
      </trkpt>
      <trkpt lat="47.00347" lon="5.82874">
        <ele>247</ele>
        <time>2022-03-17T07:55:26.316Z</time>
      </trkpt>
      <trkpt lat="47.00346" lon="5.82883">
        <ele>249</ele>
        <time>2022-03-17T07:55:31.359Z</time>
      </trkpt>
      <trkpt lat="47.00347" lon="5.82892">
        <ele>249</ele>
        <time>2022-03-17T07:55:36.314Z</time>
      </trkpt>
      <trkpt lat="47.00348" lon="5.829">
        <ele>255</ele>
        <time>2022-03-17T07:55:40.318Z</time>
      </trkpt>
      <trkpt lat="47.00347" lon="5.82908">
        <ele>254</ele>
        <time>2022-03-17T07:55:45.352Z</time>
      </trkpt>
      <trkpt lat="47.00346" lon="5.82916">
        <ele>249</ele>
        <time>2022-03-17T07:55:50.298Z</time>
      </trkpt>
      <trkpt lat="47.00343" lon="5.82925">
        <ele>249</ele>
        <time>2022-03-17T07:55:54.316Z</time>
      </trkpt>
      <trkpt lat="47.0034" lon="5.82932">
        <ele>252</ele>
        <time>2022-03-17T07:55:59.349Z</time>
      </trkpt>
      <trkpt lat="47.00337" lon="5.8294">
        <ele>252</ele>
        <time>2022-03-17T07:56:04.314Z</time>
      </trkpt>
      <trkpt lat="47.00334" lon="5.82945">
        <ele>252</ele>
        <time>2022-03-17T07:56:08.317Z</time>
      </trkpt>
      <trkpt lat="47.0033" lon="5.82953">
        <ele>252</ele>
        <time>2022-03-17T07:56:13.354Z</time>
      </trkpt>
      <trkpt lat="47.00325" lon="5.82959">
        <ele>254</ele>
        <time>2022-03-17T07:56:18.339Z</time>
      </trkpt>
      <trkpt lat="47.0032" lon="5.82964">
        <ele>254</ele>
        <time>2022-03-17T07:56:23.323Z</time>
      </trkpt>
      <trkpt lat="47.00316" lon="5.82969">
        <ele>251</ele>
        <time>2022-03-17T07:56:27.355Z</time>
      </trkpt>
      <trkpt lat="47.00312" lon="5.82974">
        <ele>251</ele>
        <time>2022-03-17T07:56:32.321Z</time>
      </trkpt>
      <trkpt lat="47.00307" lon="5.82978">
        <ele>251</ele>
        <time>2022-03-17T07:56:36.334Z</time>
      </trkpt>
      <trkpt lat="47.00301" lon="5.82984">
        <ele>251</ele>
        <time>2022-03-17T07:56:41.339Z</time>
      </trkpt>
      <trkpt lat="47.00297" lon="5.8299">
        <ele>252</ele>
        <time>2022-03-17T07:56:46.317Z</time>
      </trkpt>
      <trkpt lat="47.00291" lon="5.82996">
        <ele>250</ele>
        <time>2022-03-17T07:56:51.348Z</time>
      </trkpt>
      <trkpt lat="47.00285" lon="5.83002">
        <ele>250</ele>
        <time>2022-03-17T07:56:56.292Z</time>
      </trkpt>
      <trkpt lat="47.00282" lon="5.83006">
        <ele>250</ele>
        <time>2022-03-17T07:57:00.319Z</time>
      </trkpt>
      <trkpt lat="47.00277" lon="5.83011">
        <ele>250</ele>
        <time>2022-03-17T07:57:05.336Z</time>
      </trkpt>
      <trkpt lat="47.00273" lon="5.83016">
        <ele>251</ele>
        <time>2022-03-17T07:57:10.295Z</time>
      </trkpt>
      <trkpt lat="47.00268" lon="5.8302">
        <ele>251</ele>
        <time>2022-03-17T07:57:15.300Z</time>
      </trkpt>
      <trkpt lat="47.00259" lon="5.83024">
        <ele>248</ele>
        <time>2022-03-17T07:57:29.371Z</time>
      </trkpt>
      <trkpt lat="47.00258" lon="5.83023">
        <ele>248</ele>
        <time>2022-03-17T07:57:34.316Z</time>
      </trkpt>
      <trkpt lat="47.00258" lon="5.83023">
        <ele>248</ele>
        <time>2022-03-17T07:57:39.328Z</time>
      </trkpt>
      <trkpt lat="47.00256" lon="5.83024">
        <ele>248</ele>
        <time>2022-03-17T07:57:43.359Z</time>
      </trkpt>
      <trkpt lat="47.0025" lon="5.83025">
        <ele>248</ele>
        <time>2022-03-17T07:57:48.291Z</time>
      </trkpt>
      <trkpt lat="47.0024" lon="5.83025">
        <ele>248</ele>
        <time>2022-03-17T07:58:40.339Z</time>
      </trkpt>
      <trkpt lat="47.00239" lon="5.83025">
        <ele>248</ele>
        <time>2022-03-17T07:59:09.291Z</time>
      </trkpt>
      <trkpt lat="47.00236" lon="5.83024">
        <ele>248</ele>
        <time>2022-03-17T07:59:14.327Z</time>
      </trkpt>
      <trkpt lat="47.00234" lon="5.83026">
        <ele>246</ele>
        <time>2022-03-17T07:59:19.323Z</time>
      </trkpt>
      <trkpt lat="47.00234" lon="5.83027">
        <ele>246</ele>
        <time>2022-03-17T07:59:24.332Z</time>
      </trkpt>
      <trkpt lat="47.0023" lon="5.83026">
        <ele>246</ele>
        <time>2022-03-17T08:00:11.326Z</time>
      </trkpt>
      <trkpt lat="47.0023" lon="5.83027">
        <ele>246</ele>
        <time>2022-03-17T08:00:33.363Z</time>
      </trkpt>
      <trkpt lat="47.00229" lon="5.83027">
        <ele>246</ele>
        <time>2022-03-17T08:00:38.329Z</time>
      </trkpt>
      <trkpt lat="47.00226" lon="5.83027">
        <ele>246</ele>
        <time>2022-03-17T08:01:02.296Z</time>
      </trkpt>
      <trkpt lat="47.00222" lon="5.83027">
        <ele>246</ele>
        <time>2022-03-17T08:01:07.319Z</time>
      </trkpt>
      <trkpt lat="47.00218" lon="5.83028">
        <ele>246</ele>
        <time>2022-03-17T08:01:11.269Z</time>
      </trkpt>
      <trkpt lat="47.00213" lon="5.83028">
        <ele>246</ele>
        <time>2022-03-17T08:01:16.332Z</time>
      </trkpt>
      <trkpt lat="47.00208" lon="5.83028">
        <ele>243</ele>
        <time>2022-03-17T08:01:21.395Z</time>
      </trkpt>
      <trkpt lat="47.00203" lon="5.83028">
        <ele>243</ele>
        <time>2022-03-17T08:01:26.314Z</time>
      </trkpt>
      <trkpt lat="47.00198" lon="5.8303">
        <ele>243</ele>
        <time>2022-03-17T08:01:30.368Z</time>
      </trkpt>
      <trkpt lat="47.00193" lon="5.83032">
        <ele>243</ele>
        <time>2022-03-17T08:01:35.345Z</time>
      </trkpt>
      <trkpt lat="47.00188" lon="5.83033">
        <ele>243</ele>
        <time>2022-03-17T08:01:40.333Z</time>
      </trkpt>
      <trkpt lat="47.00181" lon="5.83034">
        <ele>243</ele>
        <time>2022-03-17T08:01:45.400Z</time>
      </trkpt>
      <trkpt lat="47.00176" lon="5.83034">
        <ele>243</ele>
        <time>2022-03-17T08:01:50.336Z</time>
      </trkpt>
      <trkpt lat="47.00171" lon="5.83033">
        <ele>243</ele>
        <time>2022-03-17T08:01:54.332Z</time>
      </trkpt>
      <trkpt lat="47.00165" lon="5.83033">
        <ele>243</ele>
        <time>2022-03-17T08:01:59.342Z</time>
      </trkpt>
      <trkpt lat="47.00158" lon="5.83034">
        <ele>243</ele>
        <time>2022-03-17T08:02:04.308Z</time>
      </trkpt>
      <trkpt lat="47.00153" lon="5.83034">
        <ele>243</ele>
        <time>2022-03-17T08:02:08.331Z</time>
      </trkpt>
      <trkpt lat="47.00147" lon="5.83036">
        <ele>243</ele>
        <time>2022-03-17T08:02:13.353Z</time>
      </trkpt>
      <trkpt lat="47.0014" lon="5.83036">
        <ele>243</ele>
        <time>2022-03-17T08:02:18.354Z</time>
      </trkpt>
      <trkpt lat="47.00134" lon="5.83036">
        <ele>243</ele>
        <time>2022-03-17T08:02:23.351Z</time>
      </trkpt>
      <trkpt lat="47.00127" lon="5.83037">
        <ele>243</ele>
        <time>2022-03-17T08:02:28.356Z</time>
      </trkpt>
      <trkpt lat="47.00122" lon="5.83037">
        <ele>244</ele>
        <time>2022-03-17T08:02:32.375Z</time>
      </trkpt>
      <trkpt lat="47.00116" lon="5.83038">
        <ele>244</ele>
        <time>2022-03-17T08:02:37.378Z</time>
      </trkpt>
      <trkpt lat="47.0011" lon="5.83038">
        <ele>244</ele>
        <time>2022-03-17T08:02:42.321Z</time>
      </trkpt>
      <trkpt lat="47.00104" lon="5.83039">
        <ele>244</ele>
        <time>2022-03-17T08:02:47.309Z</time>
      </trkpt>
      <trkpt lat="47.001" lon="5.8304">
        <ele>244</ele>
        <time>2022-03-17T08:02:51.390Z</time>
      </trkpt>
      <trkpt lat="47.00093" lon="5.8304">
        <ele>244</ele>
        <time>2022-03-17T08:02:56.343Z</time>
      </trkpt>
      <trkpt lat="47.00087" lon="5.83041">
        <ele>244</ele>
        <time>2022-03-17T08:03:01.340Z</time>
      </trkpt>
      <trkpt lat="47.00081" lon="5.83041">
        <ele>244</ele>
        <time>2022-03-17T08:03:06.332Z</time>
      </trkpt>
      <trkpt lat="47.00075" lon="5.83042">
        <ele>245</ele>
        <time>2022-03-17T08:03:11.388Z</time>
      </trkpt>
      <trkpt lat="47.0007" lon="5.83042">
        <ele>245</ele>
        <time>2022-03-17T08:03:15.358Z</time>
      </trkpt>
      <trkpt lat="47.00063" lon="5.83043">
        <ele>245</ele>
        <time>2022-03-17T08:03:20.356Z</time>
      </trkpt>
      <trkpt lat="47.00056" lon="5.83044">
        <ele>245</ele>
        <time>2022-03-17T08:03:25.370Z</time>
      </trkpt>
      <trkpt lat="47.00052" lon="5.83045">
        <ele>245</ele>
        <time>2022-03-17T08:03:29.399Z</time>
      </trkpt>
      <trkpt lat="47.00045" lon="5.83045">
        <ele>245</ele>
        <time>2022-03-17T08:03:34.326Z</time>
      </trkpt>
      <trkpt lat="47.00041" lon="5.83046">
        <ele>245</ele>
        <time>2022-03-17T08:03:38.340Z</time>
      </trkpt>
      <trkpt lat="47.00034" lon="5.83049">
        <ele>245</ele>
        <time>2022-03-17T08:03:43.344Z</time>
      </trkpt>
      <trkpt lat="47.00027" lon="5.83054">
        <ele>245</ele>
        <time>2022-03-17T08:03:48.352Z</time>
      </trkpt>
      <trkpt lat="47.00022" lon="5.83057">
        <ele>245</ele>
        <time>2022-03-17T08:03:53.368Z</time>
      </trkpt>
      <trkpt lat="47.00017" lon="5.83062">
        <ele>245</ele>
        <time>2022-03-17T08:03:58.360Z</time>
      </trkpt>
      <trkpt lat="47.00012" lon="5.83067">
        <ele>244</ele>
        <time>2022-03-17T08:04:03.376Z</time>
      </trkpt>
      <trkpt lat="47.00008" lon="5.8307">
        <ele>244</ele>
        <time>2022-03-17T08:04:07.377Z</time>
      </trkpt>
      <trkpt lat="47.00002" lon="5.83075">
        <ele>244</ele>
        <time>2022-03-17T08:04:12.304Z</time>
      </trkpt>
      <trkpt lat="46.99997" lon="5.8308">
        <ele>244</ele>
        <time>2022-03-17T08:04:16.327Z</time>
      </trkpt>
      <trkpt lat="46.99993" lon="5.83083">
        <ele>244</ele>
        <time>2022-03-17T08:04:20.360Z</time>
      </trkpt>
      <trkpt lat="46.99988" lon="5.83089">
        <ele>244</ele>
        <time>2022-03-17T08:04:25.304Z</time>
      </trkpt>
      <trkpt lat="46.99984" lon="5.83094">
        <ele>243</ele>
        <time>2022-03-17T08:04:29.374Z</time>
      </trkpt>
      <trkpt lat="46.99979" lon="5.83099">
        <ele>243</ele>
        <time>2022-03-17T08:04:34.329Z</time>
      </trkpt>
      <trkpt lat="46.99974" lon="5.83102">
        <ele>243</ele>
        <time>2022-03-17T08:04:38.384Z</time>
      </trkpt>
      <trkpt lat="46.99969" lon="5.83108">
        <ele>243</ele>
        <time>2022-03-17T08:04:43.385Z</time>
      </trkpt>
      <trkpt lat="46.99965" lon="5.83113">
        <ele>243</ele>
        <time>2022-03-17T08:04:48.363Z</time>
      </trkpt>
      <trkpt lat="46.9996" lon="5.83118">
        <ele>243</ele>
        <time>2022-03-17T08:04:53.373Z</time>
      </trkpt>
      <trkpt lat="46.99956" lon="5.83123">
        <ele>242</ele>
        <time>2022-03-17T08:04:58.356Z</time>
      </trkpt>
      <trkpt lat="46.99951" lon="5.83128">
        <ele>242</ele>
        <time>2022-03-17T08:05:02.383Z</time>
      </trkpt>
      <trkpt lat="46.99946" lon="5.83135">
        <ele>242</ele>
        <time>2022-03-17T08:05:07.336Z</time>
      </trkpt>
      <trkpt lat="46.99941" lon="5.8314">
        <ele>242</ele>
        <time>2022-03-17T08:05:12.334Z</time>
      </trkpt>
      <trkpt lat="46.99935" lon="5.83145">
        <ele>242</ele>
        <time>2022-03-17T08:05:17.400Z</time>
      </trkpt>
      <trkpt lat="46.99929" lon="5.83149">
        <ele>242</ele>
        <time>2022-03-17T08:05:22.347Z</time>
      </trkpt>
      <trkpt lat="46.99925" lon="5.83155">
        <ele>242</ele>
        <time>2022-03-17T08:05:26.348Z</time>
      </trkpt>
      <trkpt lat="46.99921" lon="5.83163">
        <ele>242</ele>
        <time>2022-03-17T08:05:31.394Z</time>
      </trkpt>
      <trkpt lat="46.99916" lon="5.8317">
        <ele>242</ele>
        <time>2022-03-17T08:05:36.318Z</time>
      </trkpt>
      <trkpt lat="46.99912" lon="5.83175">
        <ele>242</ele>
        <time>2022-03-17T08:05:40.359Z</time>
      </trkpt>
      <trkpt lat="46.99907" lon="5.8318">
        <ele>242</ele>
        <time>2022-03-17T08:05:45.357Z</time>
      </trkpt>
      <trkpt lat="46.99902" lon="5.83185">
        <ele>243</ele>
        <time>2022-03-17T08:05:50.340Z</time>
      </trkpt>
      <trkpt lat="46.99899" lon="5.83189">
        <ele>243</ele>
        <time>2022-03-17T08:05:54.372Z</time>
      </trkpt>
      <trkpt lat="46.99895" lon="5.83193">
        <ele>243</ele>
        <time>2022-03-17T08:05:58.383Z</time>
      </trkpt>
      <trkpt lat="46.9989" lon="5.83198">
        <ele>243</ele>
        <time>2022-03-17T08:06:03.312Z</time>
      </trkpt>
      <trkpt lat="46.99885" lon="5.83204">
        <ele>243</ele>
        <time>2022-03-17T08:06:08.371Z</time>
      </trkpt>
      <trkpt lat="46.99879" lon="5.83211">
        <ele>244</ele>
        <time>2022-03-17T08:06:13.331Z</time>
      </trkpt>
      <trkpt lat="46.99873" lon="5.83215">
        <ele>244</ele>
        <time>2022-03-17T08:06:18.348Z</time>
      </trkpt>
      <trkpt lat="46.99868" lon="5.83221">
        <ele>244</ele>
        <time>2022-03-17T08:06:23.356Z</time>
      </trkpt>
      <trkpt lat="46.99864" lon="5.83227">
        <ele>244</ele>
        <time>2022-03-17T08:06:28.358Z</time>
      </trkpt>
      <trkpt lat="46.9986" lon="5.83231">
        <ele>244</ele>
        <time>2022-03-17T08:06:33.375Z</time>
      </trkpt>
      <trkpt lat="46.99857" lon="5.83238">
        <ele>245</ele>
        <time>2022-03-17T08:06:38.390Z</time>
      </trkpt>
      <trkpt lat="46.99851" lon="5.83246">
        <ele>245</ele>
        <time>2022-03-17T08:06:43.336Z</time>
      </trkpt>
      <trkpt lat="46.99847" lon="5.83253">
        <ele>246</ele>
        <time>2022-03-17T08:06:48.380Z</time>
      </trkpt>
      <trkpt lat="46.99843" lon="5.83258">
        <ele>246</ele>
        <time>2022-03-17T08:06:53.392Z</time>
      </trkpt>
      <trkpt lat="46.99839" lon="5.83264">
        <ele>246</ele>
        <time>2022-03-17T08:06:58.350Z</time>
      </trkpt>
      <trkpt lat="46.99836" lon="5.8327">
        <ele>247</ele>
        <time>2022-03-17T08:07:03.370Z</time>
      </trkpt>
      <trkpt lat="46.99832" lon="5.83278">
        <ele>247</ele>
        <time>2022-03-17T08:07:08.371Z</time>
      </trkpt>
      <trkpt lat="46.99829" lon="5.83286">
        <ele>247</ele>
        <time>2022-03-17T08:07:13.360Z</time>
      </trkpt>
      <trkpt lat="46.99826" lon="5.83293">
        <ele>247</ele>
        <time>2022-03-17T08:07:18.380Z</time>
      </trkpt>
      <trkpt lat="46.99823" lon="5.833">
        <ele>247</ele>
        <time>2022-03-17T08:07:22.374Z</time>
      </trkpt>
      <trkpt lat="46.9982" lon="5.83308">
        <ele>247</ele>
        <time>2022-03-17T08:07:27.348Z</time>
      </trkpt>
      <trkpt lat="46.99818" lon="5.83314">
        <ele>247</ele>
        <time>2022-03-17T08:07:31.386Z</time>
      </trkpt>
      <trkpt lat="46.99815" lon="5.83323">
        <ele>247</ele>
        <time>2022-03-17T08:07:36.338Z</time>
      </trkpt>
      <trkpt lat="46.99813" lon="5.83331">
        <ele>247</ele>
        <time>2022-03-17T08:07:41.360Z</time>
      </trkpt>
      <trkpt lat="46.99812" lon="5.83337">
        <ele>247</ele>
        <time>2022-03-17T08:07:45.379Z</time>
      </trkpt>
      <trkpt lat="46.99811" lon="5.83345">
        <ele>247</ele>
        <time>2022-03-17T08:07:50.381Z</time>
      </trkpt>
      <trkpt lat="46.9981" lon="5.83355">
        <ele>248</ele>
        <time>2022-03-17T08:07:55.414Z</time>
      </trkpt>
      <trkpt lat="46.9981" lon="5.83365">
        <ele>248</ele>
        <time>2022-03-17T08:08:00.371Z</time>
      </trkpt>
      <trkpt lat="46.9981" lon="5.83374">
        <ele>248</ele>
        <time>2022-03-17T08:08:05.343Z</time>
      </trkpt>
      <trkpt lat="46.99809" lon="5.83382">
        <ele>248</ele>
        <time>2022-03-17T08:08:10.374Z</time>
      </trkpt>
      <trkpt lat="46.99809" lon="5.83391">
        <ele>248</ele>
        <time>2022-03-17T08:08:15.402Z</time>
      </trkpt>
      <trkpt lat="46.9981" lon="5.83401">
        <ele>248</ele>
        <time>2022-03-17T08:08:20.363Z</time>
      </trkpt>
      <trkpt lat="46.99811" lon="5.8341">
        <ele>247</ele>
        <time>2022-03-17T08:08:25.363Z</time>
      </trkpt>
      <trkpt lat="46.99813" lon="5.83418">
        <ele>247</ele>
        <time>2022-03-17T08:08:30.327Z</time>
      </trkpt>
      <trkpt lat="46.99815" lon="5.83427">
        <ele>247</ele>
        <time>2022-03-17T08:08:35.402Z</time>
      </trkpt>
      <trkpt lat="46.99819" lon="5.83435">
        <ele>247</ele>
        <time>2022-03-17T08:08:40.364Z</time>
      </trkpt>
      <trkpt lat="46.99823" lon="5.83441">
        <ele>246</ele>
        <time>2022-03-17T08:08:45.360Z</time>
      </trkpt>
      <trkpt lat="46.99828" lon="5.83447">
        <ele>246</ele>
        <time>2022-03-17T08:08:50.371Z</time>
      </trkpt>
      <trkpt lat="46.99832" lon="5.83451">
        <ele>246</ele>
        <time>2022-03-17T08:08:55.400Z</time>
      </trkpt>
      <trkpt lat="46.99838" lon="5.83454">
        <ele>246</ele>
        <time>2022-03-17T08:09:00.387Z</time>
      </trkpt>
      <trkpt lat="46.99844" lon="5.83459">
        <ele>245</ele>
        <time>2022-03-17T08:09:05.335Z</time>
      </trkpt>
      <trkpt lat="46.9985" lon="5.8346">
        <ele>246</ele>
        <time>2022-03-17T08:09:09.357Z</time>
      </trkpt>
      <trkpt lat="46.99855" lon="5.83463">
        <ele>246</ele>
        <time>2022-03-17T08:09:14.391Z</time>
      </trkpt>
      <trkpt lat="46.99861" lon="5.83465">
        <ele>246</ele>
        <time>2022-03-17T08:09:19.399Z</time>
      </trkpt>
      <trkpt lat="46.99867" lon="5.83468">
        <ele>246</ele>
        <time>2022-03-17T08:09:24.286Z</time>
      </trkpt>
      <trkpt lat="46.99871" lon="5.83471">
        <ele>246</ele>
        <time>2022-03-17T08:09:28.373Z</time>
      </trkpt>
      <trkpt lat="46.99877" lon="5.83474">
        <ele>246</ele>
        <time>2022-03-17T08:09:33.339Z</time>
      </trkpt>
      <trkpt lat="46.99882" lon="5.83477">
        <ele>246</ele>
        <time>2022-03-17T08:09:37.342Z</time>
      </trkpt>
      <trkpt lat="46.99887" lon="5.83482">
        <ele>246</ele>
        <time>2022-03-17T08:09:42.328Z</time>
      </trkpt>
      <trkpt lat="46.99891" lon="5.83487">
        <ele>245</ele>
        <time>2022-03-17T08:09:46.343Z</time>
      </trkpt>
      <trkpt lat="46.99896" lon="5.83489">
        <ele>245</ele>
        <time>2022-03-17T08:09:50.396Z</time>
      </trkpt>
      <trkpt lat="46.99902" lon="5.83492">
        <ele>245</ele>
        <time>2022-03-17T08:09:55.348Z</time>
      </trkpt>
      <trkpt lat="46.99907" lon="5.83495">
        <ele>244</ele>
        <time>2022-03-17T08:10:00.340Z</time>
      </trkpt>
      <trkpt lat="46.99913" lon="5.83498">
        <ele>244</ele>
        <time>2022-03-17T08:10:05.360Z</time>
      </trkpt>
      <trkpt lat="46.99919" lon="5.83502">
        <ele>244</ele>
        <time>2022-03-17T08:10:10.330Z</time>
      </trkpt>
      <trkpt lat="46.99924" lon="5.83507">
        <ele>244</ele>
        <time>2022-03-17T08:10:15.348Z</time>
      </trkpt>
      <trkpt lat="46.99931" lon="5.83512">
        <ele>246</ele>
        <time>2022-03-17T08:10:20.365Z</time>
      </trkpt>
      <trkpt lat="46.99935" lon="5.83515">
        <ele>244</ele>
        <time>2022-03-17T08:10:25.374Z</time>
      </trkpt>
      <trkpt lat="46.99941" lon="5.8352">
        <ele>244</ele>
        <time>2022-03-17T08:10:30.376Z</time>
      </trkpt>
      <trkpt lat="46.99946" lon="5.83524">
        <ele>244</ele>
        <time>2022-03-17T08:10:35.345Z</time>
      </trkpt>
      <trkpt lat="46.9995" lon="5.83529">
        <ele>244</ele>
        <time>2022-03-17T08:10:39.333Z</time>
      </trkpt>
      <trkpt lat="46.99955" lon="5.83532">
        <ele>244</ele>
        <time>2022-03-17T08:10:43.345Z</time>
      </trkpt>
      <trkpt lat="46.99961" lon="5.83538">
        <ele>246</ele>
        <time>2022-03-17T08:10:48.338Z</time>
      </trkpt>
      <trkpt lat="46.99967" lon="5.83541">
        <ele>246</ele>
        <time>2022-03-17T08:10:53.343Z</time>
      </trkpt>
      <trkpt lat="46.99972" lon="5.83544">
        <ele>245</ele>
        <time>2022-03-17T08:10:57.384Z</time>
      </trkpt>
      <trkpt lat="46.99978" lon="5.83548">
        <ele>245</ele>
        <time>2022-03-17T08:11:02.354Z</time>
      </trkpt>
      <trkpt lat="46.99984" lon="5.83553">
        <ele>245</ele>
        <time>2022-03-17T08:11:07.389Z</time>
      </trkpt>
      <trkpt lat="46.99989" lon="5.83557">
        <ele>246</ele>
        <time>2022-03-17T08:11:11.366Z</time>
      </trkpt>
      <trkpt lat="46.99994" lon="5.83562">
        <ele>246</ele>
        <time>2022-03-17T08:11:16.339Z</time>
      </trkpt>
      <trkpt lat="47.00001" lon="5.83566">
        <ele>246</ele>
        <time>2022-03-17T08:11:21.372Z</time>
      </trkpt>
      <trkpt lat="47.00006" lon="5.8357">
        <ele>246</ele>
        <time>2022-03-17T08:11:26.366Z</time>
      </trkpt>
      <trkpt lat="47.00012" lon="5.83574">
        <ele>246</ele>
        <time>2022-03-17T08:11:31.389Z</time>
      </trkpt>
      <trkpt lat="47.00018" lon="5.83579">
        <ele>248</ele>
        <time>2022-03-17T08:11:36.372Z</time>
      </trkpt>
      <trkpt lat="47.00023" lon="5.83583">
        <ele>248</ele>
        <time>2022-03-17T08:11:41.393Z</time>
      </trkpt>
      <trkpt lat="47.00029" lon="5.83586">
        <ele>248</ele>
        <time>2022-03-17T08:11:46.328Z</time>
      </trkpt>
      <trkpt lat="47.00035" lon="5.8359">
        <ele>248</ele>
        <time>2022-03-17T08:11:51.360Z</time>
      </trkpt>
      <trkpt lat="47.00041" lon="5.83594">
        <ele>248</ele>
        <time>2022-03-17T08:11:56.323Z</time>
      </trkpt>
      <trkpt lat="47.00046" lon="5.83599">
        <ele>247</ele>
        <time>2022-03-17T08:12:00.358Z</time>
      </trkpt>
      <trkpt lat="47.00051" lon="5.83603">
        <ele>247</ele>
        <time>2022-03-17T08:12:05.366Z</time>
      </trkpt>
      <trkpt lat="47.00057" lon="5.83606">
        <ele>247</ele>
        <time>2022-03-17T08:12:10.337Z</time>
      </trkpt>
      <trkpt lat="47.00064" lon="5.8361">
        <ele>247</ele>
        <time>2022-03-17T08:12:15.338Z</time>
      </trkpt>
      <trkpt lat="47.00069" lon="5.83614">
        <ele>247</ele>
        <time>2022-03-17T08:12:20.327Z</time>
      </trkpt>
      <trkpt lat="47.00075" lon="5.83618">
        <ele>247</ele>
        <time>2022-03-17T08:12:25.339Z</time>
      </trkpt>
      <trkpt lat="47.0008" lon="5.83622">
        <ele>247</ele>
        <time>2022-03-17T08:12:29.350Z</time>
      </trkpt>
      <trkpt lat="47.00086" lon="5.83627">
        <ele>245</ele>
        <time>2022-03-17T08:12:34.360Z</time>
      </trkpt>
      <trkpt lat="47.00091" lon="5.83631">
        <ele>245</ele>
        <time>2022-03-17T08:12:39.343Z</time>
      </trkpt>
      <trkpt lat="47.00097" lon="5.83636">
        <ele>245</ele>
        <time>2022-03-17T08:12:44.348Z</time>
      </trkpt>
      <trkpt lat="47.00103" lon="5.8364">
        <ele>245</ele>
        <time>2022-03-17T08:12:49.300Z</time>
      </trkpt>
      <trkpt lat="47.00107" lon="5.83644">
        <ele>245</ele>
        <time>2022-03-17T08:12:54.402Z</time>
      </trkpt>
      <trkpt lat="47.00113" lon="5.83648">
        <ele>245</ele>
        <time>2022-03-17T08:12:59.327Z</time>
      </trkpt>
      <trkpt lat="47.00118" lon="5.83652">
        <ele>245</ele>
        <time>2022-03-17T08:13:03.357Z</time>
      </trkpt>
      <trkpt lat="47.00122" lon="5.83656">
        <ele>244</ele>
        <time>2022-03-17T08:13:07.379Z</time>
      </trkpt>
      <trkpt lat="47.00128" lon="5.83661">
        <ele>246</ele>
        <time>2022-03-17T08:13:12.356Z</time>
      </trkpt>
      <trkpt lat="47.00134" lon="5.83665">
        <ele>246</ele>
        <time>2022-03-17T08:13:17.382Z</time>
      </trkpt>
      <trkpt lat="47.00141" lon="5.83668">
        <ele>246</ele>
        <time>2022-03-17T08:13:22.325Z</time>
      </trkpt>
      <trkpt lat="47.00145" lon="5.83671">
        <ele>246</ele>
        <time>2022-03-17T08:13:26.362Z</time>
      </trkpt>
      <trkpt lat="47.00151" lon="5.83673">
        <ele>246</ele>
        <time>2022-03-17T08:13:31.294Z</time>
      </trkpt>
      <trkpt lat="47.00156" lon="5.83676">
        <ele>247</ele>
        <time>2022-03-17T08:13:35.370Z</time>
      </trkpt>
      <trkpt lat="47.00162" lon="5.83679">
        <ele>247</ele>
        <time>2022-03-17T08:13:40.371Z</time>
      </trkpt>
      <trkpt lat="47.00169" lon="5.83683">
        <ele>247</ele>
        <time>2022-03-17T08:13:45.372Z</time>
      </trkpt>
      <trkpt lat="47.00175" lon="5.83686">
        <ele>247</ele>
        <time>2022-03-17T08:13:50.368Z</time>
      </trkpt>
      <trkpt lat="47.00179" lon="5.8369">
        <ele>247</ele>
        <time>2022-03-17T08:13:54.392Z</time>
      </trkpt>
      <trkpt lat="47.00186" lon="5.83693">
        <ele>247</ele>
        <time>2022-03-17T08:13:59.356Z</time>
      </trkpt>
      <trkpt lat="47.00192" lon="5.83696">
        <ele>247</ele>
        <time>2022-03-17T08:14:04.346Z</time>
      </trkpt>
      <trkpt lat="47.00197" lon="5.837">
        <ele>247</ele>
        <time>2022-03-17T08:14:09.354Z</time>
      </trkpt>
      <trkpt lat="47.00204" lon="5.83703">
        <ele>247</ele>
        <time>2022-03-17T08:14:14.336Z</time>
      </trkpt>
      <trkpt lat="47.0021" lon="5.83706">
        <ele>247</ele>
        <time>2022-03-17T08:14:19.343Z</time>
      </trkpt>
      <trkpt lat="47.00216" lon="5.83709">
        <ele>247</ele>
        <time>2022-03-17T08:14:24.379Z</time>
      </trkpt>
      <trkpt lat="47.00221" lon="5.83712">
        <ele>247</ele>
        <time>2022-03-17T08:14:29.371Z</time>
      </trkpt>
      <trkpt lat="47.00227" lon="5.83715">
        <ele>247</ele>
        <time>2022-03-17T08:14:34.363Z</time>
      </trkpt>
      <trkpt lat="47.00233" lon="5.83718">
        <ele>247</ele>
        <time>2022-03-17T08:14:39.348Z</time>
      </trkpt>
      <trkpt lat="47.00239" lon="5.83721">
        <ele>245</ele>
        <time>2022-03-17T08:14:44.318Z</time>
      </trkpt>
      <trkpt lat="47.00244" lon="5.83723">
        <ele>245</ele>
        <time>2022-03-17T08:14:48.340Z</time>
      </trkpt>
      <trkpt lat="47.0025" lon="5.83726">
        <ele>245</ele>
        <time>2022-03-17T08:14:52.382Z</time>
      </trkpt>
      <trkpt lat="47.00256" lon="5.83727">
        <ele>245</ele>
        <time>2022-03-17T08:14:57.347Z</time>
      </trkpt>
      <trkpt lat="47.00261" lon="5.83728">
        <ele>245</ele>
        <time>2022-03-17T08:15:02.347Z</time>
      </trkpt>
      <trkpt lat="47.00267" lon="5.83731">
        <ele>245</ele>
        <time>2022-03-17T08:15:07.376Z</time>
      </trkpt>
      <trkpt lat="47.00273" lon="5.83735">
        <ele>245</ele>
        <time>2022-03-17T08:15:12.389Z</time>
      </trkpt>
      <trkpt lat="47.0028" lon="5.83738">
        <ele>244</ele>
        <time>2022-03-17T08:15:17.378Z</time>
      </trkpt>
      <trkpt lat="47.00287" lon="5.8374">
        <ele>244</ele>
        <time>2022-03-17T08:15:22.338Z</time>
      </trkpt>
      <trkpt lat="47.00293" lon="5.83741">
        <ele>246</ele>
        <time>2022-03-17T08:15:27.336Z</time>
      </trkpt>
      <trkpt lat="47.00298" lon="5.83742">
        <ele>246</ele>
        <time>2022-03-17T08:15:31.377Z</time>
      </trkpt>
      <trkpt lat="47.00302" lon="5.83744">
        <ele>246</ele>
        <time>2022-03-17T08:15:35.360Z</time>
      </trkpt>
      <trkpt lat="47.00307" lon="5.83746">
        <ele>246</ele>
        <time>2022-03-17T08:15:40.351Z</time>
      </trkpt>
      <trkpt lat="47.00312" lon="5.83747">
        <ele>246</ele>
        <time>2022-03-17T08:15:44.351Z</time>
      </trkpt>
      <trkpt lat="47.00319" lon="5.83751">
        <ele>246</ele>
        <time>2022-03-17T08:15:49.370Z</time>
      </trkpt>
      <trkpt lat="47.00325" lon="5.83753">
        <ele>248</ele>
        <time>2022-03-17T08:15:54.362Z</time>
      </trkpt>
      <trkpt lat="47.0033" lon="5.83756">
        <ele>248</ele>
        <time>2022-03-17T08:15:58.381Z</time>
      </trkpt>
      <trkpt lat="47.00337" lon="5.83758">
        <ele>248</ele>
        <time>2022-03-17T08:16:03.329Z</time>
      </trkpt>
      <trkpt lat="47.00342" lon="5.8376">
        <ele>248</ele>
        <time>2022-03-17T08:16:07.353Z</time>
      </trkpt>
      <trkpt lat="47.00348" lon="5.83763">
        <ele>249</ele>
        <time>2022-03-17T08:16:12.337Z</time>
      </trkpt>
      <trkpt lat="47.00353" lon="5.83766">
        <ele>248</ele>
        <time>2022-03-17T08:16:16.352Z</time>
      </trkpt>
      <trkpt lat="47.00361" lon="5.83769">
        <ele>248</ele>
        <time>2022-03-17T08:16:21.353Z</time>
      </trkpt>
      <trkpt lat="47.00366" lon="5.83771">
        <ele>248</ele>
        <time>2022-03-17T08:16:25.391Z</time>
      </trkpt>
      <trkpt lat="47.0037" lon="5.83774">
        <ele>248</ele>
        <time>2022-03-17T08:16:30.374Z</time>
      </trkpt>
      <trkpt lat="47.00377" lon="5.83776">
        <ele>249</ele>
        <time>2022-03-17T08:16:35.379Z</time>
      </trkpt>
      <trkpt lat="47.00383" lon="5.83777">
        <ele>249</ele>
        <time>2022-03-17T08:16:40.339Z</time>
      </trkpt>
      <trkpt lat="47.00388" lon="5.8378">
        <ele>249</ele>
        <time>2022-03-17T08:16:45.348Z</time>
      </trkpt>
      <trkpt lat="47.00395" lon="5.83783">
        <ele>249</ele>
        <time>2022-03-17T08:16:50.351Z</time>
      </trkpt>
      <trkpt lat="47.004" lon="5.83785">
        <ele>249</ele>
        <time>2022-03-17T08:16:54.323Z</time>
      </trkpt>
      <trkpt lat="47.00406" lon="5.83789">
        <ele>251</ele>
        <time>2022-03-17T08:16:59.326Z</time>
      </trkpt>
      <trkpt lat="47.00412" lon="5.83793">
        <ele>249</ele>
        <time>2022-03-17T08:17:04.341Z</time>
      </trkpt>
      <trkpt lat="47.00416" lon="5.83795">
        <ele>249</ele>
        <time>2022-03-17T08:17:08.349Z</time>
      </trkpt>
      <trkpt lat="47.00422" lon="5.83798">
        <ele>249</ele>
        <time>2022-03-17T08:17:13.343Z</time>
      </trkpt>
      <trkpt lat="47.00427" lon="5.838">
        <ele>249</ele>
        <time>2022-03-17T08:17:18.344Z</time>
      </trkpt>
      <trkpt lat="47.00427" lon="5.838">
        <ele>249</ele>
        <time>2022-03-17T08:17:23.368Z</time>
      </trkpt>
      <trkpt lat="47.00431" lon="5.83802">
        <ele>251</ele>
        <time>2022-03-17T08:17:28.356Z</time>
      </trkpt>
      <trkpt lat="47.00439" lon="5.83806">
        <ele>251</ele>
        <time>2022-03-17T08:17:33.355Z</time>
      </trkpt>
      <trkpt lat="47.00446" lon="5.83808">
        <ele>251</ele>
        <time>2022-03-17T08:17:38.339Z</time>
      </trkpt>
      <trkpt lat="47.0045" lon="5.83812">
        <ele>251</ele>
        <time>2022-03-17T08:17:43.278Z</time>
      </trkpt>
      <trkpt lat="47.00455" lon="5.83814">
        <ele>251</ele>
        <time>2022-03-17T08:17:47.396Z</time>
      </trkpt>
      <trkpt lat="47.00461" lon="5.83818">
        <ele>256</ele>
        <time>2022-03-17T08:17:52.350Z</time>
      </trkpt>
      <trkpt lat="47.00466" lon="5.83819">
        <ele>256</ele>
        <time>2022-03-17T08:17:57.350Z</time>
      </trkpt>
      <trkpt lat="47.00472" lon="5.83822">
        <ele>250</ele>
        <time>2022-03-17T08:18:02.385Z</time>
      </trkpt>
      <trkpt lat="47.00477" lon="5.83826">
        <ele>250</ele>
        <time>2022-03-17T08:18:07.376Z</time>
      </trkpt>
      <trkpt lat="47.00483" lon="5.83829">
        <ele>250</ele>
        <time>2022-03-17T08:18:12.360Z</time>
      </trkpt>
      <trkpt lat="47.00489" lon="5.8383">
        <ele>256</ele>
        <time>2022-03-17T08:18:17.385Z</time>
      </trkpt>
      <trkpt lat="47.00494" lon="5.83833">
        <ele>256</ele>
        <time>2022-03-17T08:18:22.339Z</time>
      </trkpt>
      <trkpt lat="47.005" lon="5.83837">
        <ele>256</ele>
        <time>2022-03-17T08:18:27.353Z</time>
      </trkpt>
      <trkpt lat="47.00505" lon="5.83841">
        <ele>256</ele>
        <time>2022-03-17T08:18:32.358Z</time>
      </trkpt>
      <trkpt lat="47.00511" lon="5.83843">
        <ele>256</ele>
        <time>2022-03-17T08:18:37.347Z</time>
      </trkpt>
      <trkpt lat="47.00518" lon="5.83844">
        <ele>262</ele>
        <time>2022-03-17T08:18:42.394Z</time>
      </trkpt>
      <trkpt lat="47.00523" lon="5.83846">
        <ele>262</ele>
        <time>2022-03-17T08:18:47.338Z</time>
      </trkpt>
      <trkpt lat="47.00528" lon="5.83848">
        <ele>253</ele>
        <time>2022-03-17T08:18:52.286Z</time>
      </trkpt>
      <trkpt lat="47.00533" lon="5.83851">
        <ele>253</ele>
        <time>2022-03-17T08:18:57.289Z</time>
      </trkpt>
      <trkpt lat="47.00537" lon="5.83855">
        <ele>253</ele>
        <time>2022-03-17T08:19:01.362Z</time>
      </trkpt>
      <trkpt lat="47.00544" lon="5.8386">
        <ele>254</ele>
        <time>2022-03-17T08:19:06.292Z</time>
      </trkpt>
      <trkpt lat="47.00548" lon="5.83864">
        <ele>254</ele>
        <time>2022-03-17T08:19:10.337Z</time>
      </trkpt>
      <trkpt lat="47.00554" lon="5.83868">
        <ele>254</ele>
        <time>2022-03-17T08:19:15.334Z</time>
      </trkpt>
      <trkpt lat="47.00559" lon="5.8387">
        <ele>254</ele>
        <time>2022-03-17T08:19:19.331Z</time>
      </trkpt>
      <trkpt lat="47.00564" lon="5.83871">
        <ele>254</ele>
        <time>2022-03-17T08:19:23.338Z</time>
      </trkpt>
      <trkpt lat="47.0057" lon="5.83875">
        <ele>257</ele>
        <time>2022-03-17T08:19:28.333Z</time>
      </trkpt>
      <trkpt lat="47.00577" lon="5.83878">
        <ele>250</ele>
        <time>2022-03-17T08:19:33.323Z</time>
      </trkpt>
      <trkpt lat="47.00582" lon="5.83878">
        <ele>250</ele>
        <time>2022-03-17T08:19:37.344Z</time>
      </trkpt>
      <trkpt lat="47.00587" lon="5.83881">
        <ele>250</ele>
        <time>2022-03-17T08:19:42.323Z</time>
      </trkpt>
      <trkpt lat="47.00592" lon="5.83884">
        <ele>250</ele>
        <time>2022-03-17T08:19:47.312Z</time>
      </trkpt>
      <trkpt lat="47.00596" lon="5.83884">
        <ele>250</ele>
        <time>2022-03-17T08:19:52.293Z</time>
      </trkpt>
      <trkpt lat="47.00599" lon="5.83879">
        <ele>252</ele>
        <time>2022-03-17T08:24:47.372Z</time>
      </trkpt>
      <trkpt lat="47.00602" lon="5.8388">
        <ele>252</ele>
        <time>2022-03-17T08:24:52.362Z</time>
      </trkpt>
      <trkpt lat="47.00606" lon="5.8388">
        <ele>252</ele>
        <time>2022-03-17T08:24:56.358Z</time>
      </trkpt>
      <trkpt lat="47.00611" lon="5.83875">
        <ele>252</ele>
        <time>2022-03-17T08:25:01.363Z</time>
      </trkpt>
      <trkpt lat="47.00613" lon="5.83876">
        <ele>252</ele>
        <time>2022-03-17T08:25:06.358Z</time>
      </trkpt>
      <trkpt lat="47.00616" lon="5.83878">
        <ele>252</ele>
        <time>2022-03-17T08:25:11.349Z</time>
      </trkpt>
      <trkpt lat="47.00621" lon="5.8388">
        <ele>252</ele>
        <time>2022-03-17T08:25:16.352Z</time>
      </trkpt>
      <trkpt lat="47.00625" lon="5.83881">
        <ele>253</ele>
        <time>2022-03-17T08:25:20.382Z</time>
      </trkpt>
      <trkpt lat="47.00631" lon="5.83885">
        <ele>253</ele>
        <time>2022-03-17T08:25:25.380Z</time>
      </trkpt>
      <trkpt lat="47.00635" lon="5.83889">
        <ele>253</ele>
        <time>2022-03-17T08:25:30.337Z</time>
      </trkpt>
      <trkpt lat="47.0064" lon="5.83891">
        <ele>253</ele>
        <time>2022-03-17T08:25:34.349Z</time>
      </trkpt>
      <trkpt lat="47.00646" lon="5.83895">
        <ele>253</ele>
        <time>2022-03-17T08:25:39.340Z</time>
      </trkpt>
      <trkpt lat="47.0065" lon="5.83899">
        <ele>253</ele>
        <time>2022-03-17T08:25:44.348Z</time>
      </trkpt>
      <trkpt lat="47.00653" lon="5.839">
        <ele>256</ele>
        <time>2022-03-17T08:25:48.373Z</time>
      </trkpt>
      <trkpt lat="47.00659" lon="5.83901">
        <ele>256</ele>
        <time>2022-03-17T08:25:53.321Z</time>
      </trkpt>
      <trkpt lat="47.00663" lon="5.83905">
        <ele>250</ele>
        <time>2022-03-17T08:25:58.350Z</time>
      </trkpt>
      <trkpt lat="47.00667" lon="5.83908">
        <ele>250</ele>
        <time>2022-03-17T08:26:02.350Z</time>
      </trkpt>
      <trkpt lat="47.00672" lon="5.83913">
        <ele>250</ele>
        <time>2022-03-17T08:26:07.352Z</time>
      </trkpt>
      <trkpt lat="47.00674" lon="5.83914">
        <ele>250</ele>
        <time>2022-03-17T08:26:12.398Z</time>
      </trkpt>
      <trkpt lat="47.00678" lon="5.83916">
        <ele>250</ele>
        <time>2022-03-17T08:26:17.348Z</time>
      </trkpt>
      <trkpt lat="47.00683" lon="5.83916">
        <ele>254</ele>
        <time>2022-03-17T08:26:22.364Z</time>
      </trkpt>
      <trkpt lat="47.00687" lon="5.83918">
        <ele>254</ele>
        <time>2022-03-17T08:26:27.361Z</time>
      </trkpt>
      <trkpt lat="47.00693" lon="5.83919">
        <ele>254</ele>
        <time>2022-03-17T08:26:32.355Z</time>
      </trkpt>
      <trkpt lat="47.00701" lon="5.83919">
        <ele>254</ele>
        <time>2022-03-17T08:26:37.296Z</time>
      </trkpt>
      <trkpt lat="47.00706" lon="5.83921">
        <ele>254</ele>
        <time>2022-03-17T08:26:41.353Z</time>
      </trkpt>
      <trkpt lat="47.00712" lon="5.83925">
        <ele>259</ele>
        <time>2022-03-17T08:26:46.371Z</time>
      </trkpt>
      <trkpt lat="47.00718" lon="5.83928">
        <ele>259</ele>
        <time>2022-03-17T08:26:51.351Z</time>
      </trkpt>
      <trkpt lat="47.00721" lon="5.83932">
        <ele>254</ele>
        <time>2022-03-17T08:26:55.388Z</time>
      </trkpt>
      <trkpt lat="47.00725" lon="5.83935">
        <ele>254</ele>
        <time>2022-03-17T08:27:00.356Z</time>
      </trkpt>
      <trkpt lat="47.00732" lon="5.83938">
        <ele>254</ele>
        <time>2022-03-17T08:27:05.319Z</time>
      </trkpt>
      <trkpt lat="47.00736" lon="5.83941">
        <ele>254</ele>
        <time>2022-03-17T08:27:10.333Z</time>
      </trkpt>
      <trkpt lat="47.00742" lon="5.83941">
        <ele>257</ele>
        <time>2022-03-17T08:27:15.339Z</time>
      </trkpt>
      <trkpt lat="47.00747" lon="5.83944">
        <ele>257</ele>
        <time>2022-03-17T08:27:20.330Z</time>
      </trkpt>
      <trkpt lat="47.00752" lon="5.83946">
        <ele>257</ele>
        <time>2022-03-17T08:27:24.338Z</time>
      </trkpt>
      <trkpt lat="47.00759" lon="5.83951">
        <ele>257</ele>
        <time>2022-03-17T08:27:29.336Z</time>
      </trkpt>
      <trkpt lat="47.00762" lon="5.83954">
        <ele>257</ele>
        <time>2022-03-17T08:27:33.344Z</time>
      </trkpt>
      <trkpt lat="47.00767" lon="5.83958">
        <ele>260</ele>
        <time>2022-03-17T08:27:38.343Z</time>
      </trkpt>
      <trkpt lat="47.00772" lon="5.83964">
        <ele>253</ele>
        <time>2022-03-17T08:27:43.366Z</time>
      </trkpt>
      <trkpt lat="47.00775" lon="5.83968">
        <ele>253</ele>
        <time>2022-03-17T08:27:47.363Z</time>
      </trkpt>
      <trkpt lat="47.0078" lon="5.83968">
        <ele>253</ele>
        <time>2022-03-17T08:27:52.347Z</time>
      </trkpt>
      <trkpt lat="47.00786" lon="5.83967">
        <ele>253</ele>
        <time>2022-03-17T08:27:57.345Z</time>
      </trkpt>
      <trkpt lat="47.00791" lon="5.83971">
        <ele>253</ele>
        <time>2022-03-17T08:28:02.350Z</time>
      </trkpt>
      <trkpt lat="47.00799" lon="5.83974">
        <ele>257</ele>
        <time>2022-03-17T08:28:07.345Z</time>
      </trkpt>
      <trkpt lat="47.00802" lon="5.83973">
        <ele>257</ele>
        <time>2022-03-17T08:28:11.390Z</time>
      </trkpt>
      <trkpt lat="47.00807" lon="5.8398">
        <ele>257</ele>
        <time>2022-03-17T08:28:16.359Z</time>
      </trkpt>
      <trkpt lat="47.00811" lon="5.83985">
        <ele>257</ele>
        <time>2022-03-17T08:28:21.347Z</time>
      </trkpt>
      <trkpt lat="47.00816" lon="5.8399">
        <ele>251</ele>
        <time>2022-03-17T08:28:26.346Z</time>
      </trkpt>
      <trkpt lat="47.00821" lon="5.83995">
        <ele>254</ele>
        <time>2022-03-17T08:28:31.359Z</time>
      </trkpt>
      <trkpt lat="47.00826" lon="5.84001">
        <ele>254</ele>
        <time>2022-03-17T08:28:36.349Z</time>
      </trkpt>
      <trkpt lat="47.00829" lon="5.84007">
        <ele>254</ele>
        <time>2022-03-17T08:28:41.351Z</time>
      </trkpt>
      <trkpt lat="47.00834" lon="5.84014">
        <ele>249</ele>
        <time>2022-03-17T08:28:46.363Z</time>
      </trkpt>
      <trkpt lat="47.00835" lon="5.84016">
        <ele>249</ele>
        <time>2022-03-17T08:28:51.334Z</time>
      </trkpt>
      <trkpt lat="47.00842" lon="5.84015">
        <ele>249</ele>
        <time>2022-03-17T08:28:55.377Z</time>
      </trkpt>
      <trkpt lat="47.00849" lon="5.84013">
        <ele>261</ele>
        <time>2022-03-17T08:29:00.351Z</time>
      </trkpt>
      <trkpt lat="47.00853" lon="5.84014">
        <ele>253</ele>
        <time>2022-03-17T08:29:05.352Z</time>
      </trkpt>
      <trkpt lat="47.00856" lon="5.84016">
        <ele>253</ele>
        <time>2022-03-17T08:29:10.353Z</time>
      </trkpt>
      <trkpt lat="47.00862" lon="5.84023">
        <ele>253</ele>
        <time>2022-03-17T08:29:15.380Z</time>
      </trkpt>
      <trkpt lat="47.00868" lon="5.84028">
        <ele>253</ele>
        <time>2022-03-17T08:29:20.319Z</time>
      </trkpt>
      <trkpt lat="47.00873" lon="5.8403">
        <ele>253</ele>
        <time>2022-03-17T08:29:24.356Z</time>
      </trkpt>
      <trkpt lat="47.0088" lon="5.84033">
        <ele>265</ele>
        <time>2022-03-17T08:29:29.350Z</time>
      </trkpt>
      <trkpt lat="47.00884" lon="5.84039">
        <ele>265</ele>
        <time>2022-03-17T08:29:34.342Z</time>
      </trkpt>
      <trkpt lat="47.00889" lon="5.84044">
        <ele>255</ele>
        <time>2022-03-17T08:29:39.346Z</time>
      </trkpt>
      <trkpt lat="47.00895" lon="5.8405">
        <ele>255</ele>
        <time>2022-03-17T08:29:44.335Z</time>
      </trkpt>
      <trkpt lat="47.00899" lon="5.84055">
        <ele>255</ele>
        <time>2022-03-17T08:29:49.343Z</time>
      </trkpt>
      <trkpt lat="47.00904" lon="5.84057">
        <ele>264</ele>
        <time>2022-03-17T08:29:54.378Z</time>
      </trkpt>
      <trkpt lat="47.00909" lon="5.8406">
        <ele>264</ele>
        <time>2022-03-17T08:29:59.362Z</time>
      </trkpt>
      <trkpt lat="47.00913" lon="5.84064">
        <ele>264</ele>
        <time>2022-03-17T08:30:04.343Z</time>
      </trkpt>
      <trkpt lat="47.00916" lon="5.84069">
        <ele>264</ele>
        <time>2022-03-17T08:30:08.351Z</time>
      </trkpt>
      <trkpt lat="47.00919" lon="5.84076">
        <ele>255</ele>
        <time>2022-03-17T08:30:13.341Z</time>
      </trkpt>
      <trkpt lat="47.00923" lon="5.84085">
        <ele>255</ele>
        <time>2022-03-17T08:30:18.321Z</time>
      </trkpt>
      <trkpt lat="47.00925" lon="5.8409">
        <ele>255</ele>
        <time>2022-03-17T08:30:23.320Z</time>
      </trkpt>
      <trkpt lat="47.00928" lon="5.84099">
        <ele>251</ele>
        <time>2022-03-17T08:30:28.359Z</time>
      </trkpt>
      <trkpt lat="47.00932" lon="5.84107">
        <ele>260</ele>
        <time>2022-03-17T08:30:33.343Z</time>
      </trkpt>
      <trkpt lat="47.00935" lon="5.84117">
        <ele>260</ele>
        <time>2022-03-17T08:30:38.356Z</time>
      </trkpt>
      <trkpt lat="47.00937" lon="5.84125">
        <ele>260</ele>
        <time>2022-03-17T08:30:43.323Z</time>
      </trkpt>
      <trkpt lat="47.0094" lon="5.84131">
        <ele>256</ele>
        <time>2022-03-17T08:30:48.352Z</time>
      </trkpt>
      <trkpt lat="47.00944" lon="5.84136">
        <ele>256</ele>
        <time>2022-03-17T08:30:52.369Z</time>
      </trkpt>
      <trkpt lat="47.00949" lon="5.84142">
        <ele>256</ele>
        <time>2022-03-17T08:30:57.362Z</time>
      </trkpt>
      <trkpt lat="47.00953" lon="5.84148">
        <ele>256</ele>
        <time>2022-03-17T08:31:01.360Z</time>
      </trkpt>
      <trkpt lat="47.00958" lon="5.84158">
        <ele>255</ele>
        <time>2022-03-17T08:31:06.334Z</time>
      </trkpt>
      <trkpt lat="47.00962" lon="5.84164">
        <ele>262</ele>
        <time>2022-03-17T08:31:10.368Z</time>
      </trkpt>
      <trkpt lat="47.00965" lon="5.84171">
        <ele>262</ele>
        <time>2022-03-17T08:31:15.370Z</time>
      </trkpt>
      <trkpt lat="47.00969" lon="5.84177">
        <ele>262</ele>
        <time>2022-03-17T08:31:20.355Z</time>
      </trkpt>
      <trkpt lat="47.00971" lon="5.84184">
        <ele>261</ele>
        <time>2022-03-17T08:31:25.338Z</time>
      </trkpt>
      <trkpt lat="47.00975" lon="5.84191">
        <ele>261</ele>
        <time>2022-03-17T08:31:30.358Z</time>
      </trkpt>
      <trkpt lat="47.00979" lon="5.84199">
        <ele>261</ele>
        <time>2022-03-17T08:31:35.337Z</time>
      </trkpt>
      <trkpt lat="47.00982" lon="5.84204">
        <ele>261</ele>
        <time>2022-03-17T08:31:39.371Z</time>
      </trkpt>
      <trkpt lat="47.00986" lon="5.8421">
        <ele>258</ele>
        <time>2022-03-17T08:31:44.313Z</time>
      </trkpt>
      <trkpt lat="47.0099" lon="5.84218">
        <ele>265</ele>
        <time>2022-03-17T08:31:48.330Z</time>
      </trkpt>
      <trkpt lat="47.00995" lon="5.84225">
        <ele>265</ele>
        <time>2022-03-17T08:31:53.353Z</time>
      </trkpt>
      <trkpt lat="47.00997" lon="5.84234">
        <ele>265</ele>
        <time>2022-03-17T08:31:58.356Z</time>
      </trkpt>
      <trkpt lat="47.01" lon="5.84241">
        <ele>262</ele>
        <time>2022-03-17T08:32:03.347Z</time>
      </trkpt>
      <trkpt lat="47.01003" lon="5.84251">
        <ele>262</ele>
        <time>2022-03-17T08:32:08.324Z</time>
      </trkpt>
      <trkpt lat="47.01006" lon="5.84259">
        <ele>262</ele>
        <time>2022-03-17T08:32:13.298Z</time>
      </trkpt>
      <trkpt lat="47.01007" lon="5.84265">
        <ele>257</ele>
        <time>2022-03-17T08:32:17.350Z</time>
      </trkpt>
      <trkpt lat="47.01008" lon="5.84274">
        <ele>257</ele>
        <time>2022-03-17T08:32:22.367Z</time>
      </trkpt>
      <trkpt lat="47.0101" lon="5.84281">
        <ele>257</ele>
        <time>2022-03-17T08:32:27.373Z</time>
      </trkpt>
      <trkpt lat="47.01013" lon="5.84291">
        <ele>257</ele>
        <time>2022-03-17T08:32:32.356Z</time>
      </trkpt>
      <trkpt lat="47.01015" lon="5.84298">
        <ele>261</ele>
        <time>2022-03-17T08:32:36.345Z</time>
      </trkpt>
      <trkpt lat="47.01016" lon="5.84308">
        <ele>261</ele>
        <time>2022-03-17T08:32:41.362Z</time>
      </trkpt>
      <trkpt lat="47.01019" lon="5.84317">
        <ele>261</ele>
        <time>2022-03-17T08:32:46.353Z</time>
      </trkpt>
      <trkpt lat="47.01019" lon="5.84327">
        <ele>258</ele>
        <time>2022-03-17T08:32:51.342Z</time>
      </trkpt>
      <trkpt lat="47.01019" lon="5.84337">
        <ele>258</ele>
        <time>2022-03-17T08:32:56.350Z</time>
      </trkpt>
      <trkpt lat="47.01019" lon="5.84345">
        <ele>258</ele>
        <time>2022-03-17T08:33:01.373Z</time>
      </trkpt>
      <trkpt lat="47.01022" lon="5.84354">
        <ele>257</ele>
        <time>2022-03-17T08:33:06.358Z</time>
      </trkpt>
      <trkpt lat="47.01024" lon="5.84361">
        <ele>257</ele>
        <time>2022-03-17T08:33:11.339Z</time>
      </trkpt>
      <trkpt lat="47.01025" lon="5.84368">
        <ele>257</ele>
        <time>2022-03-17T08:33:15.380Z</time>
      </trkpt>
      <trkpt lat="47.01027" lon="5.84376">
        <ele>257</ele>
        <time>2022-03-17T08:33:20.385Z</time>
      </trkpt>
      <trkpt lat="47.01031" lon="5.8438">
        <ele>257</ele>
        <time>2022-03-17T08:33:25.384Z</time>
      </trkpt>
      <trkpt lat="47.01032" lon="5.84388">
        <ele>257</ele>
        <time>2022-03-17T08:33:30.380Z</time>
      </trkpt>
      <trkpt lat="47.01035" lon="5.84396">
        <ele>257</ele>
        <time>2022-03-17T08:33:35.339Z</time>
      </trkpt>
      <trkpt lat="47.01036" lon="5.84404">
        <ele>255</ele>
        <time>2022-03-17T08:33:39.344Z</time>
      </trkpt>
      <trkpt lat="47.01038" lon="5.84413">
        <ele>255</ele>
        <time>2022-03-17T08:33:44.319Z</time>
      </trkpt>
      <trkpt lat="47.0104" lon="5.84421">
        <ele>255</ele>
        <time>2022-03-17T08:33:48.347Z</time>
      </trkpt>
      <trkpt lat="47.01041" lon="5.84428">
        <ele>255</ele>
        <time>2022-03-17T08:33:53.353Z</time>
      </trkpt>
      <trkpt lat="47.01042" lon="5.84437">
        <ele>261</ele>
        <time>2022-03-17T08:33:58.369Z</time>
      </trkpt>
      <trkpt lat="47.01043" lon="5.84446">
        <ele>261</ele>
        <time>2022-03-17T08:34:03.332Z</time>
      </trkpt>
      <trkpt lat="47.01045" lon="5.84453">
        <ele>261</ele>
        <time>2022-03-17T08:34:07.376Z</time>
      </trkpt>
      <trkpt lat="47.01048" lon="5.84461">
        <ele>260</ele>
        <time>2022-03-17T08:34:12.340Z</time>
      </trkpt>
      <trkpt lat="47.0105" lon="5.84468">
        <ele>260</ele>
        <time>2022-03-17T08:34:17.352Z</time>
      </trkpt>
      <trkpt lat="47.01051" lon="5.84476">
        <ele>260</ele>
        <time>2022-03-17T08:34:22.338Z</time>
      </trkpt>
      <trkpt lat="47.01052" lon="5.84486">
        <ele>257</ele>
        <time>2022-03-17T08:34:27.334Z</time>
      </trkpt>
      <trkpt lat="47.01052" lon="5.84493">
        <ele>257</ele>
        <time>2022-03-17T08:34:32.377Z</time>
      </trkpt>
      <trkpt lat="47.01053" lon="5.845">
        <ele>257</ele>
        <time>2022-03-17T08:34:37.360Z</time>
      </trkpt>
      <trkpt lat="47.01052" lon="5.84508">
        <ele>257</ele>
        <time>2022-03-17T08:34:42.359Z</time>
      </trkpt>
      <trkpt lat="47.01055" lon="5.84516">
        <ele>255</ele>
        <time>2022-03-17T08:34:47.360Z</time>
      </trkpt>
      <trkpt lat="47.01055" lon="5.84525">
        <ele>255</ele>
        <time>2022-03-17T08:34:52.363Z</time>
      </trkpt>
      <trkpt lat="47.01055" lon="5.84535">
        <ele>255</ele>
        <time>2022-03-17T08:34:57.382Z</time>
      </trkpt>
      <trkpt lat="47.01056" lon="5.84544">
        <ele>253</ele>
        <time>2022-03-17T08:35:02.335Z</time>
      </trkpt>
      <trkpt lat="47.01055" lon="5.84552">
        <ele>253</ele>
        <time>2022-03-17T08:35:06.367Z</time>
      </trkpt>
      <trkpt lat="47.01055" lon="5.8456">
        <ele>253</ele>
        <time>2022-03-17T08:35:11.367Z</time>
      </trkpt>
      <trkpt lat="47.01054" lon="5.8457">
        <ele>251</ele>
        <time>2022-03-17T08:35:16.393Z</time>
      </trkpt>
      <trkpt lat="47.01056" lon="5.84578">
        <ele>251</ele>
        <time>2022-03-17T08:35:21.338Z</time>
      </trkpt>
      <trkpt lat="47.01055" lon="5.84582">
        <ele>251</ele>
        <time>2022-03-17T08:35:25.358Z</time>
      </trkpt>
      <trkpt lat="47.01054" lon="5.84589">
        <ele>251</ele>
        <time>2022-03-17T08:35:30.347Z</time>
      </trkpt>
      <trkpt lat="47.01051" lon="5.84592">
        <ele>251</ele>
        <time>2022-03-17T08:35:35.331Z</time>
      </trkpt>
      <trkpt lat="47.0105" lon="5.84599">
        <ele>251</ele>
        <time>2022-03-17T08:35:39.348Z</time>
      </trkpt>
      <trkpt lat="47.01049" lon="5.84609">
        <ele>251</ele>
        <time>2022-03-17T08:35:44.335Z</time>
      </trkpt>
      <trkpt lat="47.01049" lon="5.84617">
        <ele>251</ele>
        <time>2022-03-17T08:35:48.364Z</time>
      </trkpt>
      <trkpt lat="47.01052" lon="5.84625">
        <ele>251</ele>
        <time>2022-03-17T08:35:53.352Z</time>
      </trkpt>
      <trkpt lat="47.01055" lon="5.84633">
        <ele>248</ele>
        <time>2022-03-17T08:35:58.359Z</time>
      </trkpt>
      <trkpt lat="47.01059" lon="5.8464">
        <ele>248</ele>
        <time>2022-03-17T08:36:03.329Z</time>
      </trkpt>
      <trkpt lat="47.01063" lon="5.84643">
        <ele>248</ele>
        <time>2022-03-17T08:36:08.334Z</time>
      </trkpt>
      <trkpt lat="47.01065" lon="5.84647">
        <ele>248</ele>
        <time>2022-03-17T08:36:12.366Z</time>
      </trkpt>
      <trkpt lat="47.0107" lon="5.84652">
        <ele>250</ele>
        <time>2022-03-17T08:36:17.363Z</time>
      </trkpt>
      <trkpt lat="47.01074" lon="5.84657">
        <ele>248</ele>
        <time>2022-03-17T08:36:21.379Z</time>
      </trkpt>
      <trkpt lat="47.01078" lon="5.84662">
        <ele>248</ele>
        <time>2022-03-17T08:36:26.299Z</time>
      </trkpt>
      <trkpt lat="47.01081" lon="5.8467">
        <ele>248</ele>
        <time>2022-03-17T08:36:31.351Z</time>
      </trkpt>
      <trkpt lat="47.01086" lon="5.84675">
        <ele>248</ele>
        <time>2022-03-17T08:36:35.357Z</time>
      </trkpt>
      <trkpt lat="47.01091" lon="5.84684">
        <ele>248</ele>
        <time>2022-03-17T08:36:40.356Z</time>
      </trkpt>
      <trkpt lat="47.01097" lon="5.84692">
        <ele>248</ele>
        <time>2022-03-17T08:36:45.344Z</time>
      </trkpt>
      <trkpt lat="47.01103" lon="5.84699">
        <ele>249</ele>
        <time>2022-03-17T08:36:50.340Z</time>
      </trkpt>
      <trkpt lat="47.01108" lon="5.84704">
        <ele>249</ele>
        <time>2022-03-17T08:36:55.403Z</time>
      </trkpt>
      <trkpt lat="47.01112" lon="5.84707">
        <ele>249</ele>
        <time>2022-03-17T08:37:00.340Z</time>
      </trkpt>
      <trkpt lat="47.01118" lon="5.84711">
        <ele>249</ele>
        <time>2022-03-17T08:37:05.333Z</time>
      </trkpt>
      <trkpt lat="47.01123" lon="5.84716">
        <ele>249</ele>
        <time>2022-03-17T08:37:10.282Z</time>
      </trkpt>
      <trkpt lat="47.01132" lon="5.84718">
        <ele>249</ele>
        <time>2022-03-17T08:37:15.322Z</time>
      </trkpt>
      <trkpt lat="47.01136" lon="5.84725">
        <ele>249</ele>
        <time>2022-03-17T08:37:20.267Z</time>
      </trkpt>
      <trkpt lat="47.01141" lon="5.84732">
        <ele>249</ele>
        <time>2022-03-17T08:37:24.310Z</time>
      </trkpt>
      <trkpt lat="47.01145" lon="5.84737">
        <ele>247</ele>
        <time>2022-03-17T08:37:28.327Z</time>
      </trkpt>
      <trkpt lat="47.01148" lon="5.84742">
        <ele>247</ele>
        <time>2022-03-17T08:37:32.384Z</time>
      </trkpt>
      <trkpt lat="47.01153" lon="5.84748">
        <ele>247</ele>
        <time>2022-03-17T08:37:37.335Z</time>
      </trkpt>
      <trkpt lat="47.01158" lon="5.84753">
        <ele>249</ele>
        <time>2022-03-17T08:37:42.345Z</time>
      </trkpt>
      <trkpt lat="47.01161" lon="5.84758">
        <ele>249</ele>
        <time>2022-03-17T08:37:46.382Z</time>
      </trkpt>
      <trkpt lat="47.01165" lon="5.84765">
        <ele>249</ele>
        <time>2022-03-17T08:37:51.369Z</time>
      </trkpt>
      <trkpt lat="47.01169" lon="5.84771">
        <ele>249</ele>
        <time>2022-03-17T08:37:55.348Z</time>
      </trkpt>
      <trkpt lat="47.01172" lon="5.84777">
        <ele>249</ele>
        <time>2022-03-17T08:37:59.374Z</time>
      </trkpt>
      <trkpt lat="47.01176" lon="5.84782">
        <ele>249</ele>
        <time>2022-03-17T08:38:04.335Z</time>
      </trkpt>
      <trkpt lat="47.0118" lon="5.84788">
        <ele>249</ele>
        <time>2022-03-17T08:38:08.357Z</time>
      </trkpt>
      <trkpt lat="47.01185" lon="5.84796">
        <ele>249</ele>
        <time>2022-03-17T08:38:13.360Z</time>
      </trkpt>
      <trkpt lat="47.01188" lon="5.84802">
        <ele>249</ele>
        <time>2022-03-17T08:38:18.336Z</time>
      </trkpt>
      <trkpt lat="47.01192" lon="5.84809">
        <ele>249</ele>
        <time>2022-03-17T08:38:23.337Z</time>
      </trkpt>
      <trkpt lat="47.01195" lon="5.84814">
        <ele>249</ele>
        <time>2022-03-17T08:38:27.371Z</time>
      </trkpt>
      <trkpt lat="47.01199" lon="5.84823">
        <ele>249</ele>
        <time>2022-03-17T08:38:32.358Z</time>
      </trkpt>
      <trkpt lat="47.01201" lon="5.84831">
        <ele>249</ele>
        <time>2022-03-17T08:38:37.339Z</time>
      </trkpt>
      <trkpt lat="47.01205" lon="5.84839">
        <ele>249</ele>
        <time>2022-03-17T08:38:42.342Z</time>
      </trkpt>
      <trkpt lat="47.01207" lon="5.84848">
        <ele>249</ele>
        <time>2022-03-17T08:38:47.333Z</time>
      </trkpt>
      <trkpt lat="47.0121" lon="5.84855">
        <ele>249</ele>
        <time>2022-03-17T08:38:52.343Z</time>
      </trkpt>
      <trkpt lat="47.01212" lon="5.84864">
        <ele>249</ele>
        <time>2022-03-17T08:38:57.342Z</time>
      </trkpt>
      <trkpt lat="47.01215" lon="5.84874">
        <ele>249</ele>
        <time>2022-03-17T08:39:02.326Z</time>
      </trkpt>
      <trkpt lat="47.01218" lon="5.84883">
        <ele>249</ele>
        <time>2022-03-17T08:39:06.343Z</time>
      </trkpt>
      <trkpt lat="47.01221" lon="5.84889">
        <ele>249</ele>
        <time>2022-03-17T08:39:10.339Z</time>
      </trkpt>
      <trkpt lat="47.01224" lon="5.84896">
        <ele>249</ele>
        <time>2022-03-17T08:39:15.357Z</time>
      </trkpt>
      <trkpt lat="47.01228" lon="5.84905">
        <ele>248</ele>
        <time>2022-03-17T08:39:20.339Z</time>
      </trkpt>
      <trkpt lat="47.01231" lon="5.84912">
        <ele>248</ele>
        <time>2022-03-17T08:39:25.341Z</time>
      </trkpt>
      <trkpt lat="47.01235" lon="5.84921">
        <ele>248</ele>
        <time>2022-03-17T08:39:30.358Z</time>
      </trkpt>
      <trkpt lat="47.01239" lon="5.84928">
        <ele>249</ele>
        <time>2022-03-17T08:39:35.374Z</time>
      </trkpt>
      <trkpt lat="47.01242" lon="5.84934">
        <ele>249</ele>
        <time>2022-03-17T08:39:40.339Z</time>
      </trkpt>
      <trkpt lat="47.01247" lon="5.84939">
        <ele>249</ele>
        <time>2022-03-17T08:39:44.380Z</time>
      </trkpt>
      <trkpt lat="47.01252" lon="5.84943">
        <ele>249</ele>
        <time>2022-03-17T08:39:49.392Z</time>
      </trkpt>
      <trkpt lat="47.01258" lon="5.84949">
        <ele>249</ele>
        <time>2022-03-17T08:39:54.328Z</time>
      </trkpt>
      <trkpt lat="47.01262" lon="5.84954">
        <ele>249</ele>
        <time>2022-03-17T08:39:58.378Z</time>
      </trkpt>
      <trkpt lat="47.01267" lon="5.84959">
        <ele>249</ele>
        <time>2022-03-17T08:40:03.347Z</time>
      </trkpt>
      <trkpt lat="47.01271" lon="5.84962">
        <ele>249</ele>
        <time>2022-03-17T08:40:07.372Z</time>
      </trkpt>
      <trkpt lat="47.01275" lon="5.84967">
        <ele>249</ele>
        <time>2022-03-17T08:40:12.356Z</time>
      </trkpt>
      <trkpt lat="47.0128" lon="5.84972">
        <ele>249</ele>
        <time>2022-03-17T08:40:17.348Z</time>
      </trkpt>
      <trkpt lat="47.01285" lon="5.84977">
        <ele>249</ele>
        <time>2022-03-17T08:40:22.362Z</time>
      </trkpt>
      <trkpt lat="47.0129" lon="5.84983">
        <ele>249</ele>
        <time>2022-03-17T08:40:27.371Z</time>
      </trkpt>
      <trkpt lat="47.01296" lon="5.84988">
        <ele>248</ele>
        <time>2022-03-17T08:40:32.332Z</time>
      </trkpt>
      <trkpt lat="47.01302" lon="5.84993">
        <ele>248</ele>
        <time>2022-03-17T08:40:37.354Z</time>
      </trkpt>
      <trkpt lat="47.01308" lon="5.84996">
        <ele>248</ele>
        <time>2022-03-17T08:40:42.338Z</time>
      </trkpt>
      <trkpt lat="47.01312" lon="5.84997">
        <ele>248</ele>
        <time>2022-03-17T08:40:46.339Z</time>
      </trkpt>
      <trkpt lat="47.01318" lon="5.84999">
        <ele>248</ele>
        <time>2022-03-17T08:40:51.363Z</time>
      </trkpt>
      <trkpt lat="47.01324" lon="5.85001">
        <ele>249</ele>
        <time>2022-03-17T08:40:56.331Z</time>
      </trkpt>
      <trkpt lat="47.0133" lon="5.85005">
        <ele>249</ele>
        <time>2022-03-17T08:41:01.355Z</time>
      </trkpt>
      <trkpt lat="47.01335" lon="5.85008">
        <ele>249</ele>
        <time>2022-03-17T08:41:06.337Z</time>
      </trkpt>
      <trkpt lat="47.01341" lon="5.85013">
        <ele>249</ele>
        <time>2022-03-17T08:41:11.353Z</time>
      </trkpt>
      <trkpt lat="47.01347" lon="5.85017">
        <ele>249</ele>
        <time>2022-03-17T08:41:16.359Z</time>
      </trkpt>
      <trkpt lat="47.01352" lon="5.85022">
        <ele>250</ele>
        <time>2022-03-17T08:41:21.347Z</time>
      </trkpt>
      <trkpt lat="47.01356" lon="5.85024">
        <ele>250</ele>
        <time>2022-03-17T08:41:25.398Z</time>
      </trkpt>
      <trkpt lat="47.01362" lon="5.85028">
        <ele>250</ele>
        <time>2022-03-17T08:41:30.362Z</time>
      </trkpt>
      <trkpt lat="47.01368" lon="5.85033">
        <ele>250</ele>
        <time>2022-03-17T08:41:35.336Z</time>
      </trkpt>
      <trkpt lat="47.01373" lon="5.85038">
        <ele>250</ele>
        <time>2022-03-17T08:41:40.343Z</time>
      </trkpt>
      <trkpt lat="47.01379" lon="5.85043">
        <ele>250</ele>
        <time>2022-03-17T08:41:45.299Z</time>
      </trkpt>
      <trkpt lat="47.01383" lon="5.85048">
        <ele>250</ele>
        <time>2022-03-17T08:41:49.361Z</time>
      </trkpt>
      <trkpt lat="47.01389" lon="5.85053">
        <ele>250</ele>
        <time>2022-03-17T08:41:54.335Z</time>
      </trkpt>
      <trkpt lat="47.01393" lon="5.85057">
        <ele>250</ele>
        <time>2022-03-17T08:41:58.347Z</time>
      </trkpt>
      <trkpt lat="47.01396" lon="5.85062">
        <ele>250</ele>
        <time>2022-03-17T08:42:03.351Z</time>
      </trkpt>
      <trkpt lat="47.014" lon="5.85065">
        <ele>250</ele>
        <time>2022-03-17T08:42:07.338Z</time>
      </trkpt>
      <trkpt lat="47.01404" lon="5.85073">
        <ele>249</ele>
        <time>2022-03-17T08:42:12.345Z</time>
      </trkpt>
      <trkpt lat="47.01408" lon="5.85079">
        <ele>249</ele>
        <time>2022-03-17T08:42:17.353Z</time>
      </trkpt>
      <trkpt lat="47.01413" lon="5.85085">
        <ele>249</ele>
        <time>2022-03-17T08:42:22.341Z</time>
      </trkpt>
      <trkpt lat="47.01418" lon="5.8509">
        <ele>249</ele>
        <time>2022-03-17T08:42:27.326Z</time>
      </trkpt>
      <trkpt lat="47.01421" lon="5.85093">
        <ele>249</ele>
        <time>2022-03-17T08:42:31.358Z</time>
      </trkpt>
      <trkpt lat="47.01423" lon="5.85096">
        <ele>249</ele>
        <time>2022-03-17T08:42:35.386Z</time>
      </trkpt>
      <trkpt lat="47.01426" lon="5.85099">
        <ele>248</ele>
        <time>2022-03-17T08:42:40.388Z</time>
      </trkpt>
      <trkpt lat="47.01431" lon="5.85105">
        <ele>247</ele>
        <time>2022-03-17T08:42:45.371Z</time>
      </trkpt>
      <trkpt lat="47.01435" lon="5.85112">
        <ele>247</ele>
        <time>2022-03-17T08:42:50.342Z</time>
      </trkpt>
      <trkpt lat="47.0144" lon="5.85118">
        <ele>247</ele>
        <time>2022-03-17T08:42:55.343Z</time>
      </trkpt>
      <trkpt lat="47.01444" lon="5.8512">
        <ele>247</ele>
        <time>2022-03-17T08:43:00.359Z</time>
      </trkpt>
      <trkpt lat="47.0145" lon="5.85123">
        <ele>247</ele>
        <time>2022-03-17T08:43:05.365Z</time>
      </trkpt>
      <trkpt lat="47.01455" lon="5.85126">
        <ele>247</ele>
        <time>2022-03-17T08:43:09.358Z</time>
      </trkpt>
      <trkpt lat="47.0146" lon="5.85132">
        <ele>247</ele>
        <time>2022-03-17T08:43:14.354Z</time>
      </trkpt>
      <trkpt lat="47.01466" lon="5.85138">
        <ele>247</ele>
        <time>2022-03-17T08:43:19.361Z</time>
      </trkpt>
      <trkpt lat="47.01469" lon="5.8514">
        <ele>247</ele>
        <time>2022-03-17T08:43:23.353Z</time>
      </trkpt>
      <trkpt lat="47.01473" lon="5.85144">
        <ele>247</ele>
        <time>2022-03-17T08:43:28.350Z</time>
      </trkpt>
      <trkpt lat="47.01478" lon="5.85149">
        <ele>247</ele>
        <time>2022-03-17T08:43:33.351Z</time>
      </trkpt>
      <trkpt lat="47.01482" lon="5.85154">
        <ele>248</ele>
        <time>2022-03-17T08:43:37.358Z</time>
      </trkpt>
      <trkpt lat="47.01484" lon="5.8516">
        <ele>248</ele>
        <time>2022-03-17T08:43:42.345Z</time>
      </trkpt>
      <trkpt lat="47.0149" lon="5.85164">
        <ele>248</ele>
        <time>2022-03-17T08:43:47.351Z</time>
      </trkpt>
      <trkpt lat="47.01497" lon="5.85168">
        <ele>248</ele>
        <time>2022-03-17T08:43:52.283Z</time>
      </trkpt>
      <trkpt lat="47.01502" lon="5.85172">
        <ele>248</ele>
        <time>2022-03-17T08:43:57.293Z</time>
      </trkpt>
      <trkpt lat="47.01508" lon="5.85178">
        <ele>248</ele>
        <time>2022-03-17T08:44:02.335Z</time>
      </trkpt>
      <trkpt lat="47.01514" lon="5.85181">
        <ele>249</ele>
        <time>2022-03-17T08:44:06.396Z</time>
      </trkpt>
      <trkpt lat="47.01519" lon="5.85185">
        <ele>249</ele>
        <time>2022-03-17T08:44:11.356Z</time>
      </trkpt>
      <trkpt lat="47.01523" lon="5.85189">
        <ele>249</ele>
        <time>2022-03-17T08:44:16.362Z</time>
      </trkpt>
      <trkpt lat="47.01526" lon="5.85193">
        <ele>249</ele>
        <time>2022-03-17T08:44:20.354Z</time>
      </trkpt>
      <trkpt lat="47.0153" lon="5.85195">
        <ele>249</ele>
        <time>2022-03-17T08:44:25.371Z</time>
      </trkpt>
      <trkpt lat="47.01531" lon="5.85197">
        <ele>249</ele>
        <time>2022-03-17T08:44:30.346Z</time>
      </trkpt>
      <trkpt lat="47.01536" lon="5.85199">
        <ele>249</ele>
        <time>2022-03-17T08:44:40.333Z</time>
      </trkpt>
      <trkpt lat="47.01538" lon="5.852">
        <ele>249</ele>
        <time>2022-03-17T08:44:45.334Z</time>
      </trkpt>
      <trkpt lat="47.01542" lon="5.85206">
        <ele>248</ele>
        <time>2022-03-17T08:44:50.339Z</time>
      </trkpt>
      <trkpt lat="47.01544" lon="5.8521">
        <ele>249</ele>
        <time>2022-03-17T08:44:55.364Z</time>
      </trkpt>
      <trkpt lat="47.01546" lon="5.85214">
        <ele>249</ele>
        <time>2022-03-17T08:48:52.327Z</time>
      </trkpt>
      <trkpt lat="47.01548" lon="5.85208">
        <ele>248</ele>
        <time>2022-03-17T08:48:57.345Z</time>
      </trkpt>
      <trkpt lat="47.01552" lon="5.85202">
        <ele>248</ele>
        <time>2022-03-17T08:49:02.354Z</time>
      </trkpt>
      <trkpt lat="47.01554" lon="5.85196">
        <ele>248</ele>
        <time>2022-03-17T08:49:07.359Z</time>
      </trkpt>
      <trkpt lat="47.01557" lon="5.85188">
        <ele>248</ele>
        <time>2022-03-17T08:49:12.365Z</time>
      </trkpt>
      <trkpt lat="47.0156" lon="5.85181">
        <ele>248</ele>
        <time>2022-03-17T08:49:17.339Z</time>
      </trkpt>
      <trkpt lat="47.01564" lon="5.85175">
        <ele>248</ele>
        <time>2022-03-17T08:49:22.334Z</time>
      </trkpt>
      <trkpt lat="47.01567" lon="5.85167">
        <ele>248</ele>
        <time>2022-03-17T08:49:27.321Z</time>
      </trkpt>
      <trkpt lat="47.01571" lon="5.8516">
        <ele>248</ele>
        <time>2022-03-17T08:49:32.336Z</time>
      </trkpt>
      <trkpt lat="47.01573" lon="5.85153">
        <ele>247</ele>
        <time>2022-03-17T08:49:37.359Z</time>
      </trkpt>
      <trkpt lat="47.01575" lon="5.85145">
        <ele>247</ele>
        <time>2022-03-17T08:49:42.341Z</time>
      </trkpt>
      <trkpt lat="47.01578" lon="5.85138">
        <ele>247</ele>
        <time>2022-03-17T08:49:47.338Z</time>
      </trkpt>
      <trkpt lat="47.01581" lon="5.85128">
        <ele>247</ele>
        <time>2022-03-17T08:49:52.332Z</time>
      </trkpt>
      <trkpt lat="47.01584" lon="5.85121">
        <ele>248</ele>
        <time>2022-03-17T08:49:56.340Z</time>
      </trkpt>
      <trkpt lat="47.01586" lon="5.85112">
        <ele>248</ele>
        <time>2022-03-17T08:50:01.363Z</time>
      </trkpt>
      <trkpt lat="47.01587" lon="5.85105">
        <ele>248</ele>
        <time>2022-03-17T08:50:05.403Z</time>
      </trkpt>
      <trkpt lat="47.01591" lon="5.85096">
        <ele>249</ele>
        <time>2022-03-17T08:50:10.357Z</time>
      </trkpt>
      <trkpt lat="47.01595" lon="5.85088">
        <ele>249</ele>
        <time>2022-03-17T08:50:15.386Z</time>
      </trkpt>
      <trkpt lat="47.016" lon="5.85079">
        <ele>247</ele>
        <time>2022-03-17T08:50:20.337Z</time>
      </trkpt>
      <trkpt lat="47.01603" lon="5.8507">
        <ele>247</ele>
        <time>2022-03-17T08:50:25.358Z</time>
      </trkpt>
      <trkpt lat="47.01606" lon="5.85061">
        <ele>247</ele>
        <time>2022-03-17T08:50:30.350Z</time>
      </trkpt>
      <trkpt lat="47.0161" lon="5.85053">
        <ele>247</ele>
        <time>2022-03-17T08:50:35.388Z</time>
      </trkpt>
      <trkpt lat="47.01613" lon="5.85045">
        <ele>247</ele>
        <time>2022-03-17T08:50:40.341Z</time>
      </trkpt>
      <trkpt lat="47.01616" lon="5.85036">
        <ele>249</ele>
        <time>2022-03-17T08:50:45.389Z</time>
      </trkpt>
      <trkpt lat="47.01619" lon="5.8503">
        <ele>249</ele>
        <time>2022-03-17T08:50:50.346Z</time>
      </trkpt>
      <trkpt lat="47.01618" lon="5.85022">
        <ele>249</ele>
        <time>2022-03-17T08:50:55.349Z</time>
      </trkpt>
      <trkpt lat="47.01617" lon="5.85016">
        <ele>249</ele>
        <time>2022-03-17T08:50:59.386Z</time>
      </trkpt>
      <trkpt lat="47.01615" lon="5.85009">
        <ele>252</ele>
        <time>2022-03-17T08:51:04.326Z</time>
      </trkpt>
      <trkpt lat="47.01613" lon="5.85004">
        <ele>252</ele>
        <time>2022-03-17T08:51:08.350Z</time>
      </trkpt>
      <trkpt lat="47.0161" lon="5.84999">
        <ele>252</ele>
        <time>2022-03-17T08:51:13.347Z</time>
      </trkpt>
      <trkpt lat="47.01607" lon="5.84997">
        <ele>252</ele>
        <time>2022-03-17T08:51:18.378Z</time>
      </trkpt>
      <trkpt lat="47.01603" lon="5.84995">
        <ele>252</ele>
        <time>2022-03-17T08:51:23.353Z</time>
      </trkpt>
      <trkpt lat="47.016" lon="5.8499">
        <ele>252</ele>
        <time>2022-03-17T08:51:28.361Z</time>
      </trkpt>
      <trkpt lat="47.01595" lon="5.84986">
        <ele>256</ele>
        <time>2022-03-17T08:51:33.351Z</time>
      </trkpt>
      <trkpt lat="47.01592" lon="5.84983">
        <ele>256</ele>
        <time>2022-03-17T08:51:37.389Z</time>
      </trkpt>
      <trkpt lat="47.01588" lon="5.8498">
        <ele>256</ele>
        <time>2022-03-17T08:51:42.351Z</time>
      </trkpt>
      <trkpt lat="47.01584" lon="5.84979">
        <ele>256</ele>
        <time>2022-03-17T08:51:47.354Z</time>
      </trkpt>
      <trkpt lat="47.01581" lon="5.84978">
        <ele>256</ele>
        <time>2022-03-17T08:51:51.350Z</time>
      </trkpt>
      <trkpt lat="47.01576" lon="5.84973">
        <ele>256</ele>
        <time>2022-03-17T08:51:56.337Z</time>
      </trkpt>
      <trkpt lat="47.01572" lon="5.8497">
        <ele>256</ele>
        <time>2022-03-17T08:52:00.347Z</time>
      </trkpt>
      <trkpt lat="47.01567" lon="5.84966">
        <ele>257</ele>
        <time>2022-03-17T08:52:05.372Z</time>
      </trkpt>
      <trkpt lat="47.01562" lon="5.84961">
        <ele>257</ele>
        <time>2022-03-17T08:52:10.352Z</time>
      </trkpt>
      <trkpt lat="47.01558" lon="5.84958">
        <ele>261</ele>
        <time>2022-03-17T08:52:15.327Z</time>
      </trkpt>
      <trkpt lat="47.01553" lon="5.84955">
        <ele>261</ele>
        <time>2022-03-17T08:52:20.368Z</time>
      </trkpt>
      <trkpt lat="47.01548" lon="5.84952">
        <ele>261</ele>
        <time>2022-03-17T08:52:25.332Z</time>
      </trkpt>
      <trkpt lat="47.01546" lon="5.84949">
        <ele>261</ele>
        <time>2022-03-17T08:52:30.361Z</time>
      </trkpt>
      <trkpt lat="47.01539" lon="5.84944">
        <ele>260</ele>
        <time>2022-03-17T08:52:35.370Z</time>
      </trkpt>
      <trkpt lat="47.01533" lon="5.84938">
        <ele>260</ele>
        <time>2022-03-17T08:52:40.351Z</time>
      </trkpt>
      <trkpt lat="47.01528" lon="5.84931">
        <ele>260</ele>
        <time>2022-03-17T08:52:45.341Z</time>
      </trkpt>
      <trkpt lat="47.01525" lon="5.84925">
        <ele>264</ele>
        <time>2022-03-17T08:52:49.344Z</time>
      </trkpt>
      <trkpt lat="47.01521" lon="5.84918">
        <ele>264</ele>
        <time>2022-03-17T08:52:54.319Z</time>
      </trkpt>
      <trkpt lat="47.01519" lon="5.84912">
        <ele>264</ele>
        <time>2022-03-17T08:52:58.328Z</time>
      </trkpt>
      <trkpt lat="47.01516" lon="5.84907">
        <ele>264</ele>
        <time>2022-03-17T08:53:02.372Z</time>
      </trkpt>
      <trkpt lat="47.01511" lon="5.84901">
        <ele>267</ele>
        <time>2022-03-17T08:53:07.350Z</time>
      </trkpt>
      <trkpt lat="47.01509" lon="5.84894">
        <ele>267</ele>
        <time>2022-03-17T08:53:12.353Z</time>
      </trkpt>
      <trkpt lat="47.01506" lon="5.84889">
        <ele>267</ele>
        <time>2022-03-17T08:53:17.337Z</time>
      </trkpt>
      <trkpt lat="47.01502" lon="5.84884">
        <ele>267</ele>
        <time>2022-03-17T08:53:22.374Z</time>
      </trkpt>
      <trkpt lat="47.01498" lon="5.84878">
        <ele>267</ele>
        <time>2022-03-17T08:53:27.337Z</time>
      </trkpt>
      <trkpt lat="47.01495" lon="5.84872">
        <ele>269</ele>
        <time>2022-03-17T08:53:31.369Z</time>
      </trkpt>
      <trkpt lat="47.01492" lon="5.84866">
        <ele>269</ele>
        <time>2022-03-17T08:53:36.346Z</time>
      </trkpt>
      <trkpt lat="47.01488" lon="5.8486">
        <ele>269</ele>
        <time>2022-03-17T08:53:41.328Z</time>
      </trkpt>
      <trkpt lat="47.01484" lon="5.84854">
        <ele>265</ele>
        <time>2022-03-17T08:53:46.362Z</time>
      </trkpt>
      <trkpt lat="47.01482" lon="5.84848">
        <ele>265</ele>
        <time>2022-03-17T08:53:51.332Z</time>
      </trkpt>
      <trkpt lat="47.01479" lon="5.84842">
        <ele>267</ele>
        <time>2022-03-17T08:53:56.331Z</time>
      </trkpt>
      <trkpt lat="47.01475" lon="5.84837">
        <ele>267</ele>
        <time>2022-03-17T08:54:01.361Z</time>
      </trkpt>
      <trkpt lat="47.01472" lon="5.84831">
        <ele>267</ele>
        <time>2022-03-17T08:54:06.353Z</time>
      </trkpt>
      <trkpt lat="47.01469" lon="5.84826">
        <ele>267</ele>
        <time>2022-03-17T08:54:10.376Z</time>
      </trkpt>
      <trkpt lat="47.01466" lon="5.8482">
        <ele>267</ele>
        <time>2022-03-17T08:54:15.334Z</time>
      </trkpt>
      <trkpt lat="47.01463" lon="5.84816">
        <ele>270</ele>
        <time>2022-03-17T08:54:19.332Z</time>
      </trkpt>
      <trkpt lat="47.01459" lon="5.84811">
        <ele>270</ele>
        <time>2022-03-17T08:54:24.326Z</time>
      </trkpt>
      <trkpt lat="47.01456" lon="5.84808">
        <ele>271</ele>
        <time>2022-03-17T08:54:28.351Z</time>
      </trkpt>
      <trkpt lat="47.01452" lon="5.84803">
        <ele>271</ele>
        <time>2022-03-17T08:54:33.332Z</time>
      </trkpt>
      <trkpt lat="47.01449" lon="5.84795">
        <ele>271</ele>
        <time>2022-03-17T08:54:38.356Z</time>
      </trkpt>
      <trkpt lat="47.01447" lon="5.84788">
        <ele>274</ele>
        <time>2022-03-17T08:54:43.331Z</time>
      </trkpt>
      <trkpt lat="47.01444" lon="5.84782">
        <ele>274</ele>
        <time>2022-03-17T08:54:48.364Z</time>
      </trkpt>
      <trkpt lat="47.01442" lon="5.8478">
        <ele>274</ele>
        <time>2022-03-17T08:54:52.369Z</time>
      </trkpt>
      <trkpt lat="47.01438" lon="5.84775">
        <ele>274</ele>
        <time>2022-03-17T08:54:57.331Z</time>
      </trkpt>
      <trkpt lat="47.01434" lon="5.84772">
        <ele>274</ele>
        <time>2022-03-17T08:55:02.314Z</time>
      </trkpt>
      <trkpt lat="47.01431" lon="5.8477">
        <ele>274</ele>
        <time>2022-03-17T08:55:06.362Z</time>
      </trkpt>
      <trkpt lat="47.01426" lon="5.84766">
        <ele>272</ele>
        <time>2022-03-17T08:55:11.321Z</time>
      </trkpt>
      <trkpt lat="47.01423" lon="5.8476">
        <ele>276</ele>
        <time>2022-03-17T08:55:16.359Z</time>
      </trkpt>
      <trkpt lat="47.01419" lon="5.84755">
        <ele>276</ele>
        <time>2022-03-17T08:55:21.341Z</time>
      </trkpt>
      <trkpt lat="47.01415" lon="5.84751">
        <ele>276</ele>
        <time>2022-03-17T08:55:26.329Z</time>
      </trkpt>
      <trkpt lat="47.01412" lon="5.84748">
        <ele>276</ele>
        <time>2022-03-17T08:55:31.307Z</time>
      </trkpt>
      <trkpt lat="47.01408" lon="5.84745">
        <ele>276</ele>
        <time>2022-03-17T08:55:35.347Z</time>
      </trkpt>
      <trkpt lat="47.01405" lon="5.84741">
        <ele>276</ele>
        <time>2022-03-17T08:55:39.384Z</time>
      </trkpt>
      <trkpt lat="47.01401" lon="5.84736">
        <ele>281</ele>
        <time>2022-03-17T08:55:44.342Z</time>
      </trkpt>
      <trkpt lat="47.01397" lon="5.84732">
        <ele>281</ele>
        <time>2022-03-17T08:55:49.334Z</time>
      </trkpt>
      <trkpt lat="47.01393" lon="5.84727">
        <ele>281</ele>
        <time>2022-03-17T08:55:54.330Z</time>
      </trkpt>
      <trkpt lat="47.0139" lon="5.84724">
        <ele>281</ele>
        <time>2022-03-17T08:55:58.376Z</time>
      </trkpt>
      <trkpt lat="47.01385" lon="5.84722">
        <ele>281</ele>
        <time>2022-03-17T08:56:03.343Z</time>
      </trkpt>
      <trkpt lat="47.01381" lon="5.84718">
        <ele>281</ele>
        <time>2022-03-17T08:56:08.368Z</time>
      </trkpt>
      <trkpt lat="47.01377" lon="5.84712">
        <ele>281</ele>
        <time>2022-03-17T08:56:13.374Z</time>
      </trkpt>
      <trkpt lat="47.01374" lon="5.84704">
        <ele>284</ele>
        <time>2022-03-17T08:56:18.391Z</time>
      </trkpt>
      <trkpt lat="47.01369" lon="5.847">
        <ele>284</ele>
        <time>2022-03-17T08:56:23.339Z</time>
      </trkpt>
      <trkpt lat="47.01365" lon="5.84695">
        <ele>284</ele>
        <time>2022-03-17T08:56:28.358Z</time>
      </trkpt>
      <trkpt lat="47.01361" lon="5.84688">
        <ele>284</ele>
        <time>2022-03-17T08:56:33.321Z</time>
      </trkpt>
      <trkpt lat="47.01358" lon="5.84683">
        <ele>284</ele>
        <time>2022-03-17T08:56:37.326Z</time>
      </trkpt>
      <trkpt lat="47.01355" lon="5.84678">
        <ele>287</ele>
        <time>2022-03-17T08:56:42.395Z</time>
      </trkpt>
      <trkpt lat="47.01351" lon="5.84672">
        <ele>287</ele>
        <time>2022-03-17T08:56:47.332Z</time>
      </trkpt>
      <trkpt lat="47.01346" lon="5.84665">
        <ele>284</ele>
        <time>2022-03-17T08:56:52.336Z</time>
      </trkpt>
      <trkpt lat="47.01343" lon="5.84661">
        <ele>284</ele>
        <time>2022-03-17T08:56:57.320Z</time>
      </trkpt>
      <trkpt lat="47.0134" lon="5.84656">
        <ele>284</ele>
        <time>2022-03-17T08:57:01.393Z</time>
      </trkpt>
      <trkpt lat="47.01336" lon="5.84652">
        <ele>290</ele>
        <time>2022-03-17T08:57:06.377Z</time>
      </trkpt>
      <trkpt lat="47.01333" lon="5.84646">
        <ele>290</ele>
        <time>2022-03-17T08:57:11.346Z</time>
      </trkpt>
      <trkpt lat="47.0133" lon="5.84641">
        <ele>290</ele>
        <time>2022-03-17T08:57:15.383Z</time>
      </trkpt>
      <trkpt lat="47.01326" lon="5.84636">
        <ele>290</ele>
        <time>2022-03-17T08:57:20.352Z</time>
      </trkpt>
      <trkpt lat="47.01323" lon="5.84629">
        <ele>290</ele>
        <time>2022-03-17T08:57:25.311Z</time>
      </trkpt>
      <trkpt lat="47.01319" lon="5.84625">
        <ele>293</ele>
        <time>2022-03-17T08:57:30.302Z</time>
      </trkpt>
      <trkpt lat="47.01315" lon="5.84619">
        <ele>293</ele>
        <time>2022-03-17T08:57:35.308Z</time>
      </trkpt>
      <trkpt lat="47.01312" lon="5.84614">
        <ele>293</ele>
        <time>2022-03-17T08:57:39.341Z</time>
      </trkpt>
      <trkpt lat="47.01308" lon="5.8461">
        <ele>293</ele>
        <time>2022-03-17T08:57:44.342Z</time>
      </trkpt>
      <trkpt lat="47.01305" lon="5.84605">
        <ele>293</ele>
        <time>2022-03-17T08:57:48.332Z</time>
      </trkpt>
      <trkpt lat="47.01302" lon="5.846">
        <ele>293</ele>
        <time>2022-03-17T08:57:53.332Z</time>
      </trkpt>
      <trkpt lat="47.01299" lon="5.84596">
        <ele>300</ele>
        <time>2022-03-17T08:57:58.401Z</time>
      </trkpt>
      <trkpt lat="47.01297" lon="5.84589">
        <ele>300</ele>
        <time>2022-03-17T08:58:03.294Z</time>
      </trkpt>
      <trkpt lat="47.01295" lon="5.84585">
        <ele>300</ele>
        <time>2022-03-17T08:58:07.328Z</time>
      </trkpt>
      <trkpt lat="47.01291" lon="5.8458">
        <ele>293</ele>
        <time>2022-03-17T08:58:12.351Z</time>
      </trkpt>
      <trkpt lat="47.01288" lon="5.84574">
        <ele>293</ele>
        <time>2022-03-17T08:58:17.307Z</time>
      </trkpt>
      <trkpt lat="47.01284" lon="5.8457">
        <ele>293</ele>
        <time>2022-03-17T08:58:21.314Z</time>
      </trkpt>
      <trkpt lat="47.0128" lon="5.84568">
        <ele>299</ele>
        <time>2022-03-17T08:58:26.369Z</time>
      </trkpt>
      <trkpt lat="47.01275" lon="5.84566">
        <ele>299</ele>
        <time>2022-03-17T08:58:31.321Z</time>
      </trkpt>
      <trkpt lat="47.01271" lon="5.84561">
        <ele>299</ele>
        <time>2022-03-17T08:58:36.361Z</time>
      </trkpt>
      <trkpt lat="47.01267" lon="5.84557">
        <ele>299</ele>
        <time>2022-03-17T08:58:41.317Z</time>
      </trkpt>
      <trkpt lat="47.01262" lon="5.84553">
        <ele>293</ele>
        <time>2022-03-17T08:58:46.354Z</time>
      </trkpt>
      <trkpt lat="47.01256" lon="5.84549">
        <ele>293</ele>
        <time>2022-03-17T08:58:51.337Z</time>
      </trkpt>
      <trkpt lat="47.01253" lon="5.84547">
        <ele>293</ele>
        <time>2022-03-17T08:58:55.347Z</time>
      </trkpt>
      <trkpt lat="47.01248" lon="5.84543">
        <ele>293</ele>
        <time>2022-03-17T08:59:00.314Z</time>
      </trkpt>
      <trkpt lat="47.01245" lon="5.8454">
        <ele>301</ele>
        <time>2022-03-17T08:59:04.333Z</time>
      </trkpt>
      <trkpt lat="47.01242" lon="5.84533">
        <ele>301</ele>
        <time>2022-03-17T08:59:08.371Z</time>
      </trkpt>
      <trkpt lat="47.0124" lon="5.84528">
        <ele>301</ele>
        <time>2022-03-17T08:59:13.320Z</time>
      </trkpt>
      <trkpt lat="47.0124" lon="5.84524">
        <ele>301</ele>
        <time>2022-03-17T08:59:18.295Z</time>
      </trkpt>
      <trkpt lat="47.0124" lon="5.8452">
        <ele>301</ele>
        <time>2022-03-17T08:59:22.298Z</time>
      </trkpt>
      <trkpt lat="47.0124" lon="5.84516">
        <ele>301</ele>
        <time>2022-03-17T08:59:26.342Z</time>
      </trkpt>
      <trkpt lat="47.01241" lon="5.84514">
        <ele>310</ele>
        <time>2022-03-17T08:59:30.386Z</time>
      </trkpt>
      <trkpt lat="47.01244" lon="5.84514">
        <ele>301</ele>
        <time>2022-03-17T08:59:35.336Z</time>
      </trkpt>
      <trkpt lat="47.0125" lon="5.84514">
        <ele>310</ele>
        <time>2022-03-17T08:59:40.347Z</time>
      </trkpt>
      <trkpt lat="47.01255" lon="5.84513">
        <ele>310</ele>
        <time>2022-03-17T08:59:45.363Z</time>
      </trkpt>
      <trkpt lat="47.01257" lon="5.84517">
        <ele>301</ele>
        <time>2022-03-17T08:59:50.368Z</time>
      </trkpt>
      <trkpt lat="47.01263" lon="5.84519">
        <ele>301</ele>
        <time>2022-03-17T08:59:55.317Z</time>
      </trkpt>
      <trkpt lat="47.01267" lon="5.84523">
        <ele>304</ele>
        <time>2022-03-17T08:59:59.337Z</time>
      </trkpt>
      <trkpt lat="47.01273" lon="5.84526">
        <ele>304</ele>
        <time>2022-03-17T09:00:04.306Z</time>
      </trkpt>
      <trkpt lat="47.01277" lon="5.84528">
        <ele>304</ele>
        <time>2022-03-17T09:00:08.377Z</time>
      </trkpt>
      <trkpt lat="47.01283" lon="5.84529">
        <ele>304</ele>
        <time>2022-03-17T09:00:13.318Z</time>
      </trkpt>
      <trkpt lat="47.01289" lon="5.8453">
        <ele>304</ele>
        <time>2022-03-17T09:00:18.360Z</time>
      </trkpt>
      <trkpt lat="47.01294" lon="5.84529">
        <ele>309</ele>
        <time>2022-03-17T09:00:23.318Z</time>
      </trkpt>
      <trkpt lat="47.013" lon="5.8453">
        <ele>309</ele>
        <time>2022-03-17T09:00:28.370Z</time>
      </trkpt>
      <trkpt lat="47.01305" lon="5.84532">
        <ele>309</ele>
        <time>2022-03-17T09:00:33.320Z</time>
      </trkpt>
      <trkpt lat="47.0131" lon="5.84534">
        <ele>309</ele>
        <time>2022-03-17T09:00:37.325Z</time>
      </trkpt>
      <trkpt lat="47.01315" lon="5.84536">
        <ele>309</ele>
        <time>2022-03-17T09:00:42.358Z</time>
      </trkpt>
      <trkpt lat="47.01319" lon="5.84538">
        <ele>309</ele>
        <time>2022-03-17T09:00:46.401Z</time>
      </trkpt>
      <trkpt lat="47.01322" lon="5.84541">
        <ele>314</ele>
        <time>2022-03-17T09:00:51.326Z</time>
      </trkpt>
      <trkpt lat="47.01327" lon="5.84539">
        <ele>314</ele>
        <time>2022-03-17T09:00:56.325Z</time>
      </trkpt>
      <trkpt lat="47.01332" lon="5.84541">
        <ele>314</ele>
        <time>2022-03-17T09:01:00.384Z</time>
      </trkpt>
      <trkpt lat="47.01337" lon="5.84543">
        <ele>310</ele>
        <time>2022-03-17T09:01:05.313Z</time>
      </trkpt>
      <trkpt lat="47.01341" lon="5.84544">
        <ele>310</ele>
        <time>2022-03-17T09:01:10.380Z</time>
      </trkpt>
      <trkpt lat="47.01346" lon="5.84547">
        <ele>310</ele>
        <time>2022-03-17T09:01:15.327Z</time>
      </trkpt>
      <trkpt lat="47.01349" lon="5.84549">
        <ele>313</ele>
        <time>2022-03-17T09:01:20.393Z</time>
      </trkpt>
      <trkpt lat="47.01354" lon="5.84552">
        <ele>313</ele>
        <time>2022-03-17T09:01:25.345Z</time>
      </trkpt>
      <trkpt lat="47.01359" lon="5.84557">
        <ele>313</ele>
        <time>2022-03-17T09:01:30.317Z</time>
      </trkpt>
      <trkpt lat="47.01364" lon="5.8456">
        <ele>313</ele>
        <time>2022-03-17T09:01:35.321Z</time>
      </trkpt>
      <trkpt lat="47.01364" lon="5.84559">
        <ele>313</ele>
        <time>2022-03-17T09:01:40.361Z</time>
      </trkpt>
      <trkpt lat="47.01365" lon="5.84558">
        <ele>313</ele>
        <time>2022-03-17T09:01:45.336Z</time>
      </trkpt>
      <trkpt lat="47.01371" lon="5.84559">
        <ele>313</ele>
        <time>2022-03-17T09:01:50.386Z</time>
      </trkpt>
      <trkpt lat="47.01376" lon="5.84561">
        <ele>314</ele>
        <time>2022-03-17T09:01:55.335Z</time>
      </trkpt>
      <trkpt lat="47.0138" lon="5.84561">
        <ele>314</ele>
        <time>2022-03-17T09:02:00.340Z</time>
      </trkpt>
      <trkpt lat="47.01385" lon="5.84561">
        <ele>314</ele>
        <time>2022-03-17T09:02:05.324Z</time>
      </trkpt>
      <trkpt lat="47.01389" lon="5.84561">
        <ele>314</ele>
        <time>2022-03-17T09:02:09.352Z</time>
      </trkpt>
      <trkpt lat="47.01395" lon="5.84561">
        <ele>314</ele>
        <time>2022-03-17T09:02:14.346Z</time>
      </trkpt>
      <trkpt lat="47.01398" lon="5.84561">
        <ele>314</ele>
        <time>2022-03-17T09:02:18.382Z</time>
      </trkpt>
      <trkpt lat="47.01404" lon="5.84562">
        <ele>316</ele>
        <time>2022-03-17T09:02:23.344Z</time>
      </trkpt>
      <trkpt lat="47.01409" lon="5.84563">
        <ele>316</ele>
        <time>2022-03-17T09:02:28.360Z</time>
      </trkpt>
      <trkpt lat="47.01414" lon="5.84564">
        <ele>316</ele>
        <time>2022-03-17T09:02:33.347Z</time>
      </trkpt>
      <trkpt lat="47.01418" lon="5.84563">
        <ele>316</ele>
        <time>2022-03-17T09:02:38.372Z</time>
      </trkpt>
      <trkpt lat="47.01425" lon="5.84563">
        <ele>316</ele>
        <time>2022-03-17T09:02:43.326Z</time>
      </trkpt>
      <trkpt lat="47.01429" lon="5.84561">
        <ele>316</ele>
        <time>2022-03-17T09:02:47.334Z</time>
      </trkpt>
      <trkpt lat="47.01435" lon="5.84563">
        <ele>319</ele>
        <time>2022-03-17T09:02:52.355Z</time>
      </trkpt>
      <trkpt lat="47.0144" lon="5.84562">
        <ele>319</ele>
        <time>2022-03-17T09:02:57.309Z</time>
      </trkpt>
      <trkpt lat="47.01446" lon="5.84561">
        <ele>319</ele>
        <time>2022-03-17T09:03:02.354Z</time>
      </trkpt>
      <trkpt lat="47.0145" lon="5.84562">
        <ele>319</ele>
        <time>2022-03-17T09:03:07.314Z</time>
      </trkpt>
      <trkpt lat="47.01456" lon="5.84563">
        <ele>319</ele>
        <time>2022-03-17T09:03:12.353Z</time>
      </trkpt>
      <trkpt lat="47.01462" lon="5.84562">
        <ele>322</ele>
        <time>2022-03-17T09:03:17.369Z</time>
      </trkpt>
      <trkpt lat="47.01466" lon="5.84564">
        <ele>322</ele>
        <time>2022-03-17T09:03:21.350Z</time>
      </trkpt>
      <trkpt lat="47.01471" lon="5.84563">
        <ele>322</ele>
        <time>2022-03-17T09:03:26.353Z</time>
      </trkpt>
      <trkpt lat="47.01474" lon="5.84563">
        <ele>322</ele>
        <time>2022-03-17T09:03:30.332Z</time>
      </trkpt>
      <trkpt lat="47.0148" lon="5.84561">
        <ele>322</ele>
        <time>2022-03-17T09:03:35.333Z</time>
      </trkpt>
      <trkpt lat="47.01487" lon="5.84561">
        <ele>325</ele>
        <time>2022-03-17T09:03:40.378Z</time>
      </trkpt>
      <trkpt lat="47.01494" lon="5.8456">
        <ele>325</ele>
        <time>2022-03-17T09:03:45.359Z</time>
      </trkpt>
      <trkpt lat="47.01499" lon="5.8456">
        <ele>325</ele>
        <time>2022-03-17T09:03:49.338Z</time>
      </trkpt>
      <trkpt lat="47.01504" lon="5.84561">
        <ele>325</ele>
        <time>2022-03-17T09:03:54.331Z</time>
      </trkpt>
      <trkpt lat="47.01509" lon="5.84562">
        <ele>325</ele>
        <time>2022-03-17T09:03:58.335Z</time>
      </trkpt>
      <trkpt lat="47.01514" lon="5.8456">
        <ele>331</ele>
        <time>2022-03-17T09:04:02.373Z</time>
      </trkpt>
      <trkpt lat="47.01518" lon="5.84563">
        <ele>331</ele>
        <time>2022-03-17T09:04:07.320Z</time>
      </trkpt>
      <trkpt lat="47.01521" lon="5.84565">
        <ele>331</ele>
        <time>2022-03-17T09:04:11.341Z</time>
      </trkpt>
      <trkpt lat="47.01525" lon="5.84565">
        <ele>331</ele>
        <time>2022-03-17T09:04:16.352Z</time>
      </trkpt>
      <trkpt lat="47.0153" lon="5.84566">
        <ele>331</ele>
        <time>2022-03-17T09:04:21.332Z</time>
      </trkpt>
      <trkpt lat="47.01535" lon="5.84565">
        <ele>331</ele>
        <time>2022-03-17T09:04:26.358Z</time>
      </trkpt>
      <trkpt lat="47.0154" lon="5.84565">
        <ele>331</ele>
        <time>2022-03-17T09:04:31.363Z</time>
      </trkpt>
      <trkpt lat="47.01546" lon="5.84567">
        <ele>337</ele>
        <time>2022-03-17T09:04:36.342Z</time>
      </trkpt>
      <trkpt lat="47.01551" lon="5.84565">
        <ele>337</ele>
        <time>2022-03-17T09:04:41.353Z</time>
      </trkpt>
      <trkpt lat="47.01558" lon="5.84566">
        <ele>337</ele>
        <time>2022-03-17T09:04:46.366Z</time>
      </trkpt>
      <trkpt lat="47.01564" lon="5.84566">
        <ele>337</ele>
        <time>2022-03-17T09:04:51.348Z</time>
      </trkpt>
      <trkpt lat="47.0157" lon="5.84566">
        <ele>341</ele>
        <time>2022-03-17T09:04:56.376Z</time>
      </trkpt>
      <trkpt lat="47.01573" lon="5.84566">
        <ele>341</ele>
        <time>2022-03-17T09:05:00.391Z</time>
      </trkpt>
      <trkpt lat="47.01577" lon="5.84566">
        <ele>341</ele>
        <time>2022-03-17T09:05:05.335Z</time>
      </trkpt>
      <trkpt lat="47.01581" lon="5.84565">
        <ele>341</ele>
        <time>2022-03-17T09:05:09.333Z</time>
      </trkpt>
      <trkpt lat="47.01585" lon="5.84567">
        <ele>341</ele>
        <time>2022-03-17T09:05:14.353Z</time>
      </trkpt>
      <trkpt lat="47.0159" lon="5.84568">
        <ele>341</ele>
        <time>2022-03-17T09:05:18.350Z</time>
      </trkpt>
      <trkpt lat="47.01595" lon="5.84569">
        <ele>341</ele>
        <time>2022-03-17T09:05:22.415Z</time>
      </trkpt>
      <trkpt lat="47.01601" lon="5.8457">
        <ele>333</ele>
        <time>2022-03-17T09:05:27.323Z</time>
      </trkpt>
      <trkpt lat="47.01606" lon="5.8457">
        <ele>333</ele>
        <time>2022-03-17T09:05:32.352Z</time>
      </trkpt>
      <trkpt lat="47.01611" lon="5.8457">
        <ele>333</ele>
        <time>2022-03-17T09:05:37.346Z</time>
      </trkpt>
      <trkpt lat="47.01616" lon="5.84568">
        <ele>343</ele>
        <time>2022-03-17T09:05:42.379Z</time>
      </trkpt>
      <trkpt lat="47.01621" lon="5.84568">
        <ele>343</ele>
        <time>2022-03-17T09:05:47.340Z</time>
      </trkpt>
      <trkpt lat="47.01624" lon="5.84569">
        <ele>343</ele>
        <time>2022-03-17T09:05:52.362Z</time>
      </trkpt>
      <trkpt lat="47.01629" lon="5.84571">
        <ele>335</ele>
        <time>2022-03-17T09:05:57.329Z</time>
      </trkpt>
      <trkpt lat="47.01634" lon="5.84572">
        <ele>335</ele>
        <time>2022-03-17T09:06:02.402Z</time>
      </trkpt>
      <trkpt lat="47.01639" lon="5.84574">
        <ele>335</ele>
        <time>2022-03-17T09:06:07.341Z</time>
      </trkpt>
      <trkpt lat="47.01644" lon="5.84574">
        <ele>335</ele>
        <time>2022-03-17T09:06:12.352Z</time>
      </trkpt>
      <trkpt lat="47.01649" lon="5.84575">
        <ele>335</ele>
        <time>2022-03-17T09:06:16.390Z</time>
      </trkpt>
      <trkpt lat="47.01655" lon="5.84575">
        <ele>339</ele>
        <time>2022-03-17T09:06:21.341Z</time>
      </trkpt>
      <trkpt lat="47.01659" lon="5.84575">
        <ele>339</ele>
        <time>2022-03-17T09:06:25.333Z</time>
      </trkpt>
      <trkpt lat="47.01664" lon="5.84577">
        <ele>339</ele>
        <time>2022-03-17T09:06:30.376Z</time>
      </trkpt>
      <trkpt lat="47.0167" lon="5.8458">
        <ele>339</ele>
        <time>2022-03-17T09:06:35.331Z</time>
      </trkpt>
      <trkpt lat="47.01675" lon="5.84579">
        <ele>339</ele>
        <time>2022-03-17T09:06:40.336Z</time>
      </trkpt>
      <trkpt lat="47.0168" lon="5.84581">
        <ele>339</ele>
        <time>2022-03-17T09:06:45.355Z</time>
      </trkpt>
      <trkpt lat="47.01685" lon="5.8458">
        <ele>343</ele>
        <time>2022-03-17T09:06:49.327Z</time>
      </trkpt>
      <trkpt lat="47.01688" lon="5.84579">
        <ele>343</ele>
        <time>2022-03-17T09:06:53.380Z</time>
      </trkpt>
      <trkpt lat="47.01692" lon="5.84575">
        <ele>343</ele>
        <time>2022-03-17T09:06:58.354Z</time>
      </trkpt>
      <trkpt lat="47.01693" lon="5.8457">
        <ele>343</ele>
        <time>2022-03-17T09:07:03.346Z</time>
      </trkpt>
      <trkpt lat="47.01692" lon="5.84566">
        <ele>352</ele>
        <time>2022-03-17T09:07:07.355Z</time>
      </trkpt>
      <trkpt lat="47.0169" lon="5.84562">
        <ele>352</ele>
        <time>2022-03-17T09:07:12.375Z</time>
      </trkpt>
      <trkpt lat="47.01687" lon="5.8456">
        <ele>352</ele>
        <time>2022-03-17T09:07:17.349Z</time>
      </trkpt>
      <trkpt lat="47.01682" lon="5.84561">
        <ele>352</ele>
        <time>2022-03-17T09:07:21.350Z</time>
      </trkpt>
      <trkpt lat="47.01677" lon="5.84559">
        <ele>348</ele>
        <time>2022-03-17T09:07:26.341Z</time>
      </trkpt>
      <trkpt lat="47.01672" lon="5.84556">
        <ele>348</ele>
        <time>2022-03-17T09:07:31.339Z</time>
      </trkpt>
      <trkpt lat="47.01668" lon="5.84555">
        <ele>348</ele>
        <time>2022-03-17T09:07:36.357Z</time>
      </trkpt>
      <trkpt lat="47.01663" lon="5.84554">
        <ele>348</ele>
        <time>2022-03-17T09:07:41.348Z</time>
      </trkpt>
      <trkpt lat="47.01658" lon="5.84551">
        <ele>348</ele>
        <time>2022-03-17T09:07:46.347Z</time>
      </trkpt>
      <trkpt lat="47.01652" lon="5.84549">
        <ele>346</ele>
        <time>2022-03-17T09:07:51.333Z</time>
      </trkpt>
      <trkpt lat="47.01649" lon="5.84546">
        <ele>346</ele>
        <time>2022-03-17T09:07:56.353Z</time>
      </trkpt>
      <trkpt lat="47.01645" lon="5.84542">
        <ele>346</ele>
        <time>2022-03-17T09:08:01.360Z</time>
      </trkpt>
      <trkpt lat="47.0164" lon="5.84537">
        <ele>357</ele>
        <time>2022-03-17T09:08:06.375Z</time>
      </trkpt>
      <trkpt lat="47.01636" lon="5.84534">
        <ele>357</ele>
        <time>2022-03-17T09:08:11.350Z</time>
      </trkpt>
      <trkpt lat="47.01631" lon="5.84532">
        <ele>357</ele>
        <time>2022-03-17T09:08:16.388Z</time>
      </trkpt>
      <trkpt lat="47.01624" lon="5.84532">
        <ele>354</ele>
        <time>2022-03-17T09:08:21.350Z</time>
      </trkpt>
      <trkpt lat="47.01621" lon="5.84529">
        <ele>354</ele>
        <time>2022-03-17T09:08:26.356Z</time>
      </trkpt>
      <trkpt lat="47.01615" lon="5.84526">
        <ele>354</ele>
        <time>2022-03-17T09:08:31.371Z</time>
      </trkpt>
      <trkpt lat="47.01611" lon="5.84525">
        <ele>354</ele>
        <time>2022-03-17T09:08:36.351Z</time>
      </trkpt>
      <trkpt lat="47.01606" lon="5.84522">
        <ele>354</ele>
        <time>2022-03-17T09:08:41.327Z</time>
      </trkpt>
      <trkpt lat="47.01601" lon="5.8452">
        <ele>354</ele>
        <time>2022-03-17T09:08:46.367Z</time>
      </trkpt>
      <trkpt lat="47.01598" lon="5.84516">
        <ele>354</ele>
        <time>2022-03-17T09:08:51.376Z</time>
      </trkpt>
      <trkpt lat="47.01597" lon="5.84511">
        <ele>358</ele>
        <time>2022-03-17T09:08:56.354Z</time>
      </trkpt>
      <trkpt lat="47.01594" lon="5.84509">
        <ele>358</ele>
        <time>2022-03-17T09:09:01.374Z</time>
      </trkpt>
      <trkpt lat="47.01587" lon="5.84508">
        <ele>358</ele>
        <time>2022-03-17T09:09:05.365Z</time>
      </trkpt>
      <trkpt lat="47.01582" lon="5.84505">
        <ele>358</ele>
        <time>2022-03-17T09:09:10.347Z</time>
      </trkpt>
      <trkpt lat="47.01576" lon="5.84503">
        <ele>358</ele>
        <time>2022-03-17T09:09:15.325Z</time>
      </trkpt>
      <trkpt lat="47.01572" lon="5.845">
        <ele>358</ele>
        <time>2022-03-17T09:09:19.342Z</time>
      </trkpt>
      <trkpt lat="47.01566" lon="5.84496">
        <ele>354</ele>
        <time>2022-03-17T09:09:24.319Z</time>
      </trkpt>
      <trkpt lat="47.01563" lon="5.84494">
        <ele>354</ele>
        <time>2022-03-17T09:09:28.375Z</time>
      </trkpt>
      <trkpt lat="47.01559" lon="5.84493">
        <ele>354</ele>
        <time>2022-03-17T09:09:32.402Z</time>
      </trkpt>
      <trkpt lat="47.01554" lon="5.84491">
        <ele>354</ele>
        <time>2022-03-17T09:09:37.331Z</time>
      </trkpt>
      <trkpt lat="47.01549" lon="5.84488">
        <ele>354</ele>
        <time>2022-03-17T09:09:42.378Z</time>
      </trkpt>
      <trkpt lat="47.01545" lon="5.84484">
        <ele>364</ele>
        <time>2022-03-17T09:09:47.378Z</time>
      </trkpt>
      <trkpt lat="47.01542" lon="5.84481">
        <ele>364</ele>
        <time>2022-03-17T09:09:51.350Z</time>
      </trkpt>
      <trkpt lat="47.01536" lon="5.84479">
        <ele>361</ele>
        <time>2022-03-17T09:09:56.306Z</time>
      </trkpt>
      <trkpt lat="47.01532" lon="5.84477">
        <ele>361</ele>
        <time>2022-03-17T09:10:01.299Z</time>
      </trkpt>
      <trkpt lat="47.01527" lon="5.84473">
        <ele>361</ele>
        <time>2022-03-17T09:10:06.278Z</time>
      </trkpt>
      <trkpt lat="47.01521" lon="5.84471">
        <ele>361</ele>
        <time>2022-03-17T09:10:11.271Z</time>
      </trkpt>
      <trkpt lat="47.01517" lon="5.8447">
        <ele>361</ele>
        <time>2022-03-17T09:10:15.317Z</time>
      </trkpt>
      <trkpt lat="47.01514" lon="5.84468">
        <ele>357</ele>
        <time>2022-03-17T09:10:19.346Z</time>
      </trkpt>
      <trkpt lat="47.0151" lon="5.84465">
        <ele>357</ele>
        <time>2022-03-17T09:10:23.347Z</time>
      </trkpt>
      <trkpt lat="47.01505" lon="5.84463">
        <ele>357</ele>
        <time>2022-03-17T09:10:28.339Z</time>
      </trkpt>
      <trkpt lat="47.01502" lon="5.84462">
        <ele>357</ele>
        <time>2022-03-17T09:10:32.360Z</time>
      </trkpt>
      <trkpt lat="47.01498" lon="5.8446">
        <ele>357</ele>
        <time>2022-03-17T09:10:37.351Z</time>
      </trkpt>
      <trkpt lat="47.01493" lon="5.84459">
        <ele>357</ele>
        <time>2022-03-17T09:10:41.404Z</time>
      </trkpt>
      <trkpt lat="47.01488" lon="5.84455">
        <ele>366</ele>
        <time>2022-03-17T09:10:46.367Z</time>
      </trkpt>
      <trkpt lat="47.01482" lon="5.84451">
        <ele>362</ele>
        <time>2022-03-17T09:10:51.363Z</time>
      </trkpt>
      <trkpt lat="47.01477" lon="5.84448">
        <ele>362</ele>
        <time>2022-03-17T09:10:55.351Z</time>
      </trkpt>
      <trkpt lat="47.01471" lon="5.84445">
        <ele>362</ele>
        <time>2022-03-17T09:11:00.373Z</time>
      </trkpt>
      <trkpt lat="47.01467" lon="5.84442">
        <ele>362</ele>
        <time>2022-03-17T09:11:05.364Z</time>
      </trkpt>
      <trkpt lat="47.01463" lon="5.84441">
        <ele>362</ele>
        <time>2022-03-17T09:11:09.410Z</time>
      </trkpt>
      <trkpt lat="47.01459" lon="5.84439">
        <ele>362</ele>
        <time>2022-03-17T09:11:14.325Z</time>
      </trkpt>
      <trkpt lat="47.01457" lon="5.84436">
        <ele>359</ele>
        <time>2022-03-17T09:11:18.374Z</time>
      </trkpt>
      <trkpt lat="47.01451" lon="5.84434">
        <ele>359</ele>
        <time>2022-03-17T09:11:23.390Z</time>
      </trkpt>
      <trkpt lat="47.01446" lon="5.84431">
        <ele>359</ele>
        <time>2022-03-17T09:11:28.360Z</time>
      </trkpt>
      <trkpt lat="47.01439" lon="5.84427">
        <ele>369</ele>
        <time>2022-03-17T09:11:33.386Z</time>
      </trkpt>
      <trkpt lat="47.01435" lon="5.84426">
        <ele>369</ele>
        <time>2022-03-17T09:11:37.408Z</time>
      </trkpt>
      <trkpt lat="47.01429" lon="5.84421">
        <ele>363</ele>
        <time>2022-03-17T09:11:42.383Z</time>
      </trkpt>
      <trkpt lat="47.01424" lon="5.84415">
        <ele>363</ele>
        <time>2022-03-17T09:11:47.340Z</time>
      </trkpt>
      <trkpt lat="47.0142" lon="5.84412">
        <ele>363</ele>
        <time>2022-03-17T09:11:52.348Z</time>
      </trkpt>
      <trkpt lat="47.01414" lon="5.8441">
        <ele>363</ele>
        <time>2022-03-17T09:11:57.387Z</time>
      </trkpt>
      <trkpt lat="47.0141" lon="5.84406">
        <ele>363</ele>
        <time>2022-03-17T09:12:01.389Z</time>
      </trkpt>
      <trkpt lat="47.01407" lon="5.84401">
        <ele>372</ele>
        <time>2022-03-17T09:12:06.357Z</time>
      </trkpt>
      <trkpt lat="47.01402" lon="5.84397">
        <ele>369</ele>
        <time>2022-03-17T09:12:11.361Z</time>
      </trkpt>
      <trkpt lat="47.01397" lon="5.84392">
        <ele>369</ele>
        <time>2022-03-17T09:12:16.328Z</time>
      </trkpt>
      <trkpt lat="47.01393" lon="5.8439">
        <ele>369</ele>
        <time>2022-03-17T09:12:21.350Z</time>
      </trkpt>
      <trkpt lat="47.01391" lon="5.84386">
        <ele>369</ele>
        <time>2022-03-17T09:12:26.359Z</time>
      </trkpt>
      <trkpt lat="47.01386" lon="5.84382">
        <ele>369</ele>
        <time>2022-03-17T09:12:31.373Z</time>
      </trkpt>
      <trkpt lat="47.01381" lon="5.84377">
        <ele>369</ele>
        <time>2022-03-17T09:12:36.356Z</time>
      </trkpt>
      <trkpt lat="47.01378" lon="5.84372">
        <ele>377</ele>
        <time>2022-03-17T09:12:41.353Z</time>
      </trkpt>
      <trkpt lat="47.01374" lon="5.84369">
        <ele>375</ele>
        <time>2022-03-17T09:12:46.363Z</time>
      </trkpt>
      <trkpt lat="47.01369" lon="5.84364">
        <ele>375</ele>
        <time>2022-03-17T09:12:51.376Z</time>
      </trkpt>
      <trkpt lat="47.01363" lon="5.84362">
        <ele>375</ele>
        <time>2022-03-17T09:12:56.357Z</time>
      </trkpt>
      <trkpt lat="47.0136" lon="5.84356">
        <ele>375</ele>
        <time>2022-03-17T09:13:01.361Z</time>
      </trkpt>
      <trkpt lat="47.01355" lon="5.84351">
        <ele>375</ele>
        <time>2022-03-17T09:13:06.356Z</time>
      </trkpt>
      <trkpt lat="47.01353" lon="5.84346">
        <ele>380</ele>
        <time>2022-03-17T09:13:10.350Z</time>
      </trkpt>
      <trkpt lat="47.01349" lon="5.8434">
        <ele>380</ele>
        <time>2022-03-17T09:13:15.368Z</time>
      </trkpt>
      <trkpt lat="47.01346" lon="5.84337">
        <ele>376</ele>
        <time>2022-03-17T09:13:20.401Z</time>
      </trkpt>
      <trkpt lat="47.01343" lon="5.84331">
        <ele>376</ele>
        <time>2022-03-17T09:13:25.416Z</time>
      </trkpt>
      <trkpt lat="47.01339" lon="5.84327">
        <ele>376</ele>
        <time>2022-03-17T09:13:30.338Z</time>
      </trkpt>
      <trkpt lat="47.01334" lon="5.84323">
        <ele>376</ele>
        <time>2022-03-17T09:13:35.325Z</time>
      </trkpt>
      <trkpt lat="47.01334" lon="5.84316">
        <ele>379</ele>
        <time>2022-03-17T09:13:39.395Z</time>
      </trkpt>
      <trkpt lat="47.01334" lon="5.84297">
        <ele>379</ele>
        <time>2022-03-17T09:20:32.364Z</time>
      </trkpt>
      <trkpt lat="47.01337" lon="5.84296">
        <ele>379</ele>
        <time>2022-03-17T09:20:37.340Z</time>
      </trkpt>
      <trkpt lat="47.01341" lon="5.84295">
        <ele>379</ele>
        <time>2022-03-17T09:20:41.282Z</time>
      </trkpt>
      <trkpt lat="47.01344" lon="5.84293">
        <ele>379</ele>
        <time>2022-03-17T09:20:46.334Z</time>
      </trkpt>
      <trkpt lat="47.01348" lon="5.84293">
        <ele>381</ele>
        <time>2022-03-17T09:20:51.362Z</time>
      </trkpt>
      <trkpt lat="47.01353" lon="5.84293">
        <ele>381</ele>
        <time>2022-03-17T09:20:56.366Z</time>
      </trkpt>
      <trkpt lat="47.01355" lon="5.84293">
        <ele>381</ele>
        <time>2022-03-17T09:21:01.287Z</time>
      </trkpt>
      <trkpt lat="47.0136" lon="5.84295">
        <ele>381</ele>
        <time>2022-03-17T09:21:06.395Z</time>
      </trkpt>
      <trkpt lat="47.01366" lon="5.84295">
        <ele>381</ele>
        <time>2022-03-17T09:21:11.310Z</time>
      </trkpt>
      <trkpt lat="47.0137" lon="5.84295">
        <ele>381</ele>
        <time>2022-03-17T09:21:15.405Z</time>
      </trkpt>
      <trkpt lat="47.01378" lon="5.84295">
        <ele>383</ele>
        <time>2022-03-17T09:21:20.283Z</time>
      </trkpt>
      <trkpt lat="47.01385" lon="5.84296">
        <ele>383</ele>
        <time>2022-03-17T09:21:24.338Z</time>
      </trkpt>
      <trkpt lat="47.01388" lon="5.84295">
        <ele>383</ele>
        <time>2022-03-17T09:21:28.346Z</time>
      </trkpt>
      <trkpt lat="47.01393" lon="5.84294">
        <ele>383</ele>
        <time>2022-03-17T09:21:32.387Z</time>
      </trkpt>
      <trkpt lat="47.01399" lon="5.84292">
        <ele>383</ele>
        <time>2022-03-17T09:21:37.400Z</time>
      </trkpt>
      <trkpt lat="47.01403" lon="5.84292">
        <ele>384</ele>
        <time>2022-03-17T09:21:42.357Z</time>
      </trkpt>
      <trkpt lat="47.01408" lon="5.84289">
        <ele>384</ele>
        <time>2022-03-17T09:21:47.386Z</time>
      </trkpt>
      <trkpt lat="47.01412" lon="5.84289">
        <ele>384</ele>
        <time>2022-03-17T09:21:52.377Z</time>
      </trkpt>
      <trkpt lat="47.01416" lon="5.84288">
        <ele>384</ele>
        <time>2022-03-17T09:21:57.388Z</time>
      </trkpt>
      <trkpt lat="47.01421" lon="5.84286">
        <ele>384</ele>
        <time>2022-03-17T09:22:01.417Z</time>
      </trkpt>
      <trkpt lat="47.01427" lon="5.84282">
        <ele>384</ele>
        <time>2022-03-17T09:22:06.354Z</time>
      </trkpt>
      <trkpt lat="47.01432" lon="5.8428">
        <ele>383</ele>
        <time>2022-03-17T09:22:10.389Z</time>
      </trkpt>
      <trkpt lat="47.01438" lon="5.84277">
        <ele>383</ele>
        <time>2022-03-17T09:22:15.387Z</time>
      </trkpt>
      <trkpt lat="47.01442" lon="5.84277">
        <ele>383</ele>
        <time>2022-03-17T09:22:20.303Z</time>
      </trkpt>
      <trkpt lat="47.01446" lon="5.84278">
        <ele>383</ele>
        <time>2022-03-17T09:22:24.337Z</time>
      </trkpt>
      <trkpt lat="47.01452" lon="5.84278">
        <ele>383</ele>
        <time>2022-03-17T09:22:29.349Z</time>
      </trkpt>
      <trkpt lat="47.01458" lon="5.84279">
        <ele>383</ele>
        <time>2022-03-17T09:22:34.354Z</time>
      </trkpt>
      <trkpt lat="47.01465" lon="5.84282">
        <ele>383</ele>
        <time>2022-03-17T09:22:39.385Z</time>
      </trkpt>
      <trkpt lat="47.0147" lon="5.84284">
        <ele>383</ele>
        <time>2022-03-17T09:22:44.355Z</time>
      </trkpt>
      <trkpt lat="47.01474" lon="5.84285">
        <ele>383</ele>
        <time>2022-03-17T09:22:48.376Z</time>
      </trkpt>
      <trkpt lat="47.0148" lon="5.84288">
        <ele>383</ele>
        <time>2022-03-17T09:22:53.342Z</time>
      </trkpt>
      <trkpt lat="47.01487" lon="5.8429">
        <ele>386</ele>
        <time>2022-03-17T09:22:57.370Z</time>
      </trkpt>
      <trkpt lat="47.01494" lon="5.84293">
        <ele>384</ele>
        <time>2022-03-17T09:23:02.372Z</time>
      </trkpt>
      <trkpt lat="47.01499" lon="5.84295">
        <ele>384</ele>
        <time>2022-03-17T09:23:07.358Z</time>
      </trkpt>
      <trkpt lat="47.01505" lon="5.84295">
        <ele>384</ele>
        <time>2022-03-17T09:23:11.384Z</time>
      </trkpt>
      <trkpt lat="47.0151" lon="5.84298">
        <ele>384</ele>
        <time>2022-03-17T09:23:16.344Z</time>
      </trkpt>
      <trkpt lat="47.01514" lon="5.84301">
        <ele>384</ele>
        <time>2022-03-17T09:23:20.342Z</time>
      </trkpt>
      <trkpt lat="47.01518" lon="5.84304">
        <ele>387</ele>
        <time>2022-03-17T09:23:24.336Z</time>
      </trkpt>
      <trkpt lat="47.01523" lon="5.84307">
        <ele>387</ele>
        <time>2022-03-17T09:23:29.346Z</time>
      </trkpt>
      <trkpt lat="47.01527" lon="5.84309">
        <ele>387</ele>
        <time>2022-03-17T09:23:33.384Z</time>
      </trkpt>
      <trkpt lat="47.01534" lon="5.8431">
        <ele>387</ele>
        <time>2022-03-17T09:23:38.340Z</time>
      </trkpt>
      <trkpt lat="47.01541" lon="5.84309">
        <ele>387</ele>
        <time>2022-03-17T09:23:43.347Z</time>
      </trkpt>
      <trkpt lat="47.01546" lon="5.84307">
        <ele>388</ele>
        <time>2022-03-17T09:23:48.343Z</time>
      </trkpt>
      <trkpt lat="47.0155" lon="5.84304">
        <ele>388</ele>
        <time>2022-03-17T09:23:52.384Z</time>
      </trkpt>
      <trkpt lat="47.01556" lon="5.84301">
        <ele>388</ele>
        <time>2022-03-17T09:23:57.403Z</time>
      </trkpt>
      <trkpt lat="47.0156" lon="5.84299">
        <ele>388</ele>
        <time>2022-03-17T09:24:02.352Z</time>
      </trkpt>
      <trkpt lat="47.01564" lon="5.84297">
        <ele>388</ele>
        <time>2022-03-17T09:24:06.393Z</time>
      </trkpt>
      <trkpt lat="47.01568" lon="5.84295">
        <ele>388</ele>
        <time>2022-03-17T09:24:11.358Z</time>
      </trkpt>
      <trkpt lat="47.01573" lon="5.84292">
        <ele>389</ele>
        <time>2022-03-17T09:24:16.358Z</time>
      </trkpt>
      <trkpt lat="47.01581" lon="5.84292">
        <ele>390</ele>
        <time>2022-03-17T09:24:21.358Z</time>
      </trkpt>
      <trkpt lat="47.01586" lon="5.8429">
        <ele>390</ele>
        <time>2022-03-17T09:24:25.407Z</time>
      </trkpt>
      <trkpt lat="47.01592" lon="5.84287">
        <ele>390</ele>
        <time>2022-03-17T09:24:30.356Z</time>
      </trkpt>
      <trkpt lat="47.01597" lon="5.84288">
        <ele>390</ele>
        <time>2022-03-17T09:24:35.373Z</time>
      </trkpt>
      <trkpt lat="47.01602" lon="5.84289">
        <ele>391</ele>
        <time>2022-03-17T09:24:40.376Z</time>
      </trkpt>
      <trkpt lat="47.0161" lon="5.84289">
        <ele>391</ele>
        <time>2022-03-17T09:24:45.371Z</time>
      </trkpt>
      <trkpt lat="47.01614" lon="5.84289">
        <ele>391</ele>
        <time>2022-03-17T09:24:49.390Z</time>
      </trkpt>
      <trkpt lat="47.01623" lon="5.8429">
        <ele>391</ele>
        <time>2022-03-17T09:24:54.353Z</time>
      </trkpt>
      <trkpt lat="47.01629" lon="5.84289">
        <ele>392</ele>
        <time>2022-03-17T09:24:58.353Z</time>
      </trkpt>
      <trkpt lat="47.01634" lon="5.84288">
        <ele>392</ele>
        <time>2022-03-17T09:25:02.395Z</time>
      </trkpt>
      <trkpt lat="47.0164" lon="5.84289">
        <ele>392</ele>
        <time>2022-03-17T09:25:07.355Z</time>
      </trkpt>
      <trkpt lat="47.01645" lon="5.84288">
        <ele>392</ele>
        <time>2022-03-17T09:25:12.361Z</time>
      </trkpt>
      <trkpt lat="47.01652" lon="5.84288">
        <ele>392</ele>
        <time>2022-03-17T09:25:17.347Z</time>
      </trkpt>
      <trkpt lat="47.0166" lon="5.84286">
        <ele>394</ele>
        <time>2022-03-17T09:25:22.388Z</time>
      </trkpt>
      <trkpt lat="47.01666" lon="5.84287">
        <ele>394</ele>
        <time>2022-03-17T09:25:27.380Z</time>
      </trkpt>
      <trkpt lat="47.01671" lon="5.84289">
        <ele>394</ele>
        <time>2022-03-17T09:25:32.318Z</time>
      </trkpt>
      <trkpt lat="47.01674" lon="5.84289">
        <ele>394</ele>
        <time>2022-03-17T09:25:36.388Z</time>
      </trkpt>
      <trkpt lat="47.01679" lon="5.84291">
        <ele>394</ele>
        <time>2022-03-17T09:25:41.322Z</time>
      </trkpt>
      <trkpt lat="47.01684" lon="5.84292">
        <ele>395</ele>
        <time>2022-03-17T09:25:45.369Z</time>
      </trkpt>
      <trkpt lat="47.0169" lon="5.84293">
        <ele>395</ele>
        <time>2022-03-17T09:25:49.361Z</time>
      </trkpt>
      <trkpt lat="47.01695" lon="5.84295">
        <ele>395</ele>
        <time>2022-03-17T09:25:54.349Z</time>
      </trkpt>
      <trkpt lat="47.01698" lon="5.843">
        <ele>395</ele>
        <time>2022-03-17T09:25:59.395Z</time>
      </trkpt>
      <trkpt lat="47.01705" lon="5.84302">
        <ele>395</ele>
        <time>2022-03-17T09:26:04.361Z</time>
      </trkpt>
      <trkpt lat="47.01708" lon="5.84302">
        <ele>395</ele>
        <time>2022-03-17T09:26:08.400Z</time>
      </trkpt>
      <trkpt lat="47.01714" lon="5.84303">
        <ele>397</ele>
        <time>2022-03-17T09:26:13.371Z</time>
      </trkpt>
      <trkpt lat="47.01721" lon="5.84302">
        <ele>397</ele>
        <time>2022-03-17T09:26:18.368Z</time>
      </trkpt>
      <trkpt lat="47.01726" lon="5.84305">
        <ele>397</ele>
        <time>2022-03-17T09:26:23.346Z</time>
      </trkpt>
      <trkpt lat="47.01731" lon="5.84304">
        <ele>397</ele>
        <time>2022-03-17T09:26:28.380Z</time>
      </trkpt>
      <trkpt lat="47.01735" lon="5.84305">
        <ele>397</ele>
        <time>2022-03-17T09:26:33.361Z</time>
      </trkpt>
      <trkpt lat="47.01738" lon="5.84306">
        <ele>398</ele>
        <time>2022-03-17T09:26:38.393Z</time>
      </trkpt>
      <trkpt lat="47.01743" lon="5.84307">
        <ele>398</ele>
        <time>2022-03-17T09:26:43.386Z</time>
      </trkpt>
      <trkpt lat="47.01748" lon="5.84308">
        <ele>398</ele>
        <time>2022-03-17T09:26:47.376Z</time>
      </trkpt>
      <trkpt lat="47.01754" lon="5.84308">
        <ele>398</ele>
        <time>2022-03-17T09:26:52.381Z</time>
      </trkpt>
      <trkpt lat="47.01758" lon="5.84309">
        <ele>398</ele>
        <time>2022-03-17T09:26:57.386Z</time>
      </trkpt>
      <trkpt lat="47.01765" lon="5.84312">
        <ele>399</ele>
        <time>2022-03-17T09:27:02.360Z</time>
      </trkpt>
      <trkpt lat="47.01769" lon="5.84313">
        <ele>399</ele>
        <time>2022-03-17T09:27:07.385Z</time>
      </trkpt>
      <trkpt lat="47.01774" lon="5.84312">
        <ele>399</ele>
        <time>2022-03-17T09:27:12.394Z</time>
      </trkpt>
      <trkpt lat="47.01777" lon="5.84313">
        <ele>399</ele>
        <time>2022-03-17T09:27:17.396Z</time>
      </trkpt>
      <trkpt lat="47.01782" lon="5.84315">
        <ele>399</ele>
        <time>2022-03-17T09:27:22.396Z</time>
      </trkpt>
      <trkpt lat="47.01785" lon="5.84317">
        <ele>399</ele>
        <time>2022-03-17T09:27:27.342Z</time>
      </trkpt>
      <trkpt lat="47.01789" lon="5.84319">
        <ele>399</ele>
        <time>2022-03-17T09:27:32.389Z</time>
      </trkpt>
      <trkpt lat="47.01794" lon="5.84319">
        <ele>400</ele>
        <time>2022-03-17T09:27:37.353Z</time>
      </trkpt>
      <trkpt lat="47.01798" lon="5.84321">
        <ele>401</ele>
        <time>2022-03-17T09:27:41.342Z</time>
      </trkpt>
      <trkpt lat="47.01805" lon="5.84319">
        <ele>400</ele>
        <time>2022-03-17T09:27:46.374Z</time>
      </trkpt>
      <trkpt lat="47.01811" lon="5.8432">
        <ele>401</ele>
        <time>2022-03-17T09:27:51.381Z</time>
      </trkpt>
      <trkpt lat="47.01816" lon="5.84321">
        <ele>401</ele>
        <time>2022-03-17T09:27:55.379Z</time>
      </trkpt>
      <trkpt lat="47.01823" lon="5.84322">
        <ele>401</ele>
        <time>2022-03-17T09:28:00.401Z</time>
      </trkpt>
      <trkpt lat="47.01829" lon="5.84325">
        <ele>401</ele>
        <time>2022-03-17T09:28:05.401Z</time>
      </trkpt>
      <trkpt lat="47.01835" lon="5.84326">
        <ele>401</ele>
        <time>2022-03-17T09:28:10.353Z</time>
      </trkpt>
      <trkpt lat="47.01842" lon="5.84325">
        <ele>401</ele>
        <time>2022-03-17T09:28:15.420Z</time>
      </trkpt>
      <trkpt lat="47.01846" lon="5.84321">
        <ele>401</ele>
        <time>2022-03-17T09:28:20.354Z</time>
      </trkpt>
      <trkpt lat="47.0185" lon="5.8432">
        <ele>400</ele>
        <time>2022-03-17T09:28:25.385Z</time>
      </trkpt>
      <trkpt lat="47.01854" lon="5.84319">
        <ele>402</ele>
        <time>2022-03-17T09:28:30.374Z</time>
      </trkpt>
      <trkpt lat="47.01861" lon="5.84319">
        <ele>402</ele>
        <time>2022-03-17T09:28:35.363Z</time>
      </trkpt>
      <trkpt lat="47.0187" lon="5.84316">
        <ele>402</ele>
        <time>2022-03-17T09:28:40.378Z</time>
      </trkpt>
      <trkpt lat="47.01878" lon="5.84315">
        <ele>402</ele>
        <time>2022-03-17T09:28:45.352Z</time>
      </trkpt>
      <trkpt lat="47.01884" lon="5.84315">
        <ele>402</ele>
        <time>2022-03-17T09:28:49.360Z</time>
      </trkpt>
      <trkpt lat="47.01892" lon="5.84315">
        <ele>402</ele>
        <time>2022-03-17T09:28:54.344Z</time>
      </trkpt>
      <trkpt lat="47.01896" lon="5.84316">
        <ele>402</ele>
        <time>2022-03-17T09:28:58.401Z</time>
      </trkpt>
      <trkpt lat="47.01903" lon="5.84316">
        <ele>402</ele>
        <time>2022-03-17T09:29:03.341Z</time>
      </trkpt>
      <trkpt lat="47.01913" lon="5.84318">
        <ele>403</ele>
        <time>2022-03-17T09:29:17.350Z</time>
      </trkpt>
      <trkpt lat="47.01916" lon="5.84321">
        <ele>399</ele>
        <time>2022-03-17T09:29:26.372Z</time>
      </trkpt>
      <trkpt lat="47.01918" lon="5.84321">
        <ele>399</ele>
        <time>2022-03-17T09:30:13.338Z</time>
      </trkpt>
      <trkpt lat="47.01923" lon="5.8432">
        <ele>399</ele>
        <time>2022-03-17T09:30:18.348Z</time>
      </trkpt>
      <trkpt lat="47.01927" lon="5.8432">
        <ele>399</ele>
        <time>2022-03-17T09:30:22.374Z</time>
      </trkpt>
      <trkpt lat="47.01933" lon="5.84323">
        <ele>402</ele>
        <time>2022-03-17T09:30:27.358Z</time>
      </trkpt>
      <trkpt lat="47.01938" lon="5.84325">
        <ele>402</ele>
        <time>2022-03-17T09:30:32.382Z</time>
      </trkpt>
      <trkpt lat="47.01943" lon="5.84326">
        <ele>402</ele>
        <time>2022-03-17T09:30:36.379Z</time>
      </trkpt>
      <trkpt lat="47.01949" lon="5.84327">
        <ele>402</ele>
        <time>2022-03-17T09:30:41.364Z</time>
      </trkpt>
      <trkpt lat="47.01954" lon="5.84327">
        <ele>402</ele>
        <time>2022-03-17T09:30:46.375Z</time>
      </trkpt>
      <trkpt lat="47.01959" lon="5.84327">
        <ele>404</ele>
        <time>2022-03-17T09:30:51.361Z</time>
      </trkpt>
      <trkpt lat="47.01965" lon="5.84327">
        <ele>404</ele>
        <time>2022-03-17T09:30:56.340Z</time>
      </trkpt>
      <trkpt lat="47.0197" lon="5.84327">
        <ele>404</ele>
        <time>2022-03-17T09:31:00.366Z</time>
      </trkpt>
      <trkpt lat="47.01976" lon="5.84326">
        <ele>404</ele>
        <time>2022-03-17T09:31:05.321Z</time>
      </trkpt>
      <trkpt lat="47.0198" lon="5.84328">
        <ele>404</ele>
        <time>2022-03-17T09:31:09.347Z</time>
      </trkpt>
      <trkpt lat="47.01984" lon="5.84329">
        <ele>404</ele>
        <time>2022-03-17T09:31:13.365Z</time>
      </trkpt>
      <trkpt lat="47.01989" lon="5.8433">
        <ele>407</ele>
        <time>2022-03-17T09:31:18.362Z</time>
      </trkpt>
      <trkpt lat="47.01994" lon="5.8433">
        <ele>407</ele>
        <time>2022-03-17T09:31:23.321Z</time>
      </trkpt>
      <trkpt lat="47.02" lon="5.8433">
        <ele>407</ele>
        <time>2022-03-17T09:31:27.348Z</time>
      </trkpt>
      <trkpt lat="47.02004" lon="5.84331">
        <ele>407</ele>
        <time>2022-03-17T09:31:31.365Z</time>
      </trkpt>
      <trkpt lat="47.02009" lon="5.84331">
        <ele>407</ele>
        <time>2022-03-17T09:31:36.359Z</time>
      </trkpt>
      <trkpt lat="47.02013" lon="5.84331">
        <ele>407</ele>
        <time>2022-03-17T09:31:41.359Z</time>
      </trkpt>
      <trkpt lat="47.02018" lon="5.84332">
        <ele>410</ele>
        <time>2022-03-17T09:31:45.362Z</time>
      </trkpt>
      <trkpt lat="47.02023" lon="5.84333">
        <ele>410</ele>
        <time>2022-03-17T09:31:50.313Z</time>
      </trkpt>
      <trkpt lat="47.02027" lon="5.84332">
        <ele>410</ele>
        <time>2022-03-17T09:31:54.381Z</time>
      </trkpt>
      <trkpt lat="47.02033" lon="5.84331">
        <ele>410</ele>
        <time>2022-03-17T09:31:59.315Z</time>
      </trkpt>
      <trkpt lat="47.02038" lon="5.84331">
        <ele>410</ele>
        <time>2022-03-17T09:32:03.384Z</time>
      </trkpt>
      <trkpt lat="47.02044" lon="5.84332">
        <ele>411</ele>
        <time>2022-03-17T09:32:08.388Z</time>
      </trkpt>
      <trkpt lat="47.02049" lon="5.84331">
        <ele>411</ele>
        <time>2022-03-17T09:32:13.378Z</time>
      </trkpt>
      <trkpt lat="47.02056" lon="5.84331">
        <ele>411</ele>
        <time>2022-03-17T09:32:18.367Z</time>
      </trkpt>
      <trkpt lat="47.02061" lon="5.8433">
        <ele>411</ele>
        <time>2022-03-17T09:32:23.352Z</time>
      </trkpt>
      <trkpt lat="47.02067" lon="5.84332">
        <ele>411</ele>
        <time>2022-03-17T09:32:28.335Z</time>
      </trkpt>
      <trkpt lat="47.02071" lon="5.84331">
        <ele>412</ele>
        <time>2022-03-17T09:32:32.397Z</time>
      </trkpt>
      <trkpt lat="47.02077" lon="5.84331">
        <ele>412</ele>
        <time>2022-03-17T09:32:37.343Z</time>
      </trkpt>
      <trkpt lat="47.02082" lon="5.8433">
        <ele>412</ele>
        <time>2022-03-17T09:32:41.349Z</time>
      </trkpt>
      <trkpt lat="47.02088" lon="5.8433">
        <ele>412</ele>
        <time>2022-03-17T09:32:46.318Z</time>
      </trkpt>
      <trkpt lat="47.02091" lon="5.8433">
        <ele>412</ele>
        <time>2022-03-17T09:32:50.370Z</time>
      </trkpt>
      <trkpt lat="47.02096" lon="5.84329">
        <ele>412</ele>
        <time>2022-03-17T09:32:55.356Z</time>
      </trkpt>
      <trkpt lat="47.02102" lon="5.84328">
        <ele>412</ele>
        <time>2022-03-17T09:33:00.332Z</time>
      </trkpt>
      <trkpt lat="47.02105" lon="5.84325">
        <ele>412</ele>
        <time>2022-03-17T09:33:04.367Z</time>
      </trkpt>
      <trkpt lat="47.02111" lon="5.84322">
        <ele>412</ele>
        <time>2022-03-17T09:33:09.349Z</time>
      </trkpt>
      <trkpt lat="47.02116" lon="5.84322">
        <ele>412</ele>
        <time>2022-03-17T09:33:14.367Z</time>
      </trkpt>
      <trkpt lat="47.0212" lon="5.8432">
        <ele>412</ele>
        <time>2022-03-17T09:33:19.388Z</time>
      </trkpt>
      <trkpt lat="47.02125" lon="5.84317">
        <ele>416</ele>
        <time>2022-03-17T09:33:24.363Z</time>
      </trkpt>
      <trkpt lat="47.0213" lon="5.84316">
        <ele>416</ele>
        <time>2022-03-17T09:33:29.331Z</time>
      </trkpt>
      <trkpt lat="47.02133" lon="5.84314">
        <ele>416</ele>
        <time>2022-03-17T09:33:34.368Z</time>
      </trkpt>
      <trkpt lat="47.02138" lon="5.84312">
        <ele>416</ele>
        <time>2022-03-17T09:33:38.346Z</time>
      </trkpt>
      <trkpt lat="47.02143" lon="5.84308">
        <ele>416</ele>
        <time>2022-03-17T09:33:43.383Z</time>
      </trkpt>
      <trkpt lat="47.02147" lon="5.84305">
        <ele>416</ele>
        <time>2022-03-17T09:33:48.365Z</time>
      </trkpt>
      <trkpt lat="47.02151" lon="5.84303">
        <ele>416</ele>
        <time>2022-03-17T09:33:52.426Z</time>
      </trkpt>
      <trkpt lat="47.02155" lon="5.84301">
        <ele>415</ele>
        <time>2022-03-17T09:33:57.355Z</time>
      </trkpt>
      <trkpt lat="47.0216" lon="5.843">
        <ele>415</ele>
        <time>2022-03-17T09:34:01.399Z</time>
      </trkpt>
      <trkpt lat="47.02164" lon="5.84295">
        <ele>415</ele>
        <time>2022-03-17T09:34:06.368Z</time>
      </trkpt>
      <trkpt lat="47.02167" lon="5.84291">
        <ele>418</ele>
        <time>2022-03-17T09:34:10.382Z</time>
      </trkpt>
      <trkpt lat="47.02169" lon="5.84285">
        <ele>418</ele>
        <time>2022-03-17T09:34:15.362Z</time>
      </trkpt>
      <trkpt lat="47.02171" lon="5.84277">
        <ele>418</ele>
        <time>2022-03-17T09:34:20.360Z</time>
      </trkpt>
      <trkpt lat="47.02172" lon="5.84268">
        <ele>418</ele>
        <time>2022-03-17T09:34:25.338Z</time>
      </trkpt>
      <trkpt lat="47.0217" lon="5.84264">
        <ele>420</ele>
        <time>2022-03-17T09:34:29.377Z</time>
      </trkpt>
      <trkpt lat="47.02168" lon="5.8426">
        <ele>420</ele>
        <time>2022-03-17T09:34:34.375Z</time>
      </trkpt>
      <trkpt lat="47.02166" lon="5.84256">
        <ele>420</ele>
        <time>2022-03-17T09:34:38.388Z</time>
      </trkpt>
      <trkpt lat="47.02162" lon="5.84251">
        <ele>420</ele>
        <time>2022-03-17T09:34:43.358Z</time>
      </trkpt>
      <trkpt lat="47.02158" lon="5.84248">
        <ele>420</ele>
        <time>2022-03-17T09:34:48.379Z</time>
      </trkpt>
      <trkpt lat="47.02155" lon="5.84245">
        <ele>420</ele>
        <time>2022-03-17T09:34:53.405Z</time>
      </trkpt>
      <trkpt lat="47.02152" lon="5.8424">
        <ele>421</ele>
        <time>2022-03-17T09:34:58.355Z</time>
      </trkpt>
      <trkpt lat="47.02149" lon="5.84236">
        <ele>422</ele>
        <time>2022-03-17T09:35:02.436Z</time>
      </trkpt>
      <trkpt lat="47.02147" lon="5.84231">
        <ele>422</ele>
        <time>2022-03-17T09:35:07.346Z</time>
      </trkpt>
      <trkpt lat="47.02143" lon="5.84226">
        <ele>422</ele>
        <time>2022-03-17T09:35:11.346Z</time>
      </trkpt>
      <trkpt lat="47.0214" lon="5.84219">
        <ele>422</ele>
        <time>2022-03-17T09:35:16.393Z</time>
      </trkpt>
      <trkpt lat="47.02137" lon="5.84214">
        <ele>422</ele>
        <time>2022-03-17T09:35:21.365Z</time>
      </trkpt>
      <trkpt lat="47.02134" lon="5.84208">
        <ele>421</ele>
        <time>2022-03-17T09:35:25.443Z</time>
      </trkpt>
      <trkpt lat="47.02136" lon="5.84201">
        <ele>421</ele>
        <time>2022-03-17T09:35:30.399Z</time>
      </trkpt>
      <trkpt lat="47.02133" lon="5.84196">
        <ele>421</ele>
        <time>2022-03-17T09:35:35.291Z</time>
      </trkpt>
      <trkpt lat="47.02133" lon="5.84192">
        <ele>421</ele>
        <time>2022-03-17T09:35:39.411Z</time>
      </trkpt>
      <trkpt lat="47.02135" lon="5.84185">
        <ele>421</ele>
        <time>2022-03-17T09:35:44.368Z</time>
      </trkpt>
      <trkpt lat="47.02134" lon="5.84181">
        <ele>419</ele>
        <time>2022-03-17T09:35:48.373Z</time>
      </trkpt>
      <trkpt lat="47.02135" lon="5.84176">
        <ele>419</ele>
        <time>2022-03-17T09:35:53.344Z</time>
      </trkpt>
      <trkpt lat="47.02138" lon="5.8417">
        <ele>419</ele>
        <time>2022-03-17T09:35:58.344Z</time>
      </trkpt>
      <trkpt lat="47.0214" lon="5.84167">
        <ele>419</ele>
        <time>2022-03-17T09:36:03.341Z</time>
      </trkpt>
      <trkpt lat="47.02142" lon="5.84162">
        <ele>419</ele>
        <time>2022-03-17T09:36:07.370Z</time>
      </trkpt>
      <trkpt lat="47.02143" lon="5.84158">
        <ele>419</ele>
        <time>2022-03-17T09:36:12.356Z</time>
      </trkpt>
      <trkpt lat="47.02146" lon="5.84155">
        <ele>419</ele>
        <time>2022-03-17T09:36:17.395Z</time>
      </trkpt>
      <trkpt lat="47.02147" lon="5.8415">
        <ele>416</ele>
        <time>2022-03-17T09:36:21.382Z</time>
      </trkpt>
      <trkpt lat="47.02148" lon="5.84145">
        <ele>416</ele>
        <time>2022-03-17T09:36:26.344Z</time>
      </trkpt>
      <trkpt lat="47.02149" lon="5.8414">
        <ele>416</ele>
        <time>2022-03-17T09:36:31.367Z</time>
      </trkpt>
      <trkpt lat="47.0215" lon="5.84134">
        <ele>416</ele>
        <time>2022-03-17T09:36:36.369Z</time>
      </trkpt>
      <trkpt lat="47.02151" lon="5.84126">
        <ele>416</ele>
        <time>2022-03-17T09:36:41.378Z</time>
      </trkpt>
      <trkpt lat="47.02153" lon="5.84121">
        <ele>412</ele>
        <time>2022-03-17T09:36:45.346Z</time>
      </trkpt>
      <trkpt lat="47.02153" lon="5.84111">
        <ele>413</ele>
        <time>2022-03-17T09:36:50.386Z</time>
      </trkpt>
      <trkpt lat="47.02154" lon="5.84104">
        <ele>413</ele>
        <time>2022-03-17T09:36:55.354Z</time>
      </trkpt>
      <trkpt lat="47.02154" lon="5.84093">
        <ele>411</ele>
        <time>2022-03-17T09:37:00.391Z</time>
      </trkpt>
      <trkpt lat="47.02152" lon="5.84083">
        <ele>410</ele>
        <time>2022-03-17T09:37:05.386Z</time>
      </trkpt>
      <trkpt lat="47.0215" lon="5.84076">
        <ele>410</ele>
        <time>2022-03-17T09:37:10.346Z</time>
      </trkpt>
      <trkpt lat="47.0215" lon="5.84065">
        <ele>407</ele>
        <time>2022-03-17T09:37:15.365Z</time>
      </trkpt>
      <trkpt lat="47.0215" lon="5.84057">
        <ele>407</ele>
        <time>2022-03-17T09:37:20.364Z</time>
      </trkpt>
      <trkpt lat="47.02151" lon="5.84052">
        <ele>407</ele>
        <time>2022-03-17T09:37:25.350Z</time>
      </trkpt>
      <trkpt lat="47.02153" lon="5.84048">
        <ele>408</ele>
        <time>2022-03-17T09:37:30.311Z</time>
      </trkpt>
      <trkpt lat="47.02156" lon="5.84042">
        <ele>408</ele>
        <time>2022-03-17T09:37:34.384Z</time>
      </trkpt>
      <trkpt lat="47.02158" lon="5.84038">
        <ele>407</ele>
        <time>2022-03-17T09:37:39.383Z</time>
      </trkpt>
      <trkpt lat="47.02159" lon="5.84033">
        <ele>407</ele>
        <time>2022-03-17T09:37:44.394Z</time>
      </trkpt>
      <trkpt lat="47.0216" lon="5.84027">
        <ele>407</ele>
        <time>2022-03-17T09:37:49.403Z</time>
      </trkpt>
      <trkpt lat="47.02163" lon="5.84021">
        <ele>407</ele>
        <time>2022-03-17T09:37:54.380Z</time>
      </trkpt>
      <trkpt lat="47.02165" lon="5.84016">
        <ele>407</ele>
        <time>2022-03-17T09:37:59.402Z</time>
      </trkpt>
      <trkpt lat="47.02166" lon="5.84007">
        <ele>408</ele>
        <time>2022-03-17T09:38:04.359Z</time>
      </trkpt>
      <trkpt lat="47.02168" lon="5.84003">
        <ele>408</ele>
        <time>2022-03-17T09:38:08.383Z</time>
      </trkpt>
      <trkpt lat="47.02167" lon="5.84">
        <ele>408</ele>
        <time>2022-03-17T09:38:13.372Z</time>
      </trkpt>
      <trkpt lat="47.02167" lon="5.83989">
        <ele>408</ele>
        <time>2022-03-17T09:38:40.368Z</time>
      </trkpt>
      <trkpt lat="47.02165" lon="5.83989">
        <ele>408</ele>
        <time>2022-03-17T09:38:55.372Z</time>
      </trkpt>
      <trkpt lat="47.02165" lon="5.83988">
        <ele>408</ele>
        <time>2022-03-17T09:38:59.367Z</time>
      </trkpt>
      <trkpt lat="47.02165" lon="5.83985">
        <ele>409</ele>
        <time>2022-03-17T09:39:08.377Z</time>
      </trkpt>
      <trkpt lat="47.02168" lon="5.83983">
        <ele>409</ele>
        <time>2022-03-17T09:39:28.279Z</time>
      </trkpt>
      <trkpt lat="47.0217" lon="5.83977">
        <ele>409</ele>
        <time>2022-03-17T09:39:43.343Z</time>
      </trkpt>
      <trkpt lat="47.02171" lon="5.83977">
        <ele>409</ele>
        <time>2022-03-17T09:39:47.352Z</time>
      </trkpt>
      <trkpt lat="47.02174" lon="5.83976">
        <ele>409</ele>
        <time>2022-03-17T09:39:57.315Z</time>
      </trkpt>
      <trkpt lat="47.02176" lon="5.83973">
        <ele>409</ele>
        <time>2022-03-17T09:40:07.313Z</time>
      </trkpt>
      <trkpt lat="47.02176" lon="5.83971">
        <ele>409</ele>
        <time>2022-03-17T09:40:17.275Z</time>
      </trkpt>
      <trkpt lat="47.0218" lon="5.83971">
        <ele>409</ele>
        <time>2022-03-17T09:40:35.278Z</time>
      </trkpt>
      <trkpt lat="47.02181" lon="5.83969">
        <ele>409</ele>
        <time>2022-03-17T09:40:39.337Z</time>
      </trkpt>
      <trkpt lat="47.02182" lon="5.83969">
        <ele>409</ele>
        <time>2022-03-17T09:40:44.377Z</time>
      </trkpt>
      <trkpt lat="47.02183" lon="5.83967">
        <ele>409</ele>
        <time>2022-03-17T09:40:54.312Z</time>
      </trkpt>
      <trkpt lat="47.02185" lon="5.83965">
        <ele>409</ele>
        <time>2022-03-17T09:40:58.376Z</time>
      </trkpt>
      <trkpt lat="47.02189" lon="5.83965">
        <ele>409</ele>
        <time>2022-03-17T09:41:03.411Z</time>
      </trkpt>
      <trkpt lat="47.02193" lon="5.83966">
        <ele>409</ele>
        <time>2022-03-17T09:41:08.355Z</time>
      </trkpt>
      <trkpt lat="47.02194" lon="5.83966">
        <ele>409</ele>
        <time>2022-03-17T09:41:12.374Z</time>
      </trkpt>
      <trkpt lat="47.022" lon="5.83965">
        <ele>409</ele>
        <time>2022-03-17T09:41:17.358Z</time>
      </trkpt>
      <trkpt lat="47.02203" lon="5.83965">
        <ele>409</ele>
        <time>2022-03-17T09:41:22.349Z</time>
      </trkpt>
      <trkpt lat="47.02207" lon="5.83965">
        <ele>409</ele>
        <time>2022-03-17T09:41:27.375Z</time>
      </trkpt>
      <trkpt lat="47.02211" lon="5.83964">
        <ele>410</ele>
        <time>2022-03-17T09:41:32.382Z</time>
      </trkpt>
      <trkpt lat="47.02215" lon="5.83965">
        <ele>410</ele>
        <time>2022-03-17T09:41:37.374Z</time>
      </trkpt>
      <trkpt lat="47.02219" lon="5.83966">
        <ele>410</ele>
        <time>2022-03-17T09:41:41.419Z</time>
      </trkpt>
      <trkpt lat="47.02224" lon="5.83966">
        <ele>410</ele>
        <time>2022-03-17T09:41:46.375Z</time>
      </trkpt>
      <trkpt lat="47.02228" lon="5.83965">
        <ele>410</ele>
        <time>2022-03-17T09:41:51.349Z</time>
      </trkpt>
      <trkpt lat="47.02231" lon="5.83964">
        <ele>410</ele>
        <time>2022-03-17T09:41:55.385Z</time>
      </trkpt>
      <trkpt lat="47.02236" lon="5.83964">
        <ele>410</ele>
        <time>2022-03-17T09:42:00.338Z</time>
      </trkpt>
      <trkpt lat="47.02241" lon="5.83963">
        <ele>410</ele>
        <time>2022-03-17T09:42:05.307Z</time>
      </trkpt>
      <trkpt lat="47.02244" lon="5.83962">
        <ele>410</ele>
        <time>2022-03-17T09:42:09.368Z</time>
      </trkpt>
      <trkpt lat="47.02248" lon="5.83963">
        <ele>410</ele>
        <time>2022-03-17T09:42:14.392Z</time>
      </trkpt>
      <trkpt lat="47.02253" lon="5.83963">
        <ele>410</ele>
        <time>2022-03-17T09:42:19.366Z</time>
      </trkpt>
      <trkpt lat="47.0226" lon="5.83963">
        <ele>410</ele>
        <time>2022-03-17T09:42:24.380Z</time>
      </trkpt>
      <trkpt lat="47.02263" lon="5.83964">
        <ele>410</ele>
        <time>2022-03-17T09:42:29.384Z</time>
      </trkpt>
      <trkpt lat="47.0227" lon="5.83967">
        <ele>408</ele>
        <time>2022-03-17T09:42:34.369Z</time>
      </trkpt>
      <trkpt lat="47.02275" lon="5.83968">
        <ele>408</ele>
        <time>2022-03-17T09:42:38.355Z</time>
      </trkpt>
      <trkpt lat="47.02279" lon="5.83967">
        <ele>408</ele>
        <time>2022-03-17T09:42:43.381Z</time>
      </trkpt>
      <trkpt lat="47.02284" lon="5.8396">
        <ele>408</ele>
        <time>2022-03-17T09:42:48.376Z</time>
      </trkpt>
      <trkpt lat="47.02288" lon="5.83952">
        <ele>409</ele>
        <time>2022-03-17T09:42:53.385Z</time>
      </trkpt>
      <trkpt lat="47.02292" lon="5.83945">
        <ele>407</ele>
        <time>2022-03-17T09:42:58.378Z</time>
      </trkpt>
      <trkpt lat="47.02294" lon="5.83939">
        <ele>407</ele>
        <time>2022-03-17T09:43:03.361Z</time>
      </trkpt>
      <trkpt lat="47.02295" lon="5.83933">
        <ele>407</ele>
        <time>2022-03-17T09:43:08.363Z</time>
      </trkpt>
      <trkpt lat="47.02297" lon="5.83925">
        <ele>408</ele>
        <time>2022-03-17T09:43:12.406Z</time>
      </trkpt>
      <trkpt lat="47.02299" lon="5.83917">
        <ele>408</ele>
        <time>2022-03-17T09:43:17.368Z</time>
      </trkpt>
      <trkpt lat="47.02302" lon="5.83909">
        <ele>408</ele>
        <time>2022-03-17T09:43:22.420Z</time>
      </trkpt>
      <trkpt lat="47.02305" lon="5.83903">
        <ele>408</ele>
        <time>2022-03-17T09:43:27.382Z</time>
      </trkpt>
      <trkpt lat="47.02308" lon="5.83895">
        <ele>408</ele>
        <time>2022-03-17T09:43:32.370Z</time>
      </trkpt>
      <trkpt lat="47.02311" lon="5.83889">
        <ele>408</ele>
        <time>2022-03-17T09:43:36.362Z</time>
      </trkpt>
      <trkpt lat="47.02314" lon="5.83883">
        <ele>408</ele>
        <time>2022-03-17T09:43:41.363Z</time>
      </trkpt>
      <trkpt lat="47.02316" lon="5.83878">
        <ele>408</ele>
        <time>2022-03-17T09:43:45.352Z</time>
      </trkpt>
      <trkpt lat="47.02318" lon="5.83873">
        <ele>406</ele>
        <time>2022-03-17T09:43:50.392Z</time>
      </trkpt>
      <trkpt lat="47.02321" lon="5.8387">
        <ele>406</ele>
        <time>2022-03-17T09:43:55.385Z</time>
      </trkpt>
      <trkpt lat="47.02323" lon="5.83866">
        <ele>406</ele>
        <time>2022-03-17T09:44:00.353Z</time>
      </trkpt>
      <trkpt lat="47.02325" lon="5.8386">
        <ele>406</ele>
        <time>2022-03-17T09:44:05.317Z</time>
      </trkpt>
      <trkpt lat="47.02327" lon="5.83856">
        <ele>406</ele>
        <time>2022-03-17T09:44:09.353Z</time>
      </trkpt>
      <trkpt lat="47.02328" lon="5.83855">
        <ele>406</ele>
        <time>2022-03-17T09:44:14.366Z</time>
      </trkpt>
      <trkpt lat="47.02332" lon="5.83847">
        <ele>403</ele>
        <time>2022-03-17T09:44:19.350Z</time>
      </trkpt>
      <trkpt lat="47.02334" lon="5.83844">
        <ele>403</ele>
        <time>2022-03-17T09:44:24.370Z</time>
      </trkpt>
      <trkpt lat="47.02337" lon="5.83838">
        <ele>403</ele>
        <time>2022-03-17T09:44:29.375Z</time>
      </trkpt>
      <trkpt lat="47.02341" lon="5.83831">
        <ele>403</ele>
        <time>2022-03-17T09:44:34.382Z</time>
      </trkpt>
      <trkpt lat="47.02344" lon="5.83826">
        <ele>403</ele>
        <time>2022-03-17T09:44:39.361Z</time>
      </trkpt>
      <trkpt lat="47.02347" lon="5.83818">
        <ele>398</ele>
        <time>2022-03-17T09:44:44.427Z</time>
      </trkpt>
      <trkpt lat="47.0235" lon="5.83813">
        <ele>399</ele>
        <time>2022-03-17T09:44:49.390Z</time>
      </trkpt>
      <trkpt lat="47.02353" lon="5.83809">
        <ele>399</ele>
        <time>2022-03-17T09:44:54.362Z</time>
      </trkpt>
      <trkpt lat="47.02358" lon="5.83802">
        <ele>399</ele>
        <time>2022-03-17T09:44:59.364Z</time>
      </trkpt>
      <trkpt lat="47.02362" lon="5.83797">
        <ele>399</ele>
        <time>2022-03-17T09:45:04.361Z</time>
      </trkpt>
      <trkpt lat="47.02364" lon="5.8379">
        <ele>393</ele>
        <time>2022-03-17T09:45:09.341Z</time>
      </trkpt>
      <trkpt lat="47.02367" lon="5.83783">
        <ele>393</ele>
        <time>2022-03-17T09:45:14.376Z</time>
      </trkpt>
      <trkpt lat="47.02369" lon="5.83779">
        <ele>393</ele>
        <time>2022-03-17T09:45:18.365Z</time>
      </trkpt>
      <trkpt lat="47.0237" lon="5.83778">
        <ele>393</ele>
        <time>2022-03-17T09:45:23.354Z</time>
      </trkpt>
      <trkpt lat="47.02372" lon="5.83773">
        <ele>393</ele>
        <time>2022-03-17T09:45:27.382Z</time>
      </trkpt>
      <trkpt lat="47.02373" lon="5.83772">
        <ele>393</ele>
        <time>2022-03-17T09:45:32.350Z</time>
      </trkpt>
      <trkpt lat="47.02374" lon="5.83766">
        <ele>393</ele>
        <time>2022-03-17T09:45:37.352Z</time>
      </trkpt>
      <trkpt lat="47.02377" lon="5.83762">
        <ele>390</ele>
        <time>2022-03-17T09:45:42.350Z</time>
      </trkpt>
      <trkpt lat="47.02379" lon="5.83757">
        <ele>390</ele>
        <time>2022-03-17T09:45:47.381Z</time>
      </trkpt>
      <trkpt lat="47.02383" lon="5.83752">
        <ele>390</ele>
        <time>2022-03-17T09:45:52.342Z</time>
      </trkpt>
      <trkpt lat="47.02385" lon="5.83747">
        <ele>390</ele>
        <time>2022-03-17T09:45:57.362Z</time>
      </trkpt>
      <trkpt lat="47.02389" lon="5.83741">
        <ele>390</ele>
        <time>2022-03-17T09:46:02.323Z</time>
      </trkpt>
      <trkpt lat="47.0239" lon="5.83739">
        <ele>390</ele>
        <time>2022-03-17T09:46:06.379Z</time>
      </trkpt>
      <trkpt lat="47.02395" lon="5.83733">
        <ele>385</ele>
        <time>2022-03-17T09:46:11.343Z</time>
      </trkpt>
      <trkpt lat="47.02399" lon="5.8373">
        <ele>385</ele>
        <time>2022-03-17T09:46:16.383Z</time>
      </trkpt>
      <trkpt lat="47.02401" lon="5.83728">
        <ele>385</ele>
        <time>2022-03-17T09:46:21.371Z</time>
      </trkpt>
      <trkpt lat="47.02403" lon="5.83726">
        <ele>386</ele>
        <time>2022-03-17T09:46:26.356Z</time>
      </trkpt>
      <trkpt lat="47.02405" lon="5.83724">
        <ele>386</ele>
        <time>2022-03-17T09:46:30.404Z</time>
      </trkpt>
      <trkpt lat="47.02409" lon="5.83721">
        <ele>386</ele>
        <time>2022-03-17T09:46:35.382Z</time>
      </trkpt>
      <trkpt lat="47.02413" lon="5.83718">
        <ele>386</ele>
        <time>2022-03-17T09:46:40.297Z</time>
      </trkpt>
      <trkpt lat="47.02414" lon="5.83716">
        <ele>386</ele>
        <time>2022-03-17T09:46:45.376Z</time>
      </trkpt>
      <trkpt lat="47.02418" lon="5.83711">
        <ele>386</ele>
        <time>2022-03-17T09:46:50.289Z</time>
      </trkpt>
      <trkpt lat="47.02421" lon="5.83709">
        <ele>386</ele>
        <time>2022-03-17T09:46:54.299Z</time>
      </trkpt>
      <trkpt lat="47.02425" lon="5.83703">
        <ele>381</ele>
        <time>2022-03-17T09:46:59.339Z</time>
      </trkpt>
      <trkpt lat="47.02427" lon="5.83699">
        <ele>381</ele>
        <time>2022-03-17T09:47:03.365Z</time>
      </trkpt>
      <trkpt lat="47.02433" lon="5.83692">
        <ele>380</ele>
        <time>2022-03-17T09:47:08.403Z</time>
      </trkpt>
      <trkpt lat="47.02434" lon="5.83687">
        <ele>380</ele>
        <time>2022-03-17T09:47:13.365Z</time>
      </trkpt>
      <trkpt lat="47.02436" lon="5.83683">
        <ele>380</ele>
        <time>2022-03-17T09:47:18.371Z</time>
      </trkpt>
      <trkpt lat="47.02441" lon="5.83675">
        <ele>376</ele>
        <time>2022-03-17T09:47:23.340Z</time>
      </trkpt>
      <trkpt lat="47.02445" lon="5.83671">
        <ele>376</ele>
        <time>2022-03-17T09:47:27.396Z</time>
      </trkpt>
      <trkpt lat="47.02448" lon="5.83666">
        <ele>376</ele>
        <time>2022-03-17T09:47:32.410Z</time>
      </trkpt>
      <trkpt lat="47.02451" lon="5.8366">
        <ele>376</ele>
        <time>2022-03-17T09:47:37.322Z</time>
      </trkpt>
      <trkpt lat="47.02455" lon="5.83654">
        <ele>376</ele>
        <time>2022-03-17T09:47:41.359Z</time>
      </trkpt>
      <trkpt lat="47.02458" lon="5.83649">
        <ele>375</ele>
        <time>2022-03-17T09:47:46.381Z</time>
      </trkpt>
      <trkpt lat="47.0246" lon="5.83645">
        <ele>373</ele>
        <time>2022-03-17T09:47:51.362Z</time>
      </trkpt>
      <trkpt lat="47.02465" lon="5.8364">
        <ele>373</ele>
        <time>2022-03-17T09:47:56.324Z</time>
      </trkpt>
      <trkpt lat="47.02467" lon="5.83637">
        <ele>373</ele>
        <time>2022-03-17T09:48:00.361Z</time>
      </trkpt>
      <trkpt lat="47.02471" lon="5.83633">
        <ele>373</ele>
        <time>2022-03-17T09:48:05.309Z</time>
      </trkpt>
      <trkpt lat="47.02475" lon="5.83628">
        <ele>373</ele>
        <time>2022-03-17T09:48:10.370Z</time>
      </trkpt>
      <trkpt lat="47.02479" lon="5.83623">
        <ele>373</ele>
        <time>2022-03-17T09:48:15.378Z</time>
      </trkpt>
      <trkpt lat="47.02482" lon="5.83619">
        <ele>373</ele>
        <time>2022-03-17T09:48:19.386Z</time>
      </trkpt>
      <trkpt lat="47.02487" lon="5.83613">
        <ele>368</ele>
        <time>2022-03-17T09:48:24.361Z</time>
      </trkpt>
      <trkpt lat="47.02489" lon="5.8361">
        <ele>368</ele>
        <time>2022-03-17T09:48:29.362Z</time>
      </trkpt>
      <trkpt lat="47.02491" lon="5.83607">
        <ele>368</ele>
        <time>2022-03-17T09:48:34.377Z</time>
      </trkpt>
      <trkpt lat="47.02493" lon="5.83606">
        <ele>368</ele>
        <time>2022-03-17T09:48:38.394Z</time>
      </trkpt>
      <trkpt lat="47.02497" lon="5.83602">
        <ele>368</ele>
        <time>2022-03-17T09:48:43.338Z</time>
      </trkpt>
      <trkpt lat="47.02502" lon="5.83595">
        <ele>366</ele>
        <time>2022-03-17T09:48:48.388Z</time>
      </trkpt>
      <trkpt lat="47.02503" lon="5.83591">
        <ele>366</ele>
        <time>2022-03-17T09:48:52.364Z</time>
      </trkpt>
      <trkpt lat="47.02506" lon="5.83586">
        <ele>366</ele>
        <time>2022-03-17T09:48:57.373Z</time>
      </trkpt>
      <trkpt lat="47.02507" lon="5.8358">
        <ele>366</ele>
        <time>2022-03-17T09:49:02.403Z</time>
      </trkpt>
      <trkpt lat="47.02509" lon="5.8358">
        <ele>366</ele>
        <time>2022-03-17T09:49:07.366Z</time>
      </trkpt>
      <trkpt lat="47.0251" lon="5.8358">
        <ele>366</ele>
        <time>2022-03-17T09:49:12.329Z</time>
      </trkpt>
      <trkpt lat="47.02516" lon="5.83577">
        <ele>360</ele>
        <time>2022-03-17T09:49:16.355Z</time>
      </trkpt>
      <trkpt lat="47.02519" lon="5.83576">
        <ele>360</ele>
        <time>2022-03-17T09:49:21.379Z</time>
      </trkpt>
      <trkpt lat="47.02521" lon="5.83575">
        <ele>360</ele>
        <time>2022-03-17T09:49:26.345Z</time>
      </trkpt>
      <trkpt lat="47.02526" lon="5.8357">
        <ele>360</ele>
        <time>2022-03-17T09:49:30.341Z</time>
      </trkpt>
      <trkpt lat="47.02529" lon="5.83565">
        <ele>359</ele>
        <time>2022-03-17T09:49:34.360Z</time>
      </trkpt>
      <trkpt lat="47.02533" lon="5.83559">
        <ele>359</ele>
        <time>2022-03-17T09:49:39.381Z</time>
      </trkpt>
      <trkpt lat="47.02538" lon="5.83554">
        <ele>359</ele>
        <time>2022-03-17T09:49:44.363Z</time>
      </trkpt>
      <trkpt lat="47.02543" lon="5.83548">
        <ele>358</ele>
        <time>2022-03-17T09:49:48.380Z</time>
      </trkpt>
      <trkpt lat="47.02548" lon="5.83544">
        <ele>358</ele>
        <time>2022-03-17T09:49:53.322Z</time>
      </trkpt>
      <trkpt lat="47.02553" lon="5.83541">
        <ele>355</ele>
        <time>2022-03-17T09:49:58.405Z</time>
      </trkpt>
      <trkpt lat="47.02559" lon="5.83538">
        <ele>355</ele>
        <time>2022-03-17T09:50:03.358Z</time>
      </trkpt>
      <trkpt lat="47.02562" lon="5.83535">
        <ele>355</ele>
        <time>2022-03-17T09:50:08.377Z</time>
      </trkpt>
      <trkpt lat="47.02568" lon="5.83534">
        <ele>355</ele>
        <time>2022-03-17T09:50:13.378Z</time>
      </trkpt>
      <trkpt lat="47.02572" lon="5.83531">
        <ele>352</ele>
        <time>2022-03-17T09:50:17.373Z</time>
      </trkpt>
      <trkpt lat="47.02577" lon="5.83529">
        <ele>352</ele>
        <time>2022-03-17T09:50:22.355Z</time>
      </trkpt>
      <trkpt lat="47.02583" lon="5.83529">
        <ele>352</ele>
        <time>2022-03-17T09:50:27.366Z</time>
      </trkpt>
      <trkpt lat="47.02587" lon="5.83526">
        <ele>352</ele>
        <time>2022-03-17T09:50:32.375Z</time>
      </trkpt>
      <trkpt lat="47.0259" lon="5.83524">
        <ele>352</ele>
        <time>2022-03-17T09:50:36.399Z</time>
      </trkpt>
      <trkpt lat="47.02593" lon="5.83521">
        <ele>352</ele>
        <time>2022-03-17T09:50:41.374Z</time>
      </trkpt>
      <trkpt lat="47.02603" lon="5.83513">
        <ele>347</ele>
        <time>2022-03-17T09:51:00.362Z</time>
      </trkpt>
      <trkpt lat="47.02604" lon="5.83513">
        <ele>347</ele>
        <time>2022-03-17T09:51:05.311Z</time>
      </trkpt>
      <trkpt lat="47.02606" lon="5.83512">
        <ele>347</ele>
        <time>2022-03-17T09:51:14.386Z</time>
      </trkpt>
      <trkpt lat="47.02607" lon="5.83512">
        <ele>347</ele>
        <time>2022-03-17T09:51:34.285Z</time>
      </trkpt>
      <trkpt lat="47.02612" lon="5.83506">
        <ele>347</ele>
        <time>2022-03-17T09:51:39.274Z</time>
      </trkpt>
      <trkpt lat="47.02616" lon="5.83502">
        <ele>347</ele>
        <time>2022-03-17T09:51:43.328Z</time>
      </trkpt>
      <trkpt lat="47.02622" lon="5.83499">
        <ele>347</ele>
        <time>2022-03-17T09:51:48.309Z</time>
      </trkpt>
      <trkpt lat="47.02624" lon="5.83496">
        <ele>347</ele>
        <time>2022-03-17T09:51:52.344Z</time>
      </trkpt>
      <trkpt lat="47.02629" lon="5.83492">
        <ele>347</ele>
        <time>2022-03-17T09:51:57.317Z</time>
      </trkpt>
      <trkpt lat="47.02633" lon="5.8349">
        <ele>347</ele>
        <time>2022-03-17T09:52:02.321Z</time>
      </trkpt>
      <trkpt lat="47.02636" lon="5.83486">
        <ele>347</ele>
        <time>2022-03-17T09:52:06.352Z</time>
      </trkpt>
      <trkpt lat="47.02638" lon="5.83484">
        <ele>345</ele>
        <time>2022-03-17T09:52:11.363Z</time>
      </trkpt>
      <trkpt lat="47.02642" lon="5.83482">
        <ele>345</ele>
        <time>2022-03-17T09:52:16.361Z</time>
      </trkpt>
      <trkpt lat="47.02646" lon="5.83479">
        <ele>345</ele>
        <time>2022-03-17T09:52:20.398Z</time>
      </trkpt>
      <trkpt lat="47.0265" lon="5.83477">
        <ele>345</ele>
        <time>2022-03-17T09:52:25.378Z</time>
      </trkpt>
      <trkpt lat="47.02655" lon="5.83474">
        <ele>345</ele>
        <time>2022-03-17T09:52:30.354Z</time>
      </trkpt>
      <trkpt lat="47.02658" lon="5.83472">
        <ele>345</ele>
        <time>2022-03-17T09:52:34.389Z</time>
      </trkpt>
      <trkpt lat="47.02661" lon="5.83469">
        <ele>345</ele>
        <time>2022-03-17T09:52:39.371Z</time>
      </trkpt>
      <trkpt lat="47.02666" lon="5.83464">
        <ele>345</ele>
        <time>2022-03-17T09:52:44.339Z</time>
      </trkpt>
      <trkpt lat="47.0267" lon="5.83461">
        <ele>345</ele>
        <time>2022-03-17T09:52:49.367Z</time>
      </trkpt>
      <trkpt lat="47.02672" lon="5.83457">
        <ele>342</ele>
        <time>2022-03-17T09:52:54.333Z</time>
      </trkpt>
      <trkpt lat="47.02675" lon="5.83452">
        <ele>342</ele>
        <time>2022-03-17T09:52:59.336Z</time>
      </trkpt>
      <trkpt lat="47.02677" lon="5.83448">
        <ele>342</ele>
        <time>2022-03-17T09:53:03.388Z</time>
      </trkpt>
      <trkpt lat="47.02679" lon="5.83444">
        <ele>342</ele>
        <time>2022-03-17T09:53:08.342Z</time>
      </trkpt>
      <trkpt lat="47.02683" lon="5.8344">
        <ele>342</ele>
        <time>2022-03-17T09:53:13.364Z</time>
      </trkpt>
      <trkpt lat="47.02689" lon="5.83434">
        <ele>342</ele>
        <time>2022-03-17T09:53:18.398Z</time>
      </trkpt>
      <trkpt lat="47.02693" lon="5.8343">
        <ele>337</ele>
        <time>2022-03-17T09:53:23.375Z</time>
      </trkpt>
      <trkpt lat="47.02695" lon="5.83426">
        <ele>337</ele>
        <time>2022-03-17T09:53:28.349Z</time>
      </trkpt>
      <trkpt lat="47.02696" lon="5.83425">
        <ele>337</ele>
        <time>2022-03-17T09:53:32.354Z</time>
      </trkpt>
      <trkpt lat="47.02699" lon="5.83419">
        <ele>337</ele>
        <time>2022-03-17T09:53:37.374Z</time>
      </trkpt>
      <trkpt lat="47.02702" lon="5.83415">
        <ele>337</ele>
        <time>2022-03-17T09:53:42.343Z</time>
      </trkpt>
      <trkpt lat="47.02705" lon="5.83409">
        <ele>337</ele>
        <time>2022-03-17T09:53:47.348Z</time>
      </trkpt>
      <trkpt lat="47.02711" lon="5.83401">
        <ele>334</ele>
        <time>2022-03-17T09:53:52.359Z</time>
      </trkpt>
      <trkpt lat="47.02714" lon="5.83395">
        <ele>334</ele>
        <time>2022-03-17T09:53:57.339Z</time>
      </trkpt>
      <trkpt lat="47.02717" lon="5.83391">
        <ele>334</ele>
        <time>2022-03-17T09:54:02.324Z</time>
      </trkpt>
      <trkpt lat="47.02718" lon="5.83384">
        <ele>334</ele>
        <time>2022-03-17T09:54:06.342Z</time>
      </trkpt>
      <trkpt lat="47.0272" lon="5.83378">
        <ele>334</ele>
        <time>2022-03-17T09:54:10.353Z</time>
      </trkpt>
      <trkpt lat="47.02723" lon="5.83372">
        <ele>329</ele>
        <time>2022-03-17T09:54:14.407Z</time>
      </trkpt>
      <trkpt lat="47.02725" lon="5.83366">
        <ele>329</ele>
        <time>2022-03-17T09:54:19.352Z</time>
      </trkpt>
      <trkpt lat="47.02727" lon="5.83356">
        <ele>329</ele>
        <time>2022-03-17T09:54:24.365Z</time>
      </trkpt>
      <trkpt lat="47.02729" lon="5.83349">
        <ele>329</ele>
        <time>2022-03-17T09:54:28.357Z</time>
      </trkpt>
      <trkpt lat="47.02733" lon="5.83341">
        <ele>325</ele>
        <time>2022-03-17T09:54:33.344Z</time>
      </trkpt>
      <trkpt lat="47.02738" lon="5.83333">
        <ele>328</ele>
        <time>2022-03-17T09:54:38.292Z</time>
      </trkpt>
      <trkpt lat="47.02742" lon="5.83328">
        <ele>328</ele>
        <time>2022-03-17T09:54:42.337Z</time>
      </trkpt>
      <trkpt lat="47.02748" lon="5.83321">
        <ele>328</ele>
        <time>2022-03-17T09:54:47.357Z</time>
      </trkpt>
      <trkpt lat="47.02753" lon="5.83314">
        <ele>325</ele>
        <time>2022-03-17T09:54:52.361Z</time>
      </trkpt>
      <trkpt lat="47.02758" lon="5.83309">
        <ele>325</ele>
        <time>2022-03-17T09:54:57.420Z</time>
      </trkpt>
      <trkpt lat="47.02762" lon="5.83303">
        <ele>325</ele>
        <time>2022-03-17T09:55:02.347Z</time>
      </trkpt>
      <trkpt lat="47.02766" lon="5.83298">
        <ele>327</ele>
        <time>2022-03-17T09:55:07.334Z</time>
      </trkpt>
      <trkpt lat="47.0277" lon="5.83293">
        <ele>327</ele>
        <time>2022-03-17T09:55:11.347Z</time>
      </trkpt>
      <trkpt lat="47.02774" lon="5.83288">
        <ele>323</ele>
        <time>2022-03-17T09:55:16.322Z</time>
      </trkpt>
      <trkpt lat="47.0278" lon="5.83285">
        <ele>323</ele>
        <time>2022-03-17T09:55:21.357Z</time>
      </trkpt>
      <trkpt lat="47.02786" lon="5.83281">
        <ele>323</ele>
        <time>2022-03-17T09:55:26.325Z</time>
      </trkpt>
      <trkpt lat="47.0279" lon="5.83277">
        <ele>323</ele>
        <time>2022-03-17T09:55:31.368Z</time>
      </trkpt>
      <trkpt lat="47.02793" lon="5.83272">
        <ele>324</ele>
        <time>2022-03-17T09:55:35.383Z</time>
      </trkpt>
      <trkpt lat="47.02797" lon="5.83269">
        <ele>324</ele>
        <time>2022-03-17T09:55:40.341Z</time>
      </trkpt>
      <trkpt lat="47.02801" lon="5.83265">
        <ele>324</ele>
        <time>2022-03-17T09:55:45.371Z</time>
      </trkpt>
      <trkpt lat="47.02802" lon="5.83262">
        <ele>319</ele>
        <time>2022-03-17T09:55:50.367Z</time>
      </trkpt>
      <trkpt lat="47.02804" lon="5.83261">
        <ele>319</ele>
        <time>2022-03-17T09:55:54.373Z</time>
      </trkpt>
      <trkpt lat="47.02807" lon="5.83259">
        <ele>319</ele>
        <time>2022-03-17T09:55:59.365Z</time>
      </trkpt>
      <trkpt lat="47.02811" lon="5.83257">
        <ele>319</ele>
        <time>2022-03-17T09:56:04.311Z</time>
      </trkpt>
      <trkpt lat="47.02816" lon="5.83256">
        <ele>319</ele>
        <time>2022-03-17T09:56:09.316Z</time>
      </trkpt>
      <trkpt lat="47.02819" lon="5.83252">
        <ele>319</ele>
        <time>2022-03-17T09:56:13.364Z</time>
      </trkpt>
      <trkpt lat="47.02825" lon="5.83249">
        <ele>321</ele>
        <time>2022-03-17T09:56:18.323Z</time>
      </trkpt>
      <trkpt lat="47.02828" lon="5.83245">
        <ele>321</ele>
        <time>2022-03-17T09:56:22.354Z</time>
      </trkpt>
      <trkpt lat="47.02832" lon="5.83241">
        <ele>321</ele>
        <time>2022-03-17T09:56:27.343Z</time>
      </trkpt>
      <trkpt lat="47.02835" lon="5.8324">
        <ele>321</ele>
        <time>2022-03-17T09:56:31.396Z</time>
      </trkpt>
      <trkpt lat="47.02839" lon="5.83237">
        <ele>321</ele>
        <time>2022-03-17T09:56:36.340Z</time>
      </trkpt>
      <trkpt lat="47.02845" lon="5.83234">
        <ele>316</ele>
        <time>2022-03-17T09:56:41.340Z</time>
      </trkpt>
      <trkpt lat="47.02848" lon="5.8323">
        <ele>317</ele>
        <time>2022-03-17T09:56:46.361Z</time>
      </trkpt>
      <trkpt lat="47.02852" lon="5.83227">
        <ele>317</ele>
        <time>2022-03-17T09:56:51.388Z</time>
      </trkpt>
      <trkpt lat="47.02853" lon="5.83227">
        <ele>317</ele>
        <time>2022-03-17T09:56:55.423Z</time>
      </trkpt>
      <trkpt lat="47.02858" lon="5.83225">
        <ele>317</ele>
        <time>2022-03-17T09:57:00.330Z</time>
      </trkpt>
      <trkpt lat="47.02862" lon="5.83224">
        <ele>317</ele>
        <time>2022-03-17T09:57:05.320Z</time>
      </trkpt>
      <trkpt lat="47.02866" lon="5.83222">
        <ele>317</ele>
        <time>2022-03-17T09:57:09.352Z</time>
      </trkpt>
      <trkpt lat="47.02871" lon="5.83219">
        <ele>317</ele>
        <time>2022-03-17T09:57:14.377Z</time>
      </trkpt>
      <trkpt lat="47.02875" lon="5.83216">
        <ele>315</ele>
        <time>2022-03-17T09:57:19.348Z</time>
      </trkpt>
      <trkpt lat="47.02879" lon="5.83213">
        <ele>315</ele>
        <time>2022-03-17T09:57:23.371Z</time>
      </trkpt>
      <trkpt lat="47.02884" lon="5.8321">
        <ele>315</ele>
        <time>2022-03-17T09:57:28.323Z</time>
      </trkpt>
      <trkpt lat="47.02886" lon="5.83208">
        <ele>315</ele>
        <time>2022-03-17T09:57:32.354Z</time>
      </trkpt>
      <trkpt lat="47.02891" lon="5.83207">
        <ele>309</ele>
        <time>2022-03-17T09:57:37.330Z</time>
      </trkpt>
      <trkpt lat="47.02897" lon="5.83206">
        <ele>309</ele>
        <time>2022-03-17T09:57:41.338Z</time>
      </trkpt>
      <trkpt lat="47.02903" lon="5.83203">
        <ele>307</ele>
        <time>2022-03-17T09:57:46.306Z</time>
      </trkpt>
      <trkpt lat="47.02908" lon="5.83202">
        <ele>307</ele>
        <time>2022-03-17T09:57:50.322Z</time>
      </trkpt>
      <trkpt lat="47.02914" lon="5.83199">
        <ele>307</ele>
        <time>2022-03-17T09:57:55.366Z</time>
      </trkpt>
      <trkpt lat="47.02918" lon="5.83195">
        <ele>307</ele>
        <time>2022-03-17T09:58:00.347Z</time>
      </trkpt>
      <trkpt lat="47.02924" lon="5.83191">
        <ele>307</ele>
        <time>2022-03-17T09:58:05.362Z</time>
      </trkpt>
      <trkpt lat="47.02929" lon="5.83188">
        <ele>307</ele>
        <time>2022-03-17T09:58:10.376Z</time>
      </trkpt>
      <trkpt lat="47.02936" lon="5.83184">
        <ele>306</ele>
        <time>2022-03-17T09:58:15.394Z</time>
      </trkpt>
      <trkpt lat="47.02943" lon="5.83182">
        <ele>306</ele>
        <time>2022-03-17T09:58:20.314Z</time>
      </trkpt>
      <trkpt lat="47.02947" lon="5.8318">
        <ele>302</ele>
        <time>2022-03-17T09:58:24.358Z</time>
      </trkpt>
      <trkpt lat="47.02954" lon="5.83179">
        <ele>302</ele>
        <time>2022-03-17T09:58:29.362Z</time>
      </trkpt>
      <trkpt lat="47.02957" lon="5.83177">
        <ele>302</ele>
        <time>2022-03-17T09:58:33.376Z</time>
      </trkpt>
      <trkpt lat="47.02964" lon="5.83175">
        <ele>302</ele>
        <time>2022-03-17T09:58:38.317Z</time>
      </trkpt>
      <trkpt lat="47.0297" lon="5.83173">
        <ele>302</ele>
        <time>2022-03-17T09:58:43.369Z</time>
      </trkpt>
      <trkpt lat="47.02977" lon="5.83172">
        <ele>302</ele>
        <time>2022-03-17T09:58:48.339Z</time>
      </trkpt>
      <trkpt lat="47.02981" lon="5.83168">
        <ele>302</ele>
        <time>2022-03-17T09:58:52.346Z</time>
      </trkpt>
      <trkpt lat="47.02986" lon="5.83163">
        <ele>302</ele>
        <time>2022-03-17T09:58:57.362Z</time>
      </trkpt>
      <trkpt lat="47.02989" lon="5.83159">
        <ele>303</ele>
        <time>2022-03-17T09:59:02.353Z</time>
      </trkpt>
      <trkpt lat="47.02991" lon="5.83154">
        <ele>303</ele>
        <time>2022-03-17T09:59:07.353Z</time>
      </trkpt>
      <trkpt lat="47.02994" lon="5.83152">
        <ele>298</ele>
        <time>2022-03-17T09:59:12.335Z</time>
      </trkpt>
      <trkpt lat="47.02997" lon="5.83149">
        <ele>298</ele>
        <time>2022-03-17T09:59:17.360Z</time>
      </trkpt>
      <trkpt lat="47.03001" lon="5.83144">
        <ele>298</ele>
        <time>2022-03-17T09:59:22.319Z</time>
      </trkpt>
      <trkpt lat="47.03005" lon="5.8314">
        <ele>298</ele>
        <time>2022-03-17T09:59:26.338Z</time>
      </trkpt>
      <trkpt lat="47.03009" lon="5.83134">
        <ele>298</ele>
        <time>2022-03-17T09:59:31.384Z</time>
      </trkpt>
      <trkpt lat="47.03013" lon="5.83129">
        <ele>298</ele>
        <time>2022-03-17T09:59:36.353Z</time>
      </trkpt>
      <trkpt lat="47.03018" lon="5.83122">
        <ele>293</ele>
        <time>2022-03-17T09:59:41.340Z</time>
      </trkpt>
      <trkpt lat="47.03022" lon="5.83115">
        <ele>293</ele>
        <time>2022-03-17T09:59:46.326Z</time>
      </trkpt>
      <trkpt lat="47.03026" lon="5.83107">
        <ele>293</ele>
        <time>2022-03-17T09:59:51.356Z</time>
      </trkpt>
      <trkpt lat="47.03028" lon="5.83101">
        <ele>293</ele>
        <time>2022-03-17T09:59:56.313Z</time>
      </trkpt>
      <trkpt lat="47.0303" lon="5.83096">
        <ele>289</ele>
        <time>2022-03-17T10:00:00.344Z</time>
      </trkpt>
      <trkpt lat="47.03034" lon="5.8309">
        <ele>289</ele>
        <time>2022-03-17T10:00:05.380Z</time>
      </trkpt>
      <trkpt lat="47.03038" lon="5.83087">
        <ele>289</ele>
        <time>2022-03-17T10:00:10.294Z</time>
      </trkpt>
      <trkpt lat="47.03042" lon="5.83086">
        <ele>290</ele>
        <time>2022-03-17T10:00:14.325Z</time>
      </trkpt>
      <trkpt lat="47.03046" lon="5.83082">
        <ele>290</ele>
        <time>2022-03-17T10:00:19.340Z</time>
      </trkpt>
      <trkpt lat="47.03049" lon="5.8308">
        <ele>290</ele>
        <time>2022-03-17T10:00:23.347Z</time>
      </trkpt>
      <trkpt lat="47.03053" lon="5.83079">
        <ele>290</ele>
        <time>2022-03-17T10:00:28.325Z</time>
      </trkpt>
      <trkpt lat="47.0306" lon="5.83072">
        <ele>290</ele>
        <time>2022-03-17T10:03:43.363Z</time>
      </trkpt>
      <trkpt lat="47.03062" lon="5.83073">
        <ele>290</ele>
        <time>2022-03-17T10:04:31.388Z</time>
      </trkpt>
      <trkpt lat="47.03064" lon="5.83072">
        <ele>290</ele>
        <time>2022-03-17T10:04:36.338Z</time>
      </trkpt>
      <trkpt lat="47.03064" lon="5.83072">
        <ele>290</ele>
        <time>2022-03-17T10:04:41.353Z</time>
      </trkpt>
      <trkpt lat="47.03066" lon="5.83071">
        <ele>290</ele>
        <time>2022-03-17T10:04:51.369Z</time>
      </trkpt>
      <trkpt lat="47.03068" lon="5.83069">
        <ele>285</ele>
        <time>2022-03-17T10:04:56.307Z</time>
      </trkpt>
      <trkpt lat="47.03071" lon="5.83068">
        <ele>285</ele>
        <time>2022-03-17T10:05:01.396Z</time>
      </trkpt>
      <trkpt lat="47.03076" lon="5.83066">
        <ele>285</ele>
        <time>2022-03-17T10:05:06.346Z</time>
      </trkpt>
      <trkpt lat="47.03079" lon="5.83065">
        <ele>285</ele>
        <time>2022-03-17T10:05:11.332Z</time>
      </trkpt>
      <trkpt lat="47.03082" lon="5.83062">
        <ele>285</ele>
        <time>2022-03-17T10:05:15.363Z</time>
      </trkpt>
      <trkpt lat="47.03086" lon="5.83061">
        <ele>285</ele>
        <time>2022-03-17T10:05:20.321Z</time>
      </trkpt>
      <trkpt lat="47.0309" lon="5.83059">
        <ele>285</ele>
        <time>2022-03-17T10:05:24.359Z</time>
      </trkpt>
      <trkpt lat="47.03094" lon="5.83056">
        <ele>285</ele>
        <time>2022-03-17T10:05:29.393Z</time>
      </trkpt>
      <trkpt lat="47.03097" lon="5.83052">
        <ele>285</ele>
        <time>2022-03-17T10:05:34.354Z</time>
      </trkpt>
      <trkpt lat="47.03102" lon="5.83048">
        <ele>284</ele>
        <time>2022-03-17T10:05:39.392Z</time>
      </trkpt>
      <trkpt lat="47.03108" lon="5.83044">
        <ele>284</ele>
        <time>2022-03-17T10:05:44.329Z</time>
      </trkpt>
      <trkpt lat="47.03113" lon="5.8304">
        <ele>281</ele>
        <time>2022-03-17T10:05:49.368Z</time>
      </trkpt>
      <trkpt lat="47.03118" lon="5.83035">
        <ele>281</ele>
        <time>2022-03-17T10:05:54.345Z</time>
      </trkpt>
      <trkpt lat="47.03123" lon="5.83031">
        <ele>281</ele>
        <time>2022-03-17T10:05:59.398Z</time>
      </trkpt>
      <trkpt lat="47.03127" lon="5.83028">
        <ele>282</ele>
        <time>2022-03-17T10:06:03.363Z</time>
      </trkpt>
      <trkpt lat="47.03131" lon="5.83024">
        <ele>282</ele>
        <time>2022-03-17T10:06:08.334Z</time>
      </trkpt>
      <trkpt lat="47.03136" lon="5.8302">
        <ele>282</ele>
        <time>2022-03-17T10:06:13.327Z</time>
      </trkpt>
      <trkpt lat="47.03138" lon="5.83015">
        <ele>282</ele>
        <time>2022-03-17T10:06:17.415Z</time>
      </trkpt>
      <trkpt lat="47.03141" lon="5.8301">
        <ele>280</ele>
        <time>2022-03-17T10:06:22.321Z</time>
      </trkpt>
      <trkpt lat="47.03143" lon="5.83008">
        <ele>280</ele>
        <time>2022-03-17T10:06:26.336Z</time>
      </trkpt>
      <trkpt lat="47.03144" lon="5.83007">
        <ele>280</ele>
        <time>2022-03-17T10:06:31.410Z</time>
      </trkpt>
      <trkpt lat="47.03145" lon="5.83006">
        <ele>280</ele>
        <time>2022-03-17T10:06:35.418Z</time>
      </trkpt>
      <trkpt lat="47.0315" lon="5.83001">
        <ele>280</ele>
        <time>2022-03-17T10:06:40.346Z</time>
      </trkpt>
      <trkpt lat="47.03153" lon="5.82995">
        <ele>281</ele>
        <time>2022-03-17T10:06:44.377Z</time>
      </trkpt>
      <trkpt lat="47.03157" lon="5.82988">
        <ele>281</ele>
        <time>2022-03-17T10:06:49.418Z</time>
      </trkpt>
      <trkpt lat="47.0316" lon="5.82981">
        <ele>279</ele>
        <time>2022-03-17T10:06:54.351Z</time>
      </trkpt>
      <trkpt lat="47.03164" lon="5.82973">
        <ele>279</ele>
        <time>2022-03-17T10:06:59.364Z</time>
      </trkpt>
      <trkpt lat="47.03165" lon="5.82966">
        <ele>279</ele>
        <time>2022-03-17T10:07:04.360Z</time>
      </trkpt>
      <trkpt lat="47.03168" lon="5.82957">
        <ele>277</ele>
        <time>2022-03-17T10:07:09.316Z</time>
      </trkpt>
      <trkpt lat="47.03171" lon="5.82949">
        <ele>277</ele>
        <time>2022-03-17T10:07:14.283Z</time>
      </trkpt>
      <trkpt lat="47.03174" lon="5.82943">
        <ele>277</ele>
        <time>2022-03-17T10:07:18.334Z</time>
      </trkpt>
      <trkpt lat="47.03176" lon="5.82934">
        <ele>277</ele>
        <time>2022-03-17T10:07:23.396Z</time>
      </trkpt>
      <trkpt lat="47.0318" lon="5.82926">
        <ele>274</ele>
        <time>2022-03-17T10:07:28.327Z</time>
      </trkpt>
      <trkpt lat="47.03183" lon="5.82918">
        <ele>275</ele>
        <time>2022-03-17T10:07:33.362Z</time>
      </trkpt>
      <trkpt lat="47.03187" lon="5.82911">
        <ele>275</ele>
        <time>2022-03-17T10:07:38.318Z</time>
      </trkpt>
      <trkpt lat="47.0319" lon="5.82903">
        <ele>275</ele>
        <time>2022-03-17T10:07:43.395Z</time>
      </trkpt>
      <trkpt lat="47.03194" lon="5.82897">
        <ele>273</ele>
        <time>2022-03-17T10:07:48.337Z</time>
      </trkpt>
      <trkpt lat="47.03199" lon="5.82889">
        <ele>273</ele>
        <time>2022-03-17T10:07:53.368Z</time>
      </trkpt>
      <trkpt lat="47.03203" lon="5.82884">
        <ele>273</ele>
        <time>2022-03-17T10:07:58.320Z</time>
      </trkpt>
      <trkpt lat="47.03208" lon="5.8288">
        <ele>273</ele>
        <time>2022-03-17T10:08:03.313Z</time>
      </trkpt>
      <trkpt lat="47.03213" lon="5.82877">
        <ele>273</ele>
        <time>2022-03-17T10:08:07.318Z</time>
      </trkpt>
      <trkpt lat="47.03217" lon="5.82872">
        <ele>271</ele>
        <time>2022-03-17T10:08:12.333Z</time>
      </trkpt>
      <trkpt lat="47.03222" lon="5.82867">
        <ele>271</ele>
        <time>2022-03-17T10:08:17.320Z</time>
      </trkpt>
      <trkpt lat="47.03227" lon="5.82858">
        <ele>271</ele>
        <time>2022-03-17T10:08:22.317Z</time>
      </trkpt>
      <trkpt lat="47.0323" lon="5.8285">
        <ele>271</ele>
        <time>2022-03-17T10:08:27.301Z</time>
      </trkpt>
      <trkpt lat="47.03232" lon="5.82843">
        <ele>269</ele>
        <time>2022-03-17T10:08:32.280Z</time>
      </trkpt>
      <trkpt lat="47.03235" lon="5.82834">
        <ele>269</ele>
        <time>2022-03-17T10:08:37.347Z</time>
      </trkpt>
      <trkpt lat="47.03238" lon="5.82825">
        <ele>270</ele>
        <time>2022-03-17T10:08:42.358Z</time>
      </trkpt>
      <trkpt lat="47.03241" lon="5.82818">
        <ele>269</ele>
        <time>2022-03-17T10:08:47.382Z</time>
      </trkpt>
      <trkpt lat="47.03241" lon="5.82811">
        <ele>269</ele>
        <time>2022-03-17T10:08:52.344Z</time>
      </trkpt>
      <trkpt lat="47.03245" lon="5.82801">
        <ele>269</ele>
        <time>2022-03-17T10:08:57.374Z</time>
      </trkpt>
      <trkpt lat="47.03249" lon="5.82791">
        <ele>268</ele>
        <time>2022-03-17T10:09:02.313Z</time>
      </trkpt>
      <trkpt lat="47.03252" lon="5.82785">
        <ele>268</ele>
        <time>2022-03-17T10:09:06.338Z</time>
      </trkpt>
      <trkpt lat="47.03255" lon="5.82776">
        <ele>268</ele>
        <time>2022-03-17T10:09:11.360Z</time>
      </trkpt>
      <trkpt lat="47.03258" lon="5.82768">
        <ele>268</ele>
        <time>2022-03-17T10:09:16.338Z</time>
      </trkpt>
      <trkpt lat="47.03261" lon="5.82761">
        <ele>267</ele>
        <time>2022-03-17T10:09:20.370Z</time>
      </trkpt>
      <trkpt lat="47.03264" lon="5.82752">
        <ele>267</ele>
        <time>2022-03-17T10:09:25.359Z</time>
      </trkpt>
      <trkpt lat="47.03267" lon="5.82744">
        <ele>266</ele>
        <time>2022-03-17T10:09:30.351Z</time>
      </trkpt>
      <trkpt lat="47.03272" lon="5.82737">
        <ele>266</ele>
        <time>2022-03-17T10:09:35.392Z</time>
      </trkpt>
      <trkpt lat="47.03277" lon="5.82729">
        <ele>264</ele>
        <time>2022-03-17T10:09:40.364Z</time>
      </trkpt>
      <trkpt lat="47.0328" lon="5.82722">
        <ele>264</ele>
        <time>2022-03-17T10:09:45.290Z</time>
      </trkpt>
      <trkpt lat="47.03283" lon="5.82718">
        <ele>264</ele>
        <time>2022-03-17T10:09:49.330Z</time>
      </trkpt>
      <trkpt lat="47.03286" lon="5.82712">
        <ele>264</ele>
        <time>2022-03-17T10:09:53.398Z</time>
      </trkpt>
      <trkpt lat="47.03288" lon="5.82704">
        <ele>263</ele>
        <time>2022-03-17T10:09:58.327Z</time>
      </trkpt>
      <trkpt lat="47.0329" lon="5.82697">
        <ele>263</ele>
        <time>2022-03-17T10:10:03.386Z</time>
      </trkpt>
      <trkpt lat="47.03293" lon="5.82688">
        <ele>264</ele>
        <time>2022-03-17T10:10:08.343Z</time>
      </trkpt>
      <trkpt lat="47.03296" lon="5.82678">
        <ele>262</ele>
        <time>2022-03-17T10:10:13.301Z</time>
      </trkpt>
      <trkpt lat="47.03298" lon="5.82669">
        <ele>262</ele>
        <time>2022-03-17T10:10:18.295Z</time>
      </trkpt>
      <trkpt lat="47.03301" lon="5.82661">
        <ele>262</ele>
        <time>2022-03-17T10:10:23.406Z</time>
      </trkpt>
      <trkpt lat="47.03304" lon="5.82655">
        <ele>262</ele>
        <time>2022-03-17T10:10:28.316Z</time>
      </trkpt>
      <trkpt lat="47.03307" lon="5.82645">
        <ele>261</ele>
        <time>2022-03-17T10:10:33.323Z</time>
      </trkpt>
      <trkpt lat="47.0331" lon="5.82636">
        <ele>261</ele>
        <time>2022-03-17T10:10:38.360Z</time>
      </trkpt>
      <trkpt lat="47.03311" lon="5.82628">
        <ele>261</ele>
        <time>2022-03-17T10:10:43.375Z</time>
      </trkpt>
      <trkpt lat="47.03313" lon="5.82619">
        <ele>261</ele>
        <time>2022-03-17T10:10:48.314Z</time>
      </trkpt>
      <trkpt lat="47.03315" lon="5.82612">
        <ele>261</ele>
        <time>2022-03-17T10:10:52.332Z</time>
      </trkpt>
      <trkpt lat="47.03316" lon="5.82603">
        <ele>261</ele>
        <time>2022-03-17T10:10:57.385Z</time>
      </trkpt>
      <trkpt lat="47.03319" lon="5.82597">
        <ele>261</ele>
        <time>2022-03-17T10:11:01.396Z</time>
      </trkpt>
      <trkpt lat="47.03321" lon="5.82589">
        <ele>259</ele>
        <time>2022-03-17T10:11:06.301Z</time>
      </trkpt>
      <trkpt lat="47.03324" lon="5.82582">
        <ele>259</ele>
        <time>2022-03-17T10:11:10.346Z</time>
      </trkpt>
      <trkpt lat="47.03324" lon="5.82576">
        <ele>259</ele>
        <time>2022-03-17T10:11:15.344Z</time>
      </trkpt>
      <trkpt lat="47.03322" lon="5.82573">
        <ele>259</ele>
        <time>2022-03-17T10:11:19.388Z</time>
      </trkpt>
      <trkpt lat="47.03319" lon="5.82573">
        <ele>261</ele>
        <time>2022-03-17T10:11:24.341Z</time>
      </trkpt>
      <trkpt lat="47.03315" lon="5.82573">
        <ele>261</ele>
        <time>2022-03-17T10:11:28.340Z</time>
      </trkpt>
      <trkpt lat="47.03307" lon="5.82574">
        <ele>261</ele>
        <time>2022-03-17T10:11:33.377Z</time>
      </trkpt>
      <trkpt lat="47.03303" lon="5.82572">
        <ele>261</ele>
        <time>2022-03-17T10:11:38.378Z</time>
      </trkpt>
      <trkpt lat="47.033" lon="5.82573">
        <ele>261</ele>
        <time>2022-03-17T10:11:43.418Z</time>
      </trkpt>
      <trkpt lat="47.03295" lon="5.82573">
        <ele>261</ele>
        <time>2022-03-17T10:11:48.294Z</time>
      </trkpt>
      <trkpt lat="47.03293" lon="5.82571">
        <ele>261</ele>
        <time>2022-03-17T10:11:53.390Z</time>
      </trkpt>
      <trkpt lat="47.03289" lon="5.82571">
        <ele>261</ele>
        <time>2022-03-17T10:11:58.320Z</time>
      </trkpt>
      <trkpt lat="47.03283" lon="5.82567">
        <ele>261</ele>
        <time>2022-03-17T10:12:03.403Z</time>
      </trkpt>
      <trkpt lat="47.03277" lon="5.82565">
        <ele>261</ele>
        <time>2022-03-17T10:12:08.377Z</time>
      </trkpt>
      <trkpt lat="47.03273" lon="5.82561">
        <ele>261</ele>
        <time>2022-03-17T10:12:13.324Z</time>
      </trkpt>
      <trkpt lat="47.0327" lon="5.82558">
        <ele>261</ele>
        <time>2022-03-17T10:12:27.300Z</time>
      </trkpt>
      <trkpt lat="47.0327" lon="5.82557">
        <ele>261</ele>
        <time>2022-03-17T10:12:58.345Z</time>
      </trkpt>
      <trkpt lat="47.03268" lon="5.82555">
        <ele>261</ele>
        <time>2022-03-17T10:13:02.361Z</time>
      </trkpt>
      <trkpt lat="47.03266" lon="5.82551">
        <ele>261</ele>
        <time>2022-03-17T10:13:07.330Z</time>
      </trkpt>
      <trkpt lat="47.03265" lon="5.8255">
        <ele>261</ele>
        <time>2022-03-17T10:13:11.374Z</time>
      </trkpt>
      <trkpt lat="47.03263" lon="5.82547">
        <ele>262</ele>
        <time>2022-03-17T10:13:16.325Z</time>
      </trkpt>
      <trkpt lat="47.0326" lon="5.82543">
        <ele>262</ele>
        <time>2022-03-17T10:13:21.319Z</time>
      </trkpt>
      <trkpt lat="47.03258" lon="5.82541">
        <ele>262</ele>
        <time>2022-03-17T10:13:25.335Z</time>
      </trkpt>
      <trkpt lat="47.03256" lon="5.82538">
        <ele>262</ele>
        <time>2022-03-17T10:13:29.351Z</time>
      </trkpt>
      <trkpt lat="47.03253" lon="5.82534">
        <ele>262</ele>
        <time>2022-03-17T10:13:34.375Z</time>
      </trkpt>
      <trkpt lat="47.03249" lon="5.82531">
        <ele>262</ele>
        <time>2022-03-17T10:13:39.342Z</time>
      </trkpt>
      <trkpt lat="47.03247" lon="5.82526">
        <ele>262</ele>
        <time>2022-03-17T10:13:44.406Z</time>
      </trkpt>
      <trkpt lat="47.03245" lon="5.82522">
        <ele>262</ele>
        <time>2022-03-17T10:13:49.329Z</time>
      </trkpt>
      <trkpt lat="47.03242" lon="5.82517">
        <ele>262</ele>
        <time>2022-03-17T10:13:54.371Z</time>
      </trkpt>
      <trkpt lat="47.03239" lon="5.8251">
        <ele>264</ele>
        <time>2022-03-17T10:13:59.359Z</time>
      </trkpt>
      <trkpt lat="47.03237" lon="5.82506">
        <ele>264</ele>
        <time>2022-03-17T10:14:03.389Z</time>
      </trkpt>
      <trkpt lat="47.03234" lon="5.825">
        <ele>266</ele>
        <time>2022-03-17T10:14:08.279Z</time>
      </trkpt>
      <trkpt lat="47.03231" lon="5.82497">
        <ele>266</ele>
        <time>2022-03-17T10:14:12.387Z</time>
      </trkpt>
      <trkpt lat="47.03226" lon="5.82493">
        <ele>266</ele>
        <time>2022-03-17T10:14:17.339Z</time>
      </trkpt>
      <trkpt lat="47.03224" lon="5.82489">
        <ele>266</ele>
        <time>2022-03-17T10:14:21.382Z</time>
      </trkpt>
      <trkpt lat="47.0322" lon="5.82483">
        <ele>269</ele>
        <time>2022-03-17T10:14:26.344Z</time>
      </trkpt>
      <trkpt lat="47.03217" lon="5.82479">
        <ele>269</ele>
        <time>2022-03-17T10:14:30.404Z</time>
      </trkpt>
      <trkpt lat="47.03214" lon="5.82473">
        <ele>269</ele>
        <time>2022-03-17T10:14:35.347Z</time>
      </trkpt>
      <trkpt lat="47.03212" lon="5.82465">
        <ele>269</ele>
        <time>2022-03-17T10:14:39.400Z</time>
      </trkpt>
      <trkpt lat="47.03209" lon="5.82458">
        <ele>272</ele>
        <time>2022-03-17T10:14:44.370Z</time>
      </trkpt>
      <trkpt lat="47.03207" lon="5.82452">
        <ele>271</ele>
        <time>2022-03-17T10:14:48.389Z</time>
      </trkpt>
      <trkpt lat="47.03207" lon="5.82445">
        <ele>271</ele>
        <time>2022-03-17T10:14:53.430Z</time>
      </trkpt>
      <trkpt lat="47.03208" lon="5.82438">
        <ele>271</ele>
        <time>2022-03-17T10:14:58.360Z</time>
      </trkpt>
      <trkpt lat="47.03211" lon="5.82431">
        <ele>272</ele>
        <time>2022-03-17T10:15:03.346Z</time>
      </trkpt>
      <trkpt lat="47.03216" lon="5.82424">
        <ele>274</ele>
        <time>2022-03-17T10:15:08.296Z</time>
      </trkpt>
      <trkpt lat="47.03221" lon="5.82419">
        <ele>274</ele>
        <time>2022-03-17T10:15:12.375Z</time>
      </trkpt>
      <trkpt lat="47.03226" lon="5.82416">
        <ele>274</ele>
        <time>2022-03-17T10:15:16.295Z</time>
      </trkpt>
      <trkpt lat="47.0323" lon="5.82414">
        <ele>274</ele>
        <time>2022-03-17T10:15:21.317Z</time>
      </trkpt>
      <trkpt lat="47.03234" lon="5.82411">
        <ele>274</ele>
        <time>2022-03-17T10:15:25.367Z</time>
      </trkpt>
      <trkpt lat="47.03239" lon="5.82407">
        <ele>273</ele>
        <time>2022-03-17T10:15:29.401Z</time>
      </trkpt>
      <trkpt lat="47.03244" lon="5.82403">
        <ele>273</ele>
        <time>2022-03-17T10:15:34.312Z</time>
      </trkpt>
      <trkpt lat="47.03248" lon="5.82399">
        <ele>273</ele>
        <time>2022-03-17T10:15:38.322Z</time>
      </trkpt>
      <trkpt lat="47.03254" lon="5.82394">
        <ele>273</ele>
        <time>2022-03-17T10:15:43.386Z</time>
      </trkpt>
      <trkpt lat="47.03258" lon="5.82388">
        <ele>273</ele>
        <time>2022-03-17T10:15:48.353Z</time>
      </trkpt>
      <trkpt lat="47.03261" lon="5.82383">
        <ele>273</ele>
        <time>2022-03-17T10:15:52.375Z</time>
      </trkpt>
      <trkpt lat="47.03264" lon="5.82376">
        <ele>273</ele>
        <time>2022-03-17T10:15:57.391Z</time>
      </trkpt>
      <trkpt lat="47.03265" lon="5.82369">
        <ele>273</ele>
        <time>2022-03-17T10:16:02.331Z</time>
      </trkpt>
      <trkpt lat="47.03266" lon="5.82364">
        <ele>273</ele>
        <time>2022-03-17T10:16:06.311Z</time>
      </trkpt>
      <trkpt lat="47.03266" lon="5.82358">
        <ele>273</ele>
        <time>2022-03-17T10:16:10.389Z</time>
      </trkpt>
      <trkpt lat="47.03266" lon="5.82351">
        <ele>273</ele>
        <time>2022-03-17T10:16:15.346Z</time>
      </trkpt>
      <trkpt lat="47.03267" lon="5.82343">
        <ele>277</ele>
        <time>2022-03-17T10:16:20.302Z</time>
      </trkpt>
      <trkpt lat="47.03268" lon="5.82338">
        <ele>277</ele>
        <time>2022-03-17T10:16:24.345Z</time>
      </trkpt>
      <trkpt lat="47.03269" lon="5.82333">
        <ele>277</ele>
        <time>2022-03-17T10:16:29.279Z</time>
      </trkpt>
      <trkpt lat="47.0327" lon="5.82326">
        <ele>277</ele>
        <time>2022-03-17T10:16:33.347Z</time>
      </trkpt>
      <trkpt lat="47.03273" lon="5.82319">
        <ele>280</ele>
        <time>2022-03-17T10:16:38.403Z</time>
      </trkpt>
      <trkpt lat="47.03275" lon="5.82312">
        <ele>280</ele>
        <time>2022-03-17T10:16:43.380Z</time>
      </trkpt>
      <trkpt lat="47.03276" lon="5.82306">
        <ele>280</ele>
        <time>2022-03-17T10:16:47.402Z</time>
      </trkpt>
      <trkpt lat="47.03278" lon="5.82298">
        <ele>280</ele>
        <time>2022-03-17T10:16:52.319Z</time>
      </trkpt>
      <trkpt lat="47.03279" lon="5.82292">
        <ele>280</ele>
        <time>2022-03-17T10:16:57.403Z</time>
      </trkpt>
      <trkpt lat="47.0328" lon="5.82285">
        <ele>281</ele>
        <time>2022-03-17T10:17:02.376Z</time>
      </trkpt>
      <trkpt lat="47.0328" lon="5.82277">
        <ele>281</ele>
        <time>2022-03-17T10:17:07.301Z</time>
      </trkpt>
      <trkpt lat="47.03281" lon="5.82271">
        <ele>281</ele>
        <time>2022-03-17T10:17:12.303Z</time>
      </trkpt>
      <trkpt lat="47.0328" lon="5.82267">
        <ele>281</ele>
        <time>2022-03-17T10:17:17.353Z</time>
      </trkpt>
      <trkpt lat="47.03282" lon="5.8226">
        <ele>283</ele>
        <time>2022-03-17T10:17:21.399Z</time>
      </trkpt>
      <trkpt lat="47.03281" lon="5.82254">
        <ele>283</ele>
        <time>2022-03-17T10:17:26.335Z</time>
      </trkpt>
      <trkpt lat="47.03283" lon="5.82253">
        <ele>283</ele>
        <time>2022-03-17T10:17:30.345Z</time>
      </trkpt>
      <trkpt lat="47.03283" lon="5.82249">
        <ele>283</ele>
        <time>2022-03-17T10:17:35.312Z</time>
      </trkpt>
      <trkpt lat="47.03285" lon="5.82246">
        <ele>283</ele>
        <time>2022-03-17T10:17:39.357Z</time>
      </trkpt>
      <trkpt lat="47.03289" lon="5.82245">
        <ele>283</ele>
        <time>2022-03-17T10:17:44.411Z</time>
      </trkpt>
      <trkpt lat="47.03292" lon="5.82244">
        <ele>278</ele>
        <time>2022-03-17T10:17:49.361Z</time>
      </trkpt>
      <trkpt lat="47.03294" lon="5.82241">
        <ele>278</ele>
        <time>2022-03-17T10:17:54.362Z</time>
      </trkpt>
      <trkpt lat="47.03299" lon="5.82238">
        <ele>278</ele>
        <time>2022-03-17T10:17:59.378Z</time>
      </trkpt>
      <trkpt lat="47.03301" lon="5.82232">
        <ele>279</ele>
        <time>2022-03-17T10:18:04.376Z</time>
      </trkpt>
      <trkpt lat="47.03306" lon="5.82227">
        <ele>279</ele>
        <time>2022-03-17T10:18:09.369Z</time>
      </trkpt>
      <trkpt lat="47.03309" lon="5.82221">
        <ele>279</ele>
        <time>2022-03-17T10:18:14.353Z</time>
      </trkpt>
      <trkpt lat="47.0331" lon="5.82216">
        <ele>279</ele>
        <time>2022-03-17T10:18:18.390Z</time>
      </trkpt>
      <trkpt lat="47.03312" lon="5.82213">
        <ele>279</ele>
        <time>2022-03-17T10:18:23.356Z</time>
      </trkpt>
      <trkpt lat="47.03316" lon="5.82208">
        <ele>275</ele>
        <time>2022-03-17T10:18:28.355Z</time>
      </trkpt>
      <trkpt lat="47.03318" lon="5.82203">
        <ele>275</ele>
        <time>2022-03-17T10:18:33.357Z</time>
      </trkpt>
      <trkpt lat="47.03323" lon="5.82197">
        <ele>272</ele>
        <time>2022-03-17T10:18:38.347Z</time>
      </trkpt>
      <trkpt lat="47.03326" lon="5.82196">
        <ele>272</ele>
        <time>2022-03-17T10:18:43.368Z</time>
      </trkpt>
      <trkpt lat="47.03328" lon="5.82194">
        <ele>272</ele>
        <time>2022-03-17T10:18:48.391Z</time>
      </trkpt>
      <trkpt lat="47.03334" lon="5.82191">
        <ele>272</ele>
        <time>2022-03-17T10:18:52.439Z</time>
      </trkpt>
      <trkpt lat="47.03339" lon="5.82188">
        <ele>272</ele>
        <time>2022-03-17T10:18:57.397Z</time>
      </trkpt>
      <trkpt lat="47.03346" lon="5.82186">
        <ele>272</ele>
        <time>2022-03-17T10:19:02.335Z</time>
      </trkpt>
      <trkpt lat="47.03349" lon="5.82183">
        <ele>268</ele>
        <time>2022-03-17T10:19:06.373Z</time>
      </trkpt>
      <trkpt lat="47.03353" lon="5.82182">
        <ele>268</ele>
        <time>2022-03-17T10:19:11.383Z</time>
      </trkpt>
      <trkpt lat="47.03359" lon="5.82181">
        <ele>268</ele>
        <time>2022-03-17T10:19:16.352Z</time>
      </trkpt>
      <trkpt lat="47.03365" lon="5.82181">
        <ele>268</ele>
        <time>2022-03-17T10:19:21.350Z</time>
      </trkpt>
      <trkpt lat="47.03368" lon="5.82181">
        <ele>268</ele>
        <time>2022-03-17T10:19:26.333Z</time>
      </trkpt>
      <trkpt lat="47.03372" lon="5.82181">
        <ele>268</ele>
        <time>2022-03-17T10:19:30.337Z</time>
      </trkpt>
      <trkpt lat="47.03375" lon="5.82181">
        <ele>263</ele>
        <time>2022-03-17T10:19:35.363Z</time>
      </trkpt>
      <trkpt lat="47.0338" lon="5.82182">
        <ele>263</ele>
        <time>2022-03-17T10:19:40.384Z</time>
      </trkpt>
      <trkpt lat="47.03382" lon="5.82184">
        <ele>263</ele>
        <time>2022-03-17T10:19:45.330Z</time>
      </trkpt>
      <trkpt lat="47.03388" lon="5.82182">
        <ele>263</ele>
        <time>2022-03-17T10:19:49.363Z</time>
      </trkpt>
      <trkpt lat="47.0339" lon="5.82181">
        <ele>263</ele>
        <time>2022-03-17T10:19:53.385Z</time>
      </trkpt>
      <trkpt lat="47.03395" lon="5.8218">
        <ele>260</ele>
        <time>2022-03-17T10:19:58.329Z</time>
      </trkpt>
      <trkpt lat="47.034" lon="5.82181">
        <ele>260</ele>
        <time>2022-03-17T10:20:02.370Z</time>
      </trkpt>
      <trkpt lat="47.03407" lon="5.82182">
        <ele>259</ele>
        <time>2022-03-17T10:20:07.396Z</time>
      </trkpt>
      <trkpt lat="47.03414" lon="5.82182">
        <ele>259</ele>
        <time>2022-03-17T10:20:12.424Z</time>
      </trkpt>
      <trkpt lat="47.0342" lon="5.82182">
        <ele>259</ele>
        <time>2022-03-17T10:20:17.368Z</time>
      </trkpt>
      <trkpt lat="47.03425" lon="5.82184">
        <ele>259</ele>
        <time>2022-03-17T10:20:22.404Z</time>
      </trkpt>
      <trkpt lat="47.03429" lon="5.82185">
        <ele>259</ele>
        <time>2022-03-17T10:20:27.379Z</time>
      </trkpt>
      <trkpt lat="47.03436" lon="5.82187">
        <ele>255</ele>
        <time>2022-03-17T10:20:32.349Z</time>
      </trkpt>
      <trkpt lat="47.03441" lon="5.82188">
        <ele>255</ele>
        <time>2022-03-17T10:20:37.358Z</time>
      </trkpt>
      <trkpt lat="47.03446" lon="5.8219">
        <ele>255</ele>
        <time>2022-03-17T10:20:41.363Z</time>
      </trkpt>
      <trkpt lat="47.03453" lon="5.8219">
        <ele>255</ele>
        <time>2022-03-17T10:20:46.365Z</time>
      </trkpt>
      <trkpt lat="47.03458" lon="5.82192">
        <ele>253</ele>
        <time>2022-03-17T10:20:51.356Z</time>
      </trkpt>
      <trkpt lat="47.03463" lon="5.82193">
        <ele>253</ele>
        <time>2022-03-17T10:20:55.383Z</time>
      </trkpt>
      <trkpt lat="47.03468" lon="5.82194">
        <ele>253</ele>
        <time>2022-03-17T10:21:00.399Z</time>
      </trkpt>
      <trkpt lat="47.03474" lon="5.82195">
        <ele>253</ele>
        <time>2022-03-17T10:21:05.368Z</time>
      </trkpt>
      <trkpt lat="47.03479" lon="5.82197">
        <ele>253</ele>
        <time>2022-03-17T10:21:10.360Z</time>
      </trkpt>
      <trkpt lat="47.03483" lon="5.822">
        <ele>253</ele>
        <time>2022-03-17T10:21:15.384Z</time>
      </trkpt>
      <trkpt lat="47.0349" lon="5.82203">
        <ele>249</ele>
        <time>2022-03-17T10:21:20.368Z</time>
      </trkpt>
      <trkpt lat="47.03495" lon="5.82203">
        <ele>249</ele>
        <time>2022-03-17T10:21:24.410Z</time>
      </trkpt>
      <trkpt lat="47.03501" lon="5.82207">
        <ele>249</ele>
        <time>2022-03-17T10:21:29.386Z</time>
      </trkpt>
      <trkpt lat="47.03505" lon="5.82209">
        <ele>250</ele>
        <time>2022-03-17T10:21:34.324Z</time>
      </trkpt>
      <trkpt lat="47.0351" lon="5.82211">
        <ele>250</ele>
        <time>2022-03-17T10:21:38.356Z</time>
      </trkpt>
      <trkpt lat="47.03515" lon="5.82216">
        <ele>247</ele>
        <time>2022-03-17T10:21:43.379Z</time>
      </trkpt>
      <trkpt lat="47.0352" lon="5.82219">
        <ele>247</ele>
        <time>2022-03-17T10:21:48.360Z</time>
      </trkpt>
      <trkpt lat="47.0352" lon="5.82219">
        <ele>247</ele>
        <time>2022-03-17T10:21:52.386Z</time>
      </trkpt>
      <trkpt lat="47.03523" lon="5.82222">
        <ele>247</ele>
        <time>2022-03-17T10:21:57.376Z</time>
      </trkpt>
      <trkpt lat="47.03527" lon="5.82223">
        <ele>247</ele>
        <time>2022-03-17T10:22:02.431Z</time>
      </trkpt>
      <trkpt lat="47.03528" lon="5.82227">
        <ele>247</ele>
        <time>2022-03-17T10:22:07.382Z</time>
      </trkpt>
      <trkpt lat="47.03531" lon="5.82228">
        <ele>247</ele>
        <time>2022-03-17T10:22:12.367Z</time>
      </trkpt>
      <trkpt lat="47.03535" lon="5.82227">
        <ele>247</ele>
        <time>2022-03-17T10:22:17.387Z</time>
      </trkpt>
      <trkpt lat="47.03537" lon="5.82225">
        <ele>247</ele>
        <time>2022-03-17T10:22:22.376Z</time>
      </trkpt>
      <trkpt lat="47.03543" lon="5.8223">
        <ele>244</ele>
        <time>2022-03-17T10:24:05.300Z</time>
      </trkpt>
      <trkpt lat="47.03546" lon="5.82235">
        <ele>244</ele>
        <time>2022-03-17T10:24:09.334Z</time>
      </trkpt>
      <trkpt lat="47.03549" lon="5.82237">
        <ele>244</ele>
        <time>2022-03-17T10:24:13.354Z</time>
      </trkpt>
      <trkpt lat="47.03551" lon="5.82241">
        <ele>244</ele>
        <time>2022-03-17T10:24:17.378Z</time>
      </trkpt>
      <trkpt lat="47.03551" lon="5.82247">
        <ele>244</ele>
        <time>2022-03-17T10:24:22.370Z</time>
      </trkpt>
      <trkpt lat="47.0355" lon="5.82259">
        <ele>244</ele>
        <time>2022-03-17T10:24:56.307Z</time>
      </trkpt>
      <trkpt lat="47.03556" lon="5.82263">
        <ele>244</ele>
        <time>2022-03-17T10:25:00.343Z</time>
      </trkpt>
      <trkpt lat="47.03562" lon="5.82267">
        <ele>244</ele>
        <time>2022-03-17T10:25:05.411Z</time>
      </trkpt>
      <trkpt lat="47.03567" lon="5.82273">
        <ele>244</ele>
        <time>2022-03-17T10:25:10.372Z</time>
      </trkpt>
      <trkpt lat="47.03572" lon="5.82279">
        <ele>243</ele>
        <time>2022-03-17T10:25:15.380Z</time>
      </trkpt>
      <trkpt lat="47.03576" lon="5.82284">
        <ele>243</ele>
        <time>2022-03-17T10:25:20.359Z</time>
      </trkpt>
      <trkpt lat="47.03579" lon="5.8229">
        <ele>243</ele>
        <time>2022-03-17T10:25:24.386Z</time>
      </trkpt>
      <trkpt lat="47.03585" lon="5.82297">
        <ele>244</ele>
        <time>2022-03-17T10:25:29.387Z</time>
      </trkpt>
      <trkpt lat="47.03587" lon="5.82301">
        <ele>244</ele>
        <time>2022-03-17T10:25:33.304Z</time>
      </trkpt>
      <trkpt lat="47.03591" lon="5.82306">
        <ele>244</ele>
        <time>2022-03-17T10:25:38.290Z</time>
      </trkpt>
      <trkpt lat="47.03595" lon="5.82311">
        <ele>244</ele>
        <time>2022-03-17T10:25:43.301Z</time>
      </trkpt>
      <trkpt lat="47.03599" lon="5.82313">
        <ele>245</ele>
        <time>2022-03-17T10:25:48.382Z</time>
      </trkpt>
      <trkpt lat="47.03602" lon="5.82318">
        <ele>245</ele>
        <time>2022-03-17T10:25:53.378Z</time>
      </trkpt>
      <trkpt lat="47.03606" lon="5.8232">
        <ele>245</ele>
        <time>2022-03-17T10:25:57.406Z</time>
      </trkpt>
      <trkpt lat="47.03614" lon="5.82324">
        <ele>245</ele>
        <time>2022-03-17T10:26:02.392Z</time>
      </trkpt>
      <trkpt lat="47.03618" lon="5.82325">
        <ele>245</ele>
        <time>2022-03-17T10:26:07.373Z</time>
      </trkpt>
      <trkpt lat="47.03622" lon="5.82323">
        <ele>245</ele>
        <time>2022-03-17T10:26:11.388Z</time>
      </trkpt>
      <trkpt lat="47.03629" lon="5.82317">
        <ele>246</ele>
        <time>2022-03-17T10:26:16.369Z</time>
      </trkpt>
      <trkpt lat="47.03635" lon="5.82313">
        <ele>246</ele>
        <time>2022-03-17T10:26:21.355Z</time>
      </trkpt>
      <trkpt lat="47.03638" lon="5.82306">
        <ele>246</ele>
        <time>2022-03-17T10:26:26.320Z</time>
      </trkpt>
      <trkpt lat="47.03643" lon="5.82303">
        <ele>246</ele>
        <time>2022-03-17T10:26:31.282Z</time>
      </trkpt>
      <trkpt lat="47.03647" lon="5.82297">
        <ele>246</ele>
        <time>2022-03-17T10:26:35.344Z</time>
      </trkpt>
      <trkpt lat="47.0365" lon="5.82291">
        <ele>246</ele>
        <time>2022-03-17T10:26:39.359Z</time>
      </trkpt>
      <trkpt lat="47.03654" lon="5.82283">
        <ele>246</ele>
        <time>2022-03-17T10:26:44.356Z</time>
      </trkpt>
      <trkpt lat="47.03656" lon="5.82277">
        <ele>246</ele>
        <time>2022-03-17T10:26:48.375Z</time>
      </trkpt>
      <trkpt lat="47.03659" lon="5.82272">
        <ele>246</ele>
        <time>2022-03-17T10:26:53.371Z</time>
      </trkpt>
      <trkpt lat="47.03662" lon="5.82265">
        <ele>246</ele>
        <time>2022-03-17T10:26:58.386Z</time>
      </trkpt>
      <trkpt lat="47.03667" lon="5.82258">
        <ele>246</ele>
        <time>2022-03-17T10:27:03.405Z</time>
      </trkpt>
      <trkpt lat="47.0367" lon="5.82253">
        <ele>246</ele>
        <time>2022-03-17T10:27:08.356Z</time>
      </trkpt>
      <trkpt lat="47.03674" lon="5.82249">
        <ele>246</ele>
        <time>2022-03-17T10:27:13.352Z</time>
      </trkpt>
      <trkpt lat="47.03679" lon="5.82247">
        <ele>246</ele>
        <time>2022-03-17T10:27:18.378Z</time>
      </trkpt>
      <trkpt lat="47.03683" lon="5.82247">
        <ele>247</ele>
        <time>2022-03-17T10:27:22.366Z</time>
      </trkpt>
      <trkpt lat="47.03689" lon="5.82249">
        <ele>247</ele>
        <time>2022-03-17T10:27:27.358Z</time>
      </trkpt>
      <trkpt lat="47.03694" lon="5.82252">
        <ele>247</ele>
        <time>2022-03-17T10:27:31.397Z</time>
      </trkpt>
      <trkpt lat="47.037" lon="5.82253">
        <ele>247</ele>
        <time>2022-03-17T10:27:36.376Z</time>
      </trkpt>
      <trkpt lat="47.03706" lon="5.82248">
        <ele>247</ele>
        <time>2022-03-17T10:27:41.362Z</time>
      </trkpt>
      <trkpt lat="47.03711" lon="5.82242">
        <ele>248</ele>
        <time>2022-03-17T10:27:46.398Z</time>
      </trkpt>
      <trkpt lat="47.03715" lon="5.82237">
        <ele>248</ele>
        <time>2022-03-17T10:27:51.345Z</time>
      </trkpt>
      <trkpt lat="47.0372" lon="5.8223">
        <ele>247</ele>
        <time>2022-03-17T10:27:56.373Z</time>
      </trkpt>
      <trkpt lat="47.03725" lon="5.82225">
        <ele>247</ele>
        <time>2022-03-17T10:28:01.432Z</time>
      </trkpt>
      <trkpt lat="47.03729" lon="5.8222">
        <ele>247</ele>
        <time>2022-03-17T10:28:06.363Z</time>
      </trkpt>
      <trkpt lat="47.03733" lon="5.82196">
        <ele>245</ele>
        <time>2022-03-17T10:28:26.363Z</time>
      </trkpt>
      <trkpt lat="47.03733" lon="5.82188">
        <ele>245</ele>
        <time>2022-03-17T10:28:31.362Z</time>
      </trkpt>
      <trkpt lat="47.03733" lon="5.82181">
        <ele>245</ele>
        <time>2022-03-17T10:28:35.369Z</time>
      </trkpt>
      <trkpt lat="47.03732" lon="5.8217">
        <ele>244</ele>
        <time>2022-03-17T10:28:40.356Z</time>
      </trkpt>
      <trkpt lat="47.03731" lon="5.82162">
        <ele>244</ele>
        <time>2022-03-17T10:28:44.372Z</time>
      </trkpt>
      <trkpt lat="47.03731" lon="5.82153">
        <ele>244</ele>
        <time>2022-03-17T10:28:49.375Z</time>
      </trkpt>
      <trkpt lat="47.03731" lon="5.82144">
        <ele>244</ele>
        <time>2022-03-17T10:28:54.357Z</time>
      </trkpt>
      <trkpt lat="47.03729" lon="5.82135">
        <ele>244</ele>
        <time>2022-03-17T10:28:59.407Z</time>
      </trkpt>
      <trkpt lat="47.03729" lon="5.82125">
        <ele>243</ele>
        <time>2022-03-17T10:29:04.353Z</time>
      </trkpt>
      <trkpt lat="47.03728" lon="5.82116">
        <ele>243</ele>
        <time>2022-03-17T10:29:09.361Z</time>
      </trkpt>
      <trkpt lat="47.03728" lon="5.82106">
        <ele>243</ele>
        <time>2022-03-17T10:29:14.376Z</time>
      </trkpt>
      <trkpt lat="47.03726" lon="5.82095">
        <ele>243</ele>
        <time>2022-03-17T10:29:19.369Z</time>
      </trkpt>
      <trkpt lat="47.03726" lon="5.82085">
        <ele>243</ele>
        <time>2022-03-17T10:29:24.294Z</time>
      </trkpt>
      <trkpt lat="47.03726" lon="5.82077">
        <ele>243</ele>
        <time>2022-03-17T10:29:28.368Z</time>
      </trkpt>
      <trkpt lat="47.03728" lon="5.82068">
        <ele>242</ele>
        <time>2022-03-17T10:29:33.402Z</time>
      </trkpt>
      <trkpt lat="47.03728" lon="5.82059">
        <ele>242</ele>
        <time>2022-03-17T10:29:38.345Z</time>
      </trkpt>
      <trkpt lat="47.03731" lon="5.82049">
        <ele>242</ele>
        <time>2022-03-17T10:29:43.348Z</time>
      </trkpt>
      <trkpt lat="47.03734" lon="5.8204">
        <ele>241</ele>
        <time>2022-03-17T10:29:48.383Z</time>
      </trkpt>
      <trkpt lat="47.03737" lon="5.82032">
        <ele>241</ele>
        <time>2022-03-17T10:29:53.398Z</time>
      </trkpt>
      <trkpt lat="47.0374" lon="5.82026">
        <ele>241</ele>
        <time>2022-03-17T10:29:58.369Z</time>
      </trkpt>
      <trkpt lat="47.03744" lon="5.82021">
        <ele>241</ele>
        <time>2022-03-17T10:30:02.420Z</time>
      </trkpt>
      <trkpt lat="47.0375" lon="5.82014">
        <ele>241</ele>
        <time>2022-03-17T10:30:07.349Z</time>
      </trkpt>
      <trkpt lat="47.03755" lon="5.82009">
        <ele>241</ele>
        <time>2022-03-17T10:30:11.385Z</time>
      </trkpt>
      <trkpt lat="47.03762" lon="5.82006">
        <ele>241</ele>
        <time>2022-03-17T10:30:16.340Z</time>
      </trkpt>
      <trkpt lat="47.03766" lon="5.82003">
        <ele>241</ele>
        <time>2022-03-17T10:30:20.397Z</time>
      </trkpt>
      <trkpt lat="47.03771" lon="5.81998">
        <ele>241</ele>
        <time>2022-03-17T10:30:25.391Z</time>
      </trkpt>
      <trkpt lat="47.03778" lon="5.81993">
        <ele>241</ele>
        <time>2022-03-17T10:30:30.322Z</time>
      </trkpt>
      <trkpt lat="47.03783" lon="5.81988">
        <ele>241</ele>
        <time>2022-03-17T10:30:35.345Z</time>
      </trkpt>
      <trkpt lat="47.03789" lon="5.81984">
        <ele>239</ele>
        <time>2022-03-17T10:30:40.344Z</time>
      </trkpt>
      <trkpt lat="47.03795" lon="5.8198">
        <ele>239</ele>
        <time>2022-03-17T10:30:45.387Z</time>
      </trkpt>
      <trkpt lat="47.038" lon="5.81977">
        <ele>239</ele>
        <time>2022-03-17T10:30:50.351Z</time>
      </trkpt>
      <trkpt lat="47.03806" lon="5.81972">
        <ele>239</ele>
        <time>2022-03-17T10:30:55.387Z</time>
      </trkpt>
      <trkpt lat="47.03812" lon="5.81969">
        <ele>239</ele>
        <time>2022-03-17T10:31:00.334Z</time>
      </trkpt>
      <trkpt lat="47.03816" lon="5.81964">
        <ele>239</ele>
        <time>2022-03-17T10:31:04.372Z</time>
      </trkpt>
      <trkpt lat="47.03823" lon="5.81961">
        <ele>239</ele>
        <time>2022-03-17T10:31:09.354Z</time>
      </trkpt>
      <trkpt lat="47.03829" lon="5.81957">
        <ele>238</ele>
        <time>2022-03-17T10:31:14.364Z</time>
      </trkpt>
      <trkpt lat="47.03835" lon="5.81954">
        <ele>238</ele>
        <time>2022-03-17T10:31:19.364Z</time>
      </trkpt>
      <trkpt lat="47.03841" lon="5.81949">
        <ele>238</ele>
        <time>2022-03-17T10:31:24.393Z</time>
      </trkpt>
      <trkpt lat="47.03847" lon="5.81945">
        <ele>238</ele>
        <time>2022-03-17T10:31:29.359Z</time>
      </trkpt>
      <trkpt lat="47.03852" lon="5.81942">
        <ele>238</ele>
        <time>2022-03-17T10:31:34.350Z</time>
      </trkpt>
      <trkpt lat="47.03858" lon="5.81937">
        <ele>238</ele>
        <time>2022-03-17T10:31:39.366Z</time>
      </trkpt>
      <trkpt lat="47.03864" lon="5.81931">
        <ele>238</ele>
        <time>2022-03-17T10:31:44.349Z</time>
      </trkpt>
      <trkpt lat="47.03868" lon="5.81925">
        <ele>238</ele>
        <time>2022-03-17T10:31:49.336Z</time>
      </trkpt>
      <trkpt lat="47.03872" lon="5.81919">
        <ele>238</ele>
        <time>2022-03-17T10:31:54.347Z</time>
      </trkpt>
      <trkpt lat="47.03875" lon="5.81912">
        <ele>238</ele>
        <time>2022-03-17T10:31:59.416Z</time>
      </trkpt>
      <trkpt lat="47.03881" lon="5.81905">
        <ele>238</ele>
        <time>2022-03-17T10:32:04.352Z</time>
      </trkpt>
      <trkpt lat="47.03886" lon="5.81899">
        <ele>238</ele>
        <time>2022-03-17T10:32:09.369Z</time>
      </trkpt>
      <trkpt lat="47.03891" lon="5.81893">
        <ele>238</ele>
        <time>2022-03-17T10:32:14.366Z</time>
      </trkpt>
      <trkpt lat="47.03896" lon="5.81886">
        <ele>238</ele>
        <time>2022-03-17T10:32:19.375Z</time>
      </trkpt>
      <trkpt lat="47.03901" lon="5.81881">
        <ele>238</ele>
        <time>2022-03-17T10:32:24.342Z</time>
      </trkpt>
      <trkpt lat="47.03907" lon="5.81876">
        <ele>238</ele>
        <time>2022-03-17T10:32:28.370Z</time>
      </trkpt>
      <trkpt lat="47.03911" lon="5.81871">
        <ele>238</ele>
        <time>2022-03-17T10:32:33.381Z</time>
      </trkpt>
      <trkpt lat="47.03916" lon="5.81864">
        <ele>238</ele>
        <time>2022-03-17T10:32:38.384Z</time>
      </trkpt>
      <trkpt lat="47.03922" lon="5.81859">
        <ele>238</ele>
        <time>2022-03-17T10:32:43.374Z</time>
      </trkpt>
      <trkpt lat="47.03927" lon="5.81857">
        <ele>238</ele>
        <time>2022-03-17T10:32:48.403Z</time>
      </trkpt>
      <trkpt lat="47.03931" lon="5.81856">
        <ele>239</ele>
        <time>2022-03-17T10:32:53.410Z</time>
      </trkpt>
      <trkpt lat="47.03938" lon="5.81856">
        <ele>239</ele>
        <time>2022-03-17T10:32:58.354Z</time>
      </trkpt>
      <trkpt lat="47.03946" lon="5.81855">
        <ele>239</ele>
        <time>2022-03-17T10:33:03.348Z</time>
      </trkpt>
      <trkpt lat="47.03953" lon="5.81854">
        <ele>239</ele>
        <time>2022-03-17T10:33:08.376Z</time>
      </trkpt>
      <trkpt lat="47.03959" lon="5.81854">
        <ele>240</ele>
        <time>2022-03-17T10:33:13.357Z</time>
      </trkpt>
      <trkpt lat="47.03966" lon="5.81854">
        <ele>240</ele>
        <time>2022-03-17T10:33:18.302Z</time>
      </trkpt>
      <trkpt lat="47.03972" lon="5.81856">
        <ele>240</ele>
        <time>2022-03-17T10:33:23.288Z</time>
      </trkpt>
      <trkpt lat="47.03978" lon="5.81857">
        <ele>240</ele>
        <time>2022-03-17T10:33:28.316Z</time>
      </trkpt>
      <trkpt lat="47.03982" lon="5.81857">
        <ele>240</ele>
        <time>2022-03-17T10:33:32.364Z</time>
      </trkpt>
      <trkpt lat="47.03989" lon="5.81856">
        <ele>240</ele>
        <time>2022-03-17T10:33:37.355Z</time>
      </trkpt>
      <trkpt lat="47.03995" lon="5.81855">
        <ele>240</ele>
        <time>2022-03-17T10:33:42.343Z</time>
      </trkpt>
      <trkpt lat="47.04002" lon="5.81853">
        <ele>240</ele>
        <time>2022-03-17T10:33:47.358Z</time>
      </trkpt>
      <trkpt lat="47.04009" lon="5.81852">
        <ele>240</ele>
        <time>2022-03-17T10:33:52.358Z</time>
      </trkpt>
      <trkpt lat="47.04015" lon="5.81851">
        <ele>240</ele>
        <time>2022-03-17T10:33:57.381Z</time>
      </trkpt>
      <trkpt lat="47.04021" lon="5.81849">
        <ele>240</ele>
        <time>2022-03-17T10:34:02.367Z</time>
      </trkpt>
      <trkpt lat="47.04027" lon="5.8185">
        <ele>240</ele>
        <time>2022-03-17T10:34:07.375Z</time>
      </trkpt>
      <trkpt lat="47.04032" lon="5.8185">
        <ele>240</ele>
        <time>2022-03-17T10:34:12.353Z</time>
      </trkpt>
      <trkpt lat="47.04038" lon="5.81849">
        <ele>240</ele>
        <time>2022-03-17T10:34:17.367Z</time>
      </trkpt>
      <trkpt lat="47.04043" lon="5.81848">
        <ele>239</ele>
        <time>2022-03-17T10:34:22.362Z</time>
      </trkpt>
      <trkpt lat="47.04049" lon="5.81845">
        <ele>240</ele>
        <time>2022-03-17T10:34:27.406Z</time>
      </trkpt>
      <trkpt lat="47.04055" lon="5.81843">
        <ele>240</ele>
        <time>2022-03-17T10:34:32.387Z</time>
      </trkpt>
      <trkpt lat="47.0406" lon="5.81843">
        <ele>240</ele>
        <time>2022-03-17T10:34:37.364Z</time>
      </trkpt>
      <trkpt lat="47.04065" lon="5.81844">
        <ele>240</ele>
        <time>2022-03-17T10:34:42.369Z</time>
      </trkpt>
      <trkpt lat="47.0407" lon="5.81844">
        <ele>238</ele>
        <time>2022-03-17T10:34:46.368Z</time>
      </trkpt>
      <trkpt lat="47.04076" lon="5.81841">
        <ele>238</ele>
        <time>2022-03-17T10:34:51.356Z</time>
      </trkpt>
      <trkpt lat="47.04083" lon="5.81837">
        <ele>238</ele>
        <time>2022-03-17T10:34:56.352Z</time>
      </trkpt>
      <trkpt lat="47.04089" lon="5.81832">
        <ele>238</ele>
        <time>2022-03-17T10:35:01.367Z</time>
      </trkpt>
      <trkpt lat="47.04096" lon="5.81828">
        <ele>238</ele>
        <time>2022-03-17T10:35:06.352Z</time>
      </trkpt>
      <trkpt lat="47.04102" lon="5.81823">
        <ele>239</ele>
        <time>2022-03-17T10:35:10.398Z</time>
      </trkpt>
      <trkpt lat="47.04108" lon="5.8182">
        <ele>239</ele>
        <time>2022-03-17T10:35:15.361Z</time>
      </trkpt>
      <trkpt lat="47.04114" lon="5.81817">
        <ele>239</ele>
        <time>2022-03-17T10:35:20.356Z</time>
      </trkpt>
      <trkpt lat="47.0412" lon="5.81813">
        <ele>239</ele>
        <time>2022-03-17T10:35:24.358Z</time>
      </trkpt>
      <trkpt lat="47.04127" lon="5.81811">
        <ele>240</ele>
        <time>2022-03-17T10:35:29.333Z</time>
      </trkpt>
      <trkpt lat="47.04134" lon="5.81805">
        <ele>240</ele>
        <time>2022-03-17T10:35:34.341Z</time>
      </trkpt>
      <trkpt lat="47.04139" lon="5.81801">
        <ele>240</ele>
        <time>2022-03-17T10:35:38.351Z</time>
      </trkpt>
      <trkpt lat="47.04145" lon="5.81797">
        <ele>240</ele>
        <time>2022-03-17T10:35:43.341Z</time>
      </trkpt>
      <trkpt lat="47.0415" lon="5.81796">
        <ele>240</ele>
        <time>2022-03-17T10:35:47.364Z</time>
      </trkpt>
      <trkpt lat="47.04155" lon="5.81791">
        <ele>240</ele>
        <time>2022-03-17T10:35:52.359Z</time>
      </trkpt>
      <trkpt lat="47.04162" lon="5.81787">
        <ele>240</ele>
        <time>2022-03-17T10:35:57.362Z</time>
      </trkpt>
      <trkpt lat="47.04166" lon="5.81782">
        <ele>240</ele>
        <time>2022-03-17T10:36:02.348Z</time>
      </trkpt>
      <trkpt lat="47.04172" lon="5.81777">
        <ele>240</ele>
        <time>2022-03-17T10:36:07.411Z</time>
      </trkpt>
      <trkpt lat="47.04179" lon="5.81774">
        <ele>240</ele>
        <time>2022-03-17T10:36:12.362Z</time>
      </trkpt>
      <trkpt lat="47.04185" lon="5.8177">
        <ele>239</ele>
        <time>2022-03-17T10:36:17.384Z</time>
      </trkpt>
      <trkpt lat="47.04191" lon="5.81768">
        <ele>239</ele>
        <time>2022-03-17T10:36:22.364Z</time>
      </trkpt>
      <trkpt lat="47.04197" lon="5.81764">
        <ele>239</ele>
        <time>2022-03-17T10:36:27.373Z</time>
      </trkpt>
      <trkpt lat="47.04202" lon="5.81761">
        <ele>239</ele>
        <time>2022-03-17T10:36:31.376Z</time>
      </trkpt>
      <trkpt lat="47.04208" lon="5.81757">
        <ele>239</ele>
        <time>2022-03-17T10:36:36.343Z</time>
      </trkpt>
      <trkpt lat="47.04214" lon="5.81753">
        <ele>238</ele>
        <time>2022-03-17T10:36:41.363Z</time>
      </trkpt>
      <trkpt lat="47.04221" lon="5.8175">
        <ele>238</ele>
        <time>2022-03-17T10:36:46.340Z</time>
      </trkpt>
      <trkpt lat="47.04228" lon="5.81745">
        <ele>238</ele>
        <time>2022-03-17T10:36:51.343Z</time>
      </trkpt>
      <trkpt lat="47.04235" lon="5.81743">
        <ele>238</ele>
        <time>2022-03-17T10:36:55.409Z</time>
      </trkpt>
      <trkpt lat="47.04242" lon="5.81738">
        <ele>237</ele>
        <time>2022-03-17T10:37:00.364Z</time>
      </trkpt>
      <trkpt lat="47.04248" lon="5.81735">
        <ele>236</ele>
        <time>2022-03-17T10:37:05.350Z</time>
      </trkpt>
      <trkpt lat="47.04255" lon="5.81732">
        <ele>236</ele>
        <time>2022-03-17T10:37:10.373Z</time>
      </trkpt>
      <trkpt lat="47.04262" lon="5.81731">
        <ele>236</ele>
        <time>2022-03-17T10:37:15.367Z</time>
      </trkpt>
      <trkpt lat="47.0427" lon="5.81731">
        <ele>236</ele>
        <time>2022-03-17T10:37:20.352Z</time>
      </trkpt>
      <trkpt lat="47.04276" lon="5.81731">
        <ele>236</ele>
        <time>2022-03-17T10:37:25.374Z</time>
      </trkpt>
      <trkpt lat="47.04283" lon="5.81733">
        <ele>236</ele>
        <time>2022-03-17T10:37:30.370Z</time>
      </trkpt>
      <trkpt lat="47.0429" lon="5.81733">
        <ele>236</ele>
        <time>2022-03-17T10:37:35.358Z</time>
      </trkpt>
      <trkpt lat="47.04297" lon="5.81732">
        <ele>236</ele>
        <time>2022-03-17T10:37:40.386Z</time>
      </trkpt>
      <trkpt lat="47.04304" lon="5.81734">
        <ele>236</ele>
        <time>2022-03-17T10:37:45.372Z</time>
      </trkpt>
      <trkpt lat="47.04311" lon="5.81733">
        <ele>236</ele>
        <time>2022-03-17T10:37:50.347Z</time>
      </trkpt>
      <trkpt lat="47.04318" lon="5.81733">
        <ele>236</ele>
        <time>2022-03-17T10:37:55.366Z</time>
      </trkpt>
      <trkpt lat="47.04324" lon="5.81733">
        <ele>235</ele>
        <time>2022-03-17T10:37:59.379Z</time>
      </trkpt>
      <trkpt lat="47.04332" lon="5.81733">
        <ele>235</ele>
        <time>2022-03-17T10:38:04.339Z</time>
      </trkpt>
      <trkpt lat="47.04338" lon="5.81734">
        <ele>235</ele>
        <time>2022-03-17T10:38:09.333Z</time>
      </trkpt>
      <trkpt lat="47.04344" lon="5.81734">
        <ele>235</ele>
        <time>2022-03-17T10:38:14.336Z</time>
      </trkpt>
      <trkpt lat="47.04351" lon="5.81733">
        <ele>235</ele>
        <time>2022-03-17T10:38:19.344Z</time>
      </trkpt>
      <trkpt lat="47.04356" lon="5.81728">
        <ele>235</ele>
        <time>2022-03-17T10:38:24.284Z</time>
      </trkpt>
      <trkpt lat="47.04363" lon="5.81724">
        <ele>235</ele>
        <time>2022-03-17T10:38:29.329Z</time>
      </trkpt>
      <trkpt lat="47.04369" lon="5.81718">
        <ele>235</ele>
        <time>2022-03-17T10:38:34.364Z</time>
      </trkpt>
      <trkpt lat="47.04374" lon="5.81712">
        <ele>235</ele>
        <time>2022-03-17T10:38:39.336Z</time>
      </trkpt>
      <trkpt lat="47.04376" lon="5.81706">
        <ele>236</ele>
        <time>2022-03-17T10:38:43.371Z</time>
      </trkpt>
      <trkpt lat="47.04381" lon="5.81697">
        <ele>236</ele>
        <time>2022-03-17T10:38:48.374Z</time>
      </trkpt>
      <trkpt lat="47.04386" lon="5.81687">
        <ele>236</ele>
        <time>2022-03-17T10:38:53.332Z</time>
      </trkpt>
      <trkpt lat="47.04389" lon="5.8168">
        <ele>236</ele>
        <time>2022-03-17T10:38:57.378Z</time>
      </trkpt>
      <trkpt lat="47.04392" lon="5.81672">
        <ele>236</ele>
        <time>2022-03-17T10:39:02.386Z</time>
      </trkpt>
      <trkpt lat="47.04396" lon="5.81664">
        <ele>236</ele>
        <time>2022-03-17T10:39:07.341Z</time>
      </trkpt>
      <trkpt lat="47.04398" lon="5.81657">
        <ele>236</ele>
        <time>2022-03-17T10:39:11.331Z</time>
      </trkpt>
      <trkpt lat="47.04399" lon="5.81649">
        <ele>237</ele>
        <time>2022-03-17T10:39:15.372Z</time>
      </trkpt>
      <trkpt lat="47.04401" lon="5.81642">
        <ele>237</ele>
        <time>2022-03-17T10:39:20.348Z</time>
      </trkpt>
      <trkpt lat="47.04403" lon="5.81633">
        <ele>238</ele>
        <time>2022-03-17T10:39:25.398Z</time>
      </trkpt>
      <trkpt lat="47.04405" lon="5.81626">
        <ele>238</ele>
        <time>2022-03-17T10:39:30.363Z</time>
      </trkpt>
      <trkpt lat="47.04407" lon="5.81617">
        <ele>239</ele>
        <time>2022-03-17T10:39:35.355Z</time>
      </trkpt>
      <trkpt lat="47.04409" lon="5.8161">
        <ele>239</ele>
        <time>2022-03-17T10:39:40.368Z</time>
      </trkpt>
      <trkpt lat="47.04409" lon="5.81606">
        <ele>239</ele>
        <time>2022-03-17T10:39:45.346Z</time>
      </trkpt>
      <trkpt lat="47.04409" lon="5.81605">
        <ele>239</ele>
        <time>2022-03-17T10:39:50.359Z</time>
      </trkpt>
      <trkpt lat="47.0441" lon="5.81605">
        <ele>239</ele>
        <time>2022-03-17T10:39:55.426Z</time>
      </trkpt>
      <trkpt lat="47.0441" lon="5.81597">
        <ele>240</ele>
        <time>2022-03-17T10:40:00.386Z</time>
      </trkpt>
      <trkpt lat="47.04409" lon="5.81591">
        <ele>240</ele>
        <time>2022-03-17T10:40:05.364Z</time>
      </trkpt>
      <trkpt lat="47.04409" lon="5.81586">
        <ele>240</ele>
        <time>2022-03-17T10:40:09.391Z</time>
      </trkpt>
      <trkpt lat="47.04408" lon="5.81583">
        <ele>240</ele>
        <time>2022-03-17T10:40:14.372Z</time>
      </trkpt>
      <trkpt lat="47.04405" lon="5.8158">
        <ele>240</ele>
        <time>2022-03-17T10:40:19.405Z</time>
      </trkpt>
      <trkpt lat="47.04404" lon="5.81578">
        <ele>240</ele>
        <time>2022-03-17T10:40:24.403Z</time>
      </trkpt>
      <trkpt lat="47.044" lon="5.81573">
        <ele>239</ele>
        <time>2022-03-17T10:40:29.357Z</time>
      </trkpt>
      <trkpt lat="47.04398" lon="5.81568">
        <ele>239</ele>
        <time>2022-03-17T10:40:33.368Z</time>
      </trkpt>
      <trkpt lat="47.04395" lon="5.81563">
        <ele>239</ele>
        <time>2022-03-17T10:40:38.369Z</time>
      </trkpt>
      <trkpt lat="47.04393" lon="5.81559">
        <ele>239</ele>
        <time>2022-03-17T10:40:43.364Z</time>
      </trkpt>
      <trkpt lat="47.0439" lon="5.81554">
        <ele>239</ele>
        <time>2022-03-17T10:40:48.343Z</time>
      </trkpt>
      <trkpt lat="47.04386" lon="5.81548">
        <ele>239</ele>
        <time>2022-03-17T10:40:53.350Z</time>
      </trkpt>
      <trkpt lat="47.04385" lon="5.81543">
        <ele>239</ele>
        <time>2022-03-17T10:40:58.348Z</time>
      </trkpt>
      <trkpt lat="47.04379" lon="5.81539">
        <ele>238</ele>
        <time>2022-03-17T10:41:03.357Z</time>
      </trkpt>
      <trkpt lat="47.04376" lon="5.81537">
        <ele>238</ele>
        <time>2022-03-17T10:41:07.360Z</time>
      </trkpt>
      <trkpt lat="47.04373" lon="5.81534">
        <ele>236</ele>
        <time>2022-03-17T10:41:12.389Z</time>
      </trkpt>
      <trkpt lat="47.04373" lon="5.81531">
        <ele>236</ele>
        <time>2022-03-17T10:41:17.344Z</time>
      </trkpt>
      <trkpt lat="47.04367" lon="5.81528">
        <ele>236</ele>
        <time>2022-03-17T10:41:22.352Z</time>
      </trkpt>
      <trkpt lat="47.04365" lon="5.81525">
        <ele>236</ele>
        <time>2022-03-17T10:41:26.354Z</time>
      </trkpt>
      <trkpt lat="47.0436" lon="5.81521">
        <ele>236</ele>
        <time>2022-03-17T10:41:31.369Z</time>
      </trkpt>
      <trkpt lat="47.04356" lon="5.81515">
        <ele>236</ele>
        <time>2022-03-17T10:41:35.293Z</time>
      </trkpt>
      <trkpt lat="47.04353" lon="5.81511">
        <ele>235</ele>
        <time>2022-03-17T10:41:40.323Z</time>
      </trkpt>
      <trkpt lat="47.04351" lon="5.81506">
        <ele>235</ele>
        <time>2022-03-17T10:41:44.275Z</time>
      </trkpt>
      <trkpt lat="47.04348" lon="5.81502">
        <ele>235</ele>
        <time>2022-03-17T10:41:49.279Z</time>
      </trkpt>
      <trkpt lat="47.04345" lon="5.81498">
        <ele>237</ele>
        <time>2022-03-17T10:41:53.384Z</time>
      </trkpt>
      <trkpt lat="47.04341" lon="5.81494">
        <ele>237</ele>
        <time>2022-03-17T10:41:58.388Z</time>
      </trkpt>
      <trkpt lat="47.04337" lon="5.81489">
        <ele>237</ele>
        <time>2022-03-17T10:42:03.295Z</time>
      </trkpt>
      <trkpt lat="47.04335" lon="5.81486">
        <ele>237</ele>
        <time>2022-03-17T10:42:07.354Z</time>
      </trkpt>
      <trkpt lat="47.04332" lon="5.81479">
        <ele>237</ele>
        <time>2022-03-17T10:42:12.301Z</time>
      </trkpt>
      <trkpt lat="47.04329" lon="5.81475">
        <ele>237</ele>
        <time>2022-03-17T10:42:16.382Z</time>
      </trkpt>
      <trkpt lat="47.04326" lon="5.81472">
        <ele>237</ele>
        <time>2022-03-17T10:42:21.342Z</time>
      </trkpt>
      <trkpt lat="47.04322" lon="5.8147">
        <ele>237</ele>
        <time>2022-03-17T10:42:26.306Z</time>
      </trkpt>
      <trkpt lat="47.04317" lon="5.81464">
        <ele>240</ele>
        <time>2022-03-17T10:42:30.361Z</time>
      </trkpt>
      <trkpt lat="47.04311" lon="5.81457">
        <ele>239</ele>
        <time>2022-03-17T10:42:35.379Z</time>
      </trkpt>
      <trkpt lat="47.04304" lon="5.81452">
        <ele>239</ele>
        <time>2022-03-17T10:42:40.312Z</time>
      </trkpt>
      <trkpt lat="47.043" lon="5.81451">
        <ele>239</ele>
        <time>2022-03-17T10:42:44.353Z</time>
      </trkpt>
      <trkpt lat="47.04299" lon="5.81451">
        <ele>239</ele>
        <time>2022-03-17T10:42:49.340Z</time>
      </trkpt>
      <trkpt lat="47.04295" lon="5.81452">
        <ele>239</ele>
        <time>2022-03-17T10:42:58.367Z</time>
      </trkpt>
      <trkpt lat="47.04294" lon="5.81452">
        <ele>239</ele>
        <time>2022-03-17T10:43:03.387Z</time>
      </trkpt>
      <trkpt lat="47.0429" lon="5.81455">
        <ele>240</ele>
        <time>2022-03-17T10:43:07.283Z</time>
      </trkpt>
      <trkpt lat="47.04285" lon="5.81456">
        <ele>240</ele>
        <time>2022-03-17T10:43:12.355Z</time>
      </trkpt>
      <trkpt lat="47.04282" lon="5.81456">
        <ele>240</ele>
        <time>2022-03-17T10:43:16.389Z</time>
      </trkpt>
      <trkpt lat="47.04276" lon="5.81455">
        <ele>240</ele>
        <time>2022-03-17T10:43:21.360Z</time>
      </trkpt>
      <trkpt lat="47.04269" lon="5.81455">
        <ele>240</ele>
        <time>2022-03-17T10:43:26.316Z</time>
      </trkpt>
      <trkpt lat="47.04264" lon="5.81457">
        <ele>240</ele>
        <time>2022-03-17T10:43:30.347Z</time>
      </trkpt>
      <trkpt lat="47.04259" lon="5.81457">
        <ele>239</ele>
        <time>2022-03-17T10:43:35.338Z</time>
      </trkpt>
      <trkpt lat="47.04254" lon="5.81457">
        <ele>239</ele>
        <time>2022-03-17T10:43:40.286Z</time>
      </trkpt>
      <trkpt lat="47.0425" lon="5.81457">
        <ele>239</ele>
        <time>2022-03-17T10:43:44.361Z</time>
      </trkpt>
      <trkpt lat="47.04245" lon="5.81458">
        <ele>239</ele>
        <time>2022-03-17T10:43:48.380Z</time>
      </trkpt>
      <trkpt lat="47.0424" lon="5.8146">
        <ele>239</ele>
        <time>2022-03-17T10:43:53.348Z</time>
      </trkpt>
      <trkpt lat="47.04235" lon="5.81461">
        <ele>238</ele>
        <time>2022-03-17T10:43:58.330Z</time>
      </trkpt>
      <trkpt lat="47.0423" lon="5.81465">
        <ele>238</ele>
        <time>2022-03-17T10:44:03.361Z</time>
      </trkpt>
      <trkpt lat="47.04224" lon="5.81469">
        <ele>238</ele>
        <time>2022-03-17T10:44:08.369Z</time>
      </trkpt>
      <trkpt lat="47.04218" lon="5.81471">
        <ele>238</ele>
        <time>2022-03-17T10:44:13.360Z</time>
      </trkpt>
      <trkpt lat="47.04214" lon="5.81473">
        <ele>238</ele>
        <time>2022-03-17T10:44:18.375Z</time>
      </trkpt>
      <trkpt lat="47.04208" lon="5.81476">
        <ele>236</ele>
        <time>2022-03-17T10:44:23.347Z</time>
      </trkpt>
      <trkpt lat="47.04203" lon="5.81478">
        <ele>236</ele>
        <time>2022-03-17T10:44:28.338Z</time>
      </trkpt>
      <trkpt lat="47.04198" lon="5.8148">
        <ele>236</ele>
        <time>2022-03-17T10:44:33.336Z</time>
      </trkpt>
      <trkpt lat="47.04192" lon="5.81484">
        <ele>236</ele>
        <time>2022-03-17T10:44:38.340Z</time>
      </trkpt>
      <trkpt lat="47.04186" lon="5.81485">
        <ele>236</ele>
        <time>2022-03-17T10:44:43.351Z</time>
      </trkpt>
      <trkpt lat="47.04182" lon="5.81486">
        <ele>236</ele>
        <time>2022-03-17T10:44:47.375Z</time>
      </trkpt>
      <trkpt lat="47.04177" lon="5.81488">
        <ele>235</ele>
        <time>2022-03-17T10:44:52.376Z</time>
      </trkpt>
      <trkpt lat="47.04172" lon="5.8149">
        <ele>235</ele>
        <time>2022-03-17T10:44:57.369Z</time>
      </trkpt>
      <trkpt lat="47.04165" lon="5.81491">
        <ele>235</ele>
        <time>2022-03-17T10:45:02.348Z</time>
      </trkpt>
      <trkpt lat="47.0416" lon="5.81493">
        <ele>235</ele>
        <time>2022-03-17T10:45:07.327Z</time>
      </trkpt>
      <trkpt lat="47.04155" lon="5.81495">
        <ele>235</ele>
        <time>2022-03-17T10:45:11.343Z</time>
      </trkpt>
      <trkpt lat="47.04151" lon="5.81495">
        <ele>237</ele>
        <time>2022-03-17T10:45:15.370Z</time>
      </trkpt>
      <trkpt lat="47.04144" lon="5.81496">
        <ele>237</ele>
        <time>2022-03-17T10:45:20.337Z</time>
      </trkpt>
      <trkpt lat="47.0414" lon="5.81493">
        <ele>237</ele>
        <time>2022-03-17T10:45:24.375Z</time>
      </trkpt>
      <trkpt lat="47.04135" lon="5.8149">
        <ele>237</ele>
        <time>2022-03-17T10:45:29.297Z</time>
      </trkpt>
      <trkpt lat="47.04129" lon="5.81489">
        <ele>237</ele>
        <time>2022-03-17T10:45:34.269Z</time>
      </trkpt>
      <trkpt lat="47.04126" lon="5.81487">
        <ele>237</ele>
        <time>2022-03-17T10:45:38.300Z</time>
      </trkpt>
      <trkpt lat="47.04122" lon="5.81487">
        <ele>239</ele>
        <time>2022-03-17T10:45:42.426Z</time>
      </trkpt>
      <trkpt lat="47.04117" lon="5.81483">
        <ele>238</ele>
        <time>2022-03-17T10:45:47.336Z</time>
      </trkpt>
      <trkpt lat="47.04112" lon="5.81479">
        <ele>238</ele>
        <time>2022-03-17T10:45:51.360Z</time>
      </trkpt>
      <trkpt lat="47.04106" lon="5.81476">
        <ele>238</ele>
        <time>2022-03-17T10:45:56.316Z</time>
      </trkpt>
      <trkpt lat="47.04102" lon="5.81474">
        <ele>238</ele>
        <time>2022-03-17T10:46:00.349Z</time>
      </trkpt>
      <trkpt lat="47.04099" lon="5.81472">
        <ele>238</ele>
        <time>2022-03-17T10:46:05.334Z</time>
      </trkpt>
      <trkpt lat="47.04093" lon="5.81469">
        <ele>239</ele>
        <time>2022-03-17T10:46:10.363Z</time>
      </trkpt>
      <trkpt lat="47.04089" lon="5.81467">
        <ele>239</ele>
        <time>2022-03-17T10:46:15.360Z</time>
      </trkpt>
      <trkpt lat="47.04084" lon="5.81465">
        <ele>239</ele>
        <time>2022-03-17T10:46:20.404Z</time>
      </trkpt>
      <trkpt lat="47.0408" lon="5.81462">
        <ele>239</ele>
        <time>2022-03-17T10:46:25.351Z</time>
      </trkpt>
      <trkpt lat="47.04074" lon="5.81458">
        <ele>238</ele>
        <time>2022-03-17T10:46:29.397Z</time>
      </trkpt>
      <trkpt lat="47.04069" lon="5.81456">
        <ele>237</ele>
        <time>2022-03-17T10:46:34.354Z</time>
      </trkpt>
      <trkpt lat="47.04064" lon="5.81452">
        <ele>237</ele>
        <time>2022-03-17T10:46:39.301Z</time>
      </trkpt>
      <trkpt lat="47.04059" lon="5.81451">
        <ele>237</ele>
        <time>2022-03-17T10:46:43.381Z</time>
      </trkpt>
      <trkpt lat="47.04054" lon="5.8145">
        <ele>237</ele>
        <time>2022-03-17T10:46:48.337Z</time>
      </trkpt>
      <trkpt lat="47.04048" lon="5.81447">
        <ele>237</ele>
        <time>2022-03-17T10:46:53.357Z</time>
      </trkpt>
      <trkpt lat="47.04044" lon="5.81444">
        <ele>237</ele>
        <time>2022-03-17T10:46:58.352Z</time>
      </trkpt>
      <trkpt lat="47.04038" lon="5.81441">
        <ele>238</ele>
        <time>2022-03-17T10:47:03.365Z</time>
      </trkpt>
      <trkpt lat="47.04033" lon="5.81438">
        <ele>238</ele>
        <time>2022-03-17T10:47:08.368Z</time>
      </trkpt>
      <trkpt lat="47.04028" lon="5.81434">
        <ele>238</ele>
        <time>2022-03-17T10:47:13.382Z</time>
      </trkpt>
      <trkpt lat="47.04023" lon="5.81431">
        <ele>238</ele>
        <time>2022-03-17T10:47:18.363Z</time>
      </trkpt>
      <trkpt lat="47.04018" lon="5.81429">
        <ele>238</ele>
        <time>2022-03-17T10:47:23.360Z</time>
      </trkpt>
      <trkpt lat="47.04011" lon="5.81428">
        <ele>240</ele>
        <time>2022-03-17T10:47:28.353Z</time>
      </trkpt>
      <trkpt lat="47.04005" lon="5.81428">
        <ele>240</ele>
        <time>2022-03-17T10:47:33.362Z</time>
      </trkpt>
      <trkpt lat="47.04" lon="5.81429">
        <ele>240</ele>
        <time>2022-03-17T10:47:37.360Z</time>
      </trkpt>
      <trkpt lat="47.03996" lon="5.81429">
        <ele>240</ele>
        <time>2022-03-17T10:47:42.361Z</time>
      </trkpt>
      <trkpt lat="47.03992" lon="5.81429">
        <ele>240</ele>
        <time>2022-03-17T10:47:46.358Z</time>
      </trkpt>
      <trkpt lat="47.03987" lon="5.81427">
        <ele>240</ele>
        <time>2022-03-17T10:47:51.362Z</time>
      </trkpt>
      <trkpt lat="47.03979" lon="5.81424">
        <ele>242</ele>
        <time>2022-03-17T10:48:01.388Z</time>
      </trkpt>
      <trkpt lat="47.03976" lon="5.81427">
        <ele>242</ele>
        <time>2022-03-17T10:48:06.353Z</time>
      </trkpt>
      <trkpt lat="47.03975" lon="5.81426">
        <ele>242</ele>
        <time>2022-03-17T10:48:11.336Z</time>
      </trkpt>
      <trkpt lat="47.03976" lon="5.81421">
        <ele>242</ele>
        <time>2022-03-17T10:48:21.357Z</time>
      </trkpt>
      <trkpt lat="47.03975" lon="5.81414">
        <ele>242</ele>
        <time>2022-03-17T10:48:26.326Z</time>
      </trkpt>
      <trkpt lat="47.03974" lon="5.81407">
        <ele>242</ele>
        <time>2022-03-17T10:48:31.344Z</time>
      </trkpt>
      <trkpt lat="47.03974" lon="5.81403">
        <ele>242</ele>
        <time>2022-03-17T10:48:35.351Z</time>
      </trkpt>
      <trkpt lat="47.03973" lon="5.81398">
        <ele>245</ele>
        <time>2022-03-17T10:48:39.345Z</time>
      </trkpt>
      <trkpt lat="47.03974" lon="5.81394">
        <ele>245</ele>
        <time>2022-03-17T10:48:44.354Z</time>
      </trkpt>
      <trkpt lat="47.03973" lon="5.81388">
        <ele>245</ele>
        <time>2022-03-17T10:48:49.348Z</time>
      </trkpt>
      <trkpt lat="47.03973" lon="5.81381">
        <ele>245</ele>
        <time>2022-03-17T10:48:54.378Z</time>
      </trkpt>
      <trkpt lat="47.03971" lon="5.81376">
        <ele>245</ele>
        <time>2022-03-17T10:48:59.338Z</time>
      </trkpt>
      <trkpt lat="47.03969" lon="5.81372">
        <ele>247</ele>
        <time>2022-03-17T10:49:03.361Z</time>
      </trkpt>
      <trkpt lat="47.03965" lon="5.81367">
        <ele>247</ele>
        <time>2022-03-17T10:49:08.339Z</time>
      </trkpt>
      <trkpt lat="47.03965" lon="5.81362">
        <ele>247</ele>
        <time>2022-03-17T10:49:12.357Z</time>
      </trkpt>
      <trkpt lat="47.03964" lon="5.81357">
        <ele>247</ele>
        <time>2022-03-17T10:49:16.370Z</time>
      </trkpt>
      <trkpt lat="47.03962" lon="5.81351">
        <ele>247</ele>
        <time>2022-03-17T10:49:21.358Z</time>
      </trkpt>
      <trkpt lat="47.0396" lon="5.81347">
        <ele>248</ele>
        <time>2022-03-17T10:49:25.348Z</time>
      </trkpt>
      <trkpt lat="47.03957" lon="5.81339">
        <ele>253</ele>
        <time>2022-03-17T10:49:30.352Z</time>
      </trkpt>
      <trkpt lat="47.03956" lon="5.81331">
        <ele>253</ele>
        <time>2022-03-17T10:49:35.365Z</time>
      </trkpt>
      <trkpt lat="47.03956" lon="5.81322">
        <ele>253</ele>
        <time>2022-03-17T10:49:40.371Z</time>
      </trkpt>
      <trkpt lat="47.03956" lon="5.81317">
        <ele>254</ele>
        <time>2022-03-17T10:49:45.362Z</time>
      </trkpt>
      <trkpt lat="47.03955" lon="5.81311">
        <ele>254</ele>
        <time>2022-03-17T10:49:49.394Z</time>
      </trkpt>
      <trkpt lat="47.03955" lon="5.81302">
        <ele>254</ele>
        <time>2022-03-17T10:49:54.373Z</time>
      </trkpt>
      <trkpt lat="47.03955" lon="5.81294">
        <ele>254</ele>
        <time>2022-03-17T10:49:59.360Z</time>
      </trkpt>
      <trkpt lat="47.03956" lon="5.81287">
        <ele>255</ele>
        <time>2022-03-17T10:50:04.370Z</time>
      </trkpt>
      <trkpt lat="47.03957" lon="5.81279">
        <ele>255</ele>
        <time>2022-03-17T10:50:09.365Z</time>
      </trkpt>
      <trkpt lat="47.03958" lon="5.81269">
        <ele>255</ele>
        <time>2022-03-17T10:50:14.363Z</time>
      </trkpt>
      <trkpt lat="47.03956" lon="5.81262">
        <ele>254</ele>
        <time>2022-03-17T10:50:18.353Z</time>
      </trkpt>
      <trkpt lat="47.03954" lon="5.81255">
        <ele>254</ele>
        <time>2022-03-17T10:50:23.362Z</time>
      </trkpt>
      <trkpt lat="47.03952" lon="5.81251">
        <ele>254</ele>
        <time>2022-03-17T10:50:28.376Z</time>
      </trkpt>
      <trkpt lat="47.03951" lon="5.81246">
        <ele>254</ele>
        <time>2022-03-17T10:50:33.361Z</time>
      </trkpt>
      <trkpt lat="47.03949" lon="5.81246">
        <ele>254</ele>
        <time>2022-03-17T10:50:38.344Z</time>
      </trkpt>
      <trkpt lat="47.03948" lon="5.81245">
        <ele>254</ele>
        <time>2022-03-17T10:50:43.356Z</time>
      </trkpt>
      <trkpt lat="47.0395" lon="5.81244">
        <ele>254</ele>
        <time>2022-03-17T10:50:53.307Z</time>
      </trkpt>
      <trkpt lat="47.03948" lon="5.81235">
        <ele>254</ele>
        <time>2022-03-17T10:50:57.351Z</time>
      </trkpt>
      <trkpt lat="47.03949" lon="5.81228">
        <ele>254</ele>
        <time>2022-03-17T10:51:02.304Z</time>
      </trkpt>
      <trkpt lat="47.03947" lon="5.81221">
        <ele>254</ele>
        <time>2022-03-17T10:51:06.333Z</time>
      </trkpt>
      <trkpt lat="47.03948" lon="5.81211">
        <ele>254</ele>
        <time>2022-03-17T10:51:11.354Z</time>
      </trkpt>
      <trkpt lat="47.03948" lon="5.81202">
        <ele>253</ele>
        <time>2022-03-17T10:51:16.347Z</time>
      </trkpt>
      <trkpt lat="47.03945" lon="5.81193">
        <ele>253</ele>
        <time>2022-03-17T10:51:21.367Z</time>
      </trkpt>
      <trkpt lat="47.03943" lon="5.81187">
        <ele>253</ele>
        <time>2022-03-17T10:51:25.410Z</time>
      </trkpt>
      <trkpt lat="47.0394" lon="5.81178">
        <ele>254</ele>
        <time>2022-03-17T10:51:30.359Z</time>
      </trkpt>
      <trkpt lat="47.03939" lon="5.81169">
        <ele>254</ele>
        <time>2022-03-17T10:51:35.345Z</time>
      </trkpt>
      <trkpt lat="47.03935" lon="5.81161">
        <ele>254</ele>
        <time>2022-03-17T10:51:40.351Z</time>
      </trkpt>
      <trkpt lat="47.03932" lon="5.81153">
        <ele>254</ele>
        <time>2022-03-17T10:51:45.346Z</time>
      </trkpt>
      <trkpt lat="47.03929" lon="5.81145">
        <ele>257</ele>
        <time>2022-03-17T10:51:50.341Z</time>
      </trkpt>
      <trkpt lat="47.03926" lon="5.81137">
        <ele>257</ele>
        <time>2022-03-17T10:51:55.393Z</time>
      </trkpt>
      <trkpt lat="47.03924" lon="5.81128">
        <ele>257</ele>
        <time>2022-03-17T10:52:00.416Z</time>
      </trkpt>
      <trkpt lat="47.03921" lon="5.81121">
        <ele>257</ele>
        <time>2022-03-17T10:52:05.335Z</time>
      </trkpt>
      <trkpt lat="47.03919" lon="5.81114">
        <ele>257</ele>
        <time>2022-03-17T10:52:10.360Z</time>
      </trkpt>
      <trkpt lat="47.03916" lon="5.81107">
        <ele>257</ele>
        <time>2022-03-17T10:52:15.346Z</time>
      </trkpt>
      <trkpt lat="47.03914" lon="5.81103">
        <ele>257</ele>
        <time>2022-03-17T10:52:19.393Z</time>
      </trkpt>
      <trkpt lat="47.03913" lon="5.81097">
        <ele>259</ele>
        <time>2022-03-17T10:52:24.342Z</time>
      </trkpt>
      <trkpt lat="47.03913" lon="5.81092">
        <ele>259</ele>
        <time>2022-03-17T10:52:29.355Z</time>
      </trkpt>
      <trkpt lat="47.03911" lon="5.81084">
        <ele>259</ele>
        <time>2022-03-17T10:52:34.358Z</time>
      </trkpt>
      <trkpt lat="47.03909" lon="5.81079">
        <ele>259</ele>
        <time>2022-03-17T10:52:39.341Z</time>
      </trkpt>
      <trkpt lat="47.03907" lon="5.81072">
        <ele>259</ele>
        <time>2022-03-17T10:52:44.374Z</time>
      </trkpt>
      <trkpt lat="47.03906" lon="5.81066">
        <ele>261</ele>
        <time>2022-03-17T10:52:49.356Z</time>
      </trkpt>
      <trkpt lat="47.03904" lon="5.8106">
        <ele>261</ele>
        <time>2022-03-17T10:52:54.354Z</time>
      </trkpt>
      <trkpt lat="47.03902" lon="5.81055">
        <ele>262</ele>
        <time>2022-03-17T10:52:59.349Z</time>
      </trkpt>
      <trkpt lat="47.039" lon="5.81048">
        <ele>262</ele>
        <time>2022-03-17T10:53:04.318Z</time>
      </trkpt>
      <trkpt lat="47.03898" lon="5.81044">
        <ele>262</ele>
        <time>2022-03-17T10:53:08.364Z</time>
      </trkpt>
      <trkpt lat="47.03895" lon="5.81043">
        <ele>262</ele>
        <time>2022-03-17T10:53:12.392Z</time>
      </trkpt>
      <trkpt lat="47.03893" lon="5.8104">
        <ele>265</ele>
        <time>2022-03-17T10:53:17.382Z</time>
      </trkpt>
      <trkpt lat="47.0389" lon="5.81036">
        <ele>265</ele>
        <time>2022-03-17T10:53:21.369Z</time>
      </trkpt>
      <trkpt lat="47.03887" lon="5.81035">
        <ele>265</ele>
        <time>2022-03-17T10:53:26.319Z</time>
      </trkpt>
      <trkpt lat="47.03885" lon="5.81035">
        <ele>265</ele>
        <time>2022-03-17T10:53:30.413Z</time>
      </trkpt>
      <trkpt lat="47.0388" lon="5.81033">
        <ele>265</ele>
        <time>2022-03-17T10:53:35.378Z</time>
      </trkpt>
      <trkpt lat="47.03878" lon="5.81031">
        <ele>265</ele>
        <time>2022-03-17T10:53:40.363Z</time>
      </trkpt>
      <trkpt lat="47.03875" lon="5.81029">
        <ele>265</ele>
        <time>2022-03-17T10:53:45.373Z</time>
      </trkpt>
      <trkpt lat="47.03873" lon="5.81025">
        <ele>267</ele>
        <time>2022-03-17T10:53:50.401Z</time>
      </trkpt>
      <trkpt lat="47.03871" lon="5.81023">
        <ele>267</ele>
        <time>2022-03-17T10:53:55.371Z</time>
      </trkpt>
      <trkpt lat="47.03869" lon="5.81021">
        <ele>267</ele>
        <time>2022-03-17T10:54:00.371Z</time>
      </trkpt>
      <trkpt lat="47.03867" lon="5.81019">
        <ele>267</ele>
        <time>2022-03-17T10:54:04.360Z</time>
      </trkpt>
      <trkpt lat="47.03864" lon="5.81016">
        <ele>267</ele>
        <time>2022-03-17T10:54:09.337Z</time>
      </trkpt>
      <trkpt lat="47.03863" lon="5.81015">
        <ele>267</ele>
        <time>2022-03-17T10:54:13.395Z</time>
      </trkpt>
      <trkpt lat="47.0386" lon="5.81013">
        <ele>270</ele>
        <time>2022-03-17T10:54:17.398Z</time>
      </trkpt>
      <trkpt lat="47.03857" lon="5.8101">
        <ele>270</ele>
        <time>2022-03-17T10:54:22.368Z</time>
      </trkpt>
      <trkpt lat="47.03852" lon="5.81008">
        <ele>270</ele>
        <time>2022-03-17T10:54:27.391Z</time>
      </trkpt>
      <trkpt lat="47.03848" lon="5.81006">
        <ele>270</ele>
        <time>2022-03-17T10:54:32.348Z</time>
      </trkpt>
      <trkpt lat="47.03845" lon="5.81004">
        <ele>276</ele>
        <time>2022-03-17T10:54:37.392Z</time>
      </trkpt>
      <trkpt lat="47.03842" lon="5.81002">
        <ele>276</ele>
        <time>2022-03-17T10:54:42.374Z</time>
      </trkpt>
      <trkpt lat="47.0384" lon="5.80999">
        <ele>276</ele>
        <time>2022-03-17T10:54:47.354Z</time>
      </trkpt>
      <trkpt lat="47.03837" lon="5.80996">
        <ele>276</ele>
        <time>2022-03-17T10:54:51.394Z</time>
      </trkpt>
      <trkpt lat="47.03836" lon="5.80996">
        <ele>276</ele>
        <time>2022-03-17T10:54:56.342Z</time>
      </trkpt>
      <trkpt lat="47.03834" lon="5.80995">
        <ele>276</ele>
        <time>2022-03-17T10:55:00.399Z</time>
      </trkpt>
      <trkpt lat="47.03831" lon="5.80995">
        <ele>276</ele>
        <time>2022-03-17T10:55:05.334Z</time>
      </trkpt>
      <trkpt lat="47.03827" lon="5.8099">
        <ele>276</ele>
        <time>2022-03-17T10:55:09.365Z</time>
      </trkpt>
      <trkpt lat="47.03824" lon="5.80987">
        <ele>276</ele>
        <time>2022-03-17T10:55:18.359Z</time>
      </trkpt>
      <trkpt lat="47.03822" lon="5.80986">
        <ele>277</ele>
        <time>2022-03-17T10:55:22.369Z</time>
      </trkpt>
      <trkpt lat="47.03822" lon="5.80986">
        <ele>277</ele>
        <time>2022-03-17T10:55:27.341Z</time>
      </trkpt>
      <trkpt lat="47.03819" lon="5.80982">
        <ele>285</ele>
        <time>2022-03-17T10:55:32.363Z</time>
      </trkpt>
      <trkpt lat="47.03816" lon="5.80983">
        <ele>285</ele>
        <time>2022-03-17T10:55:37.371Z</time>
      </trkpt>
      <trkpt lat="47.03815" lon="5.8098">
        <ele>285</ele>
        <time>2022-03-17T10:55:42.372Z</time>
      </trkpt>
      <trkpt lat="47.03813" lon="5.80981">
        <ele>285</ele>
        <time>2022-03-17T10:55:46.388Z</time>
      </trkpt>
      <trkpt lat="47.03809" lon="5.8098">
        <ele>285</ele>
        <time>2022-03-17T10:55:51.381Z</time>
      </trkpt>
      <trkpt lat="47.03806" lon="5.80979">
        <ele>285</ele>
        <time>2022-03-17T10:55:55.375Z</time>
      </trkpt>
      <trkpt lat="47.03803" lon="5.80978">
        <ele>285</ele>
        <time>2022-03-17T10:56:00.364Z</time>
      </trkpt>
      <trkpt lat="47.03799" lon="5.80975">
        <ele>285</ele>
        <time>2022-03-17T10:56:04.395Z</time>
      </trkpt>
      <trkpt lat="47.03797" lon="5.80975">
        <ele>285</ele>
        <time>2022-03-17T10:56:09.358Z</time>
      </trkpt>
      <trkpt lat="47.03792" lon="5.80974">
        <ele>285</ele>
        <time>2022-03-17T10:56:14.392Z</time>
      </trkpt>
      <trkpt lat="47.03789" lon="5.80972">
        <ele>293</ele>
        <time>2022-03-17T10:56:19.352Z</time>
      </trkpt>
      <trkpt lat="47.03785" lon="5.80969">
        <ele>293</ele>
        <time>2022-03-17T10:56:24.296Z</time>
      </trkpt>
      <trkpt lat="47.0378" lon="5.80968">
        <ele>293</ele>
        <time>2022-03-17T10:56:28.336Z</time>
      </trkpt>
      <trkpt lat="47.03776" lon="5.80967">
        <ele>293</ele>
        <time>2022-03-17T10:56:33.362Z</time>
      </trkpt>
      <trkpt lat="47.0377" lon="5.80966">
        <ele>293</ele>
        <time>2022-03-17T10:56:38.343Z</time>
      </trkpt>
      <trkpt lat="47.03765" lon="5.80964">
        <ele>293</ele>
        <time>2022-03-17T10:56:43.340Z</time>
      </trkpt>
      <trkpt lat="47.03761" lon="5.80962">
        <ele>299</ele>
        <time>2022-03-17T10:56:48.358Z</time>
      </trkpt>
      <trkpt lat="47.03756" lon="5.80959">
        <ele>299</ele>
        <time>2022-03-17T10:56:53.377Z</time>
      </trkpt>
      <trkpt lat="47.03752" lon="5.80957">
        <ele>296</ele>
        <time>2022-03-17T10:56:58.362Z</time>
      </trkpt>
      <trkpt lat="47.03747" lon="5.80955">
        <ele>296</ele>
        <time>2022-03-17T10:57:03.339Z</time>
      </trkpt>
      <trkpt lat="47.03744" lon="5.80951">
        <ele>296</ele>
        <time>2022-03-17T10:57:08.390Z</time>
      </trkpt>
      <trkpt lat="47.03742" lon="5.80949">
        <ele>296</ele>
        <time>2022-03-17T10:57:13.348Z</time>
      </trkpt>
      <trkpt lat="47.03739" lon="5.80943">
        <ele>296</ele>
        <time>2022-03-17T10:57:18.325Z</time>
      </trkpt>
      <trkpt lat="47.03736" lon="5.80938">
        <ele>300</ele>
        <time>2022-03-17T10:57:23.333Z</time>
      </trkpt>
      <trkpt lat="47.03731" lon="5.80936">
        <ele>300</ele>
        <time>2022-03-17T10:57:28.350Z</time>
      </trkpt>
      <trkpt lat="47.03727" lon="5.80932">
        <ele>300</ele>
        <time>2022-03-17T10:57:33.312Z</time>
      </trkpt>
      <trkpt lat="47.03723" lon="5.80924">
        <ele>296</ele>
        <time>2022-03-17T10:57:38.289Z</time>
      </trkpt>
      <trkpt lat="47.03722" lon="5.80921">
        <ele>296</ele>
        <time>2022-03-17T10:57:42.329Z</time>
      </trkpt>
      <trkpt lat="47.0372" lon="5.80918">
        <ele>296</ele>
        <time>2022-03-17T10:57:46.360Z</time>
      </trkpt>
      <trkpt lat="47.03716" lon="5.80914">
        <ele>296</ele>
        <time>2022-03-17T10:57:51.348Z</time>
      </trkpt>
      <trkpt lat="47.03713" lon="5.80911">
        <ele>296</ele>
        <time>2022-03-17T10:57:55.374Z</time>
      </trkpt>
      <trkpt lat="47.03709" lon="5.80909">
        <ele>296</ele>
        <time>2022-03-17T10:58:00.366Z</time>
      </trkpt>
      <trkpt lat="47.03706" lon="5.80904">
        <ele>301</ele>
        <time>2022-03-17T10:58:05.376Z</time>
      </trkpt>
      <trkpt lat="47.03702" lon="5.80899">
        <ele>297</ele>
        <time>2022-03-17T10:58:10.353Z</time>
      </trkpt>
      <trkpt lat="47.037" lon="5.80897">
        <ele>297</ele>
        <time>2022-03-17T10:58:15.348Z</time>
      </trkpt>
      <trkpt lat="47.03697" lon="5.80894">
        <ele>297</ele>
        <time>2022-03-17T10:58:19.392Z</time>
      </trkpt>
      <trkpt lat="47.03694" lon="5.80891">
        <ele>297</ele>
        <time>2022-03-17T10:58:24.372Z</time>
      </trkpt>
      <trkpt lat="47.03691" lon="5.80889">
        <ele>297</ele>
        <time>2022-03-17T10:58:29.379Z</time>
      </trkpt>
      <trkpt lat="47.03688" lon="5.80887">
        <ele>297</ele>
        <time>2022-03-17T10:58:34.353Z</time>
      </trkpt>
      <trkpt lat="47.03682" lon="5.80886">
        <ele>297</ele>
        <time>2022-03-17T10:58:39.398Z</time>
      </trkpt>
      <trkpt lat="47.03678" lon="5.80884">
        <ele>303</ele>
        <time>2022-03-17T10:58:43.377Z</time>
      </trkpt>
      <trkpt lat="47.03675" lon="5.80881">
        <ele>303</ele>
        <time>2022-03-17T10:58:48.380Z</time>
      </trkpt>
      <trkpt lat="47.03672" lon="5.80876">
        <ele>303</ele>
        <time>2022-03-17T10:58:53.336Z</time>
      </trkpt>
      <trkpt lat="47.03669" lon="5.80872">
        <ele>299</ele>
        <time>2022-03-17T10:58:58.348Z</time>
      </trkpt>
      <trkpt lat="47.03664" lon="5.80868">
        <ele>299</ele>
        <time>2022-03-17T10:59:02.370Z</time>
      </trkpt>
      <trkpt lat="47.03661" lon="5.80863">
        <ele>299</ele>
        <time>2022-03-17T10:59:07.350Z</time>
      </trkpt>
      <trkpt lat="47.03659" lon="5.80856">
        <ele>299</ele>
        <time>2022-03-17T10:59:12.357Z</time>
      </trkpt>
      <trkpt lat="47.03654" lon="5.8085">
        <ele>299</ele>
        <time>2022-03-17T10:59:17.353Z</time>
      </trkpt>
      <trkpt lat="47.03651" lon="5.80846">
        <ele>299</ele>
        <time>2022-03-17T10:59:22.368Z</time>
      </trkpt>
      <trkpt lat="47.03647" lon="5.8084">
        <ele>299</ele>
        <time>2022-03-17T10:59:27.349Z</time>
      </trkpt>
      <trkpt lat="47.03642" lon="5.80836">
        <ele>299</ele>
        <time>2022-03-17T10:59:32.365Z</time>
      </trkpt>
      <trkpt lat="47.03636" lon="5.80834">
        <ele>299</ele>
        <time>2022-03-17T10:59:37.322Z</time>
      </trkpt>
      <trkpt lat="47.03631" lon="5.8083">
        <ele>299</ele>
        <time>2022-03-17T10:59:42.355Z</time>
      </trkpt>
      <trkpt lat="47.03625" lon="5.80826">
        <ele>302</ele>
        <time>2022-03-17T10:59:47.280Z</time>
      </trkpt>
      <trkpt lat="47.03621" lon="5.80824">
        <ele>302</ele>
        <time>2022-03-17T10:59:51.347Z</time>
      </trkpt>
      <trkpt lat="47.03616" lon="5.80821">
        <ele>302</ele>
        <time>2022-03-17T10:59:56.337Z</time>
      </trkpt>
      <trkpt lat="47.03611" lon="5.80816">
        <ele>296</ele>
        <time>2022-03-17T11:00:01.300Z</time>
      </trkpt>
      <trkpt lat="47.03607" lon="5.8081">
        <ele>296</ele>
        <time>2022-03-17T11:00:06.344Z</time>
      </trkpt>
      <trkpt lat="47.03602" lon="5.80803">
        <ele>296</ele>
        <time>2022-03-17T11:00:11.426Z</time>
      </trkpt>
      <trkpt lat="47.03597" lon="5.80799">
        <ele>301</ele>
        <time>2022-03-17T11:00:16.335Z</time>
      </trkpt>
      <trkpt lat="47.03593" lon="5.80794">
        <ele>301</ele>
        <time>2022-03-17T11:00:21.388Z</time>
      </trkpt>
      <trkpt lat="47.03587" lon="5.8079">
        <ele>296</ele>
        <time>2022-03-17T11:00:26.319Z</time>
      </trkpt>
      <trkpt lat="47.03583" lon="5.80785">
        <ele>296</ele>
        <time>2022-03-17T11:00:30.361Z</time>
      </trkpt>
      <trkpt lat="47.03579" lon="5.80781">
        <ele>296</ele>
        <time>2022-03-17T11:00:35.377Z</time>
      </trkpt>
      <trkpt lat="47.03575" lon="5.80777">
        <ele>296</ele>
        <time>2022-03-17T11:00:40.393Z</time>
      </trkpt>
      <trkpt lat="47.03575" lon="5.80777">
        <ele>296</ele>
        <time>2022-03-17T11:00:45.367Z</time>
      </trkpt>
      <trkpt lat="47.03573" lon="5.80775">
        <ele>296</ele>
        <time>2022-03-17T11:01:33.376Z</time>
      </trkpt>
      <trkpt lat="47.03571" lon="5.80772">
        <ele>296</ele>
        <time>2022-03-17T11:01:52.370Z</time>
      </trkpt>
      <trkpt lat="47.03571" lon="5.80771">
        <ele>296</ele>
        <time>2022-03-17T11:01:57.349Z</time>
      </trkpt>
      <trkpt lat="47.03567" lon="5.80766">
        <ele>299</ele>
        <time>2022-03-17T11:02:07.351Z</time>
      </trkpt>
      <trkpt lat="47.03564" lon="5.80761">
        <ele>295</ele>
        <time>2022-03-17T11:02:12.298Z</time>
      </trkpt>
      <trkpt lat="47.0356" lon="5.80758">
        <ele>295</ele>
        <time>2022-03-17T11:02:16.331Z</time>
      </trkpt>
      <trkpt lat="47.03557" lon="5.80753">
        <ele>295</ele>
        <time>2022-03-17T11:02:21.348Z</time>
      </trkpt>
      <trkpt lat="47.03553" lon="5.80749">
        <ele>295</ele>
        <time>2022-03-17T11:02:26.353Z</time>
      </trkpt>
      <trkpt lat="47.0355" lon="5.80746">
        <ele>295</ele>
        <time>2022-03-17T11:02:31.344Z</time>
      </trkpt>
      <trkpt lat="47.03546" lon="5.80742">
        <ele>295</ele>
        <time>2022-03-17T11:02:36.333Z</time>
      </trkpt>
      <trkpt lat="47.03542" lon="5.8074">
        <ele>295</ele>
        <time>2022-03-17T11:02:41.372Z</time>
      </trkpt>
      <trkpt lat="47.0354" lon="5.80738">
        <ele>298</ele>
        <time>2022-03-17T11:02:45.371Z</time>
      </trkpt>
      <trkpt lat="47.03538" lon="5.80737">
        <ele>298</ele>
        <time>2022-03-17T11:02:50.271Z</time>
      </trkpt>
      <trkpt lat="47.03535" lon="5.80733">
        <ele>293</ele>
        <time>2022-03-17T11:02:55.349Z</time>
      </trkpt>
      <trkpt lat="47.0353" lon="5.80729">
        <ele>293</ele>
        <time>2022-03-17T11:03:00.284Z</time>
      </trkpt>
      <trkpt lat="47.03527" lon="5.80726">
        <ele>293</ele>
        <time>2022-03-17T11:03:04.388Z</time>
      </trkpt>
      <trkpt lat="47.03524" lon="5.80725">
        <ele>293</ele>
        <time>2022-03-17T11:03:09.308Z</time>
      </trkpt>
      <trkpt lat="47.03521" lon="5.80721">
        <ele>293</ele>
        <time>2022-03-17T11:03:13.320Z</time>
      </trkpt>
      <trkpt lat="47.03517" lon="5.80718">
        <ele>293</ele>
        <time>2022-03-17T11:03:18.356Z</time>
      </trkpt>
      <trkpt lat="47.03513" lon="5.80714">
        <ele>297</ele>
        <time>2022-03-17T11:03:23.356Z</time>
      </trkpt>
      <trkpt lat="47.03507" lon="5.8071">
        <ele>297</ele>
        <time>2022-03-17T11:03:28.369Z</time>
      </trkpt>
      <trkpt lat="47.03501" lon="5.80705">
        <ele>292</ele>
        <time>2022-03-17T11:03:33.356Z</time>
      </trkpt>
      <trkpt lat="47.03498" lon="5.80703">
        <ele>292</ele>
        <time>2022-03-17T11:03:38.325Z</time>
      </trkpt>
      <trkpt lat="47.03494" lon="5.80699">
        <ele>292</ele>
        <time>2022-03-17T11:03:43.278Z</time>
      </trkpt>
      <trkpt lat="47.03491" lon="5.80697">
        <ele>292</ele>
        <time>2022-03-17T11:03:47.376Z</time>
      </trkpt>
      <trkpt lat="47.03488" lon="5.80693">
        <ele>292</ele>
        <time>2022-03-17T11:03:51.395Z</time>
      </trkpt>
      <trkpt lat="47.03484" lon="5.80688">
        <ele>297</ele>
        <time>2022-03-17T11:03:56.305Z</time>
      </trkpt>
      <trkpt lat="47.03481" lon="5.80681">
        <ele>297</ele>
        <time>2022-03-17T11:04:01.302Z</time>
      </trkpt>
      <trkpt lat="47.03478" lon="5.80678">
        <ele>292</ele>
        <time>2022-03-17T11:04:06.321Z</time>
      </trkpt>
      <trkpt lat="47.03475" lon="5.80674">
        <ele>292</ele>
        <time>2022-03-17T11:04:10.331Z</time>
      </trkpt>
      <trkpt lat="47.0347" lon="5.8067">
        <ele>292</ele>
        <time>2022-03-17T11:04:15.335Z</time>
      </trkpt>
      <trkpt lat="47.03467" lon="5.80665">
        <ele>292</ele>
        <time>2022-03-17T11:04:19.334Z</time>
      </trkpt>
      <trkpt lat="47.03463" lon="5.8066">
        <ele>292</ele>
        <time>2022-03-17T11:04:24.375Z</time>
      </trkpt>
      <trkpt lat="47.03458" lon="5.80657">
        <ele>292</ele>
        <time>2022-03-17T11:04:29.323Z</time>
      </trkpt>
      <trkpt lat="47.03454" lon="5.80653">
        <ele>292</ele>
        <time>2022-03-17T11:04:34.378Z</time>
      </trkpt>
      <trkpt lat="47.0345" lon="5.80648">
        <ele>292</ele>
        <time>2022-03-17T11:04:38.354Z</time>
      </trkpt>
      <trkpt lat="47.03444" lon="5.80644">
        <ele>292</ele>
        <time>2022-03-17T11:04:43.318Z</time>
      </trkpt>
      <trkpt lat="47.03439" lon="5.80641">
        <ele>292</ele>
        <time>2022-03-17T11:04:48.315Z</time>
      </trkpt>
      <trkpt lat="47.03436" lon="5.80637">
        <ele>292</ele>
        <time>2022-03-17T11:04:52.390Z</time>
      </trkpt>
      <trkpt lat="47.03431" lon="5.80633">
        <ele>292</ele>
        <time>2022-03-17T11:04:57.350Z</time>
      </trkpt>
      <trkpt lat="47.03425" lon="5.80628">
        <ele>294</ele>
        <time>2022-03-17T11:05:02.333Z</time>
      </trkpt>
      <trkpt lat="47.0342" lon="5.80624">
        <ele>290</ele>
        <time>2022-03-17T11:05:07.331Z</time>
      </trkpt>
      <trkpt lat="47.03416" lon="5.8062">
        <ele>290</ele>
        <time>2022-03-17T11:05:12.342Z</time>
      </trkpt>
      <trkpt lat="47.03411" lon="5.80616">
        <ele>290</ele>
        <time>2022-03-17T11:05:17.410Z</time>
      </trkpt>
      <trkpt lat="47.03407" lon="5.80612">
        <ele>290</ele>
        <time>2022-03-17T11:05:22.403Z</time>
      </trkpt>
      <trkpt lat="47.03403" lon="5.80608">
        <ele>290</ele>
        <time>2022-03-17T11:05:27.304Z</time>
      </trkpt>
      <trkpt lat="47.03399" lon="5.80605">
        <ele>293</ele>
        <time>2022-03-17T11:05:31.333Z</time>
      </trkpt>
      <trkpt lat="47.03394" lon="5.80602">
        <ele>293</ele>
        <time>2022-03-17T11:05:36.436Z</time>
      </trkpt>
      <trkpt lat="47.03388" lon="5.80602">
        <ele>293</ele>
        <time>2022-03-17T11:05:41.335Z</time>
      </trkpt>
      <trkpt lat="47.03385" lon="5.80601">
        <ele>293</ele>
        <time>2022-03-17T11:05:45.352Z</time>
      </trkpt>
      <trkpt lat="47.03381" lon="5.80599">
        <ele>293</ele>
        <time>2022-03-17T11:05:49.367Z</time>
      </trkpt>
      <trkpt lat="47.03375" lon="5.80599">
        <ele>293</ele>
        <time>2022-03-17T11:05:54.354Z</time>
      </trkpt>
      <trkpt lat="47.03371" lon="5.80599">
        <ele>296</ele>
        <time>2022-03-17T11:05:58.362Z</time>
      </trkpt>
      <trkpt lat="47.03366" lon="5.806">
        <ele>296</ele>
        <time>2022-03-17T11:06:03.311Z</time>
      </trkpt>
      <trkpt lat="47.03361" lon="5.80601">
        <ele>296</ele>
        <time>2022-03-17T11:06:08.380Z</time>
      </trkpt>
      <trkpt lat="47.03356" lon="5.80601">
        <ele>296</ele>
        <time>2022-03-17T11:06:13.323Z</time>
      </trkpt>
      <trkpt lat="47.03352" lon="5.806">
        <ele>296</ele>
        <time>2022-03-17T11:06:17.359Z</time>
      </trkpt>
      <trkpt lat="47.03347" lon="5.80601">
        <ele>296</ele>
        <time>2022-03-17T11:06:22.376Z</time>
      </trkpt>
      <trkpt lat="47.03342" lon="5.80601">
        <ele>300</ele>
        <time>2022-03-17T11:06:27.359Z</time>
      </trkpt>
      <trkpt lat="47.03335" lon="5.806">
        <ele>300</ele>
        <time>2022-03-17T11:06:32.373Z</time>
      </trkpt>
      <trkpt lat="47.03329" lon="5.80599">
        <ele>300</ele>
        <time>2022-03-17T11:06:37.360Z</time>
      </trkpt>
      <trkpt lat="47.03323" lon="5.80597">
        <ele>296</ele>
        <time>2022-03-17T11:06:42.395Z</time>
      </trkpt>
      <trkpt lat="47.03318" lon="5.80595">
        <ele>297</ele>
        <time>2022-03-17T11:06:47.336Z</time>
      </trkpt>
      <trkpt lat="47.03312" lon="5.80593">
        <ele>297</ele>
        <time>2022-03-17T11:06:52.319Z</time>
      </trkpt>
      <trkpt lat="47.03308" lon="5.80591">
        <ele>297</ele>
        <time>2022-03-17T11:06:56.365Z</time>
      </trkpt>
      <trkpt lat="47.03302" lon="5.8059">
        <ele>297</ele>
        <time>2022-03-17T11:07:01.309Z</time>
      </trkpt>
      <trkpt lat="47.03296" lon="5.80589">
        <ele>297</ele>
        <time>2022-03-17T11:07:06.375Z</time>
      </trkpt>
      <trkpt lat="47.0329" lon="5.80587">
        <ele>301</ele>
        <time>2022-03-17T11:07:11.318Z</time>
      </trkpt>
      <trkpt lat="47.03286" lon="5.80588">
        <ele>301</ele>
        <time>2022-03-17T11:07:15.346Z</time>
      </trkpt>
      <trkpt lat="47.03281" lon="5.80586">
        <ele>301</ele>
        <time>2022-03-17T11:07:20.402Z</time>
      </trkpt>
      <trkpt lat="47.03276" lon="5.80586">
        <ele>301</ele>
        <time>2022-03-17T11:07:25.339Z</time>
      </trkpt>
      <trkpt lat="47.03271" lon="5.80586">
        <ele>301</ele>
        <time>2022-03-17T11:07:30.364Z</time>
      </trkpt>
      <trkpt lat="47.03266" lon="5.80586">
        <ele>301</ele>
        <time>2022-03-17T11:07:35.288Z</time>
      </trkpt>
      <trkpt lat="47.03261" lon="5.80586">
        <ele>303</ele>
        <time>2022-03-17T11:07:39.340Z</time>
      </trkpt>
      <trkpt lat="47.03256" lon="5.80585">
        <ele>303</ele>
        <time>2022-03-17T11:07:44.341Z</time>
      </trkpt>
      <trkpt lat="47.03251" lon="5.80585">
        <ele>303</ele>
        <time>2022-03-17T11:07:48.348Z</time>
      </trkpt>
      <trkpt lat="47.03246" lon="5.80586">
        <ele>303</ele>
        <time>2022-03-17T11:07:53.347Z</time>
      </trkpt>
      <trkpt lat="47.0324" lon="5.80586">
        <ele>303</ele>
        <time>2022-03-17T11:07:58.349Z</time>
      </trkpt>
      <trkpt lat="47.03236" lon="5.80588">
        <ele>303</ele>
        <time>2022-03-17T11:08:03.344Z</time>
      </trkpt>
      <trkpt lat="47.03232" lon="5.8059">
        <ele>303</ele>
        <time>2022-03-17T11:08:07.329Z</time>
      </trkpt>
      <trkpt lat="47.03227" lon="5.80589">
        <ele>303</ele>
        <time>2022-03-17T11:08:12.415Z</time>
      </trkpt>
      <trkpt lat="47.03221" lon="5.80588">
        <ele>303</ele>
        <time>2022-03-17T11:08:17.332Z</time>
      </trkpt>
      <trkpt lat="47.03215" lon="5.80587">
        <ele>303</ele>
        <time>2022-03-17T11:08:22.349Z</time>
      </trkpt>
      <trkpt lat="47.03209" lon="5.80586">
        <ele>303</ele>
        <time>2022-03-17T11:08:27.316Z</time>
      </trkpt>
      <trkpt lat="47.03203" lon="5.80585">
        <ele>306</ele>
        <time>2022-03-17T11:08:32.379Z</time>
      </trkpt>
      <trkpt lat="47.03198" lon="5.80581">
        <ele>306</ele>
        <time>2022-03-17T11:08:37.339Z</time>
      </trkpt>
      <trkpt lat="47.03191" lon="5.80578">
        <ele>306</ele>
        <time>2022-03-17T11:08:42.350Z</time>
      </trkpt>
      <trkpt lat="47.03188" lon="5.80575">
        <ele>306</ele>
        <time>2022-03-17T11:08:47.343Z</time>
      </trkpt>
      <trkpt lat="47.03183" lon="5.80571">
        <ele>306</ele>
        <time>2022-03-17T11:08:52.362Z</time>
      </trkpt>
      <trkpt lat="47.03178" lon="5.80567">
        <ele>305</ele>
        <time>2022-03-17T11:08:57.347Z</time>
      </trkpt>
      <trkpt lat="47.03173" lon="5.80564">
        <ele>305</ele>
        <time>2022-03-17T11:09:01.352Z</time>
      </trkpt>
      <trkpt lat="47.03168" lon="5.80558">
        <ele>305</ele>
        <time>2022-03-17T11:09:06.382Z</time>
      </trkpt>
      <trkpt lat="47.03162" lon="5.80555">
        <ele>305</ele>
        <time>2022-03-17T11:09:11.327Z</time>
      </trkpt>
      <trkpt lat="47.03156" lon="5.8055">
        <ele>305</ele>
        <time>2022-03-17T11:09:16.312Z</time>
      </trkpt>
      <trkpt lat="47.03152" lon="5.80546">
        <ele>309</ele>
        <time>2022-03-17T11:09:20.356Z</time>
      </trkpt>
      <trkpt lat="47.03148" lon="5.80541">
        <ele>305</ele>
        <time>2022-03-17T11:09:24.393Z</time>
      </trkpt>
      <trkpt lat="47.03143" lon="5.80537">
        <ele>305</ele>
        <time>2022-03-17T11:09:29.328Z</time>
      </trkpt>
      <trkpt lat="47.03137" lon="5.80533">
        <ele>305</ele>
        <time>2022-03-17T11:09:34.392Z</time>
      </trkpt>
      <trkpt lat="47.03131" lon="5.80527">
        <ele>305</ele>
        <time>2022-03-17T11:09:39.355Z</time>
      </trkpt>
      <trkpt lat="47.03125" lon="5.80521">
        <ele>305</ele>
        <time>2022-03-17T11:09:44.344Z</time>
      </trkpt>
      <trkpt lat="47.0312" lon="5.80518">
        <ele>307</ele>
        <time>2022-03-17T11:09:49.323Z</time>
      </trkpt>
      <trkpt lat="47.03115" lon="5.80515">
        <ele>307</ele>
        <time>2022-03-17T11:09:53.325Z</time>
      </trkpt>
      <trkpt lat="47.03109" lon="5.80512">
        <ele>303</ele>
        <time>2022-03-17T11:09:58.354Z</time>
      </trkpt>
      <trkpt lat="47.03105" lon="5.80509">
        <ele>303</ele>
        <time>2022-03-17T11:10:03.319Z</time>
      </trkpt>
      <trkpt lat="47.03102" lon="5.80506">
        <ele>303</ele>
        <time>2022-03-17T11:10:07.316Z</time>
      </trkpt>
      <trkpt lat="47.03097" lon="5.80502">
        <ele>306</ele>
        <time>2022-03-17T11:10:11.323Z</time>
      </trkpt>
      <trkpt lat="47.03091" lon="5.80497">
        <ele>306</ele>
        <time>2022-03-17T11:10:16.378Z</time>
      </trkpt>
      <trkpt lat="47.03085" lon="5.80495">
        <ele>306</ele>
        <time>2022-03-17T11:10:21.327Z</time>
      </trkpt>
      <trkpt lat="47.0308" lon="5.80492">
        <ele>306</ele>
        <time>2022-03-17T11:10:26.363Z</time>
      </trkpt>
      <trkpt lat="47.03074" lon="5.80492">
        <ele>306</ele>
        <time>2022-03-17T11:10:30.382Z</time>
      </trkpt>
      <trkpt lat="47.03069" lon="5.80491">
        <ele>308</ele>
        <time>2022-03-17T11:10:35.304Z</time>
      </trkpt>
      <trkpt lat="47.03065" lon="5.8049">
        <ele>308</ele>
        <time>2022-03-17T11:10:40.356Z</time>
      </trkpt>
      <trkpt lat="47.0306" lon="5.80488">
        <ele>308</ele>
        <time>2022-03-17T11:10:44.391Z</time>
      </trkpt>
      <trkpt lat="47.03053" lon="5.80487">
        <ele>308</ele>
        <time>2022-03-17T11:10:49.330Z</time>
      </trkpt>
      <trkpt lat="47.03049" lon="5.80486">
        <ele>308</ele>
        <time>2022-03-17T11:10:54.370Z</time>
      </trkpt>
      <trkpt lat="47.03043" lon="5.80484">
        <ele>304</ele>
        <time>2022-03-17T11:10:59.327Z</time>
      </trkpt>
      <trkpt lat="47.03037" lon="5.80483">
        <ele>305</ele>
        <time>2022-03-17T11:11:04.386Z</time>
      </trkpt>
      <trkpt lat="47.03029" lon="5.80482">
        <ele>305</ele>
        <time>2022-03-17T11:11:09.316Z</time>
      </trkpt>
      <trkpt lat="47.03023" lon="5.80482">
        <ele>305</ele>
        <time>2022-03-17T11:11:13.343Z</time>
      </trkpt>
      <trkpt lat="47.03016" lon="5.80481">
        <ele>305</ele>
        <time>2022-03-17T11:11:18.361Z</time>
      </trkpt>
      <trkpt lat="47.03008" lon="5.8048">
        <ele>305</ele>
        <time>2022-03-17T11:11:23.328Z</time>
      </trkpt>
      <trkpt lat="47.03002" lon="5.80479">
        <ele>305</ele>
        <time>2022-03-17T11:11:27.323Z</time>
      </trkpt>
      <trkpt lat="47.02995" lon="5.80478">
        <ele>305</ele>
        <time>2022-03-17T11:11:32.382Z</time>
      </trkpt>
      <trkpt lat="47.0299" lon="5.80478">
        <ele>305</ele>
        <time>2022-03-17T11:11:37.319Z</time>
      </trkpt>
      <trkpt lat="47.02985" lon="5.80476">
        <ele>305</ele>
        <time>2022-03-17T11:11:42.373Z</time>
      </trkpt>
      <trkpt lat="47.02981" lon="5.80476">
        <ele>305</ele>
        <time>2022-03-17T11:11:46.349Z</time>
      </trkpt>
      <trkpt lat="47.02974" lon="5.80476">
        <ele>305</ele>
        <time>2022-03-17T11:11:51.301Z</time>
      </trkpt>
      <trkpt lat="47.02969" lon="5.80476">
        <ele>305</ele>
        <time>2022-03-17T11:11:55.328Z</time>
      </trkpt>
      <trkpt lat="47.02963" lon="5.80475">
        <ele>305</ele>
        <time>2022-03-17T11:12:00.384Z</time>
      </trkpt>
      <trkpt lat="47.02958" lon="5.80473">
        <ele>306</ele>
        <time>2022-03-17T11:12:05.330Z</time>
      </trkpt>
      <trkpt lat="47.02952" lon="5.8047">
        <ele>306</ele>
        <time>2022-03-17T11:12:10.379Z</time>
      </trkpt>
      <trkpt lat="47.02946" lon="5.80466">
        <ele>306</ele>
        <time>2022-03-17T11:12:15.323Z</time>
      </trkpt>
      <trkpt lat="47.02941" lon="5.80463">
        <ele>306</ele>
        <time>2022-03-17T11:12:20.354Z</time>
      </trkpt>
      <trkpt lat="47.02935" lon="5.8046">
        <ele>306</ele>
        <time>2022-03-17T11:12:25.326Z</time>
      </trkpt>
      <trkpt lat="47.0293" lon="5.80458">
        <ele>299</ele>
        <time>2022-03-17T11:12:30.380Z</time>
      </trkpt>
      <trkpt lat="47.02923" lon="5.80456">
        <ele>299</ele>
        <time>2022-03-17T11:12:35.310Z</time>
      </trkpt>
      <trkpt lat="47.02919" lon="5.80453">
        <ele>299</ele>
        <time>2022-03-17T11:12:39.342Z</time>
      </trkpt>
      <trkpt lat="47.02913" lon="5.8045">
        <ele>299</ele>
        <time>2022-03-17T11:12:44.320Z</time>
      </trkpt>
      <trkpt lat="47.02909" lon="5.80447">
        <ele>299</ele>
        <time>2022-03-17T11:12:48.381Z</time>
      </trkpt>
      <trkpt lat="47.02902" lon="5.80443">
        <ele>300</ele>
        <time>2022-03-17T11:12:53.324Z</time>
      </trkpt>
      <trkpt lat="47.02897" lon="5.80439">
        <ele>300</ele>
        <time>2022-03-17T11:12:58.379Z</time>
      </trkpt>
      <trkpt lat="47.0289" lon="5.80437">
        <ele>300</ele>
        <time>2022-03-17T11:13:03.329Z</time>
      </trkpt>
      <trkpt lat="47.02883" lon="5.80434">
        <ele>300</ele>
        <time>2022-03-17T11:13:07.340Z</time>
      </trkpt>
      <trkpt lat="47.02877" lon="5.80432">
        <ele>300</ele>
        <time>2022-03-17T11:13:12.389Z</time>
      </trkpt>
      <trkpt lat="47.0287" lon="5.80429">
        <ele>296</ele>
        <time>2022-03-17T11:13:17.314Z</time>
      </trkpt>
      <trkpt lat="47.02865" lon="5.80427">
        <ele>296</ele>
        <time>2022-03-17T11:13:21.320Z</time>
      </trkpt>
      <trkpt lat="47.0286" lon="5.80425">
        <ele>296</ele>
        <time>2022-03-17T11:13:26.351Z</time>
      </trkpt>
      <trkpt lat="47.02854" lon="5.80423">
        <ele>296</ele>
        <time>2022-03-17T11:13:31.323Z</time>
      </trkpt>
      <trkpt lat="47.02848" lon="5.8042">
        <ele>296</ele>
        <time>2022-03-17T11:13:36.345Z</time>
      </trkpt>
      <trkpt lat="47.02843" lon="5.80418">
        <ele>297</ele>
        <time>2022-03-17T11:13:40.361Z</time>
      </trkpt>
      <trkpt lat="47.02838" lon="5.80417">
        <ele>297</ele>
        <time>2022-03-17T11:13:45.325Z</time>
      </trkpt>
      <trkpt lat="47.02832" lon="5.80413">
        <ele>297</ele>
        <time>2022-03-17T11:13:50.347Z</time>
      </trkpt>
      <trkpt lat="47.02826" lon="5.80409">
        <ele>297</ele>
        <time>2022-03-17T11:13:55.354Z</time>
      </trkpt>
      <trkpt lat="47.0282" lon="5.80404">
        <ele>297</ele>
        <time>2022-03-17T11:14:00.370Z</time>
      </trkpt>
      <trkpt lat="47.02814" lon="5.80402">
        <ele>292</ele>
        <time>2022-03-17T11:14:05.333Z</time>
      </trkpt>
      <trkpt lat="47.02808" lon="5.80399">
        <ele>292</ele>
        <time>2022-03-17T11:14:10.385Z</time>
      </trkpt>
      <trkpt lat="47.02802" lon="5.80398">
        <ele>292</ele>
        <time>2022-03-17T11:14:15.352Z</time>
      </trkpt>
      <trkpt lat="47.02796" lon="5.80396">
        <ele>292</ele>
        <time>2022-03-17T11:14:20.333Z</time>
      </trkpt>
      <trkpt lat="47.02791" lon="5.80393">
        <ele>290</ele>
        <time>2022-03-17T11:14:24.378Z</time>
      </trkpt>
      <trkpt lat="47.02786" lon="5.80392">
        <ele>290</ele>
        <time>2022-03-17T11:14:28.433Z</time>
      </trkpt>
      <trkpt lat="47.02781" lon="5.80392">
        <ele>290</ele>
        <time>2022-03-17T11:14:33.340Z</time>
      </trkpt>
      <trkpt lat="47.02775" lon="5.80392">
        <ele>290</ele>
        <time>2022-03-17T11:14:38.379Z</time>
      </trkpt>
      <trkpt lat="47.0277" lon="5.80391">
        <ele>290</ele>
        <time>2022-03-17T11:14:43.348Z</time>
      </trkpt>
      <trkpt lat="47.02768" lon="5.80397">
        <ele>290</ele>
        <time>2022-03-17T11:14:48.360Z</time>
      </trkpt>
      <trkpt lat="47.02767" lon="5.80402">
        <ele>290</ele>
        <time>2022-03-17T11:14:52.398Z</time>
      </trkpt>
      <trkpt lat="47.02766" lon="5.80406">
        <ele>293</ele>
        <time>2022-03-17T11:14:57.329Z</time>
      </trkpt>
      <trkpt lat="47.02767" lon="5.80411">
        <ele>293</ele>
        <time>2022-03-17T11:15:02.312Z</time>
      </trkpt>
      <trkpt lat="47.02766" lon="5.80416">
        <ele>293</ele>
        <time>2022-03-17T11:15:07.300Z</time>
      </trkpt>
      <trkpt lat="47.02766" lon="5.80421">
        <ele>293</ele>
        <time>2022-03-17T11:15:11.329Z</time>
      </trkpt>
      <trkpt lat="47.02766" lon="5.80426">
        <ele>293</ele>
        <time>2022-03-17T11:15:16.289Z</time>
      </trkpt>
      <trkpt lat="47.02766" lon="5.80432">
        <ele>296</ele>
        <time>2022-03-17T11:15:21.299Z</time>
      </trkpt>
      <trkpt lat="47.02766" lon="5.80438">
        <ele>296</ele>
        <time>2022-03-17T11:15:26.313Z</time>
      </trkpt>
      <trkpt lat="47.02767" lon="5.80442">
        <ele>296</ele>
        <time>2022-03-17T11:15:30.358Z</time>
      </trkpt>
      <trkpt lat="47.02769" lon="5.80446">
        <ele>296</ele>
        <time>2022-03-17T11:15:35.360Z</time>
      </trkpt>
      <trkpt lat="47.02769" lon="5.80449">
        <ele>296</ele>
        <time>2022-03-17T11:15:39.387Z</time>
      </trkpt>
      <trkpt lat="47.02771" lon="5.80454">
        <ele>296</ele>
        <time>2022-03-17T11:15:44.420Z</time>
      </trkpt>
      <trkpt lat="47.02772" lon="5.80459">
        <ele>299</ele>
        <time>2022-03-17T11:15:49.331Z</time>
      </trkpt>
      <trkpt lat="47.02773" lon="5.80462">
        <ele>299</ele>
        <time>2022-03-17T11:15:53.345Z</time>
      </trkpt>
      <trkpt lat="47.02776" lon="5.80466">
        <ele>299</ele>
        <time>2022-03-17T11:15:58.318Z</time>
      </trkpt>
      <trkpt lat="47.02778" lon="5.8047">
        <ele>299</ele>
        <time>2022-03-17T11:16:03.332Z</time>
      </trkpt>
      <trkpt lat="47.02779" lon="5.80472">
        <ele>299</ele>
        <time>2022-03-17T11:16:08.406Z</time>
      </trkpt>
      <trkpt lat="47.02778" lon="5.80475">
        <ele>299</ele>
        <time>2022-03-17T11:16:13.336Z</time>
      </trkpt>
      <trkpt lat="47.02779" lon="5.80483">
        <ele>299</ele>
        <time>2022-03-17T11:16:18.275Z</time>
      </trkpt>
      <trkpt lat="47.02779" lon="5.80489">
        <ele>301</ele>
        <time>2022-03-17T11:16:23.325Z</time>
      </trkpt>
      <trkpt lat="47.02779" lon="5.80492">
        <ele>301</ele>
        <time>2022-03-17T11:16:27.360Z</time>
      </trkpt>
      <trkpt lat="47.0278" lon="5.80496">
        <ele>301</ele>
        <time>2022-03-17T11:16:32.414Z</time>
      </trkpt>
      <trkpt lat="47.02782" lon="5.80502">
        <ele>301</ele>
        <time>2022-03-17T11:16:37.324Z</time>
      </trkpt>
      <trkpt lat="47.02782" lon="5.80508">
        <ele>301</ele>
        <time>2022-03-17T11:16:42.411Z</time>
      </trkpt>
      <trkpt lat="47.02781" lon="5.80516">
        <ele>303</ele>
        <time>2022-03-17T11:16:47.345Z</time>
      </trkpt>
      <trkpt lat="47.02782" lon="5.80522">
        <ele>303</ele>
        <time>2022-03-17T11:16:52.359Z</time>
      </trkpt>
      <trkpt lat="47.02783" lon="5.80529">
        <ele>303</ele>
        <time>2022-03-17T11:16:57.333Z</time>
      </trkpt>
      <trkpt lat="47.02784" lon="5.80533">
        <ele>303</ele>
        <time>2022-03-17T11:17:02.368Z</time>
      </trkpt>
      <trkpt lat="47.02786" lon="5.80536">
        <ele>303</ele>
        <time>2022-03-17T11:17:06.392Z</time>
      </trkpt>
      <trkpt lat="47.02788" lon="5.80542">
        <ele>305</ele>
        <time>2022-03-17T11:17:11.367Z</time>
      </trkpt>
      <trkpt lat="47.02789" lon="5.80547">
        <ele>305</ele>
        <time>2022-03-17T11:17:16.356Z</time>
      </trkpt>
      <trkpt lat="47.02788" lon="5.80552">
        <ele>305</ele>
        <time>2022-03-17T11:17:20.364Z</time>
      </trkpt>
      <trkpt lat="47.0279" lon="5.80556">
        <ele>305</ele>
        <time>2022-03-17T11:17:25.340Z</time>
      </trkpt>
      <trkpt lat="47.02791" lon="5.80561">
        <ele>305</ele>
        <time>2022-03-17T11:17:29.352Z</time>
      </trkpt>
      <trkpt lat="47.02792" lon="5.80566">
        <ele>307</ele>
        <time>2022-03-17T11:17:34.357Z</time>
      </trkpt>
      <trkpt lat="47.02793" lon="5.80571">
        <ele>309</ele>
        <time>2022-03-17T11:17:39.374Z</time>
      </trkpt>
      <trkpt lat="47.02793" lon="5.80577">
        <ele>309</ele>
        <time>2022-03-17T11:17:44.357Z</time>
      </trkpt>
      <trkpt lat="47.02795" lon="5.80583">
        <ele>309</ele>
        <time>2022-03-17T11:17:49.339Z</time>
      </trkpt>
      <trkpt lat="47.02795" lon="5.80588">
        <ele>309</ele>
        <time>2022-03-17T11:17:53.337Z</time>
      </trkpt>
      <trkpt lat="47.02797" lon="5.80592">
        <ele>309</ele>
        <time>2022-03-17T11:17:58.389Z</time>
      </trkpt>
      <trkpt lat="47.02798" lon="5.80597">
        <ele>309</ele>
        <time>2022-03-17T11:18:03.349Z</time>
      </trkpt>
      <trkpt lat="47.02798" lon="5.80602">
        <ele>312</ele>
        <time>2022-03-17T11:18:08.410Z</time>
      </trkpt>
      <trkpt lat="47.02797" lon="5.80608">
        <ele>312</ele>
        <time>2022-03-17T11:18:13.344Z</time>
      </trkpt>
      <trkpt lat="47.02795" lon="5.80611">
        <ele>312</ele>
        <time>2022-03-17T11:18:37.355Z</time>
      </trkpt>
      <trkpt lat="47.02795" lon="5.80616">
        <ele>312</ele>
        <time>2022-03-17T11:18:42.325Z</time>
      </trkpt>
      <trkpt lat="47.02796" lon="5.80622">
        <ele>312</ele>
        <time>2022-03-17T11:18:46.373Z</time>
      </trkpt>
      <trkpt lat="47.02797" lon="5.80628">
        <ele>314</ele>
        <time>2022-03-17T11:18:51.347Z</time>
      </trkpt>
      <trkpt lat="47.02799" lon="5.80632">
        <ele>314</ele>
        <time>2022-03-17T11:18:55.358Z</time>
      </trkpt>
      <trkpt lat="47.02798" lon="5.80641">
        <ele>314</ele>
        <time>2022-03-17T11:19:18.350Z</time>
      </trkpt>
      <trkpt lat="47.02799" lon="5.80645">
        <ele>314</ele>
        <time>2022-03-17T11:19:23.342Z</time>
      </trkpt>
      <trkpt lat="47.02802" lon="5.80645">
        <ele>314</ele>
        <time>2022-03-17T11:19:28.391Z</time>
      </trkpt>
      <trkpt lat="47.02801" lon="5.80647">
        <ele>314</ele>
        <time>2022-03-17T11:19:33.367Z</time>
      </trkpt>
      <trkpt lat="47.028" lon="5.80647">
        <ele>314</ele>
        <time>2022-03-17T11:19:47.352Z</time>
      </trkpt>
      <trkpt lat="47.02798" lon="5.8063">
        <ele>314</ele>
        <time>2022-03-17T11:48:59.329Z</time>
      </trkpt>
      <trkpt lat="47.02796" lon="5.8063">
        <ele>314</ele>
        <time>2022-03-17T11:49:04.350Z</time>
      </trkpt>
      <trkpt lat="47.02796" lon="5.80629">
        <ele>314</ele>
        <time>2022-03-17T11:49:09.301Z</time>
      </trkpt>
      <trkpt lat="47.02794" lon="5.8063">
        <ele>314</ele>
        <time>2022-03-17T11:49:17.391Z</time>
      </trkpt>
      <trkpt lat="47.02793" lon="5.8063">
        <ele>314</ele>
        <time>2022-03-17T11:49:22.372Z</time>
      </trkpt>
      <trkpt lat="47.02793" lon="5.80629">
        <ele>314</ele>
        <time>2022-03-17T11:52:19.338Z</time>
      </trkpt>
      <trkpt lat="47.02793" lon="5.80629">
        <ele>314</ele>
        <time>2022-03-17T11:52:23.358Z</time>
      </trkpt>
      <trkpt lat="47.02795" lon="5.80626">
        <ele>314</ele>
        <time>2022-03-17T11:52:28.355Z</time>
      </trkpt>
      <trkpt lat="47.02797" lon="5.80618">
        <ele>312</ele>
        <time>2022-03-17T11:52:33.405Z</time>
      </trkpt>
      <trkpt lat="47.02799" lon="5.80615">
        <ele>312</ele>
        <time>2022-03-17T11:52:38.346Z</time>
      </trkpt>
      <trkpt lat="47.02796" lon="5.80626">
        <ele>314</ele>
        <time>2022-03-17T11:53:36.385Z</time>
      </trkpt>
      <trkpt lat="47.02797" lon="5.80632">
        <ele>314</ele>
        <time>2022-03-17T11:53:41.347Z</time>
      </trkpt>
      <trkpt lat="47.02797" lon="5.80632">
        <ele>314</ele>
        <time>2022-03-17T11:54:09.341Z</time>
      </trkpt>
      <trkpt lat="47.02797" lon="5.80633">
        <ele>314</ele>
        <time>2022-03-17T11:54:27.366Z</time>
      </trkpt>
      <trkpt lat="47.02797" lon="5.80633">
        <ele>314</ele>
        <time>2022-03-17T11:54:32.339Z</time>
      </trkpt>
      <trkpt lat="47.02797" lon="5.80635">
        <ele>314</ele>
        <time>2022-03-17T11:56:42.359Z</time>
      </trkpt>
      <trkpt lat="47.028" lon="5.8063">
        <ele>314</ele>
        <time>2022-03-17T11:57:37.381Z</time>
      </trkpt>
      <trkpt lat="47.028" lon="5.80624">
        <ele>312</ele>
        <time>2022-03-17T11:57:42.345Z</time>
      </trkpt>
      <trkpt lat="47.02798" lon="5.80618">
        <ele>312</ele>
        <time>2022-03-17T11:57:47.293Z</time>
      </trkpt>
      <trkpt lat="47.02805" lon="5.80621">
        <ele>312</ele>
        <time>2022-03-17T11:58:12.347Z</time>
      </trkpt>
      <trkpt lat="47.02806" lon="5.8062">
        <ele>312</ele>
        <time>2022-03-17T11:58:17.340Z</time>
      </trkpt>
      <trkpt lat="47.02801" lon="5.8063">
        <ele>314</ele>
        <time>2022-03-17T11:58:22.332Z</time>
      </trkpt>
      <trkpt lat="47.02799" lon="5.80635">
        <ele>314</ele>
        <time>2022-03-17T11:58:26.345Z</time>
      </trkpt>
      <trkpt lat="47.02797" lon="5.8064">
        <ele>314</ele>
        <time>2022-03-17T11:58:30.354Z</time>
      </trkpt>
      <trkpt lat="47.02795" lon="5.80644">
        <ele>314</ele>
        <time>2022-03-17T11:58:35.334Z</time>
      </trkpt>
      <trkpt lat="47.02795" lon="5.80647">
        <ele>314</ele>
        <time>2022-03-17T11:58:40.340Z</time>
      </trkpt>
      <trkpt lat="47.02793" lon="5.80644">
        <ele>314</ele>
        <time>2022-03-17T11:59:13.384Z</time>
      </trkpt>
      <trkpt lat="47.0279" lon="5.80643">
        <ele>312</ele>
        <time>2022-03-17T11:59:18.373Z</time>
      </trkpt>
      <trkpt lat="47.02784" lon="5.80641">
        <ele>312</ele>
        <time>2022-03-17T11:59:23.352Z</time>
      </trkpt>
      <trkpt lat="47.0278" lon="5.80637">
        <ele>312</ele>
        <time>2022-03-17T11:59:28.366Z</time>
      </trkpt>
      <trkpt lat="47.02777" lon="5.80633">
        <ele>312</ele>
        <time>2022-03-17T11:59:33.357Z</time>
      </trkpt>
      <trkpt lat="47.02774" lon="5.8063">
        <ele>312</ele>
        <time>2022-03-17T11:59:37.361Z</time>
      </trkpt>
      <trkpt lat="47.02769" lon="5.80628">
        <ele>312</ele>
        <time>2022-03-17T11:59:42.366Z</time>
      </trkpt>
      <trkpt lat="47.02766" lon="5.80624">
        <ele>310</ele>
        <time>2022-03-17T11:59:47.329Z</time>
      </trkpt>
      <trkpt lat="47.02762" lon="5.80621">
        <ele>310</ele>
        <time>2022-03-17T11:59:51.374Z</time>
      </trkpt>
      <trkpt lat="47.0276" lon="5.80622">
        <ele>310</ele>
        <time>2022-03-17T11:59:56.356Z</time>
      </trkpt>
      <trkpt lat="47.02758" lon="5.80621">
        <ele>310</ele>
        <time>2022-03-17T12:00:15.339Z</time>
      </trkpt>
      <trkpt lat="47.02755" lon="5.80618">
        <ele>310</ele>
        <time>2022-03-17T12:00:19.404Z</time>
      </trkpt>
      <trkpt lat="47.02748" lon="5.80613">
        <ele>310</ele>
        <time>2022-03-17T12:00:24.369Z</time>
      </trkpt>
      <trkpt lat="47.02742" lon="5.80611">
        <ele>310</ele>
        <time>2022-03-17T12:00:29.359Z</time>
      </trkpt>
      <trkpt lat="47.02737" lon="5.80611">
        <ele>310</ele>
        <time>2022-03-17T12:00:34.365Z</time>
      </trkpt>
      <trkpt lat="47.02731" lon="5.8061">
        <ele>306</ele>
        <time>2022-03-17T12:00:39.363Z</time>
      </trkpt>
      <trkpt lat="47.02725" lon="5.80608">
        <ele>306</ele>
        <time>2022-03-17T12:00:44.396Z</time>
      </trkpt>
      <trkpt lat="47.02718" lon="5.80607">
        <ele>306</ele>
        <time>2022-03-17T12:00:49.411Z</time>
      </trkpt>
      <trkpt lat="47.02712" lon="5.80607">
        <ele>306</ele>
        <time>2022-03-17T12:00:54.362Z</time>
      </trkpt>
      <trkpt lat="47.02707" lon="5.80607">
        <ele>301</ele>
        <time>2022-03-17T12:00:59.365Z</time>
      </trkpt>
      <trkpt lat="47.02702" lon="5.80608">
        <ele>301</ele>
        <time>2022-03-17T12:01:04.340Z</time>
      </trkpt>
      <trkpt lat="47.02697" lon="5.80611">
        <ele>301</ele>
        <time>2022-03-17T12:01:08.394Z</time>
      </trkpt>
      <trkpt lat="47.02691" lon="5.80613">
        <ele>301</ele>
        <time>2022-03-17T12:01:13.369Z</time>
      </trkpt>
      <trkpt lat="47.02686" lon="5.80617">
        <ele>301</ele>
        <time>2022-03-17T12:01:18.399Z</time>
      </trkpt>
      <trkpt lat="47.02679" lon="5.8062">
        <ele>296</ele>
        <time>2022-03-17T12:01:23.352Z</time>
      </trkpt>
      <trkpt lat="47.02676" lon="5.80625">
        <ele>296</ele>
        <time>2022-03-17T12:01:28.370Z</time>
      </trkpt>
      <trkpt lat="47.0267" lon="5.80628">
        <ele>296</ele>
        <time>2022-03-17T12:01:33.342Z</time>
      </trkpt>
      <trkpt lat="47.02666" lon="5.80631">
        <ele>296</ele>
        <time>2022-03-17T12:01:38.396Z</time>
      </trkpt>
      <trkpt lat="47.02662" lon="5.80633">
        <ele>296</ele>
        <time>2022-03-17T12:01:42.354Z</time>
      </trkpt>
      <trkpt lat="47.02656" lon="5.80634">
        <ele>296</ele>
        <time>2022-03-17T12:01:47.328Z</time>
      </trkpt>
      <trkpt lat="47.02651" lon="5.80635">
        <ele>293</ele>
        <time>2022-03-17T12:01:51.358Z</time>
      </trkpt>
      <trkpt lat="47.02646" lon="5.80636">
        <ele>293</ele>
        <time>2022-03-17T12:01:56.384Z</time>
      </trkpt>
      <trkpt lat="47.02642" lon="5.80637">
        <ele>293</ele>
        <time>2022-03-17T12:02:01.357Z</time>
      </trkpt>
      <trkpt lat="47.02637" lon="5.80637">
        <ele>293</ele>
        <time>2022-03-17T12:02:06.291Z</time>
      </trkpt>
      <trkpt lat="47.02632" lon="5.80637">
        <ele>293</ele>
        <time>2022-03-17T12:02:10.338Z</time>
      </trkpt>
      <trkpt lat="47.02627" lon="5.80638">
        <ele>293</ele>
        <time>2022-03-17T12:02:15.336Z</time>
      </trkpt>
      <trkpt lat="47.02622" lon="5.80638">
        <ele>291</ele>
        <time>2022-03-17T12:02:19.350Z</time>
      </trkpt>
      <trkpt lat="47.02616" lon="5.80638">
        <ele>291</ele>
        <time>2022-03-17T12:02:24.387Z</time>
      </trkpt>
      <trkpt lat="47.02611" lon="5.80637">
        <ele>291</ele>
        <time>2022-03-17T12:02:28.378Z</time>
      </trkpt>
      <trkpt lat="47.02605" lon="5.80637">
        <ele>291</ele>
        <time>2022-03-17T12:02:33.332Z</time>
      </trkpt>
      <trkpt lat="47.02598" lon="5.80636">
        <ele>291</ele>
        <time>2022-03-17T12:02:38.398Z</time>
      </trkpt>
      <trkpt lat="47.02592" lon="5.80638">
        <ele>288</ele>
        <time>2022-03-17T12:02:43.358Z</time>
      </trkpt>
      <trkpt lat="47.02587" lon="5.80639">
        <ele>288</ele>
        <time>2022-03-17T12:02:47.367Z</time>
      </trkpt>
      <trkpt lat="47.02582" lon="5.80639">
        <ele>288</ele>
        <time>2022-03-17T12:02:52.368Z</time>
      </trkpt>
      <trkpt lat="47.02576" lon="5.80638">
        <ele>288</ele>
        <time>2022-03-17T12:02:57.337Z</time>
      </trkpt>
      <trkpt lat="47.02571" lon="5.80637">
        <ele>288</ele>
        <time>2022-03-17T12:03:01.374Z</time>
      </trkpt>
      <trkpt lat="47.02565" lon="5.80636">
        <ele>285</ele>
        <time>2022-03-17T12:03:06.337Z</time>
      </trkpt>
      <trkpt lat="47.0256" lon="5.80634">
        <ele>285</ele>
        <time>2022-03-17T12:03:11.371Z</time>
      </trkpt>
      <trkpt lat="47.02554" lon="5.8063">
        <ele>285</ele>
        <time>2022-03-17T12:03:16.360Z</time>
      </trkpt>
      <trkpt lat="47.02548" lon="5.80628">
        <ele>285</ele>
        <time>2022-03-17T12:03:21.367Z</time>
      </trkpt>
      <trkpt lat="47.02542" lon="5.80624">
        <ele>285</ele>
        <time>2022-03-17T12:03:26.350Z</time>
      </trkpt>
      <trkpt lat="47.02538" lon="5.80621">
        <ele>282</ele>
        <time>2022-03-17T12:03:30.352Z</time>
      </trkpt>
      <trkpt lat="47.02534" lon="5.80617">
        <ele>282</ele>
        <time>2022-03-17T12:03:34.370Z</time>
      </trkpt>
      <trkpt lat="47.02528" lon="5.80612">
        <ele>282</ele>
        <time>2022-03-17T12:03:39.354Z</time>
      </trkpt>
      <trkpt lat="47.02523" lon="5.80609">
        <ele>282</ele>
        <time>2022-03-17T12:03:44.348Z</time>
      </trkpt>
      <trkpt lat="47.02517" lon="5.80605">
        <ele>282</ele>
        <time>2022-03-17T12:03:49.385Z</time>
      </trkpt>
      <trkpt lat="47.02511" lon="5.80601">
        <ele>279</ele>
        <time>2022-03-17T12:03:54.397Z</time>
      </trkpt>
      <trkpt lat="47.02504" lon="5.80599">
        <ele>279</ele>
        <time>2022-03-17T12:03:59.364Z</time>
      </trkpt>
      <trkpt lat="47.02498" lon="5.80595">
        <ele>280</ele>
        <time>2022-03-17T12:04:04.338Z</time>
      </trkpt>
      <trkpt lat="47.02493" lon="5.80591">
        <ele>280</ele>
        <time>2022-03-17T12:04:09.352Z</time>
      </trkpt>
      <trkpt lat="47.02488" lon="5.80589">
        <ele>280</ele>
        <time>2022-03-17T12:04:13.353Z</time>
      </trkpt>
      <trkpt lat="47.02483" lon="5.80586">
        <ele>278</ele>
        <time>2022-03-17T12:04:18.348Z</time>
      </trkpt>
      <trkpt lat="47.02478" lon="5.80584">
        <ele>278</ele>
        <time>2022-03-17T12:04:23.356Z</time>
      </trkpt>
      <trkpt lat="47.02473" lon="5.80581">
        <ele>278</ele>
        <time>2022-03-17T12:04:28.381Z</time>
      </trkpt>
      <trkpt lat="47.02465" lon="5.80577">
        <ele>278</ele>
        <time>2022-03-17T12:04:33.373Z</time>
      </trkpt>
      <trkpt lat="47.02459" lon="5.80574">
        <ele>278</ele>
        <time>2022-03-17T12:04:38.387Z</time>
      </trkpt>
      <trkpt lat="47.02454" lon="5.80571">
        <ele>275</ele>
        <time>2022-03-17T12:04:43.355Z</time>
      </trkpt>
      <trkpt lat="47.02448" lon="5.80567">
        <ele>274</ele>
        <time>2022-03-17T12:04:48.359Z</time>
      </trkpt>
      <trkpt lat="47.02441" lon="5.80564">
        <ele>274</ele>
        <time>2022-03-17T12:04:53.292Z</time>
      </trkpt>
      <trkpt lat="47.02436" lon="5.80561">
        <ele>274</ele>
        <time>2022-03-17T12:04:57.381Z</time>
      </trkpt>
      <trkpt lat="47.02431" lon="5.80564">
        <ele>274</ele>
        <time>2022-03-17T12:05:02.374Z</time>
      </trkpt>
      <trkpt lat="47.02429" lon="5.80573">
        <ele>273</ele>
        <time>2022-03-17T12:05:07.366Z</time>
      </trkpt>
      <trkpt lat="47.0243" lon="5.80582">
        <ele>273</ele>
        <time>2022-03-17T12:05:12.335Z</time>
      </trkpt>
      <trkpt lat="47.02432" lon="5.8059">
        <ele>275</ele>
        <time>2022-03-17T12:05:17.353Z</time>
      </trkpt>
      <trkpt lat="47.02433" lon="5.806">
        <ele>274</ele>
        <time>2022-03-17T12:05:22.343Z</time>
      </trkpt>
      <trkpt lat="47.02436" lon="5.8061">
        <ele>274</ele>
        <time>2022-03-17T12:05:27.398Z</time>
      </trkpt>
      <trkpt lat="47.02438" lon="5.80619">
        <ele>274</ele>
        <time>2022-03-17T12:05:32.283Z</time>
      </trkpt>
      <trkpt lat="47.02441" lon="5.80625">
        <ele>274</ele>
        <time>2022-03-17T12:05:36.361Z</time>
      </trkpt>
      <trkpt lat="47.02445" lon="5.80633">
        <ele>274</ele>
        <time>2022-03-17T12:05:41.385Z</time>
      </trkpt>
      <trkpt lat="47.02448" lon="5.8064">
        <ele>274</ele>
        <time>2022-03-17T12:05:46.353Z</time>
      </trkpt>
      <trkpt lat="47.0245" lon="5.80648">
        <ele>274</ele>
        <time>2022-03-17T12:05:50.368Z</time>
      </trkpt>
      <trkpt lat="47.02452" lon="5.80658">
        <ele>273</ele>
        <time>2022-03-17T12:05:55.373Z</time>
      </trkpt>
      <trkpt lat="47.02455" lon="5.80667">
        <ele>273</ele>
        <time>2022-03-17T12:06:00.324Z</time>
      </trkpt>
      <trkpt lat="47.02457" lon="5.80676">
        <ele>273</ele>
        <time>2022-03-17T12:06:04.360Z</time>
      </trkpt>
      <trkpt lat="47.02458" lon="5.80685">
        <ele>273</ele>
        <time>2022-03-17T12:06:09.308Z</time>
      </trkpt>
      <trkpt lat="47.02458" lon="5.80695">
        <ele>273</ele>
        <time>2022-03-17T12:06:13.329Z</time>
      </trkpt>
      <trkpt lat="47.02459" lon="5.80701">
        <ele>276</ele>
        <time>2022-03-17T12:06:17.340Z</time>
      </trkpt>
      <trkpt lat="47.02459" lon="5.80711">
        <ele>275</ele>
        <time>2022-03-17T12:06:22.356Z</time>
      </trkpt>
      <trkpt lat="47.02459" lon="5.8072">
        <ele>275</ele>
        <time>2022-03-17T12:06:27.371Z</time>
      </trkpt>
      <trkpt lat="47.02457" lon="5.80729">
        <ele>272</ele>
        <time>2022-03-17T12:06:32.363Z</time>
      </trkpt>
      <trkpt lat="47.02456" lon="5.80739">
        <ele>271</ele>
        <time>2022-03-17T12:06:37.360Z</time>
      </trkpt>
      <trkpt lat="47.02454" lon="5.80748">
        <ele>271</ele>
        <time>2022-03-17T12:06:42.334Z</time>
      </trkpt>
      <trkpt lat="47.02454" lon="5.80757">
        <ele>271</ele>
        <time>2022-03-17T12:06:47.353Z</time>
      </trkpt>
      <trkpt lat="47.02453" lon="5.80764">
        <ele>270</ele>
        <time>2022-03-17T12:06:51.341Z</time>
      </trkpt>
      <trkpt lat="47.02451" lon="5.80773">
        <ele>270</ele>
        <time>2022-03-17T12:06:56.297Z</time>
      </trkpt>
      <trkpt lat="47.02449" lon="5.80781">
        <ele>270</ele>
        <time>2022-03-17T12:07:01.291Z</time>
      </trkpt>
      <trkpt lat="47.02444" lon="5.8079">
        <ele>270</ele>
        <time>2022-03-17T12:07:06.315Z</time>
      </trkpt>
      <trkpt lat="47.02442" lon="5.80795">
        <ele>269</ele>
        <time>2022-03-17T12:07:10.380Z</time>
      </trkpt>
      <trkpt lat="47.02438" lon="5.80803">
        <ele>269</ele>
        <time>2022-03-17T12:07:15.362Z</time>
      </trkpt>
      <trkpt lat="47.02435" lon="5.80811">
        <ele>269</ele>
        <time>2022-03-17T12:07:20.393Z</time>
      </trkpt>
      <trkpt lat="47.02431" lon="5.80819">
        <ele>269</ele>
        <time>2022-03-17T12:07:25.350Z</time>
      </trkpt>
      <trkpt lat="47.02428" lon="5.80825">
        <ele>265</ele>
        <time>2022-03-17T12:07:29.350Z</time>
      </trkpt>
      <trkpt lat="47.02425" lon="5.80834">
        <ele>265</ele>
        <time>2022-03-17T12:07:34.355Z</time>
      </trkpt>
      <trkpt lat="47.02422" lon="5.80842">
        <ele>265</ele>
        <time>2022-03-17T12:07:39.288Z</time>
      </trkpt>
      <trkpt lat="47.02419" lon="5.80849">
        <ele>265</ele>
        <time>2022-03-17T12:07:43.336Z</time>
      </trkpt>
      <trkpt lat="47.02417" lon="5.80856">
        <ele>265</ele>
        <time>2022-03-17T12:07:47.377Z</time>
      </trkpt>
      <trkpt lat="47.02414" lon="5.80865">
        <ele>265</ele>
        <time>2022-03-17T12:07:52.350Z</time>
      </trkpt>
      <trkpt lat="47.02412" lon="5.80873">
        <ele>265</ele>
        <time>2022-03-17T12:07:57.359Z</time>
      </trkpt>
      <trkpt lat="47.02409" lon="5.80881">
        <ele>264</ele>
        <time>2022-03-17T12:08:02.335Z</time>
      </trkpt>
      <trkpt lat="47.02408" lon="5.80891">
        <ele>264</ele>
        <time>2022-03-17T12:08:07.377Z</time>
      </trkpt>
      <trkpt lat="47.02407" lon="5.809">
        <ele>264</ele>
        <time>2022-03-17T12:08:12.377Z</time>
      </trkpt>
      <trkpt lat="47.02406" lon="5.80909">
        <ele>263</ele>
        <time>2022-03-17T12:08:17.409Z</time>
      </trkpt>
      <trkpt lat="47.02404" lon="5.80918">
        <ele>263</ele>
        <time>2022-03-17T12:08:22.345Z</time>
      </trkpt>
      <trkpt lat="47.02404" lon="5.80928">
        <ele>263</ele>
        <time>2022-03-17T12:08:27.373Z</time>
      </trkpt>
      <trkpt lat="47.02405" lon="5.80937">
        <ele>261</ele>
        <time>2022-03-17T12:08:32.352Z</time>
      </trkpt>
      <trkpt lat="47.02403" lon="5.80946">
        <ele>261</ele>
        <time>2022-03-17T12:08:37.393Z</time>
      </trkpt>
      <trkpt lat="47.02403" lon="5.80955">
        <ele>263</ele>
        <time>2022-03-17T12:08:42.368Z</time>
      </trkpt>
      <trkpt lat="47.02403" lon="5.80965">
        <ele>260</ele>
        <time>2022-03-17T12:08:47.381Z</time>
      </trkpt>
      <trkpt lat="47.02405" lon="5.80974">
        <ele>260</ele>
        <time>2022-03-17T12:08:52.362Z</time>
      </trkpt>
      <trkpt lat="47.02401" lon="5.8098">
        <ele>262</ele>
        <time>2022-03-17T12:08:57.388Z</time>
      </trkpt>
      <trkpt lat="47.02397" lon="5.80982">
        <ele>262</ele>
        <time>2022-03-17T12:09:02.340Z</time>
      </trkpt>
      <trkpt lat="47.02389" lon="5.80982">
        <ele>262</ele>
        <time>2022-03-17T12:09:07.329Z</time>
      </trkpt>
      <trkpt lat="47.02383" lon="5.80981">
        <ele>262</ele>
        <time>2022-03-17T12:09:11.353Z</time>
      </trkpt>
      <trkpt lat="47.02376" lon="5.80979">
        <ele>262</ele>
        <time>2022-03-17T12:09:16.316Z</time>
      </trkpt>
      <trkpt lat="47.0237" lon="5.80978">
        <ele>262</ele>
        <time>2022-03-17T12:09:21.354Z</time>
      </trkpt>
      <trkpt lat="47.02365" lon="5.80976">
        <ele>262</ele>
        <time>2022-03-17T12:09:25.383Z</time>
      </trkpt>
      <trkpt lat="47.0236" lon="5.80975">
        <ele>262</ele>
        <time>2022-03-17T12:09:30.322Z</time>
      </trkpt>
      <trkpt lat="47.02356" lon="5.80973">
        <ele>262</ele>
        <time>2022-03-17T12:09:35.369Z</time>
      </trkpt>
      <trkpt lat="47.02349" lon="5.80968">
        <ele>262</ele>
        <time>2022-03-17T12:09:40.339Z</time>
      </trkpt>
      <trkpt lat="47.02343" lon="5.80966">
        <ele>261</ele>
        <time>2022-03-17T12:09:45.292Z</time>
      </trkpt>
      <trkpt lat="47.0234" lon="5.80964">
        <ele>261</ele>
        <time>2022-03-17T12:09:49.342Z</time>
      </trkpt>
      <trkpt lat="47.02333" lon="5.8096">
        <ele>261</ele>
        <time>2022-03-17T12:09:54.308Z</time>
      </trkpt>
      <trkpt lat="47.02328" lon="5.80958">
        <ele>261</ele>
        <time>2022-03-17T12:09:58.340Z</time>
      </trkpt>
      <trkpt lat="47.02322" lon="5.80955">
        <ele>261</ele>
        <time>2022-03-17T12:10:03.369Z</time>
      </trkpt>
      <trkpt lat="47.02317" lon="5.80953">
        <ele>262</ele>
        <time>2022-03-17T12:10:08.347Z</time>
      </trkpt>
      <trkpt lat="47.02312" lon="5.80951">
        <ele>262</ele>
        <time>2022-03-17T12:10:12.368Z</time>
      </trkpt>
      <trkpt lat="47.02306" lon="5.80947">
        <ele>262</ele>
        <time>2022-03-17T12:10:17.371Z</time>
      </trkpt>
      <trkpt lat="47.02302" lon="5.80944">
        <ele>262</ele>
        <time>2022-03-17T12:10:22.334Z</time>
      </trkpt>
      <trkpt lat="47.02295" lon="5.80941">
        <ele>262</ele>
        <time>2022-03-17T12:10:27.396Z</time>
      </trkpt>
      <trkpt lat="47.02288" lon="5.80937">
        <ele>263</ele>
        <time>2022-03-17T12:10:32.333Z</time>
      </trkpt>
      <trkpt lat="47.02283" lon="5.80936">
        <ele>263</ele>
        <time>2022-03-17T12:10:36.329Z</time>
      </trkpt>
      <trkpt lat="47.02277" lon="5.80934">
        <ele>263</ele>
        <time>2022-03-17T12:10:40.390Z</time>
      </trkpt>
      <trkpt lat="47.02272" lon="5.80932">
        <ele>263</ele>
        <time>2022-03-17T12:10:45.356Z</time>
      </trkpt>
      <trkpt lat="47.02266" lon="5.8093">
        <ele>263</ele>
        <time>2022-03-17T12:10:50.320Z</time>
      </trkpt>
      <trkpt lat="47.02262" lon="5.80929">
        <ele>264</ele>
        <time>2022-03-17T12:10:54.357Z</time>
      </trkpt>
      <trkpt lat="47.02258" lon="5.80928">
        <ele>264</ele>
        <time>2022-03-17T12:10:59.371Z</time>
      </trkpt>
      <trkpt lat="47.02253" lon="5.80927">
        <ele>264</ele>
        <time>2022-03-17T12:11:04.350Z</time>
      </trkpt>
      <trkpt lat="47.02246" lon="5.80925">
        <ele>264</ele>
        <time>2022-03-17T12:11:09.328Z</time>
      </trkpt>
      <trkpt lat="47.02241" lon="5.80926">
        <ele>264</ele>
        <time>2022-03-17T12:11:14.357Z</time>
      </trkpt>
      <trkpt lat="47.02233" lon="5.80924">
        <ele>264</ele>
        <time>2022-03-17T12:11:19.369Z</time>
      </trkpt>
      <trkpt lat="47.02226" lon="5.80924">
        <ele>264</ele>
        <time>2022-03-17T12:11:24.358Z</time>
      </trkpt>
      <trkpt lat="47.02219" lon="5.80923">
        <ele>264</ele>
        <time>2022-03-17T12:11:29.348Z</time>
      </trkpt>
      <trkpt lat="47.02213" lon="5.80922">
        <ele>264</ele>
        <time>2022-03-17T12:11:34.333Z</time>
      </trkpt>
      <trkpt lat="47.02207" lon="5.8092">
        <ele>265</ele>
        <time>2022-03-17T12:11:39.331Z</time>
      </trkpt>
      <trkpt lat="47.022" lon="5.80919">
        <ele>265</ele>
        <time>2022-03-17T12:11:44.343Z</time>
      </trkpt>
      <trkpt lat="47.02194" lon="5.8092">
        <ele>265</ele>
        <time>2022-03-17T12:11:49.360Z</time>
      </trkpt>
      <trkpt lat="47.02189" lon="5.80919">
        <ele>265</ele>
        <time>2022-03-17T12:11:54.338Z</time>
      </trkpt>
      <trkpt lat="47.02184" lon="5.80919">
        <ele>265</ele>
        <time>2022-03-17T12:11:59.326Z</time>
      </trkpt>
      <trkpt lat="47.0218" lon="5.80918">
        <ele>267</ele>
        <time>2022-03-17T12:12:04.285Z</time>
      </trkpt>
      <trkpt lat="47.02176" lon="5.80919">
        <ele>267</ele>
        <time>2022-03-17T12:12:09.299Z</time>
      </trkpt>
      <trkpt lat="47.02171" lon="5.80917">
        <ele>267</ele>
        <time>2022-03-17T12:12:13.412Z</time>
      </trkpt>
      <trkpt lat="47.02167" lon="5.80916">
        <ele>267</ele>
        <time>2022-03-17T12:12:18.345Z</time>
      </trkpt>
      <trkpt lat="47.02162" lon="5.80916">
        <ele>267</ele>
        <time>2022-03-17T12:12:23.343Z</time>
      </trkpt>
      <trkpt lat="47.02155" lon="5.80917">
        <ele>267</ele>
        <time>2022-03-17T12:12:28.320Z</time>
      </trkpt>
      <trkpt lat="47.02152" lon="5.8092">
        <ele>273</ele>
        <time>2022-03-17T12:12:32.323Z</time>
      </trkpt>
      <trkpt lat="47.02148" lon="5.80925">
        <ele>273</ele>
        <time>2022-03-17T12:12:37.341Z</time>
      </trkpt>
      <trkpt lat="47.02144" lon="5.8093">
        <ele>273</ele>
        <time>2022-03-17T12:12:42.319Z</time>
      </trkpt>
      <trkpt lat="47.02139" lon="5.80933">
        <ele>273</ele>
        <time>2022-03-17T12:12:47.316Z</time>
      </trkpt>
      <trkpt lat="47.02136" lon="5.80937">
        <ele>273</ele>
        <time>2022-03-17T12:12:51.348Z</time>
      </trkpt>
      <trkpt lat="47.02133" lon="5.80942">
        <ele>273</ele>
        <time>2022-03-17T12:12:56.371Z</time>
      </trkpt>
      <trkpt lat="47.02129" lon="5.8095">
        <ele>273</ele>
        <time>2022-03-17T12:13:01.387Z</time>
      </trkpt>
      <trkpt lat="47.02124" lon="5.80956">
        <ele>277</ele>
        <time>2022-03-17T12:13:06.345Z</time>
      </trkpt>
      <trkpt lat="47.02118" lon="5.80957">
        <ele>277</ele>
        <time>2022-03-17T12:13:25.412Z</time>
      </trkpt>
      <trkpt lat="47.02115" lon="5.80951">
        <ele>277</ele>
        <time>2022-03-17T12:13:30.344Z</time>
      </trkpt>
      <trkpt lat="47.02115" lon="5.80949">
        <ele>277</ele>
        <time>2022-03-17T12:13:34.350Z</time>
      </trkpt>
      <trkpt lat="47.02114" lon="5.80944">
        <ele>277</ele>
        <time>2022-03-17T12:13:39.401Z</time>
      </trkpt>
      <trkpt lat="47.02111" lon="5.80939">
        <ele>277</ele>
        <time>2022-03-17T12:13:44.314Z</time>
      </trkpt>
      <trkpt lat="47.02111" lon="5.80936">
        <ele>277</ele>
        <time>2022-03-17T12:13:48.363Z</time>
      </trkpt>
      <trkpt lat="47.02108" lon="5.80929">
        <ele>279</ele>
        <time>2022-03-17T12:13:53.384Z</time>
      </trkpt>
      <trkpt lat="47.02106" lon="5.80925">
        <ele>279</ele>
        <time>2022-03-17T12:13:58.322Z</time>
      </trkpt>
      <trkpt lat="47.02104" lon="5.80922">
        <ele>279</ele>
        <time>2022-03-17T12:14:02.343Z</time>
      </trkpt>
      <trkpt lat="47.021" lon="5.80918">
        <ele>279</ele>
        <time>2022-03-17T12:14:07.379Z</time>
      </trkpt>
      <trkpt lat="47.02097" lon="5.80915">
        <ele>279</ele>
        <time>2022-03-17T12:14:12.356Z</time>
      </trkpt>
      <trkpt lat="47.02095" lon="5.80913">
        <ele>282</ele>
        <time>2022-03-17T12:14:17.340Z</time>
      </trkpt>
      <trkpt lat="47.02093" lon="5.80908">
        <ele>282</ele>
        <time>2022-03-17T12:14:21.361Z</time>
      </trkpt>
      <trkpt lat="47.0209" lon="5.80905">
        <ele>282</ele>
        <time>2022-03-17T12:14:26.365Z</time>
      </trkpt>
      <trkpt lat="47.02087" lon="5.809">
        <ele>283</ele>
        <time>2022-03-17T12:14:31.365Z</time>
      </trkpt>
      <trkpt lat="47.02084" lon="5.80894">
        <ele>283</ele>
        <time>2022-03-17T12:14:36.331Z</time>
      </trkpt>
      <trkpt lat="47.02082" lon="5.80891">
        <ele>283</ele>
        <time>2022-03-17T12:14:41.350Z</time>
      </trkpt>
      <trkpt lat="47.02078" lon="5.80885">
        <ele>283</ele>
        <time>2022-03-17T12:14:46.331Z</time>
      </trkpt>
      <trkpt lat="47.02073" lon="5.8088">
        <ele>283</ele>
        <time>2022-03-17T12:14:51.350Z</time>
      </trkpt>
      <trkpt lat="47.02069" lon="5.80875">
        <ele>285</ele>
        <time>2022-03-17T12:14:56.355Z</time>
      </trkpt>
      <trkpt lat="47.02067" lon="5.80872">
        <ele>289</ele>
        <time>2022-03-17T12:15:01.347Z</time>
      </trkpt>
      <trkpt lat="47.02064" lon="5.80867">
        <ele>289</ele>
        <time>2022-03-17T12:15:06.321Z</time>
      </trkpt>
      <trkpt lat="47.0206" lon="5.80864">
        <ele>289</ele>
        <time>2022-03-17T12:15:11.355Z</time>
      </trkpt>
      <trkpt lat="47.02057" lon="5.80861">
        <ele>289</ele>
        <time>2022-03-17T12:15:15.390Z</time>
      </trkpt>
      <trkpt lat="47.02053" lon="5.80858">
        <ele>289</ele>
        <time>2022-03-17T12:15:20.330Z</time>
      </trkpt>
      <trkpt lat="47.02049" lon="5.80855">
        <ele>289</ele>
        <time>2022-03-17T12:15:25.384Z</time>
      </trkpt>
      <trkpt lat="47.02045" lon="5.80852">
        <ele>289</ele>
        <time>2022-03-17T12:15:30.321Z</time>
      </trkpt>
      <trkpt lat="47.02039" lon="5.80847">
        <ele>292</ele>
        <time>2022-03-17T12:15:35.364Z</time>
      </trkpt>
      <trkpt lat="47.02037" lon="5.80844">
        <ele>292</ele>
        <time>2022-03-17T12:15:39.394Z</time>
      </trkpt>
      <trkpt lat="47.02034" lon="5.80838">
        <ele>292</ele>
        <time>2022-03-17T12:15:44.321Z</time>
      </trkpt>
      <trkpt lat="47.02032" lon="5.80832">
        <ele>292</ele>
        <time>2022-03-17T12:15:49.362Z</time>
      </trkpt>
      <trkpt lat="47.0203" lon="5.80825">
        <ele>292</ele>
        <time>2022-03-17T12:15:54.318Z</time>
      </trkpt>
      <trkpt lat="47.02026" lon="5.80821">
        <ele>292</ele>
        <time>2022-03-17T12:15:58.332Z</time>
      </trkpt>
      <trkpt lat="47.02023" lon="5.80816">
        <ele>292</ele>
        <time>2022-03-17T12:16:03.333Z</time>
      </trkpt>
      <trkpt lat="47.02021" lon="5.80811">
        <ele>292</ele>
        <time>2022-03-17T12:16:07.403Z</time>
      </trkpt>
      <trkpt lat="47.02015" lon="5.80805">
        <ele>292</ele>
        <time>2022-03-17T12:16:12.333Z</time>
      </trkpt>
      <trkpt lat="47.02012" lon="5.80802">
        <ele>296</ele>
        <time>2022-03-17T12:16:17.360Z</time>
      </trkpt>
      <trkpt lat="47.02008" lon="5.80798">
        <ele>296</ele>
        <time>2022-03-17T12:16:22.329Z</time>
      </trkpt>
      <trkpt lat="47.02004" lon="5.80794">
        <ele>296</ele>
        <time>2022-03-17T12:16:26.330Z</time>
      </trkpt>
      <trkpt lat="47.01997" lon="5.80791">
        <ele>295</ele>
        <time>2022-03-17T12:16:31.399Z</time>
      </trkpt>
      <trkpt lat="47.01994" lon="5.80789">
        <ele>295</ele>
        <time>2022-03-17T12:16:36.347Z</time>
      </trkpt>
      <trkpt lat="47.0199" lon="5.80786">
        <ele>295</ele>
        <time>2022-03-17T12:16:41.415Z</time>
      </trkpt>
      <trkpt lat="47.01988" lon="5.80784">
        <ele>295</ele>
        <time>2022-03-17T12:16:46.346Z</time>
      </trkpt>
      <trkpt lat="47.01983" lon="5.80781">
        <ele>298</ele>
        <time>2022-03-17T12:16:51.374Z</time>
      </trkpt>
      <trkpt lat="47.01979" lon="5.80779">
        <ele>298</ele>
        <time>2022-03-17T12:16:56.335Z</time>
      </trkpt>
      <trkpt lat="47.01976" lon="5.80778">
        <ele>298</ele>
        <time>2022-03-17T12:17:01.387Z</time>
      </trkpt>
      <trkpt lat="47.0197" lon="5.80775">
        <ele>298</ele>
        <time>2022-03-17T12:17:06.345Z</time>
      </trkpt>
      <trkpt lat="47.01965" lon="5.80772">
        <ele>298</ele>
        <time>2022-03-17T12:17:11.335Z</time>
      </trkpt>
      <trkpt lat="47.01961" lon="5.80771">
        <ele>298</ele>
        <time>2022-03-17T12:17:15.385Z</time>
      </trkpt>
      <trkpt lat="47.01958" lon="5.80771">
        <ele>299</ele>
        <time>2022-03-17T12:17:20.301Z</time>
      </trkpt>
      <trkpt lat="47.01954" lon="5.80773">
        <ele>299</ele>
        <time>2022-03-17T12:17:24.360Z</time>
      </trkpt>
      <trkpt lat="47.0195" lon="5.80772">
        <ele>299</ele>
        <time>2022-03-17T12:17:29.375Z</time>
      </trkpt>
      <trkpt lat="47.01944" lon="5.80771">
        <ele>299</ele>
        <time>2022-03-17T12:17:34.321Z</time>
      </trkpt>
      <trkpt lat="47.01939" lon="5.8077">
        <ele>299</ele>
        <time>2022-03-17T12:17:38.356Z</time>
      </trkpt>
      <trkpt lat="47.01933" lon="5.80767">
        <ele>299</ele>
        <time>2022-03-17T12:17:43.351Z</time>
      </trkpt>
      <trkpt lat="47.01928" lon="5.80766">
        <ele>302</ele>
        <time>2022-03-17T12:17:48.364Z</time>
      </trkpt>
      <trkpt lat="47.01924" lon="5.80765">
        <ele>302</ele>
        <time>2022-03-17T12:17:53.354Z</time>
      </trkpt>
      <trkpt lat="47.0192" lon="5.80763">
        <ele>301</ele>
        <time>2022-03-17T12:17:57.398Z</time>
      </trkpt>
      <trkpt lat="47.01915" lon="5.80763">
        <ele>301</ele>
        <time>2022-03-17T12:18:02.337Z</time>
      </trkpt>
      <trkpt lat="47.01912" lon="5.80763">
        <ele>301</ele>
        <time>2022-03-17T12:18:06.340Z</time>
      </trkpt>
      <trkpt lat="47.01906" lon="5.80761">
        <ele>301</ele>
        <time>2022-03-17T12:18:11.359Z</time>
      </trkpt>
      <trkpt lat="47.01901" lon="5.80758">
        <ele>303</ele>
        <time>2022-03-17T12:18:16.323Z</time>
      </trkpt>
      <trkpt lat="47.01896" lon="5.80756">
        <ele>303</ele>
        <time>2022-03-17T12:18:20.344Z</time>
      </trkpt>
      <trkpt lat="47.01892" lon="5.80754">
        <ele>303</ele>
        <time>2022-03-17T12:18:25.399Z</time>
      </trkpt>
      <trkpt lat="47.01888" lon="5.80753">
        <ele>303</ele>
        <time>2022-03-17T12:18:29.406Z</time>
      </trkpt>
      <trkpt lat="47.01883" lon="5.80753">
        <ele>303</ele>
        <time>2022-03-17T12:18:34.343Z</time>
      </trkpt>
      <trkpt lat="47.01879" lon="5.8075">
        <ele>303</ele>
        <time>2022-03-17T12:18:39.379Z</time>
      </trkpt>
      <trkpt lat="47.01876" lon="5.8075">
        <ele>303</ele>
        <time>2022-03-17T12:18:44.342Z</time>
      </trkpt>
      <trkpt lat="47.01871" lon="5.80748">
        <ele>306</ele>
        <time>2022-03-17T12:18:49.380Z</time>
      </trkpt>
      <trkpt lat="47.01866" lon="5.80747">
        <ele>306</ele>
        <time>2022-03-17T12:18:54.336Z</time>
      </trkpt>
      <trkpt lat="47.01863" lon="5.80746">
        <ele>306</ele>
        <time>2022-03-17T12:18:58.352Z</time>
      </trkpt>
      <trkpt lat="47.01858" lon="5.80745">
        <ele>306</ele>
        <time>2022-03-17T12:19:03.355Z</time>
      </trkpt>
      <trkpt lat="47.01854" lon="5.80745">
        <ele>306</ele>
        <time>2022-03-17T12:19:07.425Z</time>
      </trkpt>
      <trkpt lat="47.01848" lon="5.80741">
        <ele>306</ele>
        <time>2022-03-17T12:19:12.340Z</time>
      </trkpt>
      <trkpt lat="47.01843" lon="5.8074">
        <ele>309</ele>
        <time>2022-03-17T12:19:17.359Z</time>
      </trkpt>
      <trkpt lat="47.01841" lon="5.80737">
        <ele>309</ele>
        <time>2022-03-17T12:19:22.397Z</time>
      </trkpt>
      <trkpt lat="47.01836" lon="5.80735">
        <ele>308</ele>
        <time>2022-03-17T12:19:27.388Z</time>
      </trkpt>
      <trkpt lat="47.01832" lon="5.80731">
        <ele>308</ele>
        <time>2022-03-17T12:19:31.399Z</time>
      </trkpt>
      <trkpt lat="47.01829" lon="5.80729">
        <ele>308</ele>
        <time>2022-03-17T12:19:36.348Z</time>
      </trkpt>
      <trkpt lat="47.01825" lon="5.80726">
        <ele>308</ele>
        <time>2022-03-17T12:19:40.351Z</time>
      </trkpt>
      <trkpt lat="47.01821" lon="5.80723">
        <ele>308</ele>
        <time>2022-03-17T12:19:45.367Z</time>
      </trkpt>
      <trkpt lat="47.01817" lon="5.8072">
        <ele>311</ele>
        <time>2022-03-17T12:19:49.396Z</time>
      </trkpt>
      <trkpt lat="47.01812" lon="5.80718">
        <ele>311</ele>
        <time>2022-03-17T12:19:54.350Z</time>
      </trkpt>
      <trkpt lat="47.01808" lon="5.80716">
        <ele>311</ele>
        <time>2022-03-17T12:19:59.409Z</time>
      </trkpt>
      <trkpt lat="47.01804" lon="5.80713">
        <ele>311</ele>
        <time>2022-03-17T12:20:04.338Z</time>
      </trkpt>
      <trkpt lat="47.01798" lon="5.80712">
        <ele>311</ele>
        <time>2022-03-17T12:20:09.290Z</time>
      </trkpt>
      <trkpt lat="47.01795" lon="5.80711">
        <ele>311</ele>
        <time>2022-03-17T12:20:13.372Z</time>
      </trkpt>
      <trkpt lat="47.01792" lon="5.8071">
        <ele>311</ele>
        <time>2022-03-17T12:20:18.337Z</time>
      </trkpt>
      <trkpt lat="47.01787" lon="5.80708">
        <ele>315</ele>
        <time>2022-03-17T12:20:23.353Z</time>
      </trkpt>
      <trkpt lat="47.01786" lon="5.80707">
        <ele>315</ele>
        <time>2022-03-17T12:20:27.399Z</time>
      </trkpt>
      <trkpt lat="47.01782" lon="5.80706">
        <ele>315</ele>
        <time>2022-03-17T12:20:32.358Z</time>
      </trkpt>
      <trkpt lat="47.01779" lon="5.80707">
        <ele>315</ele>
        <time>2022-03-17T12:20:37.384Z</time>
      </trkpt>
      <trkpt lat="47.01774" lon="5.80707">
        <ele>315</ele>
        <time>2022-03-17T12:20:42.369Z</time>
      </trkpt>
      <trkpt lat="47.01768" lon="5.80703">
        <ele>315</ele>
        <time>2022-03-17T12:20:47.341Z</time>
      </trkpt>
      <trkpt lat="47.01766" lon="5.80699">
        <ele>315</ele>
        <time>2022-03-17T12:20:51.380Z</time>
      </trkpt>
      <trkpt lat="47.01762" lon="5.80697">
        <ele>317</ele>
        <time>2022-03-17T12:20:56.350Z</time>
      </trkpt>
      <trkpt lat="47.01758" lon="5.80692">
        <ele>317</ele>
        <time>2022-03-17T12:21:01.369Z</time>
      </trkpt>
      <trkpt lat="47.01755" lon="5.80685">
        <ele>317</ele>
        <time>2022-03-17T12:21:06.359Z</time>
      </trkpt>
      <trkpt lat="47.01754" lon="5.80678">
        <ele>318</ele>
        <time>2022-03-17T12:21:11.308Z</time>
      </trkpt>
      <trkpt lat="47.01751" lon="5.80671">
        <ele>318</ele>
        <time>2022-03-17T12:21:16.341Z</time>
      </trkpt>
      <trkpt lat="47.01749" lon="5.80665">
        <ele>318</ele>
        <time>2022-03-17T12:21:21.378Z</time>
      </trkpt>
      <trkpt lat="47.01745" lon="5.8066">
        <ele>318</ele>
        <time>2022-03-17T12:21:26.339Z</time>
      </trkpt>
      <trkpt lat="47.0174" lon="5.80659">
        <ele>318</ele>
        <time>2022-03-17T12:21:30.340Z</time>
      </trkpt>
      <trkpt lat="47.01735" lon="5.80656">
        <ele>321</ele>
        <time>2022-03-17T12:21:35.409Z</time>
      </trkpt>
      <trkpt lat="47.0173" lon="5.80651">
        <ele>321</ele>
        <time>2022-03-17T12:21:40.350Z</time>
      </trkpt>
      <trkpt lat="47.01726" lon="5.80648">
        <ele>321</ele>
        <time>2022-03-17T12:21:45.399Z</time>
      </trkpt>
      <trkpt lat="47.01721" lon="5.80646">
        <ele>321</ele>
        <time>2022-03-17T12:21:50.379Z</time>
      </trkpt>
      <trkpt lat="47.01716" lon="5.80647">
        <ele>321</ele>
        <time>2022-03-17T12:21:55.356Z</time>
      </trkpt>
      <trkpt lat="47.01711" lon="5.80647">
        <ele>321</ele>
        <time>2022-03-17T12:22:00.331Z</time>
      </trkpt>
      <trkpt lat="47.01707" lon="5.80647">
        <ele>323</ele>
        <time>2022-03-17T12:22:04.370Z</time>
      </trkpt>
      <trkpt lat="47.01702" lon="5.80646">
        <ele>323</ele>
        <time>2022-03-17T12:22:09.346Z</time>
      </trkpt>
      <trkpt lat="47.01698" lon="5.80646">
        <ele>323</ele>
        <time>2022-03-17T12:22:14.347Z</time>
      </trkpt>
      <trkpt lat="47.01694" lon="5.80646">
        <ele>323</ele>
        <time>2022-03-17T12:22:18.347Z</time>
      </trkpt>
      <trkpt lat="47.01687" lon="5.80643">
        <ele>323</ele>
        <time>2022-03-17T12:22:23.342Z</time>
      </trkpt>
      <trkpt lat="47.01683" lon="5.8064">
        <ele>323</ele>
        <time>2022-03-17T12:22:27.383Z</time>
      </trkpt>
      <trkpt lat="47.01679" lon="5.80638">
        <ele>324</ele>
        <time>2022-03-17T12:22:32.351Z</time>
      </trkpt>
      <trkpt lat="47.01674" lon="5.80635">
        <ele>324</ele>
        <time>2022-03-17T12:22:37.335Z</time>
      </trkpt>
      <trkpt lat="47.01667" lon="5.80632">
        <ele>324</ele>
        <time>2022-03-17T12:22:42.350Z</time>
      </trkpt>
      <trkpt lat="47.0166" lon="5.80631">
        <ele>324</ele>
        <time>2022-03-17T12:22:47.398Z</time>
      </trkpt>
      <trkpt lat="47.01655" lon="5.8063">
        <ele>324</ele>
        <time>2022-03-17T12:22:52.355Z</time>
      </trkpt>
      <trkpt lat="47.01652" lon="5.80628">
        <ele>324</ele>
        <time>2022-03-17T12:22:56.323Z</time>
      </trkpt>
      <trkpt lat="47.01646" lon="5.80624">
        <ele>323</ele>
        <time>2022-03-17T12:23:01.375Z</time>
      </trkpt>
      <trkpt lat="47.01642" lon="5.80621">
        <ele>323</ele>
        <time>2022-03-17T12:23:06.359Z</time>
      </trkpt>
      <trkpt lat="47.01639" lon="5.80618">
        <ele>323</ele>
        <time>2022-03-17T12:23:10.352Z</time>
      </trkpt>
      <trkpt lat="47.01632" lon="5.80614">
        <ele>323</ele>
        <time>2022-03-17T12:23:15.355Z</time>
      </trkpt>
      <trkpt lat="47.01628" lon="5.80613">
        <ele>323</ele>
        <time>2022-03-17T12:23:19.373Z</time>
      </trkpt>
      <trkpt lat="47.01623" lon="5.80611">
        <ele>327</ele>
        <time>2022-03-17T12:23:24.375Z</time>
      </trkpt>
      <trkpt lat="47.01617" lon="5.80608">
        <ele>327</ele>
        <time>2022-03-17T12:23:29.352Z</time>
      </trkpt>
      <trkpt lat="47.01612" lon="5.80605">
        <ele>327</ele>
        <time>2022-03-17T12:23:34.354Z</time>
      </trkpt>
      <trkpt lat="47.01611" lon="5.80605">
        <ele>327</ele>
        <time>2022-03-17T12:23:39.383Z</time>
      </trkpt>
      <trkpt lat="47.01607" lon="5.80602">
        <ele>327</ele>
        <time>2022-03-17T12:23:49.354Z</time>
      </trkpt>
      <trkpt lat="47.01604" lon="5.80599">
        <ele>327</ele>
        <time>2022-03-17T12:23:54.394Z</time>
      </trkpt>
      <trkpt lat="47.01601" lon="5.80598">
        <ele>327</ele>
        <time>2022-03-17T12:23:59.395Z</time>
      </trkpt>
      <trkpt lat="47.01596" lon="5.80598">
        <ele>330</ele>
        <time>2022-03-17T12:24:04.353Z</time>
      </trkpt>
      <trkpt lat="47.01589" lon="5.80597">
        <ele>326</ele>
        <time>2022-03-17T12:24:09.378Z</time>
      </trkpt>
      <trkpt lat="47.01586" lon="5.80596">
        <ele>326</ele>
        <time>2022-03-17T12:24:14.344Z</time>
      </trkpt>
      <trkpt lat="47.01581" lon="5.80595">
        <ele>326</ele>
        <time>2022-03-17T12:24:19.337Z</time>
      </trkpt>
      <trkpt lat="47.01578" lon="5.80593">
        <ele>326</ele>
        <time>2022-03-17T12:24:23.363Z</time>
      </trkpt>
      <trkpt lat="47.01571" lon="5.80591">
        <ele>326</ele>
        <time>2022-03-17T12:24:28.343Z</time>
      </trkpt>
      <trkpt lat="47.01565" lon="5.80591">
        <ele>325</ele>
        <time>2022-03-17T12:24:32.392Z</time>
      </trkpt>
      <trkpt lat="47.01558" lon="5.80587">
        <ele>325</ele>
        <time>2022-03-17T12:24:37.417Z</time>
      </trkpt>
      <trkpt lat="47.01552" lon="5.80587">
        <ele>325</ele>
        <time>2022-03-17T12:24:42.381Z</time>
      </trkpt>
      <trkpt lat="47.01547" lon="5.80586">
        <ele>325</ele>
        <time>2022-03-17T12:24:47.375Z</time>
      </trkpt>
      <trkpt lat="47.01544" lon="5.80585">
        <ele>325</ele>
        <time>2022-03-17T12:24:52.369Z</time>
      </trkpt>
      <trkpt lat="47.01538" lon="5.80583">
        <ele>325</ele>
        <time>2022-03-17T12:24:56.333Z</time>
      </trkpt>
      <trkpt lat="47.01531" lon="5.80582">
        <ele>325</ele>
        <time>2022-03-17T12:25:01.358Z</time>
      </trkpt>
      <trkpt lat="47.01523" lon="5.80583">
        <ele>325</ele>
        <time>2022-03-17T12:25:06.369Z</time>
      </trkpt>
      <trkpt lat="47.01516" lon="5.80583">
        <ele>325</ele>
        <time>2022-03-17T12:25:11.380Z</time>
      </trkpt>
      <trkpt lat="47.01509" lon="5.80583">
        <ele>326</ele>
        <time>2022-03-17T12:25:16.361Z</time>
      </trkpt>
      <trkpt lat="47.01505" lon="5.80582">
        <ele>326</ele>
        <time>2022-03-17T12:25:20.386Z</time>
      </trkpt>
      <trkpt lat="47.01503" lon="5.80581">
        <ele>326</ele>
        <time>2022-03-17T12:25:25.423Z</time>
      </trkpt>
      <trkpt lat="47.01499" lon="5.80579">
        <ele>326</ele>
        <time>2022-03-17T12:25:30.331Z</time>
      </trkpt>
      <trkpt lat="47.01493" lon="5.8058">
        <ele>326</ele>
        <time>2022-03-17T12:25:34.374Z</time>
      </trkpt>
      <trkpt lat="47.01487" lon="5.80581">
        <ele>326</ele>
        <time>2022-03-17T12:25:39.356Z</time>
      </trkpt>
      <trkpt lat="47.01482" lon="5.80583">
        <ele>325</ele>
        <time>2022-03-17T12:25:43.407Z</time>
      </trkpt>
      <trkpt lat="47.01474" lon="5.80586">
        <ele>325</ele>
        <time>2022-03-17T12:25:48.390Z</time>
      </trkpt>
      <trkpt lat="47.01468" lon="5.80589">
        <ele>325</ele>
        <time>2022-03-17T12:25:53.392Z</time>
      </trkpt>
      <trkpt lat="47.01462" lon="5.8059">
        <ele>325</ele>
        <time>2022-03-17T12:25:58.340Z</time>
      </trkpt>
      <trkpt lat="47.01455" lon="5.80588">
        <ele>323</ele>
        <time>2022-03-17T12:26:02.398Z</time>
      </trkpt>
      <trkpt lat="47.01451" lon="5.8059">
        <ele>323</ele>
        <time>2022-03-17T12:26:06.382Z</time>
      </trkpt>
      <trkpt lat="47.01443" lon="5.80592">
        <ele>323</ele>
        <time>2022-03-17T12:26:11.354Z</time>
      </trkpt>
      <trkpt lat="47.01437" lon="5.80594">
        <ele>323</ele>
        <time>2022-03-17T12:26:16.370Z</time>
      </trkpt>
      <trkpt lat="47.01432" lon="5.80597">
        <ele>323</ele>
        <time>2022-03-17T12:26:21.346Z</time>
      </trkpt>
      <trkpt lat="47.01426" lon="5.80598">
        <ele>322</ele>
        <time>2022-03-17T12:26:25.378Z</time>
      </trkpt>
      <trkpt lat="47.0142" lon="5.80599">
        <ele>322</ele>
        <time>2022-03-17T12:26:30.342Z</time>
      </trkpt>
      <trkpt lat="47.01414" lon="5.80599">
        <ele>322</ele>
        <time>2022-03-17T12:26:34.365Z</time>
      </trkpt>
      <trkpt lat="47.0141" lon="5.80597">
        <ele>322</ele>
        <time>2022-03-17T12:26:39.403Z</time>
      </trkpt>
      <trkpt lat="47.01404" lon="5.80598">
        <ele>322</ele>
        <time>2022-03-17T12:26:44.371Z</time>
      </trkpt>
      <trkpt lat="47.01397" lon="5.80598">
        <ele>319</ele>
        <time>2022-03-17T12:26:49.395Z</time>
      </trkpt>
      <trkpt lat="47.01389" lon="5.80599">
        <ele>319</ele>
        <time>2022-03-17T12:26:54.391Z</time>
      </trkpt>
      <trkpt lat="47.01385" lon="5.80599">
        <ele>319</ele>
        <time>2022-03-17T12:26:59.344Z</time>
      </trkpt>
      <trkpt lat="47.0138" lon="5.806">
        <ele>319</ele>
        <time>2022-03-17T12:27:03.371Z</time>
      </trkpt>
      <trkpt lat="47.01373" lon="5.806">
        <ele>317</ele>
        <time>2022-03-17T12:27:08.356Z</time>
      </trkpt>
      <trkpt lat="47.01368" lon="5.806">
        <ele>317</ele>
        <time>2022-03-17T12:27:13.338Z</time>
      </trkpt>
      <trkpt lat="47.01364" lon="5.80599">
        <ele>317</ele>
        <time>2022-03-17T12:27:17.382Z</time>
      </trkpt>
      <trkpt lat="47.01357" lon="5.80596">
        <ele>318</ele>
        <time>2022-03-17T12:27:22.387Z</time>
      </trkpt>
      <trkpt lat="47.01351" lon="5.80597">
        <ele>318</ele>
        <time>2022-03-17T12:27:27.353Z</time>
      </trkpt>
      <trkpt lat="47.01345" lon="5.80596">
        <ele>317</ele>
        <time>2022-03-17T12:27:31.377Z</time>
      </trkpt>
      <trkpt lat="47.01338" lon="5.80598">
        <ele>316</ele>
        <time>2022-03-17T12:27:36.365Z</time>
      </trkpt>
      <trkpt lat="47.01333" lon="5.80598">
        <ele>316</ele>
        <time>2022-03-17T12:27:40.375Z</time>
      </trkpt>
      <trkpt lat="47.01327" lon="5.80598">
        <ele>316</ele>
        <time>2022-03-17T12:27:45.340Z</time>
      </trkpt>
      <trkpt lat="47.01321" lon="5.80597">
        <ele>317</ele>
        <time>2022-03-17T12:27:49.375Z</time>
      </trkpt>
      <trkpt lat="47.01315" lon="5.80599">
        <ele>315</ele>
        <time>2022-03-17T12:27:54.379Z</time>
      </trkpt>
      <trkpt lat="47.01309" lon="5.80602">
        <ele>315</ele>
        <time>2022-03-17T12:27:59.360Z</time>
      </trkpt>
      <trkpt lat="47.01302" lon="5.80601">
        <ele>315</ele>
        <time>2022-03-17T12:28:04.355Z</time>
      </trkpt>
      <trkpt lat="47.01297" lon="5.80602">
        <ele>315</ele>
        <time>2022-03-17T12:28:08.385Z</time>
      </trkpt>
      <trkpt lat="47.0129" lon="5.80601">
        <ele>314</ele>
        <time>2022-03-17T12:28:13.334Z</time>
      </trkpt>
      <trkpt lat="47.01287" lon="5.80601">
        <ele>314</ele>
        <time>2022-03-17T12:28:17.365Z</time>
      </trkpt>
      <trkpt lat="47.01282" lon="5.806">
        <ele>314</ele>
        <time>2022-03-17T12:28:21.365Z</time>
      </trkpt>
      <trkpt lat="47.01277" lon="5.806">
        <ele>314</ele>
        <time>2022-03-17T12:28:26.277Z</time>
      </trkpt>
      <trkpt lat="47.01271" lon="5.80601">
        <ele>314</ele>
        <time>2022-03-17T12:28:31.326Z</time>
      </trkpt>
      <trkpt lat="47.01264" lon="5.80601">
        <ele>312</ele>
        <time>2022-03-17T12:28:36.350Z</time>
      </trkpt>
      <trkpt lat="47.01257" lon="5.80602">
        <ele>312</ele>
        <time>2022-03-17T12:28:41.314Z</time>
      </trkpt>
      <trkpt lat="47.01251" lon="5.80603">
        <ele>312</ele>
        <time>2022-03-17T12:28:45.434Z</time>
      </trkpt>
      <trkpt lat="47.01244" lon="5.80603">
        <ele>312</ele>
        <time>2022-03-17T12:28:50.352Z</time>
      </trkpt>
      <trkpt lat="47.01236" lon="5.80603">
        <ele>312</ele>
        <time>2022-03-17T12:28:55.385Z</time>
      </trkpt>
      <trkpt lat="47.01231" lon="5.80605">
        <ele>312</ele>
        <time>2022-03-17T12:29:00.368Z</time>
      </trkpt>
      <trkpt lat="47.01224" lon="5.80609">
        <ele>312</ele>
        <time>2022-03-17T12:29:05.293Z</time>
      </trkpt>
      <trkpt lat="47.0122" lon="5.80609">
        <ele>312</ele>
        <time>2022-03-17T12:29:09.351Z</time>
      </trkpt>
      <trkpt lat="47.01213" lon="5.80612">
        <ele>312</ele>
        <time>2022-03-17T12:29:14.372Z</time>
      </trkpt>
      <trkpt lat="47.01207" lon="5.8061">
        <ele>312</ele>
        <time>2022-03-17T12:29:19.360Z</time>
      </trkpt>
      <trkpt lat="47.01202" lon="5.80607">
        <ele>312</ele>
        <time>2022-03-17T12:29:24.354Z</time>
      </trkpt>
      <trkpt lat="47.01196" lon="5.80605">
        <ele>312</ele>
        <time>2022-03-17T12:29:29.365Z</time>
      </trkpt>
      <trkpt lat="47.01191" lon="5.80605">
        <ele>312</ele>
        <time>2022-03-17T12:29:34.363Z</time>
      </trkpt>
      <trkpt lat="47.01187" lon="5.80602">
        <ele>312</ele>
        <time>2022-03-17T12:29:39.394Z</time>
      </trkpt>
      <trkpt lat="47.01183" lon="5.80599">
        <ele>312</ele>
        <time>2022-03-17T12:29:43.404Z</time>
      </trkpt>
      <trkpt lat="47.01178" lon="5.80597">
        <ele>312</ele>
        <time>2022-03-17T12:29:48.367Z</time>
      </trkpt>
      <trkpt lat="47.01173" lon="5.80595">
        <ele>312</ele>
        <time>2022-03-17T12:29:53.315Z</time>
      </trkpt>
      <trkpt lat="47.01171" lon="5.80593">
        <ele>312</ele>
        <time>2022-03-17T12:29:57.388Z</time>
      </trkpt>
      <trkpt lat="47.01164" lon="5.80588">
        <ele>312</ele>
        <time>2022-03-17T12:30:02.430Z</time>
      </trkpt>
      <trkpt lat="47.01159" lon="5.80585">
        <ele>312</ele>
        <time>2022-03-17T12:30:07.338Z</time>
      </trkpt>
      <trkpt lat="47.01155" lon="5.80582">
        <ele>312</ele>
        <time>2022-03-17T12:30:11.425Z</time>
      </trkpt>
      <trkpt lat="47.0115" lon="5.80578">
        <ele>312</ele>
        <time>2022-03-17T12:30:16.368Z</time>
      </trkpt>
      <trkpt lat="47.01143" lon="5.80575">
        <ele>312</ele>
        <time>2022-03-17T12:30:21.397Z</time>
      </trkpt>
      <trkpt lat="47.01137" lon="5.80571">
        <ele>312</ele>
        <time>2022-03-17T12:30:25.386Z</time>
      </trkpt>
      <trkpt lat="47.0113" lon="5.80567">
        <ele>311</ele>
        <time>2022-03-17T12:30:30.387Z</time>
      </trkpt>
      <trkpt lat="47.01123" lon="5.80564">
        <ele>312</ele>
        <time>2022-03-17T12:30:35.361Z</time>
      </trkpt>
      <trkpt lat="47.01119" lon="5.80561">
        <ele>312</ele>
        <time>2022-03-17T12:30:40.374Z</time>
      </trkpt>
      <trkpt lat="47.01109" lon="5.80559">
        <ele>312</ele>
        <time>2022-03-17T12:30:45.379Z</time>
      </trkpt>
      <trkpt lat="47.01105" lon="5.80558">
        <ele>312</ele>
        <time>2022-03-17T12:30:49.379Z</time>
      </trkpt>
      <trkpt lat="47.011" lon="5.80559">
        <ele>312</ele>
        <time>2022-03-17T12:30:54.400Z</time>
      </trkpt>
      <trkpt lat="47.01094" lon="5.8056">
        <ele>313</ele>
        <time>2022-03-17T12:30:59.378Z</time>
      </trkpt>
      <trkpt lat="47.01088" lon="5.80561">
        <ele>313</ele>
        <time>2022-03-17T12:31:04.338Z</time>
      </trkpt>
      <trkpt lat="47.01082" lon="5.80561">
        <ele>313</ele>
        <time>2022-03-17T12:31:09.401Z</time>
      </trkpt>
      <trkpt lat="47.01075" lon="5.80559">
        <ele>313</ele>
        <time>2022-03-17T12:31:14.351Z</time>
      </trkpt>
      <trkpt lat="47.0107" lon="5.80558">
        <ele>313</ele>
        <time>2022-03-17T12:31:18.372Z</time>
      </trkpt>
      <trkpt lat="47.01062" lon="5.80556">
        <ele>314</ele>
        <time>2022-03-17T12:31:23.363Z</time>
      </trkpt>
      <trkpt lat="47.01056" lon="5.80554">
        <ele>314</ele>
        <time>2022-03-17T12:31:28.355Z</time>
      </trkpt>
      <trkpt lat="47.0105" lon="5.80552">
        <ele>314</ele>
        <time>2022-03-17T12:31:33.369Z</time>
      </trkpt>
      <trkpt lat="47.01044" lon="5.80549">
        <ele>314</ele>
        <time>2022-03-17T12:31:38.376Z</time>
      </trkpt>
      <trkpt lat="47.01038" lon="5.80547">
        <ele>315</ele>
        <time>2022-03-17T12:31:43.380Z</time>
      </trkpt>
      <trkpt lat="47.01031" lon="5.80546">
        <ele>315</ele>
        <time>2022-03-17T12:31:48.415Z</time>
      </trkpt>
      <trkpt lat="47.01025" lon="5.80546">
        <ele>315</ele>
        <time>2022-03-17T12:31:53.359Z</time>
      </trkpt>
      <trkpt lat="47.01019" lon="5.80546">
        <ele>315</ele>
        <time>2022-03-17T12:31:58.368Z</time>
      </trkpt>
      <trkpt lat="47.01012" lon="5.80546">
        <ele>315</ele>
        <time>2022-03-17T12:32:02.381Z</time>
      </trkpt>
      <trkpt lat="47.01006" lon="5.80549">
        <ele>315</ele>
        <time>2022-03-17T12:32:07.367Z</time>
      </trkpt>
      <trkpt lat="47.00999" lon="5.80548">
        <ele>315</ele>
        <time>2022-03-17T12:32:12.356Z</time>
      </trkpt>
      <trkpt lat="47.00994" lon="5.80548">
        <ele>315</ele>
        <time>2022-03-17T12:32:17.367Z</time>
      </trkpt>
      <trkpt lat="47.00988" lon="5.80547">
        <ele>315</ele>
        <time>2022-03-17T12:32:21.399Z</time>
      </trkpt>
      <trkpt lat="47.00982" lon="5.80547">
        <ele>312</ele>
        <time>2022-03-17T12:32:26.344Z</time>
      </trkpt>
      <trkpt lat="47.00976" lon="5.80547">
        <ele>312</ele>
        <time>2022-03-17T12:32:31.387Z</time>
      </trkpt>
      <trkpt lat="47.00969" lon="5.80546">
        <ele>312</ele>
        <time>2022-03-17T12:32:36.359Z</time>
      </trkpt>
      <trkpt lat="47.00964" lon="5.80544">
        <ele>312</ele>
        <time>2022-03-17T12:32:41.343Z</time>
      </trkpt>
      <trkpt lat="47.00962" lon="5.80544">
        <ele>312</ele>
        <time>2022-03-17T12:32:45.383Z</time>
      </trkpt>
      <trkpt lat="47.00959" lon="5.80541">
        <ele>311</ele>
        <time>2022-03-17T12:32:54.350Z</time>
      </trkpt>
      <trkpt lat="47.00954" lon="5.80538">
        <ele>309</ele>
        <time>2022-03-17T12:32:59.366Z</time>
      </trkpt>
      <trkpt lat="47.00949" lon="5.80535">
        <ele>309</ele>
        <time>2022-03-17T12:33:04.355Z</time>
      </trkpt>
      <trkpt lat="47.00944" lon="5.80532">
        <ele>309</ele>
        <time>2022-03-17T12:33:09.352Z</time>
      </trkpt>
      <trkpt lat="47.00941" lon="5.8053">
        <ele>309</ele>
        <time>2022-03-17T12:33:13.371Z</time>
      </trkpt>
      <trkpt lat="47.00941" lon="5.80531">
        <ele>309</ele>
        <time>2022-03-17T12:33:18.321Z</time>
      </trkpt>
      <trkpt lat="47.00939" lon="5.80529">
        <ele>309</ele>
        <time>2022-03-17T12:33:26.385Z</time>
      </trkpt>
      <trkpt lat="47.00933" lon="5.80526">
        <ele>309</ele>
        <time>2022-03-17T12:33:31.383Z</time>
      </trkpt>
      <trkpt lat="47.0093" lon="5.80524">
        <ele>307</ele>
        <time>2022-03-17T12:33:36.389Z</time>
      </trkpt>
      <trkpt lat="47.00924" lon="5.8052">
        <ele>307</ele>
        <time>2022-03-17T12:33:41.349Z</time>
      </trkpt>
      <trkpt lat="47.0092" lon="5.80516">
        <ele>307</ele>
        <time>2022-03-17T12:33:45.362Z</time>
      </trkpt>
      <trkpt lat="47.00915" lon="5.80512">
        <ele>306</ele>
        <time>2022-03-17T12:33:49.368Z</time>
      </trkpt>
      <trkpt lat="47.0091" lon="5.80511">
        <ele>306</ele>
        <time>2022-03-17T12:33:53.375Z</time>
      </trkpt>
      <trkpt lat="47.00905" lon="5.8051">
        <ele>306</ele>
        <time>2022-03-17T12:33:58.286Z</time>
      </trkpt>
      <trkpt lat="47.00902" lon="5.80513">
        <ele>303</ele>
        <time>2022-03-17T12:34:02.377Z</time>
      </trkpt>
      <trkpt lat="47.00898" lon="5.80516">
        <ele>303</ele>
        <time>2022-03-17T12:34:07.356Z</time>
      </trkpt>
      <trkpt lat="47.00891" lon="5.8052">
        <ele>303</ele>
        <time>2022-03-17T12:34:12.412Z</time>
      </trkpt>
      <trkpt lat="47.00886" lon="5.80524">
        <ele>303</ele>
        <time>2022-03-17T12:34:17.387Z</time>
      </trkpt>
      <trkpt lat="47.00884" lon="5.80532">
        <ele>303</ele>
        <time>2022-03-17T12:34:22.394Z</time>
      </trkpt>
      <trkpt lat="47.00883" lon="5.80539">
        <ele>303</ele>
        <time>2022-03-17T12:34:27.391Z</time>
      </trkpt>
      <trkpt lat="47.00883" lon="5.80539">
        <ele>303</ele>
        <time>2022-03-17T12:34:31.383Z</time>
      </trkpt>
      <trkpt lat="47.00885" lon="5.80546">
        <ele>303</ele>
        <time>2022-03-17T12:34:41.389Z</time>
      </trkpt>
      <trkpt lat="47.00889" lon="5.80551">
        <ele>303</ele>
        <time>2022-03-17T12:34:46.379Z</time>
      </trkpt>
      <trkpt lat="47.0089" lon="5.80558">
        <ele>303</ele>
        <time>2022-03-17T12:34:51.367Z</time>
      </trkpt>
      <trkpt lat="47.00889" lon="5.80569">
        <ele>303</ele>
        <time>2022-03-17T12:34:56.408Z</time>
      </trkpt>
      <trkpt lat="47.00888" lon="5.80578">
        <ele>304</ele>
        <time>2022-03-17T12:35:01.387Z</time>
      </trkpt>
      <trkpt lat="47.00889" lon="5.80585">
        <ele>304</ele>
        <time>2022-03-17T12:35:06.338Z</time>
      </trkpt>
      <trkpt lat="47.00891" lon="5.80591">
        <ele>304</ele>
        <time>2022-03-17T12:35:10.356Z</time>
      </trkpt>
      <trkpt lat="47.0089" lon="5.80599">
        <ele>304</ele>
        <time>2022-03-17T12:35:15.378Z</time>
      </trkpt>
      <trkpt lat="47.0089" lon="5.80605">
        <ele>304</ele>
        <time>2022-03-17T12:35:20.346Z</time>
      </trkpt>
      <trkpt lat="47.0089" lon="5.80606">
        <ele>304</ele>
        <time>2022-03-17T12:35:25.388Z</time>
      </trkpt>
      <trkpt lat="47.0089" lon="5.80615">
        <ele>304</ele>
        <time>2022-03-17T12:35:30.342Z</time>
      </trkpt>
      <trkpt lat="47.00888" lon="5.80624">
        <ele>304</ele>
        <time>2022-03-17T12:35:35.393Z</time>
      </trkpt>
      <trkpt lat="47.00884" lon="5.80628">
        <ele>303</ele>
        <time>2022-03-17T12:35:40.386Z</time>
      </trkpt>
      <trkpt lat="47.00881" lon="5.80633">
        <ele>303</ele>
        <time>2022-03-17T12:35:45.362Z</time>
      </trkpt>
      <trkpt lat="47.00881" lon="5.80637">
        <ele>303</ele>
        <time>2022-03-17T12:35:50.380Z</time>
      </trkpt>
      <trkpt lat="47.00879" lon="5.80642">
        <ele>303</ele>
        <time>2022-03-17T12:35:55.347Z</time>
      </trkpt>
      <trkpt lat="47.00873" lon="5.80644">
        <ele>298</ele>
        <time>2022-03-17T12:36:00.312Z</time>
      </trkpt>
      <trkpt lat="47.00869" lon="5.80645">
        <ele>298</ele>
        <time>2022-03-17T12:36:04.356Z</time>
      </trkpt>
      <trkpt lat="47.00866" lon="5.80646">
        <ele>298</ele>
        <time>2022-03-17T12:36:09.354Z</time>
      </trkpt>
      <trkpt lat="47.00863" lon="5.80647">
        <ele>298</ele>
        <time>2022-03-17T12:36:13.355Z</time>
      </trkpt>
      <trkpt lat="47.00859" lon="5.80647">
        <ele>298</ele>
        <time>2022-03-17T12:36:18.385Z</time>
      </trkpt>
      <trkpt lat="47.00853" lon="5.80648">
        <ele>298</ele>
        <time>2022-03-17T12:36:23.398Z</time>
      </trkpt>
      <trkpt lat="47.00847" lon="5.80648">
        <ele>291</ele>
        <time>2022-03-17T12:36:28.374Z</time>
      </trkpt>
      <trkpt lat="47.00842" lon="5.80647">
        <ele>291</ele>
        <time>2022-03-17T12:36:33.367Z</time>
      </trkpt>
      <trkpt lat="47.00836" lon="5.80644">
        <ele>291</ele>
        <time>2022-03-17T12:36:38.332Z</time>
      </trkpt>
      <trkpt lat="47.00832" lon="5.80645">
        <ele>291</ele>
        <time>2022-03-17T12:36:43.290Z</time>
      </trkpt>
      <trkpt lat="47.00826" lon="5.80643">
        <ele>291</ele>
        <time>2022-03-17T12:36:48.291Z</time>
      </trkpt>
      <trkpt lat="47.0082" lon="5.80645">
        <ele>291</ele>
        <time>2022-03-17T12:36:53.324Z</time>
      </trkpt>
      <trkpt lat="47.00816" lon="5.80645">
        <ele>288</ele>
        <time>2022-03-17T12:36:58.309Z</time>
      </trkpt>
      <trkpt lat="47.00813" lon="5.80645">
        <ele>288</ele>
        <time>2022-03-17T12:37:02.329Z</time>
      </trkpt>
      <trkpt lat="47.00808" lon="5.80648">
        <ele>288</ele>
        <time>2022-03-17T12:37:06.366Z</time>
      </trkpt>
      <trkpt lat="47.00806" lon="5.80651">
        <ele>288</ele>
        <time>2022-03-17T12:37:11.401Z</time>
      </trkpt>
      <trkpt lat="47.008" lon="5.80655">
        <ele>289</ele>
        <time>2022-03-17T12:37:16.368Z</time>
      </trkpt>
      <trkpt lat="47.00795" lon="5.80658">
        <ele>289</ele>
        <time>2022-03-17T12:37:21.345Z</time>
      </trkpt>
      <trkpt lat="47.00795" lon="5.80658">
        <ele>289</ele>
        <time>2022-03-17T12:37:26.351Z</time>
      </trkpt>
      <trkpt lat="47.00792" lon="5.80659">
        <ele>291</ele>
        <time>2022-03-17T12:37:40.337Z</time>
      </trkpt>
      <trkpt lat="47.00787" lon="5.80659">
        <ele>291</ele>
        <time>2022-03-17T12:38:38.369Z</time>
      </trkpt>
      <trkpt lat="47.00787" lon="5.80661">
        <ele>291</ele>
        <time>2022-03-17T12:38:43.386Z</time>
      </trkpt>
      <trkpt lat="47.00782" lon="5.80663">
        <ele>291</ele>
        <time>2022-03-17T12:38:48.372Z</time>
      </trkpt>
      <trkpt lat="47.00779" lon="5.80666">
        <ele>291</ele>
        <time>2022-03-17T12:38:53.372Z</time>
      </trkpt>
      <trkpt lat="47.00775" lon="5.8067">
        <ele>291</ele>
        <time>2022-03-17T12:38:58.378Z</time>
      </trkpt>
      <trkpt lat="47.00772" lon="5.80673">
        <ele>291</ele>
        <time>2022-03-17T12:39:03.364Z</time>
      </trkpt>
      <trkpt lat="47.0077" lon="5.80676">
        <ele>291</ele>
        <time>2022-03-17T12:39:08.344Z</time>
      </trkpt>
      <trkpt lat="47.00765" lon="5.8068">
        <ele>291</ele>
        <time>2022-03-17T12:39:13.407Z</time>
      </trkpt>
      <trkpt lat="47.00763" lon="5.80684">
        <ele>295</ele>
        <time>2022-03-17T12:39:18.397Z</time>
      </trkpt>
      <trkpt lat="47.00761" lon="5.80687">
        <ele>295</ele>
        <time>2022-03-17T12:39:23.374Z</time>
      </trkpt>
      <trkpt lat="47.00759" lon="5.80688">
        <ele>295</ele>
        <time>2022-03-17T12:39:27.352Z</time>
      </trkpt>
      <trkpt lat="47.00753" lon="5.80691">
        <ele>295</ele>
        <time>2022-03-17T12:39:32.361Z</time>
      </trkpt>
      <trkpt lat="47.00746" lon="5.80695">
        <ele>295</ele>
        <time>2022-03-17T12:39:37.345Z</time>
      </trkpt>
      <trkpt lat="47.00743" lon="5.80698">
        <ele>295</ele>
        <time>2022-03-17T12:39:41.405Z</time>
      </trkpt>
      <trkpt lat="47.00741" lon="5.80705">
        <ele>295</ele>
        <time>2022-03-17T12:39:46.339Z</time>
      </trkpt>
      <trkpt lat="47.00741" lon="5.80713">
        <ele>296</ele>
        <time>2022-03-17T12:39:51.348Z</time>
      </trkpt>
      <trkpt lat="47.0074" lon="5.80718">
        <ele>296</ele>
        <time>2022-03-17T12:39:56.332Z</time>
      </trkpt>
      <trkpt lat="47.00739" lon="5.80726">
        <ele>296</ele>
        <time>2022-03-17T12:40:01.365Z</time>
      </trkpt>
      <trkpt lat="47.00739" lon="5.80733">
        <ele>296</ele>
        <time>2022-03-17T12:40:06.373Z</time>
      </trkpt>
      <trkpt lat="47.00739" lon="5.80739">
        <ele>295</ele>
        <time>2022-03-17T12:40:11.369Z</time>
      </trkpt>
      <trkpt lat="47.00739" lon="5.80746">
        <ele>295</ele>
        <time>2022-03-17T12:40:16.359Z</time>
      </trkpt>
      <trkpt lat="47.00738" lon="5.80752">
        <ele>295</ele>
        <time>2022-03-17T12:40:21.357Z</time>
      </trkpt>
      <trkpt lat="47.00736" lon="5.80759">
        <ele>295</ele>
        <time>2022-03-17T12:40:26.372Z</time>
      </trkpt>
      <trkpt lat="47.00734" lon="5.80762">
        <ele>299</ele>
        <time>2022-03-17T12:40:31.405Z</time>
      </trkpt>
      <trkpt lat="47.0073" lon="5.80762">
        <ele>299</ele>
        <time>2022-03-17T12:40:36.422Z</time>
      </trkpt>
      <trkpt lat="47.00728" lon="5.8076">
        <ele>299</ele>
        <time>2022-03-17T12:40:41.359Z</time>
      </trkpt>
      <trkpt lat="47.00724" lon="5.80756">
        <ele>299</ele>
        <time>2022-03-17T12:40:46.365Z</time>
      </trkpt>
      <trkpt lat="47.00722" lon="5.80753">
        <ele>299</ele>
        <time>2022-03-17T12:40:51.352Z</time>
      </trkpt>
      <trkpt lat="47.00719" lon="5.80751">
        <ele>299</ele>
        <time>2022-03-17T12:40:56.335Z</time>
      </trkpt>
      <trkpt lat="47.00715" lon="5.80749">
        <ele>299</ele>
        <time>2022-03-17T12:41:00.381Z</time>
      </trkpt>
      <trkpt lat="47.00712" lon="5.80748">
        <ele>299</ele>
        <time>2022-03-17T12:41:05.414Z</time>
      </trkpt>
      <trkpt lat="47.0071" lon="5.80748">
        <ele>299</ele>
        <time>2022-03-17T12:41:10.366Z</time>
      </trkpt>
      <trkpt lat="47.00706" lon="5.80747">
        <ele>302</ele>
        <time>2022-03-17T12:41:14.407Z</time>
      </trkpt>
      <trkpt lat="47.00703" lon="5.80745">
        <ele>302</ele>
        <time>2022-03-17T12:41:33.353Z</time>
      </trkpt>
      <trkpt lat="47.00702" lon="5.80739">
        <ele>302</ele>
        <time>2022-03-17T12:41:38.343Z</time>
      </trkpt>
      <trkpt lat="47.00704" lon="5.80737">
        <ele>302</ele>
        <time>2022-03-17T12:41:42.380Z</time>
      </trkpt>
      <trkpt lat="47.00707" lon="5.80735">
        <ele>302</ele>
        <time>2022-03-17T12:41:46.393Z</time>
      </trkpt>
      <trkpt lat="47.00708" lon="5.80735">
        <ele>302</ele>
        <time>2022-03-17T12:41:51.353Z</time>
      </trkpt>
      <trkpt lat="47.0071" lon="5.80737">
        <ele>299</ele>
        <time>2022-03-17T12:41:56.358Z</time>
      </trkpt>
      <trkpt lat="47.00707" lon="5.80741">
        <ele>302</ele>
        <time>2022-03-17T12:42:01.369Z</time>
      </trkpt>
      <trkpt lat="47.00706" lon="5.80742">
        <ele>302</ele>
        <time>2022-03-17T12:42:05.400Z</time>
      </trkpt>
      <trkpt lat="47.00705" lon="5.80743">
        <ele>302</ele>
        <time>2022-03-17T12:42:10.366Z</time>
      </trkpt>
      <trkpt lat="47.00702" lon="5.80745">
        <ele>302</ele>
        <time>2022-03-17T12:42:15.336Z</time>
      </trkpt>
      <trkpt lat="47.007" lon="5.80748">
        <ele>302</ele>
        <time>2022-03-17T12:42:19.365Z</time>
      </trkpt>
      <trkpt lat="47.00702" lon="5.80751">
        <ele>302</ele>
        <time>2022-03-17T12:42:24.348Z</time>
      </trkpt>
      <trkpt lat="47.00703" lon="5.80757">
        <ele>302</ele>
        <time>2022-03-17T12:42:29.362Z</time>
      </trkpt>
      <trkpt lat="47.00703" lon="5.80763">
        <ele>302</ele>
        <time>2022-03-17T12:42:34.375Z</time>
      </trkpt>
      <trkpt lat="47.00702" lon="5.8077">
        <ele>297</ele>
        <time>2022-03-17T12:42:39.354Z</time>
      </trkpt>
      <trkpt lat="47.00702" lon="5.80777">
        <ele>297</ele>
        <time>2022-03-17T12:42:43.388Z</time>
      </trkpt>
      <trkpt lat="47.00704" lon="5.80782">
        <ele>297</ele>
        <time>2022-03-17T12:42:48.356Z</time>
      </trkpt>
      <trkpt lat="47.00705" lon="5.80783">
        <ele>297</ele>
        <time>2022-03-17T12:42:53.353Z</time>
      </trkpt>
      <trkpt lat="47.00699" lon="5.80787">
        <ele>297</ele>
        <time>2022-03-17T12:46:16.330Z</time>
      </trkpt>
      <trkpt lat="47.00697" lon="5.80789">
        <ele>297</ele>
        <time>2022-03-17T12:46:21.332Z</time>
      </trkpt>
      <trkpt lat="47.00697" lon="5.80788">
        <ele>297</ele>
        <time>2022-03-17T12:46:26.327Z</time>
      </trkpt>
      <trkpt lat="47.00696" lon="5.80784">
        <ele>297</ele>
        <time>2022-03-17T12:46:31.318Z</time>
      </trkpt>
      <trkpt lat="47.00694" lon="5.80778">
        <ele>297</ele>
        <time>2022-03-17T12:46:36.315Z</time>
      </trkpt>
      <trkpt lat="47.00694" lon="5.80774">
        <ele>297</ele>
        <time>2022-03-17T12:46:40.338Z</time>
      </trkpt>
      <trkpt lat="47.00694" lon="5.80766">
        <ele>297</ele>
        <time>2022-03-17T12:46:45.333Z</time>
      </trkpt>
      <trkpt lat="47.00694" lon="5.8076">
        <ele>302</ele>
        <time>2022-03-17T12:46:50.304Z</time>
      </trkpt>
      <trkpt lat="47.00695" lon="5.8076">
        <ele>302</ele>
        <time>2022-03-17T12:46:54.329Z</time>
      </trkpt>
      <trkpt lat="47.00701" lon="5.80759">
        <ele>302</ele>
        <time>2022-03-17T12:47:19.317Z</time>
      </trkpt>
      <trkpt lat="47.00702" lon="5.80757">
        <ele>302</ele>
        <time>2022-03-17T12:47:24.329Z</time>
      </trkpt>
      <trkpt lat="47.00701" lon="5.80754">
        <ele>302</ele>
        <time>2022-03-17T12:47:29.332Z</time>
      </trkpt>
      <trkpt lat="47.00701" lon="5.80752">
        <ele>302</ele>
        <time>2022-03-17T12:47:34.317Z</time>
      </trkpt>
      <trkpt lat="47.00704" lon="5.80749">
        <ele>302</ele>
        <time>2022-03-17T12:47:48.326Z</time>
      </trkpt>
      <trkpt lat="47.0071" lon="5.80747">
        <ele>299</ele>
        <time>2022-03-17T12:49:00.315Z</time>
      </trkpt>
      <trkpt lat="47.00709" lon="5.80745">
        <ele>299</ele>
        <time>2022-03-17T12:50:36.323Z</time>
      </trkpt>
      <trkpt lat="47.00709" lon="5.80745">
        <ele>299</ele>
        <time>2022-03-17T12:50:41.332Z</time>
      </trkpt>
      <trkpt lat="47.0071" lon="5.8074">
        <ele>299</ele>
        <time>2022-03-17T12:51:16.340Z</time>
      </trkpt>
      <trkpt lat="47.0071" lon="5.80736">
        <ele>300</ele>
        <time>2022-03-17T12:51:26.344Z</time>
      </trkpt>
      <trkpt lat="47.0071" lon="5.8073">
        <ele>300</ele>
        <time>2022-03-17T12:51:31.318Z</time>
      </trkpt>
      <trkpt lat="47.00707" lon="5.80725">
        <ele>302</ele>
        <time>2022-03-17T12:51:36.324Z</time>
      </trkpt>
      <trkpt lat="47.00704" lon="5.80721">
        <ele>302</ele>
        <time>2022-03-17T12:51:41.324Z</time>
      </trkpt>
      <trkpt lat="47.00701" lon="5.80717">
        <ele>302</ele>
        <time>2022-03-17T12:51:45.351Z</time>
      </trkpt>
      <trkpt lat="47.00697" lon="5.80715">
        <ele>302</ele>
        <time>2022-03-17T12:51:50.287Z</time>
      </trkpt>
      <trkpt lat="47.00696" lon="5.80714">
        <ele>302</ele>
        <time>2022-03-17T12:51:54.338Z</time>
      </trkpt>
      <trkpt lat="47.00693" lon="5.80708">
        <ele>300</ele>
        <time>2022-03-17T12:51:59.314Z</time>
      </trkpt>
      <trkpt lat="47.00689" lon="5.80703">
        <ele>300</ele>
        <time>2022-03-17T12:52:04.341Z</time>
      </trkpt>
      <trkpt lat="47.00685" lon="5.80702">
        <ele>300</ele>
        <time>2022-03-17T12:52:09.316Z</time>
      </trkpt>
      <trkpt lat="47.00683" lon="5.80701">
        <ele>300</ele>
        <time>2022-03-17T12:52:14.331Z</time>
      </trkpt>
      <trkpt lat="47.00679" lon="5.80697">
        <ele>303</ele>
        <time>2022-03-17T12:52:19.350Z</time>
      </trkpt>
      <trkpt lat="47.00678" lon="5.80692">
        <ele>303</ele>
        <time>2022-03-17T12:52:24.326Z</time>
      </trkpt>
      <trkpt lat="47.00674" lon="5.80688">
        <ele>303</ele>
        <time>2022-03-17T12:52:29.330Z</time>
      </trkpt>
      <trkpt lat="47.00667" lon="5.80686">
        <ele>303</ele>
        <time>2022-03-17T12:52:34.319Z</time>
      </trkpt>
      <trkpt lat="47.00662" lon="5.80685">
        <ele>303</ele>
        <time>2022-03-17T12:52:39.326Z</time>
      </trkpt>
      <trkpt lat="47.00658" lon="5.80687">
        <ele>303</ele>
        <time>2022-03-17T12:52:44.346Z</time>
      </trkpt>
      <trkpt lat="47.00654" lon="5.80688">
        <ele>303</ele>
        <time>2022-03-17T12:52:49.315Z</time>
      </trkpt>
      <trkpt lat="47.00649" lon="5.80689">
        <ele>307</ele>
        <time>2022-03-17T12:52:54.334Z</time>
      </trkpt>
      <trkpt lat="47.00643" lon="5.80692">
        <ele>307</ele>
        <time>2022-03-17T12:52:59.352Z</time>
      </trkpt>
      <trkpt lat="47.00639" lon="5.80695">
        <ele>307</ele>
        <time>2022-03-17T12:53:04.311Z</time>
      </trkpt>
      <trkpt lat="47.00637" lon="5.80697">
        <ele>307</ele>
        <time>2022-03-17T12:53:08.340Z</time>
      </trkpt>
      <trkpt lat="47.00633" lon="5.80699">
        <ele>307</ele>
        <time>2022-03-17T12:53:12.360Z</time>
      </trkpt>
      <trkpt lat="47.00629" lon="5.80701">
        <ele>307</ele>
        <time>2022-03-17T12:53:17.321Z</time>
      </trkpt>
      <trkpt lat="47.00628" lon="5.807">
        <ele>307</ele>
        <time>2022-03-17T12:53:21.342Z</time>
      </trkpt>
      <trkpt lat="47.00624" lon="5.80702">
        <ele>313</ele>
        <time>2022-03-17T12:53:26.318Z</time>
      </trkpt>
      <trkpt lat="47.0062" lon="5.80704">
        <ele>313</ele>
        <time>2022-03-17T12:53:31.304Z</time>
      </trkpt>
      <trkpt lat="47.00619" lon="5.80704">
        <ele>313</ele>
        <time>2022-03-17T12:53:35.336Z</time>
      </trkpt>
      <trkpt lat="47.00616" lon="5.80705">
        <ele>313</ele>
        <time>2022-03-17T12:53:40.344Z</time>
      </trkpt>
      <trkpt lat="47.00613" lon="5.80706">
        <ele>313</ele>
        <time>2022-03-17T12:53:45.336Z</time>
      </trkpt>
      <trkpt lat="47.00608" lon="5.80709">
        <ele>315</ele>
        <time>2022-03-17T12:53:50.348Z</time>
      </trkpt>
      <trkpt lat="47.00605" lon="5.8071">
        <ele>315</ele>
        <time>2022-03-17T12:53:55.338Z</time>
      </trkpt>
      <trkpt lat="47.00602" lon="5.80712">
        <ele>315</ele>
        <time>2022-03-17T12:54:00.341Z</time>
      </trkpt>
      <trkpt lat="47.00597" lon="5.80714">
        <ele>320</ele>
        <time>2022-03-17T12:54:05.342Z</time>
      </trkpt>
      <trkpt lat="47.00593" lon="5.80717">
        <ele>320</ele>
        <time>2022-03-17T12:54:10.334Z</time>
      </trkpt>
      <trkpt lat="47.00592" lon="5.80718">
        <ele>320</ele>
        <time>2022-03-17T12:54:15.337Z</time>
      </trkpt>
      <trkpt lat="47.0059" lon="5.80723">
        <ele>320</ele>
        <time>2022-03-17T12:54:25.347Z</time>
      </trkpt>
      <trkpt lat="47.00586" lon="5.80725">
        <ele>320</ele>
        <time>2022-03-17T12:54:30.343Z</time>
      </trkpt>
      <trkpt lat="47.00582" lon="5.80728">
        <ele>320</ele>
        <time>2022-03-17T12:54:35.352Z</time>
      </trkpt>
      <trkpt lat="47.00578" lon="5.80731">
        <ele>320</ele>
        <time>2022-03-17T12:54:40.323Z</time>
      </trkpt>
      <trkpt lat="47.00573" lon="5.80734">
        <ele>320</ele>
        <time>2022-03-17T12:54:45.315Z</time>
      </trkpt>
      <trkpt lat="47.0057" lon="5.80735">
        <ele>320</ele>
        <time>2022-03-17T12:54:50.335Z</time>
      </trkpt>
      <trkpt lat="47.00565" lon="5.80735">
        <ele>324</ele>
        <time>2022-03-17T12:54:55.337Z</time>
      </trkpt>
      <trkpt lat="47.0056" lon="5.80737">
        <ele>324</ele>
        <time>2022-03-17T12:55:00.303Z</time>
      </trkpt>
      <trkpt lat="47.00558" lon="5.80738">
        <ele>324</ele>
        <time>2022-03-17T12:55:04.318Z</time>
      </trkpt>
      <trkpt lat="47.00552" lon="5.8074">
        <ele>324</ele>
        <time>2022-03-17T12:55:09.313Z</time>
      </trkpt>
      <trkpt lat="47.00548" lon="5.80742">
        <ele>324</ele>
        <time>2022-03-17T12:55:14.323Z</time>
      </trkpt>
      <trkpt lat="47.00544" lon="5.80745">
        <ele>324</ele>
        <time>2022-03-17T12:55:19.340Z</time>
      </trkpt>
      <trkpt lat="47.00538" lon="5.80747">
        <ele>329</ele>
        <time>2022-03-17T12:55:24.324Z</time>
      </trkpt>
      <trkpt lat="47.00534" lon="5.80747">
        <ele>329</ele>
        <time>2022-03-17T12:55:29.321Z</time>
      </trkpt>
      <trkpt lat="47.00531" lon="5.8075">
        <ele>329</ele>
        <time>2022-03-17T12:55:34.340Z</time>
      </trkpt>
      <trkpt lat="47.00528" lon="5.80756">
        <ele>329</ele>
        <time>2022-03-17T12:55:44.323Z</time>
      </trkpt>
      <trkpt lat="47.00527" lon="5.8076">
        <ele>329</ele>
        <time>2022-03-17T12:55:59.335Z</time>
      </trkpt>
      <trkpt lat="47.00524" lon="5.8076">
        <ele>329</ele>
        <time>2022-03-17T12:56:09.338Z</time>
      </trkpt>
      <trkpt lat="47.00521" lon="5.80759">
        <ele>329</ele>
        <time>2022-03-17T12:56:14.329Z</time>
      </trkpt>
      <trkpt lat="47.00517" lon="5.80757">
        <ele>329</ele>
        <time>2022-03-17T12:56:18.356Z</time>
      </trkpt>
      <trkpt lat="47.00512" lon="5.8076">
        <ele>333</ele>
        <time>2022-03-17T12:56:23.318Z</time>
      </trkpt>
      <trkpt lat="47.00508" lon="5.8076">
        <ele>333</ele>
        <time>2022-03-17T12:56:28.340Z</time>
      </trkpt>
      <trkpt lat="47.00504" lon="5.80759">
        <ele>333</ele>
        <time>2022-03-17T12:56:33.344Z</time>
      </trkpt>
      <trkpt lat="47.00499" lon="5.80756">
        <ele>333</ele>
        <time>2022-03-17T12:56:38.337Z</time>
      </trkpt>
      <trkpt lat="47.00494" lon="5.80756">
        <ele>333</ele>
        <time>2022-03-17T12:56:43.328Z</time>
      </trkpt>
      <trkpt lat="47.00491" lon="5.80753">
        <ele>333</ele>
        <time>2022-03-17T12:56:47.363Z</time>
      </trkpt>
      <trkpt lat="47.00486" lon="5.80754">
        <ele>337</ele>
        <time>2022-03-17T12:56:52.356Z</time>
      </trkpt>
      <trkpt lat="47.00484" lon="5.80755">
        <ele>337</ele>
        <time>2022-03-17T12:56:56.356Z</time>
      </trkpt>
      <trkpt lat="47.00479" lon="5.80756">
        <ele>337</ele>
        <time>2022-03-17T12:57:01.316Z</time>
      </trkpt>
      <trkpt lat="47.00474" lon="5.80757">
        <ele>337</ele>
        <time>2022-03-17T12:57:05.333Z</time>
      </trkpt>
      <trkpt lat="47.0047" lon="5.80755">
        <ele>337</ele>
        <time>2022-03-17T12:57:10.351Z</time>
      </trkpt>
      <trkpt lat="47.00466" lon="5.80755">
        <ele>337</ele>
        <time>2022-03-17T12:57:15.338Z</time>
      </trkpt>
      <trkpt lat="47.0046" lon="5.80754">
        <ele>337</ele>
        <time>2022-03-17T12:57:20.329Z</time>
      </trkpt>
      <trkpt lat="47.00456" lon="5.80754">
        <ele>341</ele>
        <time>2022-03-17T12:57:25.349Z</time>
      </trkpt>
      <trkpt lat="47.00451" lon="5.80755">
        <ele>341</ele>
        <time>2022-03-17T12:57:30.344Z</time>
      </trkpt>
      <trkpt lat="47.00445" lon="5.80758">
        <ele>341</ele>
        <time>2022-03-17T12:57:35.358Z</time>
      </trkpt>
      <trkpt lat="47.00441" lon="5.80761">
        <ele>341</ele>
        <time>2022-03-17T12:57:39.349Z</time>
      </trkpt>
      <trkpt lat="47.00436" lon="5.80761">
        <ele>341</ele>
        <time>2022-03-17T12:57:44.321Z</time>
      </trkpt>
      <trkpt lat="47.0043" lon="5.80763">
        <ele>345</ele>
        <time>2022-03-17T12:57:49.350Z</time>
      </trkpt>
      <trkpt lat="47.00424" lon="5.80766">
        <ele>344</ele>
        <time>2022-03-17T12:57:54.331Z</time>
      </trkpt>
      <trkpt lat="47.00423" lon="5.80767">
        <ele>344</ele>
        <time>2022-03-17T12:57:59.334Z</time>
      </trkpt>
      <trkpt lat="47.00417" lon="5.80769">
        <ele>344</ele>
        <time>2022-03-17T12:58:03.349Z</time>
      </trkpt>
      <trkpt lat="47.00412" lon="5.80766">
        <ele>344</ele>
        <time>2022-03-17T12:58:08.327Z</time>
      </trkpt>
      <trkpt lat="47.00406" lon="5.80768">
        <ele>344</ele>
        <time>2022-03-17T12:58:13.329Z</time>
      </trkpt>
      <trkpt lat="47.00403" lon="5.80772">
        <ele>346</ele>
        <time>2022-03-17T12:58:18.319Z</time>
      </trkpt>
      <trkpt lat="47.00398" lon="5.80775">
        <ele>346</ele>
        <time>2022-03-17T12:58:23.322Z</time>
      </trkpt>
      <trkpt lat="47.00394" lon="5.80779">
        <ele>346</ele>
        <time>2022-03-17T12:58:27.343Z</time>
      </trkpt>
      <trkpt lat="47.00386" lon="5.80781">
        <ele>346</ele>
        <time>2022-03-17T12:58:32.352Z</time>
      </trkpt>
      <trkpt lat="47.00382" lon="5.80782">
        <ele>346</ele>
        <time>2022-03-17T12:58:37.337Z</time>
      </trkpt>
      <trkpt lat="47.00376" lon="5.80788">
        <ele>346</ele>
        <time>2022-03-17T12:58:42.340Z</time>
      </trkpt>
      <trkpt lat="47.00372" lon="5.80791">
        <ele>350</ele>
        <time>2022-03-17T12:58:47.349Z</time>
      </trkpt>
      <trkpt lat="47.00368" lon="5.80793">
        <ele>351</ele>
        <time>2022-03-17T12:58:52.322Z</time>
      </trkpt>
      <trkpt lat="47.00364" lon="5.80796">
        <ele>351</ele>
        <time>2022-03-17T12:58:56.327Z</time>
      </trkpt>
      <trkpt lat="47.00356" lon="5.80797">
        <ele>351</ele>
        <time>2022-03-17T12:59:01.350Z</time>
      </trkpt>
      <trkpt lat="47.0035" lon="5.80799">
        <ele>351</ele>
        <time>2022-03-17T12:59:06.334Z</time>
      </trkpt>
      <trkpt lat="47.00346" lon="5.80799">
        <ele>356</ele>
        <time>2022-03-17T12:59:11.340Z</time>
      </trkpt>
      <trkpt lat="47.00342" lon="5.80801">
        <ele>356</ele>
        <time>2022-03-17T12:59:15.347Z</time>
      </trkpt>
      <trkpt lat="47.00337" lon="5.80803">
        <ele>356</ele>
        <time>2022-03-17T12:59:20.366Z</time>
      </trkpt>
      <trkpt lat="47.0033" lon="5.80807">
        <ele>356</ele>
        <time>2022-03-17T12:59:25.308Z</time>
      </trkpt>
      <trkpt lat="47.00324" lon="5.80807">
        <ele>356</ele>
        <time>2022-03-17T12:59:29.309Z</time>
      </trkpt>
      <trkpt lat="47.00319" lon="5.80809">
        <ele>358</ele>
        <time>2022-03-17T12:59:34.402Z</time>
      </trkpt>
      <trkpt lat="47.00314" lon="5.80809">
        <ele>358</ele>
        <time>2022-03-17T12:59:39.302Z</time>
      </trkpt>
      <trkpt lat="47.00309" lon="5.80808">
        <ele>358</ele>
        <time>2022-03-17T12:59:44.281Z</time>
      </trkpt>
      <trkpt lat="47.00305" lon="5.80808">
        <ele>358</ele>
        <time>2022-03-17T12:59:48.315Z</time>
      </trkpt>
      <trkpt lat="47.00302" lon="5.80807">
        <ele>358</ele>
        <time>2022-03-17T12:59:53.306Z</time>
      </trkpt>
      <trkpt lat="47.00299" lon="5.80806">
        <ele>358</ele>
        <time>2022-03-17T12:59:57.312Z</time>
      </trkpt>
      <trkpt lat="47.00296" lon="5.80804">
        <ele>358</ele>
        <time>2022-03-17T13:00:01.368Z</time>
      </trkpt>
      <trkpt lat="47.00292" lon="5.80801">
        <ele>358</ele>
        <time>2022-03-17T13:00:06.360Z</time>
      </trkpt>
      <trkpt lat="47.00288" lon="5.80799">
        <ele>359</ele>
        <time>2022-03-17T13:00:29.355Z</time>
      </trkpt>
      <trkpt lat="47.00286" lon="5.80797">
        <ele>359</ele>
        <time>2022-03-17T13:00:34.350Z</time>
      </trkpt>
      <trkpt lat="47.00284" lon="5.80799">
        <ele>359</ele>
        <time>2022-03-17T13:00:56.361Z</time>
      </trkpt>
      <trkpt lat="47.00284" lon="5.808">
        <ele>359</ele>
        <time>2022-03-17T13:01:01.388Z</time>
      </trkpt>
      <trkpt lat="47.0028" lon="5.80802">
        <ele>359</ele>
        <time>2022-03-17T13:01:06.328Z</time>
      </trkpt>
      <trkpt lat="47.00282" lon="5.80799">
        <ele>359</ele>
        <time>2022-03-17T13:01:44.361Z</time>
      </trkpt>
      <trkpt lat="47.00283" lon="5.80798">
        <ele>359</ele>
        <time>2022-03-17T13:01:49.382Z</time>
      </trkpt>
      <trkpt lat="47.00284" lon="5.80796">
        <ele>359</ele>
        <time>2022-03-17T13:02:04.374Z</time>
      </trkpt>
      <trkpt lat="47.00284" lon="5.80796">
        <ele>359</ele>
        <time>2022-03-17T13:02:09.383Z</time>
      </trkpt>
      <trkpt lat="47.00285" lon="5.80793">
        <ele>359</ele>
        <time>2022-03-17T13:02:14.390Z</time>
      </trkpt>
      <trkpt lat="47.00284" lon="5.80797">
        <ele>359</ele>
        <time>2022-03-17T13:04:14.362Z</time>
      </trkpt>
      <trkpt lat="47.00284" lon="5.80799">
        <ele>359</ele>
        <time>2022-03-17T13:04:18.370Z</time>
      </trkpt>
      <trkpt lat="47.00283" lon="5.80803">
        <ele>359</ele>
        <time>2022-03-17T13:04:23.370Z</time>
      </trkpt>
      <trkpt lat="47.00282" lon="5.80808">
        <ele>359</ele>
        <time>2022-03-17T13:04:28.366Z</time>
      </trkpt>
      <trkpt lat="47.00279" lon="5.80815">
        <ele>359</ele>
        <time>2022-03-17T13:04:33.392Z</time>
      </trkpt>
      <trkpt lat="47.00277" lon="5.80821">
        <ele>358</ele>
        <time>2022-03-17T13:04:38.403Z</time>
      </trkpt>
      <trkpt lat="47.00272" lon="5.80826">
        <ele>358</ele>
        <time>2022-03-17T13:04:43.360Z</time>
      </trkpt>
      <trkpt lat="47.00268" lon="5.80832">
        <ele>358</ele>
        <time>2022-03-17T13:04:48.337Z</time>
      </trkpt>
      <trkpt lat="47.00265" lon="5.80837">
        <ele>358</ele>
        <time>2022-03-17T13:04:52.353Z</time>
      </trkpt>
      <trkpt lat="47.00262" lon="5.80841">
        <ele>359</ele>
        <time>2022-03-17T13:04:56.354Z</time>
      </trkpt>
      <trkpt lat="47.00258" lon="5.80845">
        <ele>359</ele>
        <time>2022-03-17T13:05:01.367Z</time>
      </trkpt>
      <trkpt lat="47.00254" lon="5.8085">
        <ele>357</ele>
        <time>2022-03-17T13:05:06.368Z</time>
      </trkpt>
      <trkpt lat="47.00252" lon="5.80857">
        <ele>357</ele>
        <time>2022-03-17T13:05:10.439Z</time>
      </trkpt>
      <trkpt lat="47.0025" lon="5.80866">
        <ele>357</ele>
        <time>2022-03-17T13:05:15.363Z</time>
      </trkpt>
      <trkpt lat="47.00251" lon="5.80871">
        <ele>357</ele>
        <time>2022-03-17T13:05:19.355Z</time>
      </trkpt>
      <trkpt lat="47.00254" lon="5.80879">
        <ele>356</ele>
        <time>2022-03-17T13:05:24.361Z</time>
      </trkpt>
      <trkpt lat="47.00257" lon="5.80885">
        <ele>356</ele>
        <time>2022-03-17T13:05:28.366Z</time>
      </trkpt>
      <trkpt lat="47.00258" lon="5.80893">
        <ele>356</ele>
        <time>2022-03-17T13:05:33.367Z</time>
      </trkpt>
      <trkpt lat="47.00257" lon="5.80901">
        <ele>356</ele>
        <time>2022-03-17T13:05:38.353Z</time>
      </trkpt>
      <trkpt lat="47.00255" lon="5.80912">
        <ele>355</ele>
        <time>2022-03-17T13:05:43.402Z</time>
      </trkpt>
      <trkpt lat="47.00253" lon="5.8092">
        <ele>355</ele>
        <time>2022-03-17T13:05:48.369Z</time>
      </trkpt>
      <trkpt lat="47.00251" lon="5.80927">
        <ele>355</ele>
        <time>2022-03-17T13:05:52.422Z</time>
      </trkpt>
      <trkpt lat="47.0025" lon="5.80934">
        <ele>355</ele>
        <time>2022-03-17T13:05:56.359Z</time>
      </trkpt>
      <trkpt lat="47.00249" lon="5.80943">
        <ele>355</ele>
        <time>2022-03-17T13:06:01.360Z</time>
      </trkpt>
      <trkpt lat="47.00249" lon="5.80953">
        <ele>355</ele>
        <time>2022-03-17T13:06:06.353Z</time>
      </trkpt>
      <trkpt lat="47.00249" lon="5.80961">
        <ele>355</ele>
        <time>2022-03-17T13:06:11.347Z</time>
      </trkpt>
      <trkpt lat="47.00248" lon="5.80966">
        <ele>355</ele>
        <time>2022-03-17T13:06:15.367Z</time>
      </trkpt>
      <trkpt lat="47.00247" lon="5.80975">
        <ele>355</ele>
        <time>2022-03-17T13:06:20.372Z</time>
      </trkpt>
      <trkpt lat="47.00247" lon="5.80983">
        <ele>355</ele>
        <time>2022-03-17T13:06:25.358Z</time>
      </trkpt>
      <trkpt lat="47.00244" lon="5.80989">
        <ele>355</ele>
        <time>2022-03-17T13:06:29.396Z</time>
      </trkpt>
      <trkpt lat="47.00241" lon="5.80996">
        <ele>355</ele>
        <time>2022-03-17T13:06:34.349Z</time>
      </trkpt>
      <trkpt lat="47.00238" lon="5.81003">
        <ele>355</ele>
        <time>2022-03-17T13:06:39.366Z</time>
      </trkpt>
      <trkpt lat="47.00238" lon="5.8101">
        <ele>355</ele>
        <time>2022-03-17T13:06:43.385Z</time>
      </trkpt>
      <trkpt lat="47.00234" lon="5.81017">
        <ele>354</ele>
        <time>2022-03-17T13:06:48.306Z</time>
      </trkpt>
      <trkpt lat="47.00231" lon="5.81023">
        <ele>354</ele>
        <time>2022-03-17T13:06:52.358Z</time>
      </trkpt>
      <trkpt lat="47.00227" lon="5.81029">
        <ele>354</ele>
        <time>2022-03-17T13:06:56.387Z</time>
      </trkpt>
      <trkpt lat="47.00222" lon="5.81036">
        <ele>354</ele>
        <time>2022-03-17T13:07:01.368Z</time>
      </trkpt>
      <trkpt lat="47.00217" lon="5.81044">
        <ele>354</ele>
        <time>2022-03-17T13:07:06.367Z</time>
      </trkpt>
      <trkpt lat="47.00213" lon="5.81048">
        <ele>354</ele>
        <time>2022-03-17T13:07:10.379Z</time>
      </trkpt>
      <trkpt lat="47.00209" lon="5.81054">
        <ele>354</ele>
        <time>2022-03-17T13:07:15.360Z</time>
      </trkpt>
      <trkpt lat="47.00205" lon="5.8106">
        <ele>354</ele>
        <time>2022-03-17T13:07:20.372Z</time>
      </trkpt>
      <trkpt lat="47.00203" lon="5.81065">
        <ele>354</ele>
        <time>2022-03-17T13:07:24.363Z</time>
      </trkpt>
      <trkpt lat="47.00198" lon="5.8107">
        <ele>355</ele>
        <time>2022-03-17T13:07:29.364Z</time>
      </trkpt>
      <trkpt lat="47.00194" lon="5.81075">
        <ele>355</ele>
        <time>2022-03-17T13:07:34.405Z</time>
      </trkpt>
      <trkpt lat="47.0019" lon="5.81079">
        <ele>355</ele>
        <time>2022-03-17T13:07:39.322Z</time>
      </trkpt>
      <trkpt lat="47.00186" lon="5.81084">
        <ele>355</ele>
        <time>2022-03-17T13:07:43.392Z</time>
      </trkpt>
      <trkpt lat="47.00182" lon="5.81092">
        <ele>355</ele>
        <time>2022-03-17T13:07:48.376Z</time>
      </trkpt>
      <trkpt lat="47.00177" lon="5.811">
        <ele>355</ele>
        <time>2022-03-17T13:07:53.371Z</time>
      </trkpt>
      <trkpt lat="47.00173" lon="5.81106">
        <ele>355</ele>
        <time>2022-03-17T13:07:58.314Z</time>
      </trkpt>
      <trkpt lat="47.0017" lon="5.81112">
        <ele>355</ele>
        <time>2022-03-17T13:08:02.332Z</time>
      </trkpt>
      <trkpt lat="47.0017" lon="5.81119">
        <ele>355</ele>
        <time>2022-03-17T13:08:06.372Z</time>
      </trkpt>
      <trkpt lat="47.00168" lon="5.81129">
        <ele>356</ele>
        <time>2022-03-17T13:08:11.296Z</time>
      </trkpt>
      <trkpt lat="47.00166" lon="5.81136">
        <ele>356</ele>
        <time>2022-03-17T13:08:16.377Z</time>
      </trkpt>
      <trkpt lat="47.00164" lon="5.81145">
        <ele>356</ele>
        <time>2022-03-17T13:08:21.361Z</time>
      </trkpt>
      <trkpt lat="47.00161" lon="5.81155">
        <ele>356</ele>
        <time>2022-03-17T13:08:26.333Z</time>
      </trkpt>
      <trkpt lat="47.00158" lon="5.81162">
        <ele>356</ele>
        <time>2022-03-17T13:08:31.383Z</time>
      </trkpt>
      <trkpt lat="47.00157" lon="5.81173">
        <ele>356</ele>
        <time>2022-03-17T13:08:36.357Z</time>
      </trkpt>
      <trkpt lat="47.00154" lon="5.8118">
        <ele>356</ele>
        <time>2022-03-17T13:08:41.327Z</time>
      </trkpt>
      <trkpt lat="47.00155" lon="5.81188">
        <ele>357</ele>
        <time>2022-03-17T13:08:46.342Z</time>
      </trkpt>
      <trkpt lat="47.00154" lon="5.81196">
        <ele>357</ele>
        <time>2022-03-17T13:08:51.390Z</time>
      </trkpt>
      <trkpt lat="47.00153" lon="5.81205">
        <ele>357</ele>
        <time>2022-03-17T13:08:56.340Z</time>
      </trkpt>
      <trkpt lat="47.00152" lon="5.81213">
        <ele>359</ele>
        <time>2022-03-17T13:09:01.370Z</time>
      </trkpt>
      <trkpt lat="47.0015" lon="5.81218">
        <ele>359</ele>
        <time>2022-03-17T13:09:05.355Z</time>
      </trkpt>
      <trkpt lat="47.00148" lon="5.81227">
        <ele>359</ele>
        <time>2022-03-17T13:09:10.363Z</time>
      </trkpt>
      <trkpt lat="47.00147" lon="5.81234">
        <ele>359</ele>
        <time>2022-03-17T13:09:15.389Z</time>
      </trkpt>
      <trkpt lat="47.00147" lon="5.81241">
        <ele>357</ele>
        <time>2022-03-17T13:09:19.395Z</time>
      </trkpt>
      <trkpt lat="47.00148" lon="5.81248">
        <ele>357</ele>
        <time>2022-03-17T13:09:24.359Z</time>
      </trkpt>
      <trkpt lat="47.00148" lon="5.81255">
        <ele>357</ele>
        <time>2022-03-17T13:09:28.380Z</time>
      </trkpt>
      <trkpt lat="47.00147" lon="5.81265">
        <ele>355</ele>
        <time>2022-03-17T13:09:33.382Z</time>
      </trkpt>
      <trkpt lat="47.00147" lon="5.81275">
        <ele>355</ele>
        <time>2022-03-17T13:09:38.275Z</time>
      </trkpt>
      <trkpt lat="47.00146" lon="5.81283">
        <ele>355</ele>
        <time>2022-03-17T13:09:42.376Z</time>
      </trkpt>
      <trkpt lat="47.00146" lon="5.81293">
        <ele>353</ele>
        <time>2022-03-17T13:09:47.356Z</time>
      </trkpt>
      <trkpt lat="47.00147" lon="5.81299">
        <ele>353</ele>
        <time>2022-03-17T13:09:52.335Z</time>
      </trkpt>
      <trkpt lat="47.00146" lon="5.81305">
        <ele>353</ele>
        <time>2022-03-17T13:09:57.375Z</time>
      </trkpt>
      <trkpt lat="47.00145" lon="5.81315">
        <ele>353</ele>
        <time>2022-03-17T13:10:02.386Z</time>
      </trkpt>
      <trkpt lat="47.00143" lon="5.81322">
        <ele>352</ele>
        <time>2022-03-17T13:10:07.350Z</time>
      </trkpt>
      <trkpt lat="47.00143" lon="5.81331">
        <ele>352</ele>
        <time>2022-03-17T13:10:12.372Z</time>
      </trkpt>
      <trkpt lat="47.00143" lon="5.81338">
        <ele>352</ele>
        <time>2022-03-17T13:10:17.338Z</time>
      </trkpt>
      <trkpt lat="47.00143" lon="5.81345">
        <ele>352</ele>
        <time>2022-03-17T13:10:22.370Z</time>
      </trkpt>
      <trkpt lat="47.00141" lon="5.81351">
        <ele>351</ele>
        <time>2022-03-17T13:10:26.387Z</time>
      </trkpt>
      <trkpt lat="47.00139" lon="5.81357">
        <ele>351</ele>
        <time>2022-03-17T13:10:31.392Z</time>
      </trkpt>
      <trkpt lat="47.00139" lon="5.81366">
        <ele>351</ele>
        <time>2022-03-17T13:10:36.379Z</time>
      </trkpt>
      <trkpt lat="47.00138" lon="5.81373">
        <ele>351</ele>
        <time>2022-03-17T13:10:41.358Z</time>
      </trkpt>
      <trkpt lat="47.00138" lon="5.81379">
        <ele>352</ele>
        <time>2022-03-17T13:10:45.364Z</time>
      </trkpt>
      <trkpt lat="47.00134" lon="5.81385">
        <ele>352</ele>
        <time>2022-03-17T13:10:50.365Z</time>
      </trkpt>
      <trkpt lat="47.00135" lon="5.8139">
        <ele>352</ele>
        <time>2022-03-17T13:10:54.347Z</time>
      </trkpt>
      <trkpt lat="47.00135" lon="5.81396">
        <ele>352</ele>
        <time>2022-03-17T13:10:59.378Z</time>
      </trkpt>
      <trkpt lat="47.00133" lon="5.81405">
        <ele>354</ele>
        <time>2022-03-17T13:11:04.349Z</time>
      </trkpt>
      <trkpt lat="47.00131" lon="5.8141">
        <ele>354</ele>
        <time>2022-03-17T13:11:09.335Z</time>
      </trkpt>
      <trkpt lat="47.00131" lon="5.81415">
        <ele>354</ele>
        <time>2022-03-17T13:11:13.353Z</time>
      </trkpt>
      <trkpt lat="47.00131" lon="5.81423">
        <ele>354</ele>
        <time>2022-03-17T13:11:17.363Z</time>
      </trkpt>
      <trkpt lat="47.00131" lon="5.81431">
        <ele>354</ele>
        <time>2022-03-17T13:11:22.373Z</time>
      </trkpt>
      <trkpt lat="47.00132" lon="5.81439">
        <ele>354</ele>
        <time>2022-03-17T13:11:26.394Z</time>
      </trkpt>
      <trkpt lat="47.0013" lon="5.81446">
        <ele>354</ele>
        <time>2022-03-17T13:11:31.405Z</time>
      </trkpt>
      <trkpt lat="47.0013" lon="5.81454">
        <ele>354</ele>
        <time>2022-03-17T13:11:36.377Z</time>
      </trkpt>
      <trkpt lat="47.00132" lon="5.81463">
        <ele>355</ele>
        <time>2022-03-17T13:11:41.337Z</time>
      </trkpt>
      <trkpt lat="47.00132" lon="5.81472">
        <ele>355</ele>
        <time>2022-03-17T13:11:46.386Z</time>
      </trkpt>
      <trkpt lat="47.00133" lon="5.81481">
        <ele>355</ele>
        <time>2022-03-17T13:11:51.351Z</time>
      </trkpt>
      <trkpt lat="47.00133" lon="5.81489">
        <ele>355</ele>
        <time>2022-03-17T13:11:56.367Z</time>
      </trkpt>
      <trkpt lat="47.00133" lon="5.81492">
        <ele>355</ele>
        <time>2022-03-17T13:12:01.372Z</time>
      </trkpt>
      <trkpt lat="47.00131" lon="5.81502">
        <ele>355</ele>
        <time>2022-03-17T13:12:06.372Z</time>
      </trkpt>
      <trkpt lat="47.00129" lon="5.8151">
        <ele>355</ele>
        <time>2022-03-17T13:12:11.390Z</time>
      </trkpt>
      <trkpt lat="47.00129" lon="5.81517">
        <ele>356</ele>
        <time>2022-03-17T13:12:16.359Z</time>
      </trkpt>
      <trkpt lat="47.00129" lon="5.81522">
        <ele>356</ele>
        <time>2022-03-17T13:12:20.376Z</time>
      </trkpt>
      <trkpt lat="47.00127" lon="5.8153">
        <ele>356</ele>
        <time>2022-03-17T13:12:25.402Z</time>
      </trkpt>
      <trkpt lat="47.00126" lon="5.81534">
        <ele>356</ele>
        <time>2022-03-17T13:12:30.376Z</time>
      </trkpt>
      <trkpt lat="47.00126" lon="5.8154">
        <ele>356</ele>
        <time>2022-03-17T13:12:34.361Z</time>
      </trkpt>
      <trkpt lat="47.00125" lon="5.81545">
        <ele>360</ele>
        <time>2022-03-17T13:12:39.382Z</time>
      </trkpt>
      <trkpt lat="47.00123" lon="5.81552">
        <ele>360</ele>
        <time>2022-03-17T13:12:44.373Z</time>
      </trkpt>
      <trkpt lat="47.00122" lon="5.81558">
        <ele>360</ele>
        <time>2022-03-17T13:12:49.326Z</time>
      </trkpt>
      <trkpt lat="47.00122" lon="5.81563">
        <ele>360</ele>
        <time>2022-03-17T13:12:53.337Z</time>
      </trkpt>
      <trkpt lat="47.00122" lon="5.81569">
        <ele>360</ele>
        <time>2022-03-17T13:12:57.391Z</time>
      </trkpt>
      <trkpt lat="47.00121" lon="5.81575">
        <ele>361</ele>
        <time>2022-03-17T13:13:02.318Z</time>
      </trkpt>
      <trkpt lat="47.00121" lon="5.81581">
        <ele>361</ele>
        <time>2022-03-17T13:13:06.387Z</time>
      </trkpt>
      <trkpt lat="47.00119" lon="5.81588">
        <ele>361</ele>
        <time>2022-03-17T13:13:11.342Z</time>
      </trkpt>
      <trkpt lat="47.00118" lon="5.81595">
        <ele>361</ele>
        <time>2022-03-17T13:13:16.348Z</time>
      </trkpt>
      <trkpt lat="47.00119" lon="5.81603">
        <ele>361</ele>
        <time>2022-03-17T13:13:21.388Z</time>
      </trkpt>
      <trkpt lat="47.00118" lon="5.81612">
        <ele>361</ele>
        <time>2022-03-17T13:13:26.355Z</time>
      </trkpt>
      <trkpt lat="47.00117" lon="5.8162">
        <ele>361</ele>
        <time>2022-03-17T13:13:31.369Z</time>
      </trkpt>
      <trkpt lat="47.00116" lon="5.81626">
        <ele>361</ele>
        <time>2022-03-17T13:13:36.350Z</time>
      </trkpt>
      <trkpt lat="47.00116" lon="5.81632">
        <ele>361</ele>
        <time>2022-03-17T13:13:41.362Z</time>
      </trkpt>
      <trkpt lat="47.00116" lon="5.81637">
        <ele>361</ele>
        <time>2022-03-17T13:13:46.334Z</time>
      </trkpt>
      <trkpt lat="47.00115" lon="5.81647">
        <ele>361</ele>
        <time>2022-03-17T13:13:50.376Z</time>
      </trkpt>
      <trkpt lat="47.00115" lon="5.81656">
        <ele>360</ele>
        <time>2022-03-17T13:13:55.384Z</time>
      </trkpt>
      <trkpt lat="47.00115" lon="5.81665">
        <ele>360</ele>
        <time>2022-03-17T13:14:00.356Z</time>
      </trkpt>
      <trkpt lat="47.00115" lon="5.81671">
        <ele>360</ele>
        <time>2022-03-17T13:14:04.374Z</time>
      </trkpt>
      <trkpt lat="47.00115" lon="5.8168">
        <ele>360</ele>
        <time>2022-03-17T13:14:09.350Z</time>
      </trkpt>
      <trkpt lat="47.00114" lon="5.81687">
        <ele>360</ele>
        <time>2022-03-17T13:14:13.395Z</time>
      </trkpt>
      <trkpt lat="47.00113" lon="5.81697">
        <ele>360</ele>
        <time>2022-03-17T13:14:18.363Z</time>
      </trkpt>
      <trkpt lat="47.00114" lon="5.81707">
        <ele>360</ele>
        <time>2022-03-17T13:14:23.380Z</time>
      </trkpt>
      <trkpt lat="47.00114" lon="5.81716">
        <ele>360</ele>
        <time>2022-03-17T13:14:28.409Z</time>
      </trkpt>
      <trkpt lat="47.00112" lon="5.81726">
        <ele>360</ele>
        <time>2022-03-17T13:14:33.354Z</time>
      </trkpt>
      <trkpt lat="47.00111" lon="5.81737">
        <ele>359</ele>
        <time>2022-03-17T13:14:38.361Z</time>
      </trkpt>
      <trkpt lat="47.00109" lon="5.81744">
        <ele>359</ele>
        <time>2022-03-17T13:14:42.363Z</time>
      </trkpt>
      <trkpt lat="47.00108" lon="5.81754">
        <ele>359</ele>
        <time>2022-03-17T13:14:47.339Z</time>
      </trkpt>
      <trkpt lat="47.00107" lon="5.81765">
        <ele>355</ele>
        <time>2022-03-17T13:14:52.326Z</time>
      </trkpt>
      <trkpt lat="47.00107" lon="5.81772">
        <ele>355</ele>
        <time>2022-03-17T13:14:56.352Z</time>
      </trkpt>
      <trkpt lat="47.00105" lon="5.81779">
        <ele>355</ele>
        <time>2022-03-17T13:15:01.343Z</time>
      </trkpt>
      <trkpt lat="47.00105" lon="5.81785">
        <ele>355</ele>
        <time>2022-03-17T13:15:05.353Z</time>
      </trkpt>
      <trkpt lat="47.00105" lon="5.81793">
        <ele>351</ele>
        <time>2022-03-17T13:15:10.382Z</time>
      </trkpt>
      <trkpt lat="47.00105" lon="5.818">
        <ele>351</ele>
        <time>2022-03-17T13:15:15.361Z</time>
      </trkpt>
      <trkpt lat="47.00104" lon="5.81803">
        <ele>351</ele>
        <time>2022-03-17T13:15:19.399Z</time>
      </trkpt>
      <trkpt lat="47.00103" lon="5.81808">
        <ele>351</ele>
        <time>2022-03-17T13:15:24.353Z</time>
      </trkpt>
      <trkpt lat="47.00105" lon="5.81815">
        <ele>351</ele>
        <time>2022-03-17T13:15:28.365Z</time>
      </trkpt>
      <trkpt lat="47.00108" lon="5.81822">
        <ele>348</ele>
        <time>2022-03-17T13:15:33.345Z</time>
      </trkpt>
      <trkpt lat="47.00109" lon="5.81827">
        <ele>348</ele>
        <time>2022-03-17T13:15:38.359Z</time>
      </trkpt>
      <trkpt lat="47.00111" lon="5.8183">
        <ele>348</ele>
        <time>2022-03-17T13:15:43.395Z</time>
      </trkpt>
      <trkpt lat="47.00114" lon="5.81836">
        <ele>348</ele>
        <time>2022-03-17T13:15:48.365Z</time>
      </trkpt>
      <trkpt lat="47.00117" lon="5.81842">
        <ele>348</ele>
        <time>2022-03-17T13:15:53.357Z</time>
      </trkpt>
      <trkpt lat="47.00118" lon="5.81843">
        <ele>348</ele>
        <time>2022-03-17T13:15:57.365Z</time>
      </trkpt>
      <trkpt lat="47.0012" lon="5.81848">
        <ele>343</ele>
        <time>2022-03-17T13:16:02.362Z</time>
      </trkpt>
      <trkpt lat="47.00122" lon="5.8185">
        <ele>343</ele>
        <time>2022-03-17T13:16:07.365Z</time>
      </trkpt>
      <trkpt lat="47.00124" lon="5.81853">
        <ele>343</ele>
        <time>2022-03-17T13:16:12.356Z</time>
      </trkpt>
      <trkpt lat="47.00129" lon="5.81851">
        <ele>329</ele>
        <time>2022-03-17T13:16:17.344Z</time>
      </trkpt>
      <trkpt lat="47.00131" lon="5.81851">
        <ele>329</ele>
        <time>2022-03-17T13:16:22.341Z</time>
      </trkpt>
      <trkpt lat="47.00133" lon="5.81854">
        <ele>329</ele>
        <time>2022-03-17T13:16:26.325Z</time>
      </trkpt>
      <trkpt lat="47.00135" lon="5.81848">
        <ele>329</ele>
        <time>2022-03-17T13:16:31.319Z</time>
      </trkpt>
      <trkpt lat="47.00138" lon="5.8185">
        <ele>329</ele>
        <time>2022-03-17T13:16:35.372Z</time>
      </trkpt>
      <trkpt lat="47.00137" lon="5.8185">
        <ele>329</ele>
        <time>2022-03-17T13:19:54.375Z</time>
      </trkpt>
      <trkpt lat="47.00135" lon="5.81851">
        <ele>329</ele>
        <time>2022-03-17T13:19:59.334Z</time>
      </trkpt>
      <trkpt lat="47.00132" lon="5.81853">
        <ele>329</ele>
        <time>2022-03-17T13:20:03.383Z</time>
      </trkpt>
      <trkpt lat="47.00128" lon="5.81856">
        <ele>329</ele>
        <time>2022-03-17T13:20:08.374Z</time>
      </trkpt>
      <trkpt lat="47.00127" lon="5.81857">
        <ele>329</ele>
        <time>2022-03-17T13:20:12.374Z</time>
      </trkpt>
      <trkpt lat="47.00125" lon="5.81864">
        <ele>343</ele>
        <time>2022-03-17T13:20:17.365Z</time>
      </trkpt>
      <trkpt lat="47.0012" lon="5.81867">
        <ele>343</ele>
        <time>2022-03-17T13:20:22.357Z</time>
      </trkpt>
      <trkpt lat="47.00118" lon="5.8187">
        <ele>343</ele>
        <time>2022-03-17T13:20:27.349Z</time>
      </trkpt>
      <trkpt lat="47.00118" lon="5.81872">
        <ele>343</ele>
        <time>2022-03-17T13:20:32.344Z</time>
      </trkpt>
      <trkpt lat="47.00117" lon="5.81875">
        <ele>338</ele>
        <time>2022-03-17T13:20:37.337Z</time>
      </trkpt>
      <trkpt lat="47.00115" lon="5.81888">
        <ele>338</ele>
        <time>2022-03-17T13:20:55.367Z</time>
      </trkpt>
      <trkpt lat="47.00115" lon="5.81888">
        <ele>338</ele>
        <time>2022-03-17T13:21:00.347Z</time>
      </trkpt>
      <trkpt lat="47.00113" lon="5.81891">
        <ele>338</ele>
        <time>2022-03-17T13:21:09.375Z</time>
      </trkpt>
      <trkpt lat="47.00114" lon="5.81891">
        <ele>338</ele>
        <time>2022-03-17T13:21:14.375Z</time>
      </trkpt>
      <trkpt lat="47.00114" lon="5.81894">
        <ele>338</ele>
        <time>2022-03-17T13:21:18.395Z</time>
      </trkpt>
      <trkpt lat="47.00112" lon="5.81899">
        <ele>338</ele>
        <time>2022-03-17T13:21:23.341Z</time>
      </trkpt>
      <trkpt lat="47.00111" lon="5.81904">
        <ele>328</ele>
        <time>2022-03-17T13:21:28.340Z</time>
      </trkpt>
      <trkpt lat="47.00108" lon="5.81908">
        <ele>328</ele>
        <time>2022-03-17T13:21:32.350Z</time>
      </trkpt>
      <trkpt lat="47.00106" lon="5.81912">
        <ele>328</ele>
        <time>2022-03-17T13:21:37.372Z</time>
      </trkpt>
      <trkpt lat="47.00104" lon="5.81915">
        <ele>328</ele>
        <time>2022-03-17T13:21:41.373Z</time>
      </trkpt>
      <trkpt lat="47.001" lon="5.81916">
        <ele>328</ele>
        <time>2022-03-17T13:21:46.359Z</time>
      </trkpt>
      <trkpt lat="47.00099" lon="5.81917">
        <ele>328</ele>
        <time>2022-03-17T13:21:51.391Z</time>
      </trkpt>
      <trkpt lat="47.00097" lon="5.81922">
        <ele>328</ele>
        <time>2022-03-17T13:21:56.363Z</time>
      </trkpt>
      <trkpt lat="47.00093" lon="5.81925">
        <ele>337</ele>
        <time>2022-03-17T13:22:01.349Z</time>
      </trkpt>
      <trkpt lat="47.00089" lon="5.81927">
        <ele>337</ele>
        <time>2022-03-17T13:22:05.357Z</time>
      </trkpt>
      <trkpt lat="47.00084" lon="5.81929">
        <ele>337</ele>
        <time>2022-03-17T13:22:10.378Z</time>
      </trkpt>
      <trkpt lat="47.0008" lon="5.81928">
        <ele>337</ele>
        <time>2022-03-17T13:22:15.341Z</time>
      </trkpt>
      <trkpt lat="47.00076" lon="5.81929">
        <ele>337</ele>
        <time>2022-03-17T13:22:19.367Z</time>
      </trkpt>
      <trkpt lat="47.00073" lon="5.81928">
        <ele>337</ele>
        <time>2022-03-17T13:22:24.376Z</time>
      </trkpt>
      <trkpt lat="47.0007" lon="5.81926">
        <ele>337</ele>
        <time>2022-03-17T13:22:29.355Z</time>
      </trkpt>
      <trkpt lat="47.00068" lon="5.81924">
        <ele>342</ele>
        <time>2022-03-17T13:22:34.350Z</time>
      </trkpt>
      <trkpt lat="47.00064" lon="5.81921">
        <ele>342</ele>
        <time>2022-03-17T13:22:39.338Z</time>
      </trkpt>
      <trkpt lat="47.00061" lon="5.81918">
        <ele>342</ele>
        <time>2022-03-17T13:22:44.342Z</time>
      </trkpt>
      <trkpt lat="47.00059" lon="5.81916">
        <ele>342</ele>
        <time>2022-03-17T13:22:48.388Z</time>
      </trkpt>
      <trkpt lat="47.00055" lon="5.81914">
        <ele>342</ele>
        <time>2022-03-17T13:22:53.378Z</time>
      </trkpt>
      <trkpt lat="47.0005" lon="5.81912">
        <ele>342</ele>
        <time>2022-03-17T13:22:58.290Z</time>
      </trkpt>
      <trkpt lat="47.00048" lon="5.81912">
        <ele>342</ele>
        <time>2022-03-17T13:23:02.336Z</time>
      </trkpt>
      <trkpt lat="47.00046" lon="5.81911">
        <ele>342</ele>
        <time>2022-03-17T13:23:06.392Z</time>
      </trkpt>
      <trkpt lat="47.00042" lon="5.81909">
        <ele>342</ele>
        <time>2022-03-17T13:23:10.361Z</time>
      </trkpt>
      <trkpt lat="47.0004" lon="5.81907">
        <ele>344</ele>
        <time>2022-03-17T13:23:15.300Z</time>
      </trkpt>
      <trkpt lat="47.00037" lon="5.81904">
        <ele>344</ele>
        <time>2022-03-17T13:23:19.352Z</time>
      </trkpt>
      <trkpt lat="47.00034" lon="5.81901">
        <ele>351</ele>
        <time>2022-03-17T13:23:24.382Z</time>
      </trkpt>
      <trkpt lat="47.00031" lon="5.81896">
        <ele>351</ele>
        <time>2022-03-17T13:23:29.293Z</time>
      </trkpt>
      <trkpt lat="47.00027" lon="5.81896">
        <ele>351</ele>
        <time>2022-03-17T13:23:33.331Z</time>
      </trkpt>
      <trkpt lat="47.00024" lon="5.81896">
        <ele>351</ele>
        <time>2022-03-17T13:23:38.367Z</time>
      </trkpt>
      <trkpt lat="47.00019" lon="5.81893">
        <ele>351</ele>
        <time>2022-03-17T13:23:42.379Z</time>
      </trkpt>
      <trkpt lat="47.00014" lon="5.81891">
        <ele>354</ele>
        <time>2022-03-17T13:23:47.332Z</time>
      </trkpt>
      <trkpt lat="47.00011" lon="5.81889">
        <ele>354</ele>
        <time>2022-03-17T13:23:51.340Z</time>
      </trkpt>
      <trkpt lat="47.00008" lon="5.81888">
        <ele>354</ele>
        <time>2022-03-17T13:23:55.358Z</time>
      </trkpt>
      <trkpt lat="47.00003" lon="5.81884">
        <ele>354</ele>
        <time>2022-03-17T13:24:00.371Z</time>
      </trkpt>
      <trkpt lat="47" lon="5.81884">
        <ele>354</ele>
        <time>2022-03-17T13:24:05.285Z</time>
      </trkpt>
      <trkpt lat="46.99996" lon="5.8188">
        <ele>354</ele>
        <time>2022-03-17T13:24:10.292Z</time>
      </trkpt>
      <trkpt lat="46.99993" lon="5.81879">
        <ele>354</ele>
        <time>2022-03-17T13:24:14.333Z</time>
      </trkpt>
      <trkpt lat="46.9999" lon="5.81878">
        <ele>354</ele>
        <time>2022-03-17T13:24:19.370Z</time>
      </trkpt>
      <trkpt lat="46.99985" lon="5.81877">
        <ele>356</ele>
        <time>2022-03-17T13:24:24.358Z</time>
      </trkpt>
      <trkpt lat="46.99983" lon="5.81876">
        <ele>356</ele>
        <time>2022-03-17T13:24:29.339Z</time>
      </trkpt>
      <trkpt lat="46.99977" lon="5.81873">
        <ele>360</ele>
        <time>2022-03-17T13:24:34.345Z</time>
      </trkpt>
      <trkpt lat="46.99973" lon="5.81869">
        <ele>360</ele>
        <time>2022-03-17T13:24:39.339Z</time>
      </trkpt>
      <trkpt lat="46.9997" lon="5.81864">
        <ele>360</ele>
        <time>2022-03-17T13:24:44.353Z</time>
      </trkpt>
      <trkpt lat="46.99968" lon="5.8186">
        <ele>360</ele>
        <time>2022-03-17T13:24:49.340Z</time>
      </trkpt>
      <trkpt lat="46.99963" lon="5.81853">
        <ele>360</ele>
        <time>2022-03-17T13:24:54.363Z</time>
      </trkpt>
      <trkpt lat="46.99961" lon="5.81848">
        <ele>360</ele>
        <time>2022-03-17T13:24:59.339Z</time>
      </trkpt>
      <trkpt lat="46.99959" lon="5.81843">
        <ele>363</ele>
        <time>2022-03-17T13:25:04.404Z</time>
      </trkpt>
      <trkpt lat="46.99958" lon="5.8184">
        <ele>364</ele>
        <time>2022-03-17T13:25:09.353Z</time>
      </trkpt>
      <trkpt lat="46.99951" lon="5.81835">
        <ele>364</ele>
        <time>2022-03-17T13:25:14.366Z</time>
      </trkpt>
      <trkpt lat="46.99947" lon="5.81828">
        <ele>364</ele>
        <time>2022-03-17T13:25:19.349Z</time>
      </trkpt>
      <trkpt lat="46.99945" lon="5.8182">
        <ele>364</ele>
        <time>2022-03-17T13:25:24.374Z</time>
      </trkpt>
      <trkpt lat="46.99943" lon="5.81813">
        <ele>367</ele>
        <time>2022-03-17T13:25:29.331Z</time>
      </trkpt>
      <trkpt lat="46.9994" lon="5.81809">
        <ele>367</ele>
        <time>2022-03-17T13:26:12.363Z</time>
      </trkpt>
      <trkpt lat="46.9994" lon="5.81809">
        <ele>367</ele>
        <time>2022-03-17T13:26:17.348Z</time>
      </trkpt>
      <trkpt lat="46.99937" lon="5.81802">
        <ele>367</ele>
        <time>2022-03-17T13:26:22.385Z</time>
      </trkpt>
      <trkpt lat="46.99934" lon="5.81798">
        <ele>367</ele>
        <time>2022-03-17T13:26:26.343Z</time>
      </trkpt>
      <trkpt lat="46.99932" lon="5.81794">
        <ele>367</ele>
        <time>2022-03-17T13:26:31.359Z</time>
      </trkpt>
      <trkpt lat="46.99926" lon="5.81785">
        <ele>369</ele>
        <time>2022-03-17T13:26:36.379Z</time>
      </trkpt>
      <trkpt lat="46.9992" lon="5.81782">
        <ele>369</ele>
        <time>2022-03-17T13:26:41.329Z</time>
      </trkpt>
      <trkpt lat="46.99914" lon="5.81781">
        <ele>369</ele>
        <time>2022-03-17T13:26:45.339Z</time>
      </trkpt>
      <trkpt lat="46.99907" lon="5.81781">
        <ele>369</ele>
        <time>2022-03-17T13:26:50.359Z</time>
      </trkpt>
      <trkpt lat="46.99901" lon="5.81782">
        <ele>368</ele>
        <time>2022-03-17T13:26:54.368Z</time>
      </trkpt>
      <trkpt lat="46.99895" lon="5.81783">
        <ele>368</ele>
        <time>2022-03-17T13:26:59.360Z</time>
      </trkpt>
      <trkpt lat="46.99889" lon="5.81782">
        <ele>368</ele>
        <time>2022-03-17T13:27:03.338Z</time>
      </trkpt>
      <trkpt lat="46.99883" lon="5.81785">
        <ele>368</ele>
        <time>2022-03-17T13:27:08.361Z</time>
      </trkpt>
      <trkpt lat="46.99877" lon="5.81786">
        <ele>368</ele>
        <time>2022-03-17T13:27:13.343Z</time>
      </trkpt>
      <trkpt lat="46.99872" lon="5.81786">
        <ele>368</ele>
        <time>2022-03-17T13:27:18.351Z</time>
      </trkpt>
      <trkpt lat="46.99867" lon="5.81785">
        <ele>368</ele>
        <time>2022-03-17T13:27:22.358Z</time>
      </trkpt>
      <trkpt lat="46.99861" lon="5.81781">
        <ele>368</ele>
        <time>2022-03-17T13:27:27.321Z</time>
      </trkpt>
      <trkpt lat="46.99857" lon="5.81779">
        <ele>368</ele>
        <time>2022-03-17T13:27:32.366Z</time>
      </trkpt>
      <trkpt lat="46.9985" lon="5.81778">
        <ele>368</ele>
        <time>2022-03-17T13:27:36.379Z</time>
      </trkpt>
      <trkpt lat="46.99845" lon="5.81775">
        <ele>369</ele>
        <time>2022-03-17T13:27:41.327Z</time>
      </trkpt>
      <trkpt lat="46.9984" lon="5.81771">
        <ele>369</ele>
        <time>2022-03-17T13:27:46.368Z</time>
      </trkpt>
      <trkpt lat="46.99835" lon="5.81767">
        <ele>369</ele>
        <time>2022-03-17T13:27:51.345Z</time>
      </trkpt>
      <trkpt lat="46.99829" lon="5.81765">
        <ele>369</ele>
        <time>2022-03-17T13:27:56.360Z</time>
      </trkpt>
      <trkpt lat="46.99822" lon="5.81762">
        <ele>372</ele>
        <time>2022-03-17T13:28:01.358Z</time>
      </trkpt>
      <trkpt lat="46.99816" lon="5.8176">
        <ele>372</ele>
        <time>2022-03-17T13:28:06.351Z</time>
      </trkpt>
      <trkpt lat="46.99809" lon="5.81759">
        <ele>372</ele>
        <time>2022-03-17T13:28:11.382Z</time>
      </trkpt>
      <trkpt lat="46.99801" lon="5.81757">
        <ele>372</ele>
        <time>2022-03-17T13:28:16.353Z</time>
      </trkpt>
      <trkpt lat="46.99796" lon="5.81753">
        <ele>372</ele>
        <time>2022-03-17T13:28:21.365Z</time>
      </trkpt>
      <trkpt lat="46.99792" lon="5.8175">
        <ele>373</ele>
        <time>2022-03-17T13:28:26.351Z</time>
      </trkpt>
      <trkpt lat="46.99786" lon="5.81744">
        <ele>373</ele>
        <time>2022-03-17T13:28:31.337Z</time>
      </trkpt>
      <trkpt lat="46.99777" lon="5.81744">
        <ele>373</ele>
        <time>2022-03-17T13:28:36.360Z</time>
      </trkpt>
      <trkpt lat="46.9977" lon="5.81747">
        <ele>373</ele>
        <time>2022-03-17T13:28:41.353Z</time>
      </trkpt>
      <trkpt lat="46.99764" lon="5.81747">
        <ele>373</ele>
        <time>2022-03-17T13:28:46.414Z</time>
      </trkpt>
      <trkpt lat="46.99759" lon="5.81744">
        <ele>370</ele>
        <time>2022-03-17T13:28:51.322Z</time>
      </trkpt>
      <trkpt lat="46.99751" lon="5.81744">
        <ele>370</ele>
        <time>2022-03-17T13:28:56.370Z</time>
      </trkpt>
      <trkpt lat="46.99745" lon="5.81743">
        <ele>370</ele>
        <time>2022-03-17T13:29:01.332Z</time>
      </trkpt>
      <trkpt lat="46.9974" lon="5.81741">
        <ele>370</ele>
        <time>2022-03-17T13:29:06.356Z</time>
      </trkpt>
      <trkpt lat="46.99735" lon="5.81738">
        <ele>367</ele>
        <time>2022-03-17T13:29:10.408Z</time>
      </trkpt>
      <trkpt lat="46.99729" lon="5.81734">
        <ele>369</ele>
        <time>2022-03-17T13:29:15.347Z</time>
      </trkpt>
      <trkpt lat="46.99724" lon="5.8173">
        <ele>369</ele>
        <time>2022-03-17T13:29:20.395Z</time>
      </trkpt>
      <trkpt lat="46.99718" lon="5.81725">
        <ele>369</ele>
        <time>2022-03-17T13:29:25.348Z</time>
      </trkpt>
      <trkpt lat="46.99711" lon="5.8172">
        <ele>369</ele>
        <time>2022-03-17T13:29:30.347Z</time>
      </trkpt>
      <trkpt lat="46.99706" lon="5.81715">
        <ele>366</ele>
        <time>2022-03-17T13:29:35.318Z</time>
      </trkpt>
      <trkpt lat="46.99702" lon="5.81709">
        <ele>366</ele>
        <time>2022-03-17T13:29:40.367Z</time>
      </trkpt>
      <trkpt lat="46.997" lon="5.81708">
        <ele>368</ele>
        <time>2022-03-17T13:29:44.369Z</time>
      </trkpt>
      <trkpt lat="46.99693" lon="5.81703">
        <ele>368</ele>
        <time>2022-03-17T13:29:49.348Z</time>
      </trkpt>
      <trkpt lat="46.99687" lon="5.81699">
        <ele>368</ele>
        <time>2022-03-17T13:29:54.424Z</time>
      </trkpt>
      <trkpt lat="46.9968" lon="5.81693">
        <ele>364</ele>
        <time>2022-03-17T13:29:59.319Z</time>
      </trkpt>
      <trkpt lat="46.99672" lon="5.81693">
        <ele>364</ele>
        <time>2022-03-17T13:30:04.357Z</time>
      </trkpt>
      <trkpt lat="46.99666" lon="5.81692">
        <ele>364</ele>
        <time>2022-03-17T13:30:09.327Z</time>
      </trkpt>
      <trkpt lat="46.99661" lon="5.81694">
        <ele>364</ele>
        <time>2022-03-17T13:30:14.405Z</time>
      </trkpt>
      <trkpt lat="46.99656" lon="5.81698">
        <ele>364</ele>
        <time>2022-03-17T13:30:19.340Z</time>
      </trkpt>
      <trkpt lat="46.99651" lon="5.817">
        <ele>360</ele>
        <time>2022-03-17T13:30:24.381Z</time>
      </trkpt>
      <trkpt lat="46.99642" lon="5.81703">
        <ele>360</ele>
        <time>2022-03-17T13:30:48.349Z</time>
      </trkpt>
      <trkpt lat="46.99637" lon="5.81704">
        <ele>360</ele>
        <time>2022-03-17T13:30:57.331Z</time>
      </trkpt>
      <trkpt lat="46.99631" lon="5.81703">
        <ele>360</ele>
        <time>2022-03-17T13:31:02.361Z</time>
      </trkpt>
      <trkpt lat="46.99626" lon="5.81703">
        <ele>360</ele>
        <time>2022-03-17T13:31:07.330Z</time>
      </trkpt>
      <trkpt lat="46.99621" lon="5.81702">
        <ele>355</ele>
        <time>2022-03-17T13:31:12.345Z</time>
      </trkpt>
      <trkpt lat="46.99616" lon="5.81702">
        <ele>355</ele>
        <time>2022-03-17T13:31:17.327Z</time>
      </trkpt>
      <trkpt lat="46.99611" lon="5.817">
        <ele>355</ele>
        <time>2022-03-17T13:31:22.350Z</time>
      </trkpt>
      <trkpt lat="46.99606" lon="5.81697">
        <ele>355</ele>
        <time>2022-03-17T13:31:26.366Z</time>
      </trkpt>
      <trkpt lat="46.99601" lon="5.81694">
        <ele>355</ele>
        <time>2022-03-17T13:31:31.329Z</time>
      </trkpt>
      <trkpt lat="46.99596" lon="5.81691">
        <ele>352</ele>
        <time>2022-03-17T13:31:36.391Z</time>
      </trkpt>
      <trkpt lat="46.99591" lon="5.81688">
        <ele>352</ele>
        <time>2022-03-17T13:31:41.329Z</time>
      </trkpt>
      <trkpt lat="46.99586" lon="5.81684">
        <ele>352</ele>
        <time>2022-03-17T13:31:46.361Z</time>
      </trkpt>
      <trkpt lat="46.99582" lon="5.81681">
        <ele>352</ele>
        <time>2022-03-17T13:31:51.328Z</time>
      </trkpt>
      <trkpt lat="46.99579" lon="5.8168">
        <ele>353</ele>
        <time>2022-03-17T13:31:56.375Z</time>
      </trkpt>
      <trkpt lat="46.99574" lon="5.81677">
        <ele>353</ele>
        <time>2022-03-17T13:32:01.302Z</time>
      </trkpt>
      <trkpt lat="46.99571" lon="5.81675">
        <ele>353</ele>
        <time>2022-03-17T13:32:05.332Z</time>
      </trkpt>
      <trkpt lat="46.99568" lon="5.81673">
        <ele>350</ele>
        <time>2022-03-17T13:32:09.327Z</time>
      </trkpt>
      <trkpt lat="46.99564" lon="5.8167">
        <ele>350</ele>
        <time>2022-03-17T13:32:14.371Z</time>
      </trkpt>
      <trkpt lat="46.9956" lon="5.81667">
        <ele>350</ele>
        <time>2022-03-17T13:32:18.344Z</time>
      </trkpt>
      <trkpt lat="46.99556" lon="5.81666">
        <ele>350</ele>
        <time>2022-03-17T13:32:23.337Z</time>
      </trkpt>
      <trkpt lat="46.99554" lon="5.81663">
        <ele>350</ele>
        <time>2022-03-17T13:32:27.321Z</time>
      </trkpt>
      <trkpt lat="46.9955" lon="5.81659">
        <ele>350</ele>
        <time>2022-03-17T13:32:32.359Z</time>
      </trkpt>
      <trkpt lat="46.99545" lon="5.81657">
        <ele>350</ele>
        <time>2022-03-17T13:32:37.329Z</time>
      </trkpt>
      <trkpt lat="46.99543" lon="5.81656">
        <ele>350</ele>
        <time>2022-03-17T13:32:42.384Z</time>
      </trkpt>
      <trkpt lat="46.9954" lon="5.81651">
        <ele>347</ele>
        <time>2022-03-17T13:32:47.341Z</time>
      </trkpt>
      <trkpt lat="46.99536" lon="5.81645">
        <ele>347</ele>
        <time>2022-03-17T13:32:52.353Z</time>
      </trkpt>
      <trkpt lat="46.99533" lon="5.8164">
        <ele>347</ele>
        <time>2022-03-17T13:32:56.396Z</time>
      </trkpt>
      <trkpt lat="46.99529" lon="5.81635">
        <ele>347</ele>
        <time>2022-03-17T13:33:01.348Z</time>
      </trkpt>
      <trkpt lat="46.99525" lon="5.81632">
        <ele>347</ele>
        <time>2022-03-17T13:33:06.382Z</time>
      </trkpt>
      <trkpt lat="46.9952" lon="5.81628">
        <ele>347</ele>
        <time>2022-03-17T13:33:11.316Z</time>
      </trkpt>
      <trkpt lat="46.99518" lon="5.81625">
        <ele>348</ele>
        <time>2022-03-17T13:33:15.315Z</time>
      </trkpt>
      <trkpt lat="46.99514" lon="5.81622">
        <ele>343</ele>
        <time>2022-03-17T13:33:20.377Z</time>
      </trkpt>
      <trkpt lat="46.99511" lon="5.81621">
        <ele>343</ele>
        <time>2022-03-17T13:33:25.356Z</time>
      </trkpt>
      <trkpt lat="46.99505" lon="5.81614">
        <ele>343</ele>
        <time>2022-03-17T13:33:30.372Z</time>
      </trkpt>
      <trkpt lat="46.995" lon="5.81609">
        <ele>343</ele>
        <time>2022-03-17T13:33:35.324Z</time>
      </trkpt>
      <trkpt lat="46.99497" lon="5.81605">
        <ele>343</ele>
        <time>2022-03-17T13:33:40.364Z</time>
      </trkpt>
      <trkpt lat="46.99495" lon="5.81604">
        <ele>343</ele>
        <time>2022-03-17T13:33:44.373Z</time>
      </trkpt>
      <trkpt lat="46.99488" lon="5.81599">
        <ele>343</ele>
        <time>2022-03-17T13:33:49.356Z</time>
      </trkpt>
      <trkpt lat="46.99483" lon="5.81601">
        <ele>338</ele>
        <time>2022-03-17T13:33:54.376Z</time>
      </trkpt>
      <trkpt lat="46.99477" lon="5.81605">
        <ele>338</ele>
        <time>2022-03-17T13:33:59.329Z</time>
      </trkpt>
      <trkpt lat="46.99474" lon="5.81611">
        <ele>338</ele>
        <time>2022-03-17T13:34:04.343Z</time>
      </trkpt>
      <trkpt lat="46.99473" lon="5.81617">
        <ele>338</ele>
        <time>2022-03-17T13:34:09.353Z</time>
      </trkpt>
      <trkpt lat="46.99471" lon="5.81623">
        <ele>338</ele>
        <time>2022-03-17T13:34:14.332Z</time>
      </trkpt>
      <trkpt lat="46.99471" lon="5.81626">
        <ele>334</ele>
        <time>2022-03-17T13:34:18.367Z</time>
      </trkpt>
      <trkpt lat="46.99469" lon="5.81637">
        <ele>334</ele>
        <time>2022-03-17T13:34:23.332Z</time>
      </trkpt>
      <trkpt lat="46.99467" lon="5.81644">
        <ele>334</ele>
        <time>2022-03-17T13:34:27.345Z</time>
      </trkpt>
      <trkpt lat="46.99466" lon="5.8165">
        <ele>334</ele>
        <time>2022-03-17T13:34:32.342Z</time>
      </trkpt>
      <trkpt lat="46.99465" lon="5.81658">
        <ele>332</ele>
        <time>2022-03-17T13:34:37.336Z</time>
      </trkpt>
      <trkpt lat="46.99465" lon="5.81665">
        <ele>332</ele>
        <time>2022-03-17T13:34:42.356Z</time>
      </trkpt>
      <trkpt lat="46.99463" lon="5.8167">
        <ele>332</ele>
        <time>2022-03-17T13:34:47.344Z</time>
      </trkpt>
      <trkpt lat="46.99463" lon="5.81669">
        <ele>332</ele>
        <time>2022-03-17T13:34:51.331Z</time>
      </trkpt>
      <trkpt lat="46.99462" lon="5.81678">
        <ele>332</ele>
        <time>2022-03-17T13:34:56.364Z</time>
      </trkpt>
      <trkpt lat="46.99462" lon="5.81686">
        <ele>328</ele>
        <time>2022-03-17T13:35:00.412Z</time>
      </trkpt>
      <trkpt lat="46.99461" lon="5.81694">
        <ele>328</ele>
        <time>2022-03-17T13:35:05.312Z</time>
      </trkpt>
      <trkpt lat="46.99459" lon="5.81704">
        <ele>328</ele>
        <time>2022-03-17T13:35:10.371Z</time>
      </trkpt>
      <trkpt lat="46.99458" lon="5.81712">
        <ele>321</ele>
        <time>2022-03-17T13:35:15.319Z</time>
      </trkpt>
      <trkpt lat="46.99456" lon="5.81719">
        <ele>321</ele>
        <time>2022-03-17T13:35:19.340Z</time>
      </trkpt>
      <trkpt lat="46.99455" lon="5.81732">
        <ele>321</ele>
        <time>2022-03-17T13:35:29.313Z</time>
      </trkpt>
      <trkpt lat="46.99455" lon="5.81732">
        <ele>321</ele>
        <time>2022-03-17T13:35:34.351Z</time>
      </trkpt>
      <trkpt lat="46.99454" lon="5.81734">
        <ele>321</ele>
        <time>2022-03-17T13:35:38.366Z</time>
      </trkpt>
      <trkpt lat="46.99454" lon="5.81737">
        <ele>319</ele>
        <time>2022-03-17T13:35:42.417Z</time>
      </trkpt>
      <trkpt lat="46.99452" lon="5.81744">
        <ele>319</ele>
        <time>2022-03-17T13:35:47.347Z</time>
      </trkpt>
      <trkpt lat="46.99449" lon="5.8175">
        <ele>319</ele>
        <time>2022-03-17T13:35:52.398Z</time>
      </trkpt>
      <trkpt lat="46.99447" lon="5.81754">
        <ele>319</ele>
        <time>2022-03-17T13:35:56.347Z</time>
      </trkpt>
      <trkpt lat="46.99444" lon="5.81759">
        <ele>319</ele>
        <time>2022-03-17T13:36:01.343Z</time>
      </trkpt>
      <trkpt lat="46.99441" lon="5.81765">
        <ele>317</ele>
        <time>2022-03-17T13:36:06.362Z</time>
      </trkpt>
      <trkpt lat="46.99439" lon="5.81773">
        <ele>317</ele>
        <time>2022-03-17T13:36:11.347Z</time>
      </trkpt>
      <trkpt lat="46.99437" lon="5.81779">
        <ele>317</ele>
        <time>2022-03-17T13:36:16.361Z</time>
      </trkpt>
      <trkpt lat="46.99436" lon="5.81786">
        <ele>317</ele>
        <time>2022-03-17T13:36:21.326Z</time>
      </trkpt>
      <trkpt lat="46.99436" lon="5.81792">
        <ele>312</ele>
        <time>2022-03-17T13:36:25.355Z</time>
      </trkpt>
      <trkpt lat="46.99435" lon="5.81797">
        <ele>312</ele>
        <time>2022-03-17T13:36:30.307Z</time>
      </trkpt>
      <trkpt lat="46.99434" lon="5.81801">
        <ele>312</ele>
        <time>2022-03-17T13:36:34.371Z</time>
      </trkpt>
      <trkpt lat="46.99433" lon="5.81805">
        <ele>312</ele>
        <time>2022-03-17T13:36:39.339Z</time>
      </trkpt>
      <trkpt lat="46.99431" lon="5.81805">
        <ele>312</ele>
        <time>2022-03-17T13:36:44.362Z</time>
      </trkpt>
      <trkpt lat="46.99428" lon="5.81812">
        <ele>310</ele>
        <time>2022-03-17T13:36:49.322Z</time>
      </trkpt>
      <trkpt lat="46.99426" lon="5.81818">
        <ele>310</ele>
        <time>2022-03-17T13:36:54.351Z</time>
      </trkpt>
      <trkpt lat="46.99425" lon="5.81823">
        <ele>305</ele>
        <time>2022-03-17T13:36:59.331Z</time>
      </trkpt>
      <trkpt lat="46.99425" lon="5.81829">
        <ele>305</ele>
        <time>2022-03-17T13:37:03.333Z</time>
      </trkpt>
      <trkpt lat="46.99425" lon="5.81836">
        <ele>305</ele>
        <time>2022-03-17T13:37:08.339Z</time>
      </trkpt>
      <trkpt lat="46.99428" lon="5.81841">
        <ele>305</ele>
        <time>2022-03-17T13:37:12.366Z</time>
      </trkpt>
      <trkpt lat="46.99432" lon="5.81845">
        <ele>307</ele>
        <time>2022-03-17T13:37:17.331Z</time>
      </trkpt>
      <trkpt lat="46.99436" lon="5.81848">
        <ele>303</ele>
        <time>2022-03-17T13:37:22.348Z</time>
      </trkpt>
      <trkpt lat="46.99442" lon="5.81852">
        <ele>303</ele>
        <time>2022-03-17T13:37:27.325Z</time>
      </trkpt>
      <trkpt lat="46.99447" lon="5.81857">
        <ele>303</ele>
        <time>2022-03-17T13:37:32.384Z</time>
      </trkpt>
      <trkpt lat="46.99452" lon="5.81862">
        <ele>303</ele>
        <time>2022-03-17T13:37:37.361Z</time>
      </trkpt>
      <trkpt lat="46.99455" lon="5.81863">
        <ele>303</ele>
        <time>2022-03-17T13:37:42.376Z</time>
      </trkpt>
      <trkpt lat="46.99458" lon="5.81863">
        <ele>303</ele>
        <time>2022-03-17T13:37:46.363Z</time>
      </trkpt>
      <trkpt lat="46.99463" lon="5.81866">
        <ele>309</ele>
        <time>2022-03-17T13:37:51.343Z</time>
      </trkpt>
      <trkpt lat="46.99468" lon="5.81869">
        <ele>309</ele>
        <time>2022-03-17T13:37:56.397Z</time>
      </trkpt>
      <trkpt lat="46.99473" lon="5.81872">
        <ele>309</ele>
        <time>2022-03-17T13:38:01.298Z</time>
      </trkpt>
      <trkpt lat="46.99479" lon="5.81874">
        <ele>309</ele>
        <time>2022-03-17T13:38:06.324Z</time>
      </trkpt>
      <trkpt lat="46.99483" lon="5.81876">
        <ele>302</ele>
        <time>2022-03-17T13:38:11.312Z</time>
      </trkpt>
      <trkpt lat="46.99487" lon="5.81878">
        <ele>304</ele>
        <time>2022-03-17T13:38:15.317Z</time>
      </trkpt>
      <trkpt lat="46.99493" lon="5.81879">
        <ele>304</ele>
        <time>2022-03-17T13:38:20.307Z</time>
      </trkpt>
      <trkpt lat="46.99498" lon="5.81878">
        <ele>304</ele>
        <time>2022-03-17T13:38:24.340Z</time>
      </trkpt>
      <trkpt lat="46.99503" lon="5.81879">
        <ele>304</ele>
        <time>2022-03-17T13:38:29.314Z</time>
      </trkpt>
      <trkpt lat="46.99509" lon="5.81878">
        <ele>304</ele>
        <time>2022-03-17T13:38:34.313Z</time>
      </trkpt>
      <trkpt lat="46.99513" lon="5.81879">
        <ele>304</ele>
        <time>2022-03-17T13:38:39.292Z</time>
      </trkpt>
      <trkpt lat="46.99518" lon="5.81879">
        <ele>304</ele>
        <time>2022-03-17T13:38:43.333Z</time>
      </trkpt>
      <trkpt lat="46.99524" lon="5.81881">
        <ele>304</ele>
        <time>2022-03-17T13:38:48.364Z</time>
      </trkpt>
      <trkpt lat="46.99529" lon="5.81882">
        <ele>304</ele>
        <time>2022-03-17T13:38:53.352Z</time>
      </trkpt>
      <trkpt lat="46.99534" lon="5.81885">
        <ele>304</ele>
        <time>2022-03-17T13:38:58.348Z</time>
      </trkpt>
      <trkpt lat="46.99538" lon="5.81883">
        <ele>304</ele>
        <time>2022-03-17T13:39:03.338Z</time>
      </trkpt>
      <trkpt lat="46.99545" lon="5.81883">
        <ele>306</ele>
        <time>2022-03-17T13:39:08.361Z</time>
      </trkpt>
      <trkpt lat="46.99549" lon="5.81882">
        <ele>306</ele>
        <time>2022-03-17T13:39:13.340Z</time>
      </trkpt>
      <trkpt lat="46.99554" lon="5.81882">
        <ele>306</ele>
        <time>2022-03-17T13:39:18.406Z</time>
      </trkpt>
      <trkpt lat="46.99558" lon="5.81886">
        <ele>306</ele>
        <time>2022-03-17T13:39:23.331Z</time>
      </trkpt>
      <trkpt lat="46.99564" lon="5.81891">
        <ele>306</ele>
        <time>2022-03-17T13:39:38.334Z</time>
      </trkpt>
      <trkpt lat="46.99566" lon="5.81893">
        <ele>306</ele>
        <time>2022-03-17T13:39:43.384Z</time>
      </trkpt>
      <trkpt lat="46.99569" lon="5.81894">
        <ele>306</ele>
        <time>2022-03-17T13:39:48.349Z</time>
      </trkpt>
      <trkpt lat="46.99571" lon="5.81892">
        <ele>309</ele>
        <time>2022-03-17T13:39:53.329Z</time>
      </trkpt>
      <trkpt lat="46.99573" lon="5.81892">
        <ele>309</ele>
        <time>2022-03-17T13:39:58.378Z</time>
      </trkpt>
      <trkpt lat="46.99574" lon="5.81892">
        <ele>309</ele>
        <time>2022-03-17T13:40:03.314Z</time>
      </trkpt>
      <trkpt lat="46.99577" lon="5.81892">
        <ele>309</ele>
        <time>2022-03-17T13:40:08.371Z</time>
      </trkpt>
      <trkpt lat="46.99577" lon="5.81893">
        <ele>309</ele>
        <time>2022-03-17T13:40:13.384Z</time>
      </trkpt>
      <trkpt lat="46.9958" lon="5.81896">
        <ele>309</ele>
        <time>2022-03-17T13:40:36.397Z</time>
      </trkpt>
      <trkpt lat="46.99586" lon="5.81898">
        <ele>309</ele>
        <time>2022-03-17T13:40:41.388Z</time>
      </trkpt>
      <trkpt lat="46.99592" lon="5.81901">
        <ele>309</ele>
        <time>2022-03-17T13:40:46.347Z</time>
      </trkpt>
      <trkpt lat="46.99597" lon="5.81904">
        <ele>300</ele>
        <time>2022-03-17T13:40:51.360Z</time>
      </trkpt>
      <trkpt lat="46.99602" lon="5.81909">
        <ele>300</ele>
        <time>2022-03-17T13:40:56.398Z</time>
      </trkpt>
      <trkpt lat="46.99607" lon="5.81912">
        <ele>300</ele>
        <time>2022-03-17T13:41:01.301Z</time>
      </trkpt>
      <trkpt lat="46.99612" lon="5.81914">
        <ele>300</ele>
        <time>2022-03-17T13:41:05.348Z</time>
      </trkpt>
      <trkpt lat="46.99618" lon="5.81914">
        <ele>300</ele>
        <time>2022-03-17T13:41:10.312Z</time>
      </trkpt>
      <trkpt lat="46.99621" lon="5.81915">
        <ele>300</ele>
        <time>2022-03-17T13:41:14.277Z</time>
      </trkpt>
      <trkpt lat="46.99627" lon="5.81916">
        <ele>300</ele>
        <time>2022-03-17T13:41:19.297Z</time>
      </trkpt>
      <trkpt lat="46.99632" lon="5.81915">
        <ele>300</ele>
        <time>2022-03-17T13:41:23.315Z</time>
      </trkpt>
      <trkpt lat="46.99639" lon="5.81918">
        <ele>300</ele>
        <time>2022-03-17T13:41:28.347Z</time>
      </trkpt>
      <trkpt lat="46.99644" lon="5.81923">
        <ele>300</ele>
        <time>2022-03-17T13:41:32.374Z</time>
      </trkpt>
      <trkpt lat="46.99651" lon="5.81926">
        <ele>300</ele>
        <time>2022-03-17T13:41:37.409Z</time>
      </trkpt>
      <trkpt lat="46.99659" lon="5.81929">
        <ele>305</ele>
        <time>2022-03-17T13:41:42.366Z</time>
      </trkpt>
      <trkpt lat="46.99667" lon="5.81933">
        <ele>296</ele>
        <time>2022-03-17T13:41:47.359Z</time>
      </trkpt>
      <trkpt lat="46.99671" lon="5.81937">
        <ele>296</ele>
        <time>2022-03-17T13:41:52.354Z</time>
      </trkpt>
      <trkpt lat="46.99677" lon="5.81941">
        <ele>296</ele>
        <time>2022-03-17T13:41:57.341Z</time>
      </trkpt>
      <trkpt lat="46.99683" lon="5.81944">
        <ele>302</ele>
        <time>2022-03-17T13:42:01.366Z</time>
      </trkpt>
      <trkpt lat="46.99689" lon="5.81947">
        <ele>302</ele>
        <time>2022-03-17T13:42:05.347Z</time>
      </trkpt>
      <trkpt lat="46.99695" lon="5.81952">
        <ele>302</ele>
        <time>2022-03-17T13:42:10.350Z</time>
      </trkpt>
      <trkpt lat="46.997" lon="5.81954">
        <ele>302</ele>
        <time>2022-03-17T13:42:14.352Z</time>
      </trkpt>
      <trkpt lat="46.99704" lon="5.81958">
        <ele>302</ele>
        <time>2022-03-17T13:42:19.288Z</time>
      </trkpt>
      <trkpt lat="46.99707" lon="5.81961">
        <ele>294</ele>
        <time>2022-03-17T13:42:23.387Z</time>
      </trkpt>
      <trkpt lat="46.99712" lon="5.81965">
        <ele>300</ele>
        <time>2022-03-17T13:42:28.395Z</time>
      </trkpt>
      <trkpt lat="46.99715" lon="5.81967">
        <ele>300</ele>
        <time>2022-03-17T13:42:33.339Z</time>
      </trkpt>
      <trkpt lat="46.99716" lon="5.81969">
        <ele>300</ele>
        <time>2022-03-17T13:42:37.347Z</time>
      </trkpt>
      <trkpt lat="46.99718" lon="5.8197">
        <ele>300</ele>
        <time>2022-03-17T13:42:47.389Z</time>
      </trkpt>
      <trkpt lat="46.9972" lon="5.8197">
        <ele>300</ele>
        <time>2022-03-17T13:42:52.303Z</time>
      </trkpt>
      <trkpt lat="46.99722" lon="5.81972">
        <ele>300</ele>
        <time>2022-03-17T13:42:56.378Z</time>
      </trkpt>
      <trkpt lat="46.99725" lon="5.81977">
        <ele>300</ele>
        <time>2022-03-17T13:43:01.378Z</time>
      </trkpt>
      <trkpt lat="46.99727" lon="5.81978">
        <ele>300</ele>
        <time>2022-03-17T13:43:06.350Z</time>
      </trkpt>
      <trkpt lat="46.99727" lon="5.81985">
        <ele>300</ele>
        <time>2022-03-17T13:43:11.384Z</time>
      </trkpt>
      <trkpt lat="46.99729" lon="5.81992">
        <ele>294</ele>
        <time>2022-03-17T13:43:16.376Z</time>
      </trkpt>
      <trkpt lat="46.99732" lon="5.81995">
        <ele>294</ele>
        <time>2022-03-17T13:43:21.361Z</time>
      </trkpt>
      <trkpt lat="46.99733" lon="5.81993">
        <ele>294</ele>
        <time>2022-03-17T13:45:39.343Z</time>
      </trkpt>
      <trkpt lat="46.99734" lon="5.81997">
        <ele>294</ele>
        <time>2022-03-17T13:46:51.358Z</time>
      </trkpt>
      <trkpt lat="46.99737" lon="5.82">
        <ele>298</ele>
        <time>2022-03-17T13:46:56.345Z</time>
      </trkpt>
      <trkpt lat="46.9974" lon="5.82004">
        <ele>298</ele>
        <time>2022-03-17T13:47:01.377Z</time>
      </trkpt>
      <trkpt lat="46.99745" lon="5.82007">
        <ele>298</ele>
        <time>2022-03-17T13:47:06.336Z</time>
      </trkpt>
      <trkpt lat="46.99748" lon="5.82011">
        <ele>298</ele>
        <time>2022-03-17T13:47:10.358Z</time>
      </trkpt>
      <trkpt lat="46.99752" lon="5.82015">
        <ele>290</ele>
        <time>2022-03-17T13:47:15.364Z</time>
      </trkpt>
      <trkpt lat="46.99757" lon="5.8202">
        <ele>290</ele>
        <time>2022-03-17T13:47:20.350Z</time>
      </trkpt>
      <trkpt lat="46.9976" lon="5.82025">
        <ele>290</ele>
        <time>2022-03-17T13:47:25.353Z</time>
      </trkpt>
      <trkpt lat="46.99765" lon="5.82029">
        <ele>295</ele>
        <time>2022-03-17T13:47:30.377Z</time>
      </trkpt>
      <trkpt lat="46.99769" lon="5.82033">
        <ele>295</ele>
        <time>2022-03-17T13:47:34.343Z</time>
      </trkpt>
      <trkpt lat="46.99774" lon="5.82036">
        <ele>295</ele>
        <time>2022-03-17T13:47:39.350Z</time>
      </trkpt>
      <trkpt lat="46.99779" lon="5.8204">
        <ele>295</ele>
        <time>2022-03-17T13:47:44.284Z</time>
      </trkpt>
      <trkpt lat="46.99784" lon="5.82045">
        <ele>288</ele>
        <time>2022-03-17T13:47:49.271Z</time>
      </trkpt>
      <trkpt lat="46.99788" lon="5.82048">
        <ele>288</ele>
        <time>2022-03-17T13:47:54.321Z</time>
      </trkpt>
      <trkpt lat="46.99793" lon="5.82053">
        <ele>294</ele>
        <time>2022-03-17T13:47:59.312Z</time>
      </trkpt>
      <trkpt lat="46.99797" lon="5.82056">
        <ele>294</ele>
        <time>2022-03-17T13:48:03.368Z</time>
      </trkpt>
      <trkpt lat="46.99803" lon="5.8206">
        <ele>294</ele>
        <time>2022-03-17T13:48:08.337Z</time>
      </trkpt>
      <trkpt lat="46.99808" lon="5.82064">
        <ele>294</ele>
        <time>2022-03-17T13:48:13.344Z</time>
      </trkpt>
      <trkpt lat="46.99813" lon="5.82068">
        <ele>294</ele>
        <time>2022-03-17T13:48:18.329Z</time>
      </trkpt>
      <trkpt lat="46.99818" lon="5.82073">
        <ele>285</ele>
        <time>2022-03-17T13:48:22.344Z</time>
      </trkpt>
      <trkpt lat="46.99823" lon="5.82079">
        <ele>290</ele>
        <time>2022-03-17T13:48:27.337Z</time>
      </trkpt>
      <trkpt lat="46.99829" lon="5.82082">
        <ele>290</ele>
        <time>2022-03-17T13:48:32.365Z</time>
      </trkpt>
      <trkpt lat="46.99834" lon="5.82085">
        <ele>290</ele>
        <time>2022-03-17T13:48:37.343Z</time>
      </trkpt>
      <trkpt lat="46.9984" lon="5.82089">
        <ele>290</ele>
        <time>2022-03-17T13:48:42.274Z</time>
      </trkpt>
      <trkpt lat="46.99845" lon="5.82093">
        <ele>290</ele>
        <time>2022-03-17T13:48:47.296Z</time>
      </trkpt>
      <trkpt lat="46.99851" lon="5.82096">
        <ele>295</ele>
        <time>2022-03-17T13:48:52.351Z</time>
      </trkpt>
      <trkpt lat="46.99856" lon="5.821">
        <ele>286</ele>
        <time>2022-03-17T13:48:57.381Z</time>
      </trkpt>
      <trkpt lat="46.99862" lon="5.82103">
        <ele>286</ele>
        <time>2022-03-17T13:49:02.315Z</time>
      </trkpt>
      <trkpt lat="46.99867" lon="5.82107">
        <ele>286</ele>
        <time>2022-03-17T13:49:06.360Z</time>
      </trkpt>
      <trkpt lat="46.99873" lon="5.8211">
        <ele>286</ele>
        <time>2022-03-17T13:49:11.338Z</time>
      </trkpt>
      <trkpt lat="46.99878" lon="5.82113">
        <ele>291</ele>
        <time>2022-03-17T13:49:16.347Z</time>
      </trkpt>
      <trkpt lat="46.99883" lon="5.82119">
        <ele>291</ele>
        <time>2022-03-17T13:49:21.360Z</time>
      </trkpt>
      <trkpt lat="46.99888" lon="5.82125">
        <ele>283</ele>
        <time>2022-03-17T13:49:26.350Z</time>
      </trkpt>
      <trkpt lat="46.99892" lon="5.82128">
        <ele>283</ele>
        <time>2022-03-17T13:49:30.389Z</time>
      </trkpt>
      <trkpt lat="46.99897" lon="5.82132">
        <ele>283</ele>
        <time>2022-03-17T13:49:35.359Z</time>
      </trkpt>
      <trkpt lat="46.99902" lon="5.82139">
        <ele>283</ele>
        <time>2022-03-17T13:49:40.265Z</time>
      </trkpt>
      <trkpt lat="46.99907" lon="5.82147">
        <ele>285</ele>
        <time>2022-03-17T13:49:45.296Z</time>
      </trkpt>
      <trkpt lat="46.99911" lon="5.8215">
        <ele>285</ele>
        <time>2022-03-17T13:49:49.269Z</time>
      </trkpt>
      <trkpt lat="46.99915" lon="5.8215">
        <ele>285</ele>
        <time>2022-03-17T13:49:53.373Z</time>
      </trkpt>
      <trkpt lat="46.99919" lon="5.82154">
        <ele>276</ele>
        <time>2022-03-17T13:49:57.370Z</time>
      </trkpt>
      <trkpt lat="46.99923" lon="5.82158">
        <ele>276</ele>
        <time>2022-03-17T13:50:02.352Z</time>
      </trkpt>
      <trkpt lat="46.99927" lon="5.82159">
        <ele>276</ele>
        <time>2022-03-17T13:50:07.348Z</time>
      </trkpt>
      <trkpt lat="46.99933" lon="5.82164">
        <ele>277</ele>
        <time>2022-03-17T13:50:12.360Z</time>
      </trkpt>
      <trkpt lat="46.99939" lon="5.82166">
        <ele>277</ele>
        <time>2022-03-17T13:50:17.338Z</time>
      </trkpt>
      <trkpt lat="46.99943" lon="5.82169">
        <ele>277</ele>
        <time>2022-03-17T13:50:22.356Z</time>
      </trkpt>
      <trkpt lat="46.99948" lon="5.82172">
        <ele>277</ele>
        <time>2022-03-17T13:50:26.338Z</time>
      </trkpt>
      <trkpt lat="46.99953" lon="5.82174">
        <ele>277</ele>
        <time>2022-03-17T13:50:31.354Z</time>
      </trkpt>
      <trkpt lat="46.99958" lon="5.82176">
        <ele>277</ele>
        <time>2022-03-17T13:50:36.343Z</time>
      </trkpt>
      <trkpt lat="46.99963" lon="5.82178">
        <ele>275</ele>
        <time>2022-03-17T13:50:41.328Z</time>
      </trkpt>
      <trkpt lat="46.99968" lon="5.82178">
        <ele>275</ele>
        <time>2022-03-17T13:50:45.379Z</time>
      </trkpt>
      <trkpt lat="46.99973" lon="5.82182">
        <ele>268</ele>
        <time>2022-03-17T13:50:50.371Z</time>
      </trkpt>
      <trkpt lat="46.99977" lon="5.82186">
        <ele>268</ele>
        <time>2022-03-17T13:50:54.364Z</time>
      </trkpt>
      <trkpt lat="46.99984" lon="5.82186">
        <ele>268</ele>
        <time>2022-03-17T13:52:18.351Z</time>
      </trkpt>
      <trkpt lat="46.99988" lon="5.82188">
        <ele>268</ele>
        <time>2022-03-17T13:52:23.353Z</time>
      </trkpt>
      <trkpt lat="46.99989" lon="5.82189">
        <ele>268</ele>
        <time>2022-03-17T13:52:28.370Z</time>
      </trkpt>
      <trkpt lat="46.99989" lon="5.82189">
        <ele>268</ele>
        <time>2022-03-17T13:52:33.378Z</time>
      </trkpt>
      <trkpt lat="46.99992" lon="5.82192">
        <ele>268</ele>
        <time>2022-03-17T13:52:43.313Z</time>
      </trkpt>
      <trkpt lat="46.99995" lon="5.82193">
        <ele>268</ele>
        <time>2022-03-17T13:52:47.336Z</time>
      </trkpt>
      <trkpt lat="46.99997" lon="5.82194">
        <ele>268</ele>
        <time>2022-03-17T13:52:52.335Z</time>
      </trkpt>
      <trkpt lat="47.00002" lon="5.82196">
        <ele>268</ele>
        <time>2022-03-17T13:53:01.389Z</time>
      </trkpt>
      <trkpt lat="47.00007" lon="5.822">
        <ele>268</ele>
        <time>2022-03-17T13:53:06.369Z</time>
      </trkpt>
      <trkpt lat="47.00012" lon="5.82203">
        <ele>268</ele>
        <time>2022-03-17T13:53:11.337Z</time>
      </trkpt>
      <trkpt lat="47.00018" lon="5.82204">
        <ele>268</ele>
        <time>2022-03-17T13:53:16.370Z</time>
      </trkpt>
      <trkpt lat="47.00023" lon="5.82206">
        <ele>268</ele>
        <time>2022-03-17T13:53:21.359Z</time>
      </trkpt>
      <trkpt lat="47.00029" lon="5.82211">
        <ele>263</ele>
        <time>2022-03-17T13:53:26.361Z</time>
      </trkpt>
      <trkpt lat="47.00033" lon="5.82215">
        <ele>263</ele>
        <time>2022-03-17T13:53:31.376Z</time>
      </trkpt>
      <trkpt lat="47.00038" lon="5.82218">
        <ele>263</ele>
        <time>2022-03-17T13:53:36.354Z</time>
      </trkpt>
      <trkpt lat="47.00041" lon="5.8222">
        <ele>263</ele>
        <time>2022-03-17T13:53:41.347Z</time>
      </trkpt>
      <trkpt lat="47.00045" lon="5.82224">
        <ele>260</ele>
        <time>2022-03-17T13:53:46.381Z</time>
      </trkpt>
      <trkpt lat="47.00049" lon="5.82228">
        <ele>260</ele>
        <time>2022-03-17T13:53:51.330Z</time>
      </trkpt>
      <trkpt lat="47.00051" lon="5.82229">
        <ele>260</ele>
        <time>2022-03-17T13:53:56.405Z</time>
      </trkpt>
      <trkpt lat="47.00053" lon="5.82233">
        <ele>260</ele>
        <time>2022-03-17T13:54:01.380Z</time>
      </trkpt>
      <trkpt lat="47.00057" lon="5.82238">
        <ele>258</ele>
        <time>2022-03-17T13:54:06.351Z</time>
      </trkpt>
      <trkpt lat="47.0006" lon="5.82238">
        <ele>258</ele>
        <time>2022-03-17T13:54:10.402Z</time>
      </trkpt>
      <trkpt lat="47.0006" lon="5.82238">
        <ele>258</ele>
        <time>2022-03-17T13:54:15.329Z</time>
      </trkpt>
      <trkpt lat="47.00063" lon="5.82243">
        <ele>258</ele>
        <time>2022-03-17T13:54:19.367Z</time>
      </trkpt>
      <trkpt lat="47.00066" lon="5.82247">
        <ele>258</ele>
        <time>2022-03-17T13:54:24.392Z</time>
      </trkpt>
      <trkpt lat="47.00069" lon="5.82249">
        <ele>258</ele>
        <time>2022-03-17T13:54:28.360Z</time>
      </trkpt>
      <trkpt lat="47.00071" lon="5.82253">
        <ele>257</ele>
        <time>2022-03-17T13:54:33.363Z</time>
      </trkpt>
      <trkpt lat="47.00073" lon="5.82258">
        <ele>257</ele>
        <time>2022-03-17T13:54:38.375Z</time>
      </trkpt>
      <trkpt lat="47.00074" lon="5.82259">
        <ele>257</ele>
        <time>2022-03-17T13:54:43.335Z</time>
      </trkpt>
      <trkpt lat="47.00075" lon="5.82263">
        <ele>257</ele>
        <time>2022-03-17T13:54:48.347Z</time>
      </trkpt>
      <trkpt lat="47.00077" lon="5.82267">
        <ele>257</ele>
        <time>2022-03-17T13:54:53.355Z</time>
      </trkpt>
      <trkpt lat="47.00079" lon="5.82266">
        <ele>257</ele>
        <time>2022-03-17T13:54:58.377Z</time>
      </trkpt>
      <trkpt lat="47.00081" lon="5.82263">
        <ele>257</ele>
        <time>2022-03-17T13:55:03.345Z</time>
      </trkpt>
      <trkpt lat="47.00084" lon="5.82264">
        <ele>257</ele>
        <time>2022-03-17T13:55:08.352Z</time>
      </trkpt>
      <trkpt lat="47.00086" lon="5.82263">
        <ele>257</ele>
        <time>2022-03-17T13:55:12.354Z</time>
      </trkpt>
      <trkpt lat="47.0009" lon="5.82262">
        <ele>257</ele>
        <time>2022-03-17T13:55:17.332Z</time>
      </trkpt>
      <trkpt lat="47.00096" lon="5.8226">
        <ele>257</ele>
        <time>2022-03-17T13:55:22.348Z</time>
      </trkpt>
      <trkpt lat="47.00102" lon="5.8226">
        <ele>256</ele>
        <time>2022-03-17T13:55:27.348Z</time>
      </trkpt>
      <trkpt lat="47.00107" lon="5.82259">
        <ele>256</ele>
        <time>2022-03-17T13:55:32.314Z</time>
      </trkpt>
      <trkpt lat="47.00111" lon="5.82256">
        <ele>256</ele>
        <time>2022-03-17T13:55:37.291Z</time>
      </trkpt>
      <trkpt lat="47.00114" lon="5.82249">
        <ele>256</ele>
        <time>2022-03-17T13:55:46.338Z</time>
      </trkpt>
      <trkpt lat="47.00115" lon="5.82247">
        <ele>256</ele>
        <time>2022-03-17T13:55:50.360Z</time>
      </trkpt>
      <trkpt lat="47.00117" lon="5.82247">
        <ele>256</ele>
        <time>2022-03-17T13:55:55.371Z</time>
      </trkpt>
      <trkpt lat="47.0012" lon="5.82247">
        <ele>256</ele>
        <time>2022-03-17T13:56:09.359Z</time>
      </trkpt>
      <trkpt lat="47.00123" lon="5.82246">
        <ele>256</ele>
        <time>2022-03-17T13:56:14.378Z</time>
      </trkpt>
      <trkpt lat="47.0013" lon="5.82248">
        <ele>255</ele>
        <time>2022-03-17T13:56:19.299Z</time>
      </trkpt>
      <trkpt lat="47.00133" lon="5.82248">
        <ele>255</ele>
        <time>2022-03-17T13:56:24.311Z</time>
      </trkpt>
      <trkpt lat="47.00138" lon="5.82249">
        <ele>255</ele>
        <time>2022-03-17T13:56:29.315Z</time>
      </trkpt>
      <trkpt lat="47.00143" lon="5.82249">
        <ele>255</ele>
        <time>2022-03-17T13:56:33.362Z</time>
      </trkpt>
      <trkpt lat="47.00149" lon="5.8225">
        <ele>255</ele>
        <time>2022-03-17T13:56:38.296Z</time>
      </trkpt>
      <trkpt lat="47.00154" lon="5.82248">
        <ele>256</ele>
        <time>2022-03-17T13:56:43.330Z</time>
      </trkpt>
      <trkpt lat="47.00161" lon="5.82251">
        <ele>256</ele>
        <time>2022-03-17T13:56:48.292Z</time>
      </trkpt>
      <trkpt lat="47.00167" lon="5.82253">
        <ele>256</ele>
        <time>2022-03-17T13:56:52.376Z</time>
      </trkpt>
      <trkpt lat="47.00172" lon="5.82255">
        <ele>256</ele>
        <time>2022-03-17T13:56:57.357Z</time>
      </trkpt>
      <trkpt lat="47.00177" lon="5.82254">
        <ele>256</ele>
        <time>2022-03-17T13:57:02.334Z</time>
      </trkpt>
      <trkpt lat="47.00184" lon="5.82255">
        <ele>252</ele>
        <time>2022-03-17T13:57:07.356Z</time>
      </trkpt>
      <trkpt lat="47.00188" lon="5.82256">
        <ele>252</ele>
        <time>2022-03-17T13:57:12.344Z</time>
      </trkpt>
      <trkpt lat="47.00192" lon="5.82258">
        <ele>252</ele>
        <time>2022-03-17T13:57:17.356Z</time>
      </trkpt>
      <trkpt lat="47.00198" lon="5.82259">
        <ele>252</ele>
        <time>2022-03-17T13:57:22.352Z</time>
      </trkpt>
      <trkpt lat="47.00203" lon="5.82261">
        <ele>252</ele>
        <time>2022-03-17T13:57:26.368Z</time>
      </trkpt>
      <trkpt lat="47.00209" lon="5.82263">
        <ele>247</ele>
        <time>2022-03-17T13:57:31.360Z</time>
      </trkpt>
      <trkpt lat="47.00215" lon="5.82265">
        <ele>249</ele>
        <time>2022-03-17T13:57:36.386Z</time>
      </trkpt>
      <trkpt lat="47.00219" lon="5.82267">
        <ele>249</ele>
        <time>2022-03-17T13:57:40.386Z</time>
      </trkpt>
      <trkpt lat="47.00223" lon="5.82271">
        <ele>249</ele>
        <time>2022-03-17T13:57:45.323Z</time>
      </trkpt>
      <trkpt lat="47.00226" lon="5.82274">
        <ele>249</ele>
        <time>2022-03-17T13:57:49.337Z</time>
      </trkpt>
      <trkpt lat="47.00232" lon="5.82279">
        <ele>249</ele>
        <time>2022-03-17T13:57:54.373Z</time>
      </trkpt>
      <trkpt lat="47.00237" lon="5.82282">
        <ele>245</ele>
        <time>2022-03-17T13:57:59.408Z</time>
      </trkpt>
      <trkpt lat="47.00242" lon="5.82287">
        <ele>245</ele>
        <time>2022-03-17T13:58:04.397Z</time>
      </trkpt>
      <trkpt lat="47.00247" lon="5.8229">
        <ele>245</ele>
        <time>2022-03-17T13:58:09.376Z</time>
      </trkpt>
      <trkpt lat="47.00254" lon="5.82294">
        <ele>245</ele>
        <time>2022-03-17T13:58:14.417Z</time>
      </trkpt>
      <trkpt lat="47.0026" lon="5.82297">
        <ele>245</ele>
        <time>2022-03-17T13:58:19.366Z</time>
      </trkpt>
      <trkpt lat="47.00266" lon="5.823">
        <ele>245</ele>
        <time>2022-03-17T13:58:24.327Z</time>
      </trkpt>
      <trkpt lat="47.0027" lon="5.82305">
        <ele>245</ele>
        <time>2022-03-17T13:58:29.359Z</time>
      </trkpt>
      <trkpt lat="47.00275" lon="5.82311">
        <ele>245</ele>
        <time>2022-03-17T13:58:34.371Z</time>
      </trkpt>
      <trkpt lat="47.00282" lon="5.82316">
        <ele>245</ele>
        <time>2022-03-17T13:58:39.383Z</time>
      </trkpt>
      <trkpt lat="47.00287" lon="5.8232">
        <ele>245</ele>
        <time>2022-03-17T13:58:43.364Z</time>
      </trkpt>
      <trkpt lat="47.00291" lon="5.82324">
        <ele>245</ele>
        <time>2022-03-17T13:58:48.364Z</time>
      </trkpt>
      <trkpt lat="47.00295" lon="5.82327">
        <ele>246</ele>
        <time>2022-03-17T13:58:53.360Z</time>
      </trkpt>
      <trkpt lat="47.00299" lon="5.82333">
        <ele>246</ele>
        <time>2022-03-17T13:58:58.290Z</time>
      </trkpt>
      <trkpt lat="47.00303" lon="5.82336">
        <ele>246</ele>
        <time>2022-03-17T13:59:02.338Z</time>
      </trkpt>
      <trkpt lat="47.00308" lon="5.8234">
        <ele>246</ele>
        <time>2022-03-17T13:59:06.348Z</time>
      </trkpt>
      <trkpt lat="47.00314" lon="5.82344">
        <ele>246</ele>
        <time>2022-03-17T13:59:11.362Z</time>
      </trkpt>
      <trkpt lat="47.00319" lon="5.82348">
        <ele>245</ele>
        <time>2022-03-17T13:59:16.395Z</time>
      </trkpt>
      <trkpt lat="47.00323" lon="5.82349">
        <ele>246</ele>
        <time>2022-03-17T13:59:21.364Z</time>
      </trkpt>
      <trkpt lat="47.00328" lon="5.82348">
        <ele>246</ele>
        <time>2022-03-17T13:59:26.344Z</time>
      </trkpt>
      <trkpt lat="47.00335" lon="5.82347">
        <ele>248</ele>
        <time>2022-03-17T13:59:31.392Z</time>
      </trkpt>
      <trkpt lat="47.0034" lon="5.82344">
        <ele>248</ele>
        <time>2022-03-17T13:59:36.300Z</time>
      </trkpt>
      <trkpt lat="47.00347" lon="5.8234">
        <ele>248</ele>
        <time>2022-03-17T13:59:41.296Z</time>
      </trkpt>
      <trkpt lat="47.00352" lon="5.82337">
        <ele>249</ele>
        <time>2022-03-17T13:59:45.322Z</time>
      </trkpt>
      <trkpt lat="47.00356" lon="5.82333">
        <ele>249</ele>
        <time>2022-03-17T13:59:49.354Z</time>
      </trkpt>
      <trkpt lat="47.00359" lon="5.82326">
        <ele>249</ele>
        <time>2022-03-17T13:59:54.291Z</time>
      </trkpt>
      <trkpt lat="47.0036" lon="5.82319">
        <ele>250</ele>
        <time>2022-03-17T13:59:59.306Z</time>
      </trkpt>
      <trkpt lat="47.0036" lon="5.82312">
        <ele>250</ele>
        <time>2022-03-17T14:00:03.381Z</time>
      </trkpt>
      <trkpt lat="47.00362" lon="5.8231">
        <ele>250</ele>
        <time>2022-03-17T14:00:08.380Z</time>
      </trkpt>
      <trkpt lat="47.00364" lon="5.82305">
        <ele>250</ele>
        <time>2022-03-17T14:00:13.380Z</time>
      </trkpt>
      <trkpt lat="47.00365" lon="5.82301">
        <ele>250</ele>
        <time>2022-03-17T14:00:18.388Z</time>
      </trkpt>
      <trkpt lat="47.00366" lon="5.82295">
        <ele>250</ele>
        <time>2022-03-17T14:00:23.341Z</time>
      </trkpt>
    </trkseg>
  </trk>
</gpx>